<?xml version="1.0" encoding="UTF-8" standalone="no" ?>
<gpx xmlns="http://www.topografix.com/GPX/1/1" xmlns:xsi="http://www.w3.org/2001/XMLSchema-instance" xsi:schemaLocation="http://www.topografix.com/GPX/1/1 http://www.topografix.com/GPX/1/1/gpx.xsd" version="1.1" creator="VisuGPX - https://www.visugpx.com">
  <metadata>
    <name>Tuhou de Cloutou (Près de La Mongie 65)</name>
    <desc><![CDATA[Très belle ... et longue sortie. Crampons pour la montée au sommet. Trente centimètres de poudreuse tombée 48 heures auparavant. Exceptionnel en cette saison. Très beau paysage parsemé de pins à crochet. Pas mal de faux plats et un petit repeautage au retour mais une journée de rêve tout de même.]]></desc>
  </metadata>
  <trk>
    <name><![CDATA[Tuhou de Cloutou (Près de La Mongie 65)_1]]></name>
    <trkseg>
      <trkpt lat="42.9166" lon="0.20907">
        <ele>1417</ele>
        <time>2013-04-07T05:56:44Z</time>
      </trkpt>
      <trkpt lat="42.91658" lon="0.20943">
        <ele>1420</ele>
        <time>2013-04-07T05:57:11Z</time>
      </trkpt>
      <trkpt lat="42.91658" lon="0.20945">
        <ele>1420</ele>
        <time>2013-04-07T05:57:12Z</time>
      </trkpt>
      <trkpt lat="42.91658" lon="0.20947">
        <ele>1420</ele>
        <time>2013-04-07T05:57:13Z</time>
      </trkpt>
      <trkpt lat="42.91658" lon="0.20949">
        <ele>1420</ele>
        <time>2013-04-07T05:57:14Z</time>
      </trkpt>
      <trkpt lat="42.91659" lon="0.20951">
        <ele>1419</ele>
        <time>2013-04-07T05:57:15Z</time>
      </trkpt>
      <trkpt lat="42.91659" lon="0.20952">
        <ele>1419</ele>
        <time>2013-04-07T05:57:16Z</time>
      </trkpt>
      <trkpt lat="42.9166" lon="0.20954">
        <ele>1419</ele>
        <time>2013-04-07T05:57:17Z</time>
      </trkpt>
      <trkpt lat="42.9166" lon="0.20956">
        <ele>1419</ele>
        <time>2013-04-07T05:57:19Z</time>
      </trkpt>
      <trkpt lat="42.91658" lon="0.20958">
        <ele>1418</ele>
        <time>2013-04-07T05:57:21Z</time>
      </trkpt>
      <trkpt lat="42.91656" lon="0.20958">
        <ele>1418</ele>
        <time>2013-04-07T05:57:23Z</time>
      </trkpt>
      <trkpt lat="42.91654" lon="0.20959">
        <ele>1417</ele>
        <time>2013-04-07T05:57:25Z</time>
      </trkpt>
      <trkpt lat="42.91652" lon="0.2096">
        <ele>1416</ele>
        <time>2013-04-07T05:57:27Z</time>
      </trkpt>
      <trkpt lat="42.9165" lon="0.2096">
        <ele>1416</ele>
        <time>2013-04-07T05:57:29Z</time>
      </trkpt>
      <trkpt lat="42.91649" lon="0.20962">
        <ele>1416</ele>
        <time>2013-04-07T05:57:32Z</time>
      </trkpt>
      <trkpt lat="42.91647" lon="0.20963">
        <ele>1415</ele>
        <time>2013-04-07T05:57:43Z</time>
      </trkpt>
      <trkpt lat="42.91646" lon="0.20965">
        <ele>1415</ele>
        <time>2013-04-07T05:57:46Z</time>
      </trkpt>
      <trkpt lat="42.91645" lon="0.20966">
        <ele>1415</ele>
        <time>2013-04-07T05:57:49Z</time>
      </trkpt>
      <trkpt lat="42.91643" lon="0.20968">
        <ele>1415</ele>
        <time>2013-04-07T05:57:52Z</time>
      </trkpt>
      <trkpt lat="42.91642" lon="0.2097">
        <ele>1415</ele>
        <time>2013-04-07T05:57:54Z</time>
      </trkpt>
      <trkpt lat="42.91642" lon="0.20972">
        <ele>1415</ele>
        <time>2013-04-07T05:57:56Z</time>
      </trkpt>
      <trkpt lat="42.91642" lon="0.20974">
        <ele>1415</ele>
        <time>2013-04-07T05:57:58Z</time>
      </trkpt>
      <trkpt lat="42.91641" lon="0.20975">
        <ele>1415</ele>
        <time>2013-04-07T05:58:00Z</time>
      </trkpt>
      <trkpt lat="42.9164" lon="0.20977">
        <ele>1415</ele>
        <time>2013-04-07T05:58:03Z</time>
      </trkpt>
      <trkpt lat="42.9164" lon="0.20979">
        <ele>1415</ele>
        <time>2013-04-07T05:58:05Z</time>
      </trkpt>
      <trkpt lat="42.91639" lon="0.20981">
        <ele>1415</ele>
        <time>2013-04-07T05:58:07Z</time>
      </trkpt>
      <trkpt lat="42.91639" lon="0.20982">
        <ele>1415</ele>
        <time>2013-04-07T05:58:09Z</time>
      </trkpt>
      <trkpt lat="42.91639" lon="0.20984">
        <ele>1415</ele>
        <time>2013-04-07T05:58:11Z</time>
      </trkpt>
      <trkpt lat="42.91639" lon="0.20986">
        <ele>1416</ele>
        <time>2013-04-07T05:58:14Z</time>
      </trkpt>
      <trkpt lat="42.91637" lon="0.20986">
        <ele>1416</ele>
        <time>2013-04-07T05:58:16Z</time>
      </trkpt>
      <trkpt lat="42.91636" lon="0.20988">
        <ele>1416</ele>
        <time>2013-04-07T05:58:19Z</time>
      </trkpt>
      <trkpt lat="42.91634" lon="0.20988">
        <ele>1416</ele>
        <time>2013-04-07T05:58:21Z</time>
      </trkpt>
      <trkpt lat="42.91632" lon="0.20989">
        <ele>1416</ele>
        <time>2013-04-07T05:58:23Z</time>
      </trkpt>
      <trkpt lat="42.91631" lon="0.2099">
        <ele>1417</ele>
        <time>2013-04-07T05:58:25Z</time>
      </trkpt>
      <trkpt lat="42.9163" lon="0.20992">
        <ele>1417</ele>
        <time>2013-04-07T05:58:27Z</time>
      </trkpt>
      <trkpt lat="42.91629" lon="0.20994">
        <ele>1417</ele>
        <time>2013-04-07T05:58:29Z</time>
      </trkpt>
      <trkpt lat="42.91628" lon="0.20995">
        <ele>1418</ele>
        <time>2013-04-07T05:58:31Z</time>
      </trkpt>
      <trkpt lat="42.91628" lon="0.20997">
        <ele>1418</ele>
        <time>2013-04-07T05:58:33Z</time>
      </trkpt>
      <trkpt lat="42.91627" lon="0.20999">
        <ele>1419</ele>
        <time>2013-04-07T05:58:36Z</time>
      </trkpt>
      <trkpt lat="42.91627" lon="0.21001">
        <ele>1419</ele>
        <time>2013-04-07T05:58:39Z</time>
      </trkpt>
      <trkpt lat="42.91626" lon="0.21002">
        <ele>1420</ele>
        <time>2013-04-07T05:58:42Z</time>
      </trkpt>
      <trkpt lat="42.91625" lon="0.21003">
        <ele>1420</ele>
        <time>2013-04-07T05:58:45Z</time>
      </trkpt>
      <trkpt lat="42.91624" lon="0.21002">
        <ele>1421</ele>
        <time>2013-04-07T05:58:48Z</time>
      </trkpt>
      <trkpt lat="42.91623" lon="0.21002">
        <ele>1422</ele>
        <time>2013-04-07T05:58:51Z</time>
      </trkpt>
      <trkpt lat="42.91624" lon="0.21002">
        <ele>1424</ele>
        <time>2013-04-07T05:58:57Z</time>
      </trkpt>
      <trkpt lat="42.91624" lon="0.21">
        <ele>1427</ele>
        <time>2013-04-07T05:59:20Z</time>
      </trkpt>
      <trkpt lat="42.91622" lon="0.21">
        <ele>1427</ele>
        <time>2013-04-07T05:59:30Z</time>
      </trkpt>
      <trkpt lat="42.91622" lon="0.20998">
        <ele>1430</ele>
        <time>2013-04-07T05:59:38Z</time>
      </trkpt>
      <trkpt lat="42.91621" lon="0.20997">
        <ele>1431</ele>
        <time>2013-04-07T05:59:41Z</time>
      </trkpt>
      <trkpt lat="42.9162" lon="0.20998">
        <ele>1432</ele>
        <time>2013-04-07T05:59:43Z</time>
      </trkpt>
      <trkpt lat="42.91621" lon="0.20999">
        <ele>1432</ele>
        <time>2013-04-07T06:00:02Z</time>
      </trkpt>
      <trkpt lat="42.91622" lon="0.21">
        <ele>1430</ele>
        <time>2013-04-07T06:00:47Z</time>
      </trkpt>
      <trkpt lat="42.91623" lon="0.21002">
        <ele>1430</ele>
        <time>2013-04-07T06:01:09Z</time>
      </trkpt>
      <trkpt lat="42.91621" lon="0.21002">
        <ele>1429</ele>
        <time>2013-04-07T06:01:30Z</time>
      </trkpt>
      <trkpt lat="42.9162" lon="0.21001">
        <ele>1429</ele>
        <time>2013-04-07T06:02:05Z</time>
      </trkpt>
      <trkpt lat="42.91619" lon="0.21001">
        <ele>1429</ele>
        <time>2013-04-07T06:02:12Z</time>
      </trkpt>
      <trkpt lat="42.91618" lon="0.21002">
        <ele>1429</ele>
        <time>2013-04-07T06:02:14Z</time>
      </trkpt>
      <trkpt lat="42.91616" lon="0.21003">
        <ele>1429</ele>
        <time>2013-04-07T06:02:16Z</time>
      </trkpt>
      <trkpt lat="42.91615" lon="0.21003">
        <ele>1429</ele>
        <time>2013-04-07T06:02:20Z</time>
      </trkpt>
      <trkpt lat="42.91613" lon="0.21004">
        <ele>1429</ele>
        <time>2013-04-07T06:02:22Z</time>
      </trkpt>
      <trkpt lat="42.91611" lon="0.21005">
        <ele>1429</ele>
        <time>2013-04-07T06:02:24Z</time>
      </trkpt>
      <trkpt lat="42.9161" lon="0.21006">
        <ele>1429</ele>
        <time>2013-04-07T06:02:26Z</time>
      </trkpt>
      <trkpt lat="42.91608" lon="0.21008">
        <ele>1429</ele>
        <time>2013-04-07T06:02:28Z</time>
      </trkpt>
      <trkpt lat="42.91606" lon="0.21009">
        <ele>1429</ele>
        <time>2013-04-07T06:02:30Z</time>
      </trkpt>
      <trkpt lat="42.91605" lon="0.21011">
        <ele>1429</ele>
        <time>2013-04-07T06:02:32Z</time>
      </trkpt>
      <trkpt lat="42.91604" lon="0.21012">
        <ele>1429</ele>
        <time>2013-04-07T06:02:34Z</time>
      </trkpt>
      <trkpt lat="42.91603" lon="0.21014">
        <ele>1429</ele>
        <time>2013-04-07T06:02:36Z</time>
      </trkpt>
      <trkpt lat="42.91602" lon="0.21015">
        <ele>1429</ele>
        <time>2013-04-07T06:02:38Z</time>
      </trkpt>
      <trkpt lat="42.91601" lon="0.21017">
        <ele>1429</ele>
        <time>2013-04-07T06:02:40Z</time>
      </trkpt>
      <trkpt lat="42.916" lon="0.21019">
        <ele>1429</ele>
        <time>2013-04-07T06:02:42Z</time>
      </trkpt>
      <trkpt lat="42.916" lon="0.21021">
        <ele>1429</ele>
        <time>2013-04-07T06:02:44Z</time>
      </trkpt>
      <trkpt lat="42.91599" lon="0.21022">
        <ele>1429</ele>
        <time>2013-04-07T06:02:46Z</time>
      </trkpt>
      <trkpt lat="42.91599" lon="0.21024">
        <ele>1429</ele>
        <time>2013-04-07T06:02:48Z</time>
      </trkpt>
      <trkpt lat="42.91598" lon="0.21026">
        <ele>1429</ele>
        <time>2013-04-07T06:02:50Z</time>
      </trkpt>
      <trkpt lat="42.91597" lon="0.21028">
        <ele>1429</ele>
        <time>2013-04-07T06:02:52Z</time>
      </trkpt>
      <trkpt lat="42.91597" lon="0.2103">
        <ele>1429</ele>
        <time>2013-04-07T06:02:54Z</time>
      </trkpt>
      <trkpt lat="42.91596" lon="0.21032">
        <ele>1429</ele>
        <time>2013-04-07T06:02:56Z</time>
      </trkpt>
      <trkpt lat="42.91596" lon="0.21034">
        <ele>1429</ele>
        <time>2013-04-07T06:02:58Z</time>
      </trkpt>
      <trkpt lat="42.91595" lon="0.21037">
        <ele>1429</ele>
        <time>2013-04-07T06:03:00Z</time>
      </trkpt>
      <trkpt lat="42.91595" lon="0.21039">
        <ele>1429</ele>
        <time>2013-04-07T06:03:02Z</time>
      </trkpt>
      <trkpt lat="42.91595" lon="0.21041">
        <ele>1429</ele>
        <time>2013-04-07T06:03:04Z</time>
      </trkpt>
      <trkpt lat="42.91595" lon="0.21044">
        <ele>1429</ele>
        <time>2013-04-07T06:03:06Z</time>
      </trkpt>
      <trkpt lat="42.91595" lon="0.21046">
        <ele>1429</ele>
        <time>2013-04-07T06:03:08Z</time>
      </trkpt>
      <trkpt lat="42.91595" lon="0.21048">
        <ele>1429</ele>
        <time>2013-04-07T06:03:10Z</time>
      </trkpt>
      <trkpt lat="42.91594" lon="0.2105">
        <ele>1429</ele>
        <time>2013-04-07T06:03:12Z</time>
      </trkpt>
      <trkpt lat="42.91594" lon="0.21053">
        <ele>1430</ele>
        <time>2013-04-07T06:03:14Z</time>
      </trkpt>
      <trkpt lat="42.91594" lon="0.21055">
        <ele>1430</ele>
        <time>2013-04-07T06:03:16Z</time>
      </trkpt>
      <trkpt lat="42.91594" lon="0.21057">
        <ele>1430</ele>
        <time>2013-04-07T06:03:18Z</time>
      </trkpt>
      <trkpt lat="42.91594" lon="0.21059">
        <ele>1430</ele>
        <time>2013-04-07T06:03:20Z</time>
      </trkpt>
      <trkpt lat="42.91594" lon="0.21061">
        <ele>1430</ele>
        <time>2013-04-07T06:03:21Z</time>
      </trkpt>
      <trkpt lat="42.91594" lon="0.21062">
        <ele>1430</ele>
        <time>2013-04-07T06:03:23Z</time>
      </trkpt>
      <trkpt lat="42.91594" lon="0.21064">
        <ele>1430</ele>
        <time>2013-04-07T06:03:25Z</time>
      </trkpt>
      <trkpt lat="42.91594" lon="0.21066">
        <ele>1430</ele>
        <time>2013-04-07T06:03:27Z</time>
      </trkpt>
      <trkpt lat="42.91594" lon="0.21068">
        <ele>1430</ele>
        <time>2013-04-07T06:03:29Z</time>
      </trkpt>
      <trkpt lat="42.91594" lon="0.21069">
        <ele>1430</ele>
        <time>2013-04-07T06:03:31Z</time>
      </trkpt>
      <trkpt lat="42.91593" lon="0.21071">
        <ele>1431</ele>
        <time>2013-04-07T06:03:33Z</time>
      </trkpt>
      <trkpt lat="42.91593" lon="0.21073">
        <ele>1431</ele>
        <time>2013-04-07T06:03:35Z</time>
      </trkpt>
      <trkpt lat="42.91593" lon="0.21075">
        <ele>1431</ele>
        <time>2013-04-07T06:03:37Z</time>
      </trkpt>
      <trkpt lat="42.91593" lon="0.21076">
        <ele>1432</ele>
        <time>2013-04-07T06:03:39Z</time>
      </trkpt>
      <trkpt lat="42.91593" lon="0.21078">
        <ele>1432</ele>
        <time>2013-04-07T06:03:41Z</time>
      </trkpt>
      <trkpt lat="42.91592" lon="0.2108">
        <ele>1432</ele>
        <time>2013-04-07T06:03:43Z</time>
      </trkpt>
      <trkpt lat="42.91592" lon="0.21082">
        <ele>1432</ele>
        <time>2013-04-07T06:03:45Z</time>
      </trkpt>
      <trkpt lat="42.91592" lon="0.21084">
        <ele>1432</ele>
        <time>2013-04-07T06:03:47Z</time>
      </trkpt>
      <trkpt lat="42.91592" lon="0.21086">
        <ele>1433</ele>
        <time>2013-04-07T06:03:49Z</time>
      </trkpt>
      <trkpt lat="42.91591" lon="0.21088">
        <ele>1433</ele>
        <time>2013-04-07T06:03:51Z</time>
      </trkpt>
      <trkpt lat="42.91591" lon="0.2109">
        <ele>1433</ele>
        <time>2013-04-07T06:03:53Z</time>
      </trkpt>
      <trkpt lat="42.91591" lon="0.21092">
        <ele>1434</ele>
        <time>2013-04-07T06:03:55Z</time>
      </trkpt>
      <trkpt lat="42.9159" lon="0.21094">
        <ele>1434</ele>
        <time>2013-04-07T06:03:58Z</time>
      </trkpt>
      <trkpt lat="42.9159" lon="0.21096">
        <ele>1435</ele>
        <time>2013-04-07T06:03:59Z</time>
      </trkpt>
      <trkpt lat="42.9159" lon="0.21098">
        <ele>1435</ele>
        <time>2013-04-07T06:04:01Z</time>
      </trkpt>
      <trkpt lat="42.91589" lon="0.21101">
        <ele>1435</ele>
        <time>2013-04-07T06:04:03Z</time>
      </trkpt>
      <trkpt lat="42.91589" lon="0.21102">
        <ele>1436</ele>
        <time>2013-04-07T06:04:05Z</time>
      </trkpt>
      <trkpt lat="42.91589" lon="0.21104">
        <ele>1436</ele>
        <time>2013-04-07T06:04:07Z</time>
      </trkpt>
      <trkpt lat="42.91588" lon="0.21106">
        <ele>1436</ele>
        <time>2013-04-07T06:04:09Z</time>
      </trkpt>
      <trkpt lat="42.91588" lon="0.21108">
        <ele>1437</ele>
        <time>2013-04-07T06:04:11Z</time>
      </trkpt>
      <trkpt lat="42.91587" lon="0.2111">
        <ele>1437</ele>
        <time>2013-04-07T06:04:13Z</time>
      </trkpt>
      <trkpt lat="42.91587" lon="0.21111">
        <ele>1437</ele>
        <time>2013-04-07T06:04:15Z</time>
      </trkpt>
      <trkpt lat="42.91586" lon="0.21113">
        <ele>1437</ele>
        <time>2013-04-07T06:04:17Z</time>
      </trkpt>
      <trkpt lat="42.91586" lon="0.21115">
        <ele>1438</ele>
        <time>2013-04-07T06:04:19Z</time>
      </trkpt>
      <trkpt lat="42.91586" lon="0.21116">
        <ele>1438</ele>
        <time>2013-04-07T06:04:21Z</time>
      </trkpt>
      <trkpt lat="42.91585" lon="0.21118">
        <ele>1438</ele>
        <time>2013-04-07T06:04:23Z</time>
      </trkpt>
      <trkpt lat="42.91585" lon="0.2112">
        <ele>1438</ele>
        <time>2013-04-07T06:04:25Z</time>
      </trkpt>
      <trkpt lat="42.91584" lon="0.21121">
        <ele>1439</ele>
        <time>2013-04-07T06:04:27Z</time>
      </trkpt>
      <trkpt lat="42.91584" lon="0.21123">
        <ele>1439</ele>
        <time>2013-04-07T06:04:29Z</time>
      </trkpt>
      <trkpt lat="42.91584" lon="0.21124">
        <ele>1439</ele>
        <time>2013-04-07T06:04:42Z</time>
      </trkpt>
      <trkpt lat="42.91583" lon="0.21126">
        <ele>1439</ele>
        <time>2013-04-07T06:04:45Z</time>
      </trkpt>
      <trkpt lat="42.91583" lon="0.21128">
        <ele>1439</ele>
        <time>2013-04-07T06:04:47Z</time>
      </trkpt>
      <trkpt lat="42.91583" lon="0.21129">
        <ele>1440</ele>
        <time>2013-04-07T06:04:49Z</time>
      </trkpt>
      <trkpt lat="42.91583" lon="0.21131">
        <ele>1440</ele>
        <time>2013-04-07T06:04:51Z</time>
      </trkpt>
      <trkpt lat="42.91583" lon="0.21133">
        <ele>1440</ele>
        <time>2013-04-07T06:04:53Z</time>
      </trkpt>
      <trkpt lat="42.91582" lon="0.21134">
        <ele>1441</ele>
        <time>2013-04-07T06:04:55Z</time>
      </trkpt>
      <trkpt lat="42.91582" lon="0.21136">
        <ele>1441</ele>
        <time>2013-04-07T06:04:57Z</time>
      </trkpt>
      <trkpt lat="42.91583" lon="0.21138">
        <ele>1442</ele>
        <time>2013-04-07T06:04:59Z</time>
      </trkpt>
      <trkpt lat="42.91583" lon="0.21139">
        <ele>1442</ele>
        <time>2013-04-07T06:05:01Z</time>
      </trkpt>
      <trkpt lat="42.91583" lon="0.21141">
        <ele>1444</ele>
        <time>2013-04-07T06:05:08Z</time>
      </trkpt>
      <trkpt lat="42.91582" lon="0.2114">
        <ele>1444</ele>
        <time>2013-04-07T06:05:11Z</time>
      </trkpt>
      <trkpt lat="42.9158" lon="0.21139">
        <ele>1444</ele>
        <time>2013-04-07T06:05:14Z</time>
      </trkpt>
      <trkpt lat="42.91579" lon="0.21138">
        <ele>1445</ele>
        <time>2013-04-07T06:05:17Z</time>
      </trkpt>
      <trkpt lat="42.91577" lon="0.21137">
        <ele>1446</ele>
        <time>2013-04-07T06:05:20Z</time>
      </trkpt>
      <trkpt lat="42.91575" lon="0.21136">
        <ele>1447</ele>
        <time>2013-04-07T06:05:23Z</time>
      </trkpt>
      <trkpt lat="42.91573" lon="0.21135">
        <ele>1447</ele>
        <time>2013-04-07T06:05:26Z</time>
      </trkpt>
      <trkpt lat="42.91572" lon="0.21135">
        <ele>1447</ele>
        <time>2013-04-07T06:05:28Z</time>
      </trkpt>
      <trkpt lat="42.91572" lon="0.21136">
        <ele>1447</ele>
        <time>2013-04-07T06:05:30Z</time>
      </trkpt>
      <trkpt lat="42.91572" lon="0.21138">
        <ele>1447</ele>
        <time>2013-04-07T06:05:32Z</time>
      </trkpt>
      <trkpt lat="42.91573" lon="0.2114">
        <ele>1447</ele>
        <time>2013-04-07T06:05:34Z</time>
      </trkpt>
      <trkpt lat="42.91573" lon="0.21142">
        <ele>1447</ele>
        <time>2013-04-07T06:05:36Z</time>
      </trkpt>
      <trkpt lat="42.91573" lon="0.21144">
        <ele>1448</ele>
        <time>2013-04-07T06:05:38Z</time>
      </trkpt>
      <trkpt lat="42.91573" lon="0.21146">
        <ele>1448</ele>
        <time>2013-04-07T06:05:40Z</time>
      </trkpt>
      <trkpt lat="42.91573" lon="0.21148">
        <ele>1449</ele>
        <time>2013-04-07T06:05:42Z</time>
      </trkpt>
      <trkpt lat="42.91574" lon="0.2115">
        <ele>1449</ele>
        <time>2013-04-07T06:05:44Z</time>
      </trkpt>
      <trkpt lat="42.91574" lon="0.21152">
        <ele>1449</ele>
        <time>2013-04-07T06:05:46Z</time>
      </trkpt>
      <trkpt lat="42.91575" lon="0.21153">
        <ele>1450</ele>
        <time>2013-04-07T06:05:48Z</time>
      </trkpt>
      <trkpt lat="42.91573" lon="0.21152">
        <ele>1450</ele>
        <time>2013-04-07T06:05:56Z</time>
      </trkpt>
      <trkpt lat="42.91572" lon="0.21151">
        <ele>1450</ele>
        <time>2013-04-07T06:05:59Z</time>
      </trkpt>
      <trkpt lat="42.9157" lon="0.21149">
        <ele>1450</ele>
        <time>2013-04-07T06:06:03Z</time>
      </trkpt>
      <trkpt lat="42.91569" lon="0.21147">
        <ele>1451</ele>
        <time>2013-04-07T06:06:06Z</time>
      </trkpt>
      <trkpt lat="42.91568" lon="0.21146">
        <ele>1452</ele>
        <time>2013-04-07T06:06:08Z</time>
      </trkpt>
      <trkpt lat="42.91566" lon="0.21145">
        <ele>1452</ele>
        <time>2013-04-07T06:06:11Z</time>
      </trkpt>
      <trkpt lat="42.91565" lon="0.21143">
        <ele>1452</ele>
        <time>2013-04-07T06:06:14Z</time>
      </trkpt>
      <trkpt lat="42.91565" lon="0.21141">
        <ele>1453</ele>
        <time>2013-04-07T06:06:16Z</time>
      </trkpt>
      <trkpt lat="42.91564" lon="0.21139">
        <ele>1455</ele>
        <time>2013-04-07T06:06:24Z</time>
      </trkpt>
      <trkpt lat="42.91563" lon="0.21139">
        <ele>1455</ele>
        <time>2013-04-07T06:06:28Z</time>
      </trkpt>
      <trkpt lat="42.91563" lon="0.2114">
        <ele>1455</ele>
        <time>2013-04-07T06:06:33Z</time>
      </trkpt>
      <trkpt lat="42.91563" lon="0.21142">
        <ele>1455</ele>
        <time>2013-04-07T06:06:36Z</time>
      </trkpt>
      <trkpt lat="42.91563" lon="0.21144">
        <ele>1455</ele>
        <time>2013-04-07T06:06:38Z</time>
      </trkpt>
      <trkpt lat="42.91563" lon="0.21146">
        <ele>1456</ele>
        <time>2013-04-07T06:06:40Z</time>
      </trkpt>
      <trkpt lat="42.91563" lon="0.21147">
        <ele>1456</ele>
        <time>2013-04-07T06:06:42Z</time>
      </trkpt>
      <trkpt lat="42.91563" lon="0.21149">
        <ele>1456</ele>
        <time>2013-04-07T06:06:44Z</time>
      </trkpt>
      <trkpt lat="42.91563" lon="0.21151">
        <ele>1457</ele>
        <time>2013-04-07T06:06:46Z</time>
      </trkpt>
      <trkpt lat="42.91563" lon="0.21153">
        <ele>1457</ele>
        <time>2013-04-07T06:06:48Z</time>
      </trkpt>
      <trkpt lat="42.91563" lon="0.21155">
        <ele>1457</ele>
        <time>2013-04-07T06:06:50Z</time>
      </trkpt>
      <trkpt lat="42.91563" lon="0.21157">
        <ele>1457</ele>
        <time>2013-04-07T06:06:52Z</time>
      </trkpt>
      <trkpt lat="42.91563" lon="0.21159">
        <ele>1458</ele>
        <time>2013-04-07T06:06:54Z</time>
      </trkpt>
      <trkpt lat="42.91563" lon="0.2116">
        <ele>1458</ele>
        <time>2013-04-07T06:06:56Z</time>
      </trkpt>
      <trkpt lat="42.91563" lon="0.21162">
        <ele>1458</ele>
        <time>2013-04-07T06:06:58Z</time>
      </trkpt>
      <trkpt lat="42.91564" lon="0.21164">
        <ele>1458</ele>
        <time>2013-04-07T06:07:00Z</time>
      </trkpt>
      <trkpt lat="42.91564" lon="0.21166">
        <ele>1458</ele>
        <time>2013-04-07T06:07:02Z</time>
      </trkpt>
      <trkpt lat="42.91564" lon="0.21168">
        <ele>1459</ele>
        <time>2013-04-07T06:07:04Z</time>
      </trkpt>
      <trkpt lat="42.91564" lon="0.2117">
        <ele>1459</ele>
        <time>2013-04-07T06:07:06Z</time>
      </trkpt>
      <trkpt lat="42.91565" lon="0.21172">
        <ele>1459</ele>
        <time>2013-04-07T06:07:08Z</time>
      </trkpt>
      <trkpt lat="42.91565" lon="0.21173">
        <ele>1460</ele>
        <time>2013-04-07T06:07:10Z</time>
      </trkpt>
      <trkpt lat="42.91565" lon="0.21175">
        <ele>1460</ele>
        <time>2013-04-07T06:07:12Z</time>
      </trkpt>
      <trkpt lat="42.91565" lon="0.21177">
        <ele>1461</ele>
        <time>2013-04-07T06:07:15Z</time>
      </trkpt>
      <trkpt lat="42.91566" lon="0.21179">
        <ele>1462</ele>
        <time>2013-04-07T06:07:18Z</time>
      </trkpt>
      <trkpt lat="42.91566" lon="0.21181">
        <ele>1462</ele>
        <time>2013-04-07T06:07:21Z</time>
      </trkpt>
      <trkpt lat="42.91567" lon="0.21183">
        <ele>1463</ele>
        <time>2013-04-07T06:07:24Z</time>
      </trkpt>
      <trkpt lat="42.91568" lon="0.21184">
        <ele>1463</ele>
        <time>2013-04-07T06:07:26Z</time>
      </trkpt>
      <trkpt lat="42.91568" lon="0.21186">
        <ele>1464</ele>
        <time>2013-04-07T06:07:28Z</time>
      </trkpt>
      <trkpt lat="42.91569" lon="0.21187">
        <ele>1464</ele>
        <time>2013-04-07T06:07:30Z</time>
      </trkpt>
      <trkpt lat="42.9157" lon="0.21189">
        <ele>1465</ele>
        <time>2013-04-07T06:07:32Z</time>
      </trkpt>
      <trkpt lat="42.91571" lon="0.2119">
        <ele>1465</ele>
        <time>2013-04-07T06:07:34Z</time>
      </trkpt>
      <trkpt lat="42.91571" lon="0.21192">
        <ele>1466</ele>
        <time>2013-04-07T06:07:37Z</time>
      </trkpt>
      <trkpt lat="42.91573" lon="0.21193">
        <ele>1467</ele>
        <time>2013-04-07T06:07:40Z</time>
      </trkpt>
      <trkpt lat="42.91574" lon="0.21195">
        <ele>1467</ele>
        <time>2013-04-07T06:07:43Z</time>
      </trkpt>
      <trkpt lat="42.91573" lon="0.21196">
        <ele>1469</ele>
        <time>2013-04-07T06:07:53Z</time>
      </trkpt>
      <trkpt lat="42.91571" lon="0.21197">
        <ele>1469</ele>
        <time>2013-04-07T06:07:55Z</time>
      </trkpt>
      <trkpt lat="42.9157" lon="0.21197">
        <ele>1469</ele>
        <time>2013-04-07T06:07:57Z</time>
      </trkpt>
      <trkpt lat="42.91569" lon="0.21198">
        <ele>1469</ele>
        <time>2013-04-07T06:07:59Z</time>
      </trkpt>
      <trkpt lat="42.91568" lon="0.21197">
        <ele>1470</ele>
        <time>2013-04-07T06:08:02Z</time>
      </trkpt>
      <trkpt lat="42.91566" lon="0.21198">
        <ele>1471</ele>
        <time>2013-04-07T06:08:04Z</time>
      </trkpt>
      <trkpt lat="42.91565" lon="0.21198">
        <ele>1471</ele>
        <time>2013-04-07T06:08:06Z</time>
      </trkpt>
      <trkpt lat="42.91564" lon="0.21199">
        <ele>1471</ele>
        <time>2013-04-07T06:08:08Z</time>
      </trkpt>
      <trkpt lat="42.91563" lon="0.21199">
        <ele>1471</ele>
        <time>2013-04-07T06:08:11Z</time>
      </trkpt>
      <trkpt lat="42.91561" lon="0.21198">
        <ele>1471</ele>
        <time>2013-04-07T06:08:13Z</time>
      </trkpt>
      <trkpt lat="42.9156" lon="0.21199">
        <ele>1471</ele>
        <time>2013-04-07T06:08:15Z</time>
      </trkpt>
      <trkpt lat="42.91559" lon="0.21198">
        <ele>1471</ele>
        <time>2013-04-07T06:08:17Z</time>
      </trkpt>
      <trkpt lat="42.91558" lon="0.21197">
        <ele>1472</ele>
        <time>2013-04-07T06:08:20Z</time>
      </trkpt>
      <trkpt lat="42.91558" lon="0.21199">
        <ele>1474</ele>
        <time>2013-04-07T06:08:23Z</time>
      </trkpt>
      <trkpt lat="42.91559" lon="0.21201">
        <ele>1474</ele>
        <time>2013-04-07T06:08:25Z</time>
      </trkpt>
      <trkpt lat="42.9156" lon="0.21203">
        <ele>1474</ele>
        <time>2013-04-07T06:08:27Z</time>
      </trkpt>
      <trkpt lat="42.91561" lon="0.21204">
        <ele>1474</ele>
        <time>2013-04-07T06:08:29Z</time>
      </trkpt>
      <trkpt lat="42.91562" lon="0.21206">
        <ele>1474</ele>
        <time>2013-04-07T06:08:31Z</time>
      </trkpt>
      <trkpt lat="42.91563" lon="0.21208">
        <ele>1474</ele>
        <time>2013-04-07T06:08:33Z</time>
      </trkpt>
      <trkpt lat="42.91565" lon="0.2121">
        <ele>1474</ele>
        <time>2013-04-07T06:08:35Z</time>
      </trkpt>
      <trkpt lat="42.91565" lon="0.21212">
        <ele>1475</ele>
        <time>2013-04-07T06:08:37Z</time>
      </trkpt>
      <trkpt lat="42.91566" lon="0.21213">
        <ele>1475</ele>
        <time>2013-04-07T06:08:39Z</time>
      </trkpt>
      <trkpt lat="42.91568" lon="0.21214">
        <ele>1476</ele>
        <time>2013-04-07T06:08:41Z</time>
      </trkpt>
      <trkpt lat="42.91568" lon="0.21216">
        <ele>1476</ele>
        <time>2013-04-07T06:08:43Z</time>
      </trkpt>
      <trkpt lat="42.9157" lon="0.21217">
        <ele>1476</ele>
        <time>2013-04-07T06:08:46Z</time>
      </trkpt>
      <trkpt lat="42.91571" lon="0.21219">
        <ele>1476</ele>
        <time>2013-04-07T06:08:48Z</time>
      </trkpt>
      <trkpt lat="42.91572" lon="0.21221">
        <ele>1477</ele>
        <time>2013-04-07T06:08:51Z</time>
      </trkpt>
      <trkpt lat="42.91573" lon="0.21223">
        <ele>1478</ele>
        <time>2013-04-07T06:08:54Z</time>
      </trkpt>
      <trkpt lat="42.91573" lon="0.21225">
        <ele>1478</ele>
        <time>2013-04-07T06:08:56Z</time>
      </trkpt>
      <trkpt lat="42.91572" lon="0.21226">
        <ele>1478</ele>
        <time>2013-04-07T06:08:58Z</time>
      </trkpt>
      <trkpt lat="42.91572" lon="0.21228">
        <ele>1479</ele>
        <time>2013-04-07T06:09:00Z</time>
      </trkpt>
      <trkpt lat="42.91572" lon="0.21229">
        <ele>1479</ele>
        <time>2013-04-07T06:09:02Z</time>
      </trkpt>
      <trkpt lat="42.91571" lon="0.21231">
        <ele>1480</ele>
        <time>2013-04-07T06:09:04Z</time>
      </trkpt>
      <trkpt lat="42.91571" lon="0.21232">
        <ele>1480</ele>
        <time>2013-04-07T06:09:06Z</time>
      </trkpt>
      <trkpt lat="42.91571" lon="0.21234">
        <ele>1480</ele>
        <time>2013-04-07T06:09:08Z</time>
      </trkpt>
      <trkpt lat="42.91571" lon="0.21235">
        <ele>1481</ele>
        <time>2013-04-07T06:09:10Z</time>
      </trkpt>
      <trkpt lat="42.91571" lon="0.21237">
        <ele>1481</ele>
        <time>2013-04-07T06:09:12Z</time>
      </trkpt>
      <trkpt lat="42.9157" lon="0.21238">
        <ele>1482</ele>
        <time>2013-04-07T06:09:14Z</time>
      </trkpt>
      <trkpt lat="42.9157" lon="0.2124">
        <ele>1482</ele>
        <time>2013-04-07T06:09:16Z</time>
      </trkpt>
      <trkpt lat="42.9157" lon="0.21241">
        <ele>1482</ele>
        <time>2013-04-07T06:09:18Z</time>
      </trkpt>
      <trkpt lat="42.9157" lon="0.21243">
        <ele>1483</ele>
        <time>2013-04-07T06:09:20Z</time>
      </trkpt>
      <trkpt lat="42.9157" lon="0.21245">
        <ele>1483</ele>
        <time>2013-04-07T06:09:22Z</time>
      </trkpt>
      <trkpt lat="42.9157" lon="0.21247">
        <ele>1483</ele>
        <time>2013-04-07T06:09:24Z</time>
      </trkpt>
      <trkpt lat="42.9157" lon="0.21249">
        <ele>1483</ele>
        <time>2013-04-07T06:09:26Z</time>
      </trkpt>
      <trkpt lat="42.9157" lon="0.2125">
        <ele>1484</ele>
        <time>2013-04-07T06:09:28Z</time>
      </trkpt>
      <trkpt lat="42.91569" lon="0.21252">
        <ele>1484</ele>
        <time>2013-04-07T06:09:30Z</time>
      </trkpt>
      <trkpt lat="42.91569" lon="0.21254">
        <ele>1484</ele>
        <time>2013-04-07T06:09:32Z</time>
      </trkpt>
      <trkpt lat="42.91569" lon="0.21256">
        <ele>1485</ele>
        <time>2013-04-07T06:09:35Z</time>
      </trkpt>
      <trkpt lat="42.91569" lon="0.21257">
        <ele>1486</ele>
        <time>2013-04-07T06:09:38Z</time>
      </trkpt>
      <trkpt lat="42.9157" lon="0.21259">
        <ele>1486</ele>
        <time>2013-04-07T06:09:40Z</time>
      </trkpt>
      <trkpt lat="42.9157" lon="0.21261">
        <ele>1487</ele>
        <time>2013-04-07T06:09:43Z</time>
      </trkpt>
      <trkpt lat="42.9157" lon="0.21263">
        <ele>1487</ele>
        <time>2013-04-07T06:09:46Z</time>
      </trkpt>
      <trkpt lat="42.9157" lon="0.21264">
        <ele>1488</ele>
        <time>2013-04-07T06:09:48Z</time>
      </trkpt>
      <trkpt lat="42.9157" lon="0.21266">
        <ele>1488</ele>
        <time>2013-04-07T06:09:50Z</time>
      </trkpt>
      <trkpt lat="42.91571" lon="0.21268">
        <ele>1488</ele>
        <time>2013-04-07T06:09:53Z</time>
      </trkpt>
      <trkpt lat="42.91571" lon="0.2127">
        <ele>1489</ele>
        <time>2013-04-07T06:09:56Z</time>
      </trkpt>
      <trkpt lat="42.91571" lon="0.21271">
        <ele>1489</ele>
        <time>2013-04-07T06:09:58Z</time>
      </trkpt>
      <trkpt lat="42.91571" lon="0.21273">
        <ele>1490</ele>
        <time>2013-04-07T06:10:00Z</time>
      </trkpt>
      <trkpt lat="42.91572" lon="0.21275">
        <ele>1490</ele>
        <time>2013-04-07T06:10:03Z</time>
      </trkpt>
      <trkpt lat="42.91572" lon="0.21276">
        <ele>1491</ele>
        <time>2013-04-07T06:10:05Z</time>
      </trkpt>
      <trkpt lat="42.91573" lon="0.21278">
        <ele>1492</ele>
        <time>2013-04-07T06:10:08Z</time>
      </trkpt>
      <trkpt lat="42.91574" lon="0.2128">
        <ele>1492</ele>
        <time>2013-04-07T06:10:11Z</time>
      </trkpt>
      <trkpt lat="42.91574" lon="0.21281">
        <ele>1492</ele>
        <time>2013-04-07T06:10:13Z</time>
      </trkpt>
      <trkpt lat="42.91576" lon="0.21283">
        <ele>1493</ele>
        <time>2013-04-07T06:10:16Z</time>
      </trkpt>
      <trkpt lat="42.91577" lon="0.21284">
        <ele>1493</ele>
        <time>2013-04-07T06:10:18Z</time>
      </trkpt>
      <trkpt lat="42.91578" lon="0.21286">
        <ele>1494</ele>
        <time>2013-04-07T06:10:21Z</time>
      </trkpt>
      <trkpt lat="42.91579" lon="0.21287">
        <ele>1494</ele>
        <time>2013-04-07T06:10:24Z</time>
      </trkpt>
      <trkpt lat="42.9158" lon="0.21289">
        <ele>1495</ele>
        <time>2013-04-07T06:10:27Z</time>
      </trkpt>
      <trkpt lat="42.91581" lon="0.21291">
        <ele>1495</ele>
        <time>2013-04-07T06:10:30Z</time>
      </trkpt>
      <trkpt lat="42.91583" lon="0.21292">
        <ele>1496</ele>
        <time>2013-04-07T06:10:33Z</time>
      </trkpt>
      <trkpt lat="42.91584" lon="0.21293">
        <ele>1496</ele>
        <time>2013-04-07T06:10:36Z</time>
      </trkpt>
      <trkpt lat="42.91585" lon="0.21295">
        <ele>1496</ele>
        <time>2013-04-07T06:10:39Z</time>
      </trkpt>
      <trkpt lat="42.91586" lon="0.21296">
        <ele>1497</ele>
        <time>2013-04-07T06:10:42Z</time>
      </trkpt>
      <trkpt lat="42.91587" lon="0.21297">
        <ele>1497</ele>
        <time>2013-04-07T06:10:45Z</time>
      </trkpt>
      <trkpt lat="42.91589" lon="0.21299">
        <ele>1497</ele>
        <time>2013-04-07T06:10:48Z</time>
      </trkpt>
      <trkpt lat="42.9159" lon="0.213">
        <ele>1498</ele>
        <time>2013-04-07T06:10:51Z</time>
      </trkpt>
      <trkpt lat="42.91591" lon="0.21301">
        <ele>1499</ele>
        <time>2013-04-07T06:10:54Z</time>
      </trkpt>
      <trkpt lat="42.91592" lon="0.21302">
        <ele>1499</ele>
        <time>2013-04-07T06:10:58Z</time>
      </trkpt>
      <trkpt lat="42.91594" lon="0.21304">
        <ele>1499</ele>
        <time>2013-04-07T06:11:00Z</time>
      </trkpt>
      <trkpt lat="42.91595" lon="0.21305">
        <ele>1500</ele>
        <time>2013-04-07T06:11:03Z</time>
      </trkpt>
      <trkpt lat="42.91596" lon="0.21305">
        <ele>1500</ele>
        <time>2013-04-07T06:11:05Z</time>
      </trkpt>
      <trkpt lat="42.91595" lon="0.21305">
        <ele>1501</ele>
        <time>2013-04-07T06:11:10Z</time>
      </trkpt>
      <trkpt lat="42.91593" lon="0.21305">
        <ele>1501</ele>
        <time>2013-04-07T06:11:12Z</time>
      </trkpt>
      <trkpt lat="42.91592" lon="0.21306">
        <ele>1501</ele>
        <time>2013-04-07T06:11:14Z</time>
      </trkpt>
      <trkpt lat="42.91591" lon="0.21306">
        <ele>1501</ele>
        <time>2013-04-07T06:11:16Z</time>
      </trkpt>
      <trkpt lat="42.91589" lon="0.21307">
        <ele>1502</ele>
        <time>2013-04-07T06:11:18Z</time>
      </trkpt>
      <trkpt lat="42.91588" lon="0.21307">
        <ele>1503</ele>
        <time>2013-04-07T06:11:21Z</time>
      </trkpt>
      <trkpt lat="42.91587" lon="0.21308">
        <ele>1503</ele>
        <time>2013-04-07T06:11:24Z</time>
      </trkpt>
      <trkpt lat="42.91586" lon="0.21309">
        <ele>1503</ele>
        <time>2013-04-07T06:11:27Z</time>
      </trkpt>
      <trkpt lat="42.91584" lon="0.21309">
        <ele>1503</ele>
        <time>2013-04-07T06:11:29Z</time>
      </trkpt>
      <trkpt lat="42.91583" lon="0.2131">
        <ele>1503</ele>
        <time>2013-04-07T06:11:32Z</time>
      </trkpt>
      <trkpt lat="42.91582" lon="0.2131">
        <ele>1503</ele>
        <time>2013-04-07T06:11:34Z</time>
      </trkpt>
      <trkpt lat="42.9158" lon="0.21309">
        <ele>1503</ele>
        <time>2013-04-07T06:11:36Z</time>
      </trkpt>
      <trkpt lat="42.91579" lon="0.21309">
        <ele>1503</ele>
        <time>2013-04-07T06:11:39Z</time>
      </trkpt>
      <trkpt lat="42.9158" lon="0.21311">
        <ele>1503</ele>
        <time>2013-04-07T06:11:43Z</time>
      </trkpt>
      <trkpt lat="42.91581" lon="0.21313">
        <ele>1503</ele>
        <time>2013-04-07T06:11:46Z</time>
      </trkpt>
      <trkpt lat="42.91583" lon="0.21315">
        <ele>1504</ele>
        <time>2013-04-07T06:11:49Z</time>
      </trkpt>
      <trkpt lat="42.91584" lon="0.21317">
        <ele>1504</ele>
        <time>2013-04-07T06:11:52Z</time>
      </trkpt>
      <trkpt lat="42.91585" lon="0.21318">
        <ele>1504</ele>
        <time>2013-04-07T06:11:55Z</time>
      </trkpt>
      <trkpt lat="42.91587" lon="0.21319">
        <ele>1505</ele>
        <time>2013-04-07T06:11:58Z</time>
      </trkpt>
      <trkpt lat="42.91588" lon="0.21321">
        <ele>1506</ele>
        <time>2013-04-07T06:12:01Z</time>
      </trkpt>
      <trkpt lat="42.91589" lon="0.21322">
        <ele>1507</ele>
        <time>2013-04-07T06:12:04Z</time>
      </trkpt>
      <trkpt lat="42.9159" lon="0.21323">
        <ele>1507</ele>
        <time>2013-04-07T06:12:06Z</time>
      </trkpt>
      <trkpt lat="42.91592" lon="0.21324">
        <ele>1508</ele>
        <time>2013-04-07T06:12:09Z</time>
      </trkpt>
      <trkpt lat="42.91593" lon="0.21325">
        <ele>1508</ele>
        <time>2013-04-07T06:12:12Z</time>
      </trkpt>
      <trkpt lat="42.91594" lon="0.21326">
        <ele>1509</ele>
        <time>2013-04-07T06:12:15Z</time>
      </trkpt>
      <trkpt lat="42.91595" lon="0.21328">
        <ele>1510</ele>
        <time>2013-04-07T06:12:20Z</time>
      </trkpt>
      <trkpt lat="42.91594" lon="0.21329">
        <ele>1511</ele>
        <time>2013-04-07T06:12:24Z</time>
      </trkpt>
      <trkpt lat="42.91592" lon="0.2133">
        <ele>1511</ele>
        <time>2013-04-07T06:12:27Z</time>
      </trkpt>
      <trkpt lat="42.91591" lon="0.21331">
        <ele>1512</ele>
        <time>2013-04-07T06:12:29Z</time>
      </trkpt>
      <trkpt lat="42.91589" lon="0.21331">
        <ele>1513</ele>
        <time>2013-04-07T06:12:32Z</time>
      </trkpt>
      <trkpt lat="42.91588" lon="0.21332">
        <ele>1513</ele>
        <time>2013-04-07T06:12:35Z</time>
      </trkpt>
      <trkpt lat="42.91586" lon="0.21332">
        <ele>1514</ele>
        <time>2013-04-07T06:12:38Z</time>
      </trkpt>
      <trkpt lat="42.91585" lon="0.21332">
        <ele>1514</ele>
        <time>2013-04-07T06:12:40Z</time>
      </trkpt>
      <trkpt lat="42.91584" lon="0.21332">
        <ele>1515</ele>
        <time>2013-04-07T06:12:42Z</time>
      </trkpt>
      <trkpt lat="42.91582" lon="0.21332">
        <ele>1516</ele>
        <time>2013-04-07T06:12:45Z</time>
      </trkpt>
      <trkpt lat="42.91581" lon="0.21332">
        <ele>1516</ele>
        <time>2013-04-07T06:12:47Z</time>
      </trkpt>
      <trkpt lat="42.9158" lon="0.21331">
        <ele>1517</ele>
        <time>2013-04-07T06:12:50Z</time>
      </trkpt>
      <trkpt lat="42.91579" lon="0.21331">
        <ele>1517</ele>
        <time>2013-04-07T06:12:52Z</time>
      </trkpt>
      <trkpt lat="42.91577" lon="0.21331">
        <ele>1517</ele>
        <time>2013-04-07T06:12:54Z</time>
      </trkpt>
      <trkpt lat="42.91576" lon="0.21331">
        <ele>1517</ele>
        <time>2013-04-07T06:12:59Z</time>
      </trkpt>
      <trkpt lat="42.91577" lon="0.21333">
        <ele>1517</ele>
        <time>2013-04-07T06:13:06Z</time>
      </trkpt>
      <trkpt lat="42.91578" lon="0.21335">
        <ele>1517</ele>
        <time>2013-04-07T06:13:08Z</time>
      </trkpt>
      <trkpt lat="42.91578" lon="0.21336">
        <ele>1517</ele>
        <time>2013-04-07T06:13:10Z</time>
      </trkpt>
      <trkpt lat="42.91579" lon="0.21338">
        <ele>1517</ele>
        <time>2013-04-07T06:13:12Z</time>
      </trkpt>
      <trkpt lat="42.91579" lon="0.21339">
        <ele>1517</ele>
        <time>2013-04-07T06:13:14Z</time>
      </trkpt>
      <trkpt lat="42.9158" lon="0.21341">
        <ele>1517</ele>
        <time>2013-04-07T06:13:16Z</time>
      </trkpt>
      <trkpt lat="42.91581" lon="0.21342">
        <ele>1517</ele>
        <time>2013-04-07T06:13:18Z</time>
      </trkpt>
      <trkpt lat="42.91582" lon="0.21344">
        <ele>1517</ele>
        <time>2013-04-07T06:13:21Z</time>
      </trkpt>
      <trkpt lat="42.91582" lon="0.21346">
        <ele>1518</ele>
        <time>2013-04-07T06:13:24Z</time>
      </trkpt>
      <trkpt lat="42.91583" lon="0.21348">
        <ele>1518</ele>
        <time>2013-04-07T06:13:27Z</time>
      </trkpt>
      <trkpt lat="42.91584" lon="0.21349">
        <ele>1519</ele>
        <time>2013-04-07T06:13:30Z</time>
      </trkpt>
      <trkpt lat="42.91584" lon="0.21351">
        <ele>1519</ele>
        <time>2013-04-07T06:13:32Z</time>
      </trkpt>
      <trkpt lat="42.91585" lon="0.21352">
        <ele>1519</ele>
        <time>2013-04-07T06:13:34Z</time>
      </trkpt>
      <trkpt lat="42.91586" lon="0.21354">
        <ele>1520</ele>
        <time>2013-04-07T06:13:37Z</time>
      </trkpt>
      <trkpt lat="42.91588" lon="0.21355">
        <ele>1520</ele>
        <time>2013-04-07T06:13:39Z</time>
      </trkpt>
      <trkpt lat="42.91587" lon="0.21355">
        <ele>1521</ele>
        <time>2013-04-07T06:13:49Z</time>
      </trkpt>
      <trkpt lat="42.91585" lon="0.21355">
        <ele>1521</ele>
        <time>2013-04-07T06:13:51Z</time>
      </trkpt>
      <trkpt lat="42.91584" lon="0.21355">
        <ele>1521</ele>
        <time>2013-04-07T06:13:54Z</time>
      </trkpt>
      <trkpt lat="42.91582" lon="0.21355">
        <ele>1522</ele>
        <time>2013-04-07T06:13:57Z</time>
      </trkpt>
      <trkpt lat="42.91581" lon="0.21355">
        <ele>1522</ele>
        <time>2013-04-07T06:13:59Z</time>
      </trkpt>
      <trkpt lat="42.91581" lon="0.21356">
        <ele>1524</ele>
        <time>2013-04-07T06:14:06Z</time>
      </trkpt>
      <trkpt lat="42.91582" lon="0.21358">
        <ele>1524</ele>
        <time>2013-04-07T06:14:09Z</time>
      </trkpt>
      <trkpt lat="42.91584" lon="0.2136">
        <ele>1524</ele>
        <time>2013-04-07T06:14:11Z</time>
      </trkpt>
      <trkpt lat="42.91585" lon="0.21361">
        <ele>1524</ele>
        <time>2013-04-07T06:14:13Z</time>
      </trkpt>
      <trkpt lat="42.91587" lon="0.21362">
        <ele>1525</ele>
        <time>2013-04-07T06:14:16Z</time>
      </trkpt>
      <trkpt lat="42.91588" lon="0.21363">
        <ele>1525</ele>
        <time>2013-04-07T06:14:18Z</time>
      </trkpt>
      <trkpt lat="42.91589" lon="0.21364">
        <ele>1525</ele>
        <time>2013-04-07T06:14:20Z</time>
      </trkpt>
      <trkpt lat="42.9159" lon="0.21365">
        <ele>1526</ele>
        <time>2013-04-07T06:14:22Z</time>
      </trkpt>
      <trkpt lat="42.91591" lon="0.21367">
        <ele>1526</ele>
        <time>2013-04-07T06:14:25Z</time>
      </trkpt>
      <trkpt lat="42.91593" lon="0.21369">
        <ele>1527</ele>
        <time>2013-04-07T06:14:28Z</time>
      </trkpt>
      <trkpt lat="42.91594" lon="0.2137">
        <ele>1527</ele>
        <time>2013-04-07T06:14:31Z</time>
      </trkpt>
      <trkpt lat="42.91595" lon="0.21372">
        <ele>1527</ele>
        <time>2013-04-07T06:14:34Z</time>
      </trkpt>
      <trkpt lat="42.91596" lon="0.21373">
        <ele>1527</ele>
        <time>2013-04-07T06:14:36Z</time>
      </trkpt>
      <trkpt lat="42.91598" lon="0.21374">
        <ele>1527</ele>
        <time>2013-04-07T06:14:39Z</time>
      </trkpt>
      <trkpt lat="42.91598" lon="0.21376">
        <ele>1528</ele>
        <time>2013-04-07T06:14:48Z</time>
      </trkpt>
      <trkpt lat="42.91597" lon="0.21377">
        <ele>1528</ele>
        <time>2013-04-07T06:14:51Z</time>
      </trkpt>
      <trkpt lat="42.91596" lon="0.21379">
        <ele>1528</ele>
        <time>2013-04-07T06:14:54Z</time>
      </trkpt>
      <trkpt lat="42.91595" lon="0.21381">
        <ele>1528</ele>
        <time>2013-04-07T06:14:56Z</time>
      </trkpt>
      <trkpt lat="42.91595" lon="0.21382">
        <ele>1529</ele>
        <time>2013-04-07T06:14:58Z</time>
      </trkpt>
      <trkpt lat="42.91594" lon="0.21384">
        <ele>1529</ele>
        <time>2013-04-07T06:15:01Z</time>
      </trkpt>
      <trkpt lat="42.91593" lon="0.21386">
        <ele>1529</ele>
        <time>2013-04-07T06:15:04Z</time>
      </trkpt>
      <trkpt lat="42.91591" lon="0.21387">
        <ele>1530</ele>
        <time>2013-04-07T06:15:07Z</time>
      </trkpt>
      <trkpt lat="42.9159" lon="0.21388">
        <ele>1530</ele>
        <time>2013-04-07T06:15:10Z</time>
      </trkpt>
      <trkpt lat="42.91589" lon="0.21389">
        <ele>1530</ele>
        <time>2013-04-07T06:15:12Z</time>
      </trkpt>
      <trkpt lat="42.91587" lon="0.21389">
        <ele>1531</ele>
        <time>2013-04-07T06:15:14Z</time>
      </trkpt>
      <trkpt lat="42.91586" lon="0.21389">
        <ele>1531</ele>
        <time>2013-04-07T06:15:17Z</time>
      </trkpt>
      <trkpt lat="42.91584" lon="0.21389">
        <ele>1532</ele>
        <time>2013-04-07T06:15:20Z</time>
      </trkpt>
      <trkpt lat="42.91583" lon="0.21391">
        <ele>1532</ele>
        <time>2013-04-07T06:15:24Z</time>
      </trkpt>
      <trkpt lat="42.91583" lon="0.21393">
        <ele>1533</ele>
        <time>2013-04-07T06:15:27Z</time>
      </trkpt>
      <trkpt lat="42.91583" lon="0.21394">
        <ele>1533</ele>
        <time>2013-04-07T06:15:29Z</time>
      </trkpt>
      <trkpt lat="42.91583" lon="0.21396">
        <ele>1533</ele>
        <time>2013-04-07T06:15:31Z</time>
      </trkpt>
      <trkpt lat="42.91583" lon="0.21397">
        <ele>1533</ele>
        <time>2013-04-07T06:15:33Z</time>
      </trkpt>
      <trkpt lat="42.91583" lon="0.21399">
        <ele>1534</ele>
        <time>2013-04-07T06:15:35Z</time>
      </trkpt>
      <trkpt lat="42.91583" lon="0.21401">
        <ele>1534</ele>
        <time>2013-04-07T06:15:37Z</time>
      </trkpt>
      <trkpt lat="42.91583" lon="0.21403">
        <ele>1535</ele>
        <time>2013-04-07T06:15:42Z</time>
      </trkpt>
      <trkpt lat="42.91583" lon="0.21404">
        <ele>1535</ele>
        <time>2013-04-07T06:15:44Z</time>
      </trkpt>
      <trkpt lat="42.91582" lon="0.21406">
        <ele>1535</ele>
        <time>2013-04-07T06:15:46Z</time>
      </trkpt>
      <trkpt lat="42.91582" lon="0.21407">
        <ele>1536</ele>
        <time>2013-04-07T06:15:48Z</time>
      </trkpt>
      <trkpt lat="42.91582" lon="0.21409">
        <ele>1536</ele>
        <time>2013-04-07T06:15:50Z</time>
      </trkpt>
      <trkpt lat="42.91581" lon="0.21411">
        <ele>1537</ele>
        <time>2013-04-07T06:15:52Z</time>
      </trkpt>
      <trkpt lat="42.91581" lon="0.21413">
        <ele>1537</ele>
        <time>2013-04-07T06:15:54Z</time>
      </trkpt>
      <trkpt lat="42.91581" lon="0.21414">
        <ele>1537</ele>
        <time>2013-04-07T06:15:56Z</time>
      </trkpt>
      <trkpt lat="42.9158" lon="0.21416">
        <ele>1538</ele>
        <time>2013-04-07T06:15:58Z</time>
      </trkpt>
      <trkpt lat="42.91579" lon="0.21418">
        <ele>1538</ele>
        <time>2013-04-07T06:16:00Z</time>
      </trkpt>
      <trkpt lat="42.91579" lon="0.21419">
        <ele>1539</ele>
        <time>2013-04-07T06:16:02Z</time>
      </trkpt>
      <trkpt lat="42.91579" lon="0.21421">
        <ele>1539</ele>
        <time>2013-04-07T06:16:04Z</time>
      </trkpt>
      <trkpt lat="42.91578" lon="0.21423">
        <ele>1540</ele>
        <time>2013-04-07T06:16:06Z</time>
      </trkpt>
      <trkpt lat="42.91577" lon="0.21424">
        <ele>1540</ele>
        <time>2013-04-07T06:16:08Z</time>
      </trkpt>
      <trkpt lat="42.91576" lon="0.21426">
        <ele>1540</ele>
        <time>2013-04-07T06:16:10Z</time>
      </trkpt>
      <trkpt lat="42.91576" lon="0.21427">
        <ele>1541</ele>
        <time>2013-04-07T06:16:12Z</time>
      </trkpt>
      <trkpt lat="42.91575" lon="0.21429">
        <ele>1541</ele>
        <time>2013-04-07T06:16:14Z</time>
      </trkpt>
      <trkpt lat="42.91574" lon="0.2143">
        <ele>1542</ele>
        <time>2013-04-07T06:16:16Z</time>
      </trkpt>
      <trkpt lat="42.91573" lon="0.21432">
        <ele>1542</ele>
        <time>2013-04-07T06:16:18Z</time>
      </trkpt>
      <trkpt lat="42.91573" lon="0.21434">
        <ele>1542</ele>
        <time>2013-04-07T06:16:20Z</time>
      </trkpt>
      <trkpt lat="42.91572" lon="0.21436">
        <ele>1543</ele>
        <time>2013-04-07T06:16:22Z</time>
      </trkpt>
      <trkpt lat="42.91572" lon="0.21437">
        <ele>1543</ele>
        <time>2013-04-07T06:16:24Z</time>
      </trkpt>
      <trkpt lat="42.91571" lon="0.21439">
        <ele>1543</ele>
        <time>2013-04-07T06:16:26Z</time>
      </trkpt>
      <trkpt lat="42.9157" lon="0.21441">
        <ele>1543</ele>
        <time>2013-04-07T06:16:28Z</time>
      </trkpt>
      <trkpt lat="42.9157" lon="0.21443">
        <ele>1544</ele>
        <time>2013-04-07T06:16:30Z</time>
      </trkpt>
      <trkpt lat="42.9157" lon="0.21444">
        <ele>1545</ele>
        <time>2013-04-07T06:16:43Z</time>
      </trkpt>
      <trkpt lat="42.91568" lon="0.21444">
        <ele>1545</ele>
        <time>2013-04-07T06:17:05Z</time>
      </trkpt>
      <trkpt lat="42.91569" lon="0.21445">
        <ele>1545</ele>
        <time>2013-04-07T06:17:32Z</time>
      </trkpt>
      <trkpt lat="42.91567" lon="0.21447">
        <ele>1545</ele>
        <time>2013-04-07T06:17:48Z</time>
      </trkpt>
      <trkpt lat="42.91568" lon="0.21445">
        <ele>1545</ele>
        <time>2013-04-07T06:17:56Z</time>
      </trkpt>
      <trkpt lat="42.91569" lon="0.21444">
        <ele>1545</ele>
        <time>2013-04-07T06:18:01Z</time>
      </trkpt>
      <trkpt lat="42.91571" lon="0.21445">
        <ele>1545</ele>
        <time>2013-04-07T06:18:19Z</time>
      </trkpt>
      <trkpt lat="42.91569" lon="0.21447">
        <ele>1545</ele>
        <time>2013-04-07T06:18:51Z</time>
      </trkpt>
      <trkpt lat="42.91568" lon="0.21449">
        <ele>1545</ele>
        <time>2013-04-07T06:19:06Z</time>
      </trkpt>
      <trkpt lat="42.91567" lon="0.21451">
        <ele>1545</ele>
        <time>2013-04-07T06:19:08Z</time>
      </trkpt>
      <trkpt lat="42.91566" lon="0.21453">
        <ele>1545</ele>
        <time>2013-04-07T06:19:10Z</time>
      </trkpt>
      <trkpt lat="42.91566" lon="0.21456">
        <ele>1546</ele>
        <time>2013-04-07T06:19:12Z</time>
      </trkpt>
      <trkpt lat="42.91565" lon="0.21458">
        <ele>1546</ele>
        <time>2013-04-07T06:19:14Z</time>
      </trkpt>
      <trkpt lat="42.91564" lon="0.2146">
        <ele>1546</ele>
        <time>2013-04-07T06:19:16Z</time>
      </trkpt>
      <trkpt lat="42.91563" lon="0.21463">
        <ele>1547</ele>
        <time>2013-04-07T06:19:18Z</time>
      </trkpt>
      <trkpt lat="42.91563" lon="0.21465">
        <ele>1547</ele>
        <time>2013-04-07T06:19:20Z</time>
      </trkpt>
      <trkpt lat="42.91562" lon="0.21466">
        <ele>1547</ele>
        <time>2013-04-07T06:19:21Z</time>
      </trkpt>
      <trkpt lat="42.91562" lon="0.21468">
        <ele>1547</ele>
        <time>2013-04-07T06:19:22Z</time>
      </trkpt>
      <trkpt lat="42.91561" lon="0.2147">
        <ele>1547</ele>
        <time>2013-04-07T06:19:24Z</time>
      </trkpt>
      <trkpt lat="42.9156" lon="0.21472">
        <ele>1548</ele>
        <time>2013-04-07T06:19:32Z</time>
      </trkpt>
      <trkpt lat="42.91559" lon="0.21475">
        <ele>1548</ele>
        <time>2013-04-07T06:19:34Z</time>
      </trkpt>
      <trkpt lat="42.91558" lon="0.21476">
        <ele>1548</ele>
        <time>2013-04-07T06:19:35Z</time>
      </trkpt>
      <trkpt lat="42.91557" lon="0.21479">
        <ele>1548</ele>
        <time>2013-04-07T06:19:37Z</time>
      </trkpt>
      <trkpt lat="42.91557" lon="0.2148">
        <ele>1548</ele>
        <time>2013-04-07T06:19:38Z</time>
      </trkpt>
      <trkpt lat="42.91556" lon="0.21483">
        <ele>1548</ele>
        <time>2013-04-07T06:19:40Z</time>
      </trkpt>
      <trkpt lat="42.91555" lon="0.21485">
        <ele>1548</ele>
        <time>2013-04-07T06:19:42Z</time>
      </trkpt>
      <trkpt lat="42.91554" lon="0.21487">
        <ele>1548</ele>
        <time>2013-04-07T06:19:44Z</time>
      </trkpt>
      <trkpt lat="42.91552" lon="0.2149">
        <ele>1548</ele>
        <time>2013-04-07T06:19:46Z</time>
      </trkpt>
      <trkpt lat="42.91552" lon="0.21492">
        <ele>1548</ele>
        <time>2013-04-07T06:19:48Z</time>
      </trkpt>
      <trkpt lat="42.91551" lon="0.21494">
        <ele>1548</ele>
        <time>2013-04-07T06:19:49Z</time>
      </trkpt>
      <trkpt lat="42.9155" lon="0.21496">
        <ele>1548</ele>
        <time>2013-04-07T06:19:51Z</time>
      </trkpt>
      <trkpt lat="42.91549" lon="0.21498">
        <ele>1548</ele>
        <time>2013-04-07T06:19:53Z</time>
      </trkpt>
      <trkpt lat="42.91549" lon="0.21501">
        <ele>1548</ele>
        <time>2013-04-07T06:19:55Z</time>
      </trkpt>
      <trkpt lat="42.91548" lon="0.21503">
        <ele>1548</ele>
        <time>2013-04-07T06:19:57Z</time>
      </trkpt>
      <trkpt lat="42.91547" lon="0.21505">
        <ele>1549</ele>
        <time>2013-04-07T06:19:59Z</time>
      </trkpt>
      <trkpt lat="42.91547" lon="0.21507">
        <ele>1549</ele>
        <time>2013-04-07T06:20:00Z</time>
      </trkpt>
      <trkpt lat="42.91546" lon="0.21509">
        <ele>1550</ele>
        <time>2013-04-07T06:20:02Z</time>
      </trkpt>
      <trkpt lat="42.91545" lon="0.21511">
        <ele>1551</ele>
        <time>2013-04-07T06:20:04Z</time>
      </trkpt>
      <trkpt lat="42.91545" lon="0.21513">
        <ele>1551</ele>
        <time>2013-04-07T06:20:05Z</time>
      </trkpt>
      <trkpt lat="42.91545" lon="0.21515">
        <ele>1552</ele>
        <time>2013-04-07T06:20:07Z</time>
      </trkpt>
      <trkpt lat="42.91544" lon="0.21518">
        <ele>1553</ele>
        <time>2013-04-07T06:20:09Z</time>
      </trkpt>
      <trkpt lat="42.91544" lon="0.2152">
        <ele>1553</ele>
        <time>2013-04-07T06:20:11Z</time>
      </trkpt>
      <trkpt lat="42.91543" lon="0.21522">
        <ele>1554</ele>
        <time>2013-04-07T06:20:13Z</time>
      </trkpt>
      <trkpt lat="42.91543" lon="0.21524">
        <ele>1554</ele>
        <time>2013-04-07T06:20:14Z</time>
      </trkpt>
      <trkpt lat="42.91542" lon="0.21526">
        <ele>1554</ele>
        <time>2013-04-07T06:20:16Z</time>
      </trkpt>
      <trkpt lat="42.91542" lon="0.21529">
        <ele>1555</ele>
        <time>2013-04-07T06:20:18Z</time>
      </trkpt>
      <trkpt lat="42.91541" lon="0.2153">
        <ele>1555</ele>
        <time>2013-04-07T06:20:19Z</time>
      </trkpt>
      <trkpt lat="42.91541" lon="0.21533">
        <ele>1555</ele>
        <time>2013-04-07T06:20:21Z</time>
      </trkpt>
      <trkpt lat="42.9154" lon="0.21535">
        <ele>1555</ele>
        <time>2013-04-07T06:20:23Z</time>
      </trkpt>
      <trkpt lat="42.91539" lon="0.21538">
        <ele>1556</ele>
        <time>2013-04-07T06:20:25Z</time>
      </trkpt>
      <trkpt lat="42.91539" lon="0.2154">
        <ele>1556</ele>
        <time>2013-04-07T06:20:27Z</time>
      </trkpt>
      <trkpt lat="42.91538" lon="0.21543">
        <ele>1556</ele>
        <time>2013-04-07T06:20:29Z</time>
      </trkpt>
      <trkpt lat="42.91538" lon="0.21545">
        <ele>1556</ele>
        <time>2013-04-07T06:20:31Z</time>
      </trkpt>
      <trkpt lat="42.91537" lon="0.21548">
        <ele>1556</ele>
        <time>2013-04-07T06:20:33Z</time>
      </trkpt>
      <trkpt lat="42.91536" lon="0.2155">
        <ele>1557</ele>
        <time>2013-04-07T06:20:35Z</time>
      </trkpt>
      <trkpt lat="42.91535" lon="0.21553">
        <ele>1557</ele>
        <time>2013-04-07T06:20:37Z</time>
      </trkpt>
      <trkpt lat="42.91534" lon="0.21554">
        <ele>1557</ele>
        <time>2013-04-07T06:20:38Z</time>
      </trkpt>
      <trkpt lat="42.91534" lon="0.21556">
        <ele>1557</ele>
        <time>2013-04-07T06:20:40Z</time>
      </trkpt>
      <trkpt lat="42.91533" lon="0.21559">
        <ele>1557</ele>
        <time>2013-04-07T06:20:42Z</time>
      </trkpt>
      <trkpt lat="42.91532" lon="0.21561">
        <ele>1557</ele>
        <time>2013-04-07T06:20:44Z</time>
      </trkpt>
      <trkpt lat="42.91531" lon="0.21564">
        <ele>1557</ele>
        <time>2013-04-07T06:20:46Z</time>
      </trkpt>
      <trkpt lat="42.9153" lon="0.21566">
        <ele>1557</ele>
        <time>2013-04-07T06:20:48Z</time>
      </trkpt>
      <trkpt lat="42.9153" lon="0.21567">
        <ele>1557</ele>
        <time>2013-04-07T06:20:49Z</time>
      </trkpt>
      <trkpt lat="42.91529" lon="0.21569">
        <ele>1557</ele>
        <time>2013-04-07T06:20:51Z</time>
      </trkpt>
      <trkpt lat="42.91528" lon="0.21572">
        <ele>1557</ele>
        <time>2013-04-07T06:20:53Z</time>
      </trkpt>
      <trkpt lat="42.91526" lon="0.21575">
        <ele>1557</ele>
        <time>2013-04-07T06:20:55Z</time>
      </trkpt>
      <trkpt lat="42.91526" lon="0.21577">
        <ele>1557</ele>
        <time>2013-04-07T06:20:57Z</time>
      </trkpt>
      <trkpt lat="42.91525" lon="0.21579">
        <ele>1557</ele>
        <time>2013-04-07T06:20:59Z</time>
      </trkpt>
      <trkpt lat="42.91524" lon="0.21581">
        <ele>1557</ele>
        <time>2013-04-07T06:21:01Z</time>
      </trkpt>
      <trkpt lat="42.91523" lon="0.21584">
        <ele>1557</ele>
        <time>2013-04-07T06:21:03Z</time>
      </trkpt>
      <trkpt lat="42.91522" lon="0.21586">
        <ele>1557</ele>
        <time>2013-04-07T06:21:05Z</time>
      </trkpt>
      <trkpt lat="42.91521" lon="0.21588">
        <ele>1557</ele>
        <time>2013-04-07T06:21:07Z</time>
      </trkpt>
      <trkpt lat="42.9152" lon="0.2159">
        <ele>1557</ele>
        <time>2013-04-07T06:21:09Z</time>
      </trkpt>
      <trkpt lat="42.91519" lon="0.21592">
        <ele>1557</ele>
        <time>2013-04-07T06:21:11Z</time>
      </trkpt>
      <trkpt lat="42.91518" lon="0.21594">
        <ele>1557</ele>
        <time>2013-04-07T06:21:13Z</time>
      </trkpt>
      <trkpt lat="42.91516" lon="0.21597">
        <ele>1557</ele>
        <time>2013-04-07T06:21:15Z</time>
      </trkpt>
      <trkpt lat="42.91515" lon="0.21599">
        <ele>1557</ele>
        <time>2013-04-07T06:21:17Z</time>
      </trkpt>
      <trkpt lat="42.91514" lon="0.21601">
        <ele>1557</ele>
        <time>2013-04-07T06:21:19Z</time>
      </trkpt>
      <trkpt lat="42.91513" lon="0.21603">
        <ele>1557</ele>
        <time>2013-04-07T06:21:21Z</time>
      </trkpt>
      <trkpt lat="42.91512" lon="0.21605">
        <ele>1557</ele>
        <time>2013-04-07T06:21:23Z</time>
      </trkpt>
      <trkpt lat="42.91511" lon="0.21607">
        <ele>1557</ele>
        <time>2013-04-07T06:21:25Z</time>
      </trkpt>
      <trkpt lat="42.9151" lon="0.21609">
        <ele>1557</ele>
        <time>2013-04-07T06:21:27Z</time>
      </trkpt>
      <trkpt lat="42.91509" lon="0.21611">
        <ele>1557</ele>
        <time>2013-04-07T06:21:29Z</time>
      </trkpt>
      <trkpt lat="42.91507" lon="0.21614">
        <ele>1557</ele>
        <time>2013-04-07T06:21:31Z</time>
      </trkpt>
      <trkpt lat="42.91506" lon="0.21616">
        <ele>1557</ele>
        <time>2013-04-07T06:21:33Z</time>
      </trkpt>
      <trkpt lat="42.91504" lon="0.21618">
        <ele>1557</ele>
        <time>2013-04-07T06:21:35Z</time>
      </trkpt>
      <trkpt lat="42.91503" lon="0.2162">
        <ele>1557</ele>
        <time>2013-04-07T06:21:37Z</time>
      </trkpt>
      <trkpt lat="42.91502" lon="0.21621">
        <ele>1557</ele>
        <time>2013-04-07T06:21:39Z</time>
      </trkpt>
      <trkpt lat="42.91501" lon="0.21623">
        <ele>1557</ele>
        <time>2013-04-07T06:21:41Z</time>
      </trkpt>
      <trkpt lat="42.915" lon="0.21625">
        <ele>1557</ele>
        <time>2013-04-07T06:21:43Z</time>
      </trkpt>
      <trkpt lat="42.91499" lon="0.21627">
        <ele>1557</ele>
        <time>2013-04-07T06:21:45Z</time>
      </trkpt>
      <trkpt lat="42.91497" lon="0.21629">
        <ele>1557</ele>
        <time>2013-04-07T06:21:47Z</time>
      </trkpt>
      <trkpt lat="42.91497" lon="0.21631">
        <ele>1557</ele>
        <time>2013-04-07T06:21:49Z</time>
      </trkpt>
      <trkpt lat="42.91495" lon="0.21632">
        <ele>1557</ele>
        <time>2013-04-07T06:21:51Z</time>
      </trkpt>
      <trkpt lat="42.91494" lon="0.21634">
        <ele>1557</ele>
        <time>2013-04-07T06:21:53Z</time>
      </trkpt>
      <trkpt lat="42.91493" lon="0.21636">
        <ele>1557</ele>
        <time>2013-04-07T06:21:55Z</time>
      </trkpt>
      <trkpt lat="42.91492" lon="0.21638">
        <ele>1557</ele>
        <time>2013-04-07T06:21:57Z</time>
      </trkpt>
      <trkpt lat="42.91491" lon="0.21641">
        <ele>1557</ele>
        <time>2013-04-07T06:21:59Z</time>
      </trkpt>
      <trkpt lat="42.9149" lon="0.21643">
        <ele>1557</ele>
        <time>2013-04-07T06:22:01Z</time>
      </trkpt>
      <trkpt lat="42.91489" lon="0.21644">
        <ele>1557</ele>
        <time>2013-04-07T06:22:03Z</time>
      </trkpt>
      <trkpt lat="42.91488" lon="0.21647">
        <ele>1557</ele>
        <time>2013-04-07T06:22:08Z</time>
      </trkpt>
      <trkpt lat="42.91486" lon="0.21649">
        <ele>1557</ele>
        <time>2013-04-07T06:22:10Z</time>
      </trkpt>
      <trkpt lat="42.91485" lon="0.21651">
        <ele>1557</ele>
        <time>2013-04-07T06:22:12Z</time>
      </trkpt>
      <trkpt lat="42.91484" lon="0.21652">
        <ele>1557</ele>
        <time>2013-04-07T06:22:14Z</time>
      </trkpt>
      <trkpt lat="42.91482" lon="0.21654">
        <ele>1557</ele>
        <time>2013-04-07T06:22:16Z</time>
      </trkpt>
      <trkpt lat="42.91481" lon="0.21656">
        <ele>1557</ele>
        <time>2013-04-07T06:22:18Z</time>
      </trkpt>
      <trkpt lat="42.91479" lon="0.21658">
        <ele>1557</ele>
        <time>2013-04-07T06:22:20Z</time>
      </trkpt>
      <trkpt lat="42.91478" lon="0.21659">
        <ele>1557</ele>
        <time>2013-04-07T06:22:22Z</time>
      </trkpt>
      <trkpt lat="42.91476" lon="0.2166">
        <ele>1557</ele>
        <time>2013-04-07T06:22:24Z</time>
      </trkpt>
      <trkpt lat="42.91475" lon="0.21662">
        <ele>1557</ele>
        <time>2013-04-07T06:22:26Z</time>
      </trkpt>
      <trkpt lat="42.91474" lon="0.21663">
        <ele>1557</ele>
        <time>2013-04-07T06:22:28Z</time>
      </trkpt>
      <trkpt lat="42.91472" lon="0.21664">
        <ele>1557</ele>
        <time>2013-04-07T06:22:30Z</time>
      </trkpt>
      <trkpt lat="42.9147" lon="0.21665">
        <ele>1557</ele>
        <time>2013-04-07T06:22:32Z</time>
      </trkpt>
      <trkpt lat="42.91469" lon="0.21666">
        <ele>1557</ele>
        <time>2013-04-07T06:22:33Z</time>
      </trkpt>
      <trkpt lat="42.91468" lon="0.21666">
        <ele>1557</ele>
        <time>2013-04-07T06:22:34Z</time>
      </trkpt>
      <trkpt lat="42.91466" lon="0.21667">
        <ele>1557</ele>
        <time>2013-04-07T06:22:36Z</time>
      </trkpt>
      <trkpt lat="42.91464" lon="0.21668">
        <ele>1557</ele>
        <time>2013-04-07T06:22:38Z</time>
      </trkpt>
      <trkpt lat="42.91462" lon="0.21669">
        <ele>1557</ele>
        <time>2013-04-07T06:22:40Z</time>
      </trkpt>
      <trkpt lat="42.9146" lon="0.2167">
        <ele>1558</ele>
        <time>2013-04-07T06:22:42Z</time>
      </trkpt>
      <trkpt lat="42.91459" lon="0.21671">
        <ele>1558</ele>
        <time>2013-04-07T06:22:44Z</time>
      </trkpt>
      <trkpt lat="42.91457" lon="0.21671">
        <ele>1558</ele>
        <time>2013-04-07T06:22:46Z</time>
      </trkpt>
      <trkpt lat="42.91455" lon="0.21672">
        <ele>1558</ele>
        <time>2013-04-07T06:22:48Z</time>
      </trkpt>
      <trkpt lat="42.91453" lon="0.21673">
        <ele>1558</ele>
        <time>2013-04-07T06:22:50Z</time>
      </trkpt>
      <trkpt lat="42.91451" lon="0.21673">
        <ele>1558</ele>
        <time>2013-04-07T06:22:52Z</time>
      </trkpt>
      <trkpt lat="42.91449" lon="0.21674">
        <ele>1558</ele>
        <time>2013-04-07T06:22:54Z</time>
      </trkpt>
      <trkpt lat="42.91447" lon="0.21674">
        <ele>1558</ele>
        <time>2013-04-07T06:22:56Z</time>
      </trkpt>
      <trkpt lat="42.91446" lon="0.21675">
        <ele>1558</ele>
        <time>2013-04-07T06:22:58Z</time>
      </trkpt>
      <trkpt lat="42.91444" lon="0.21675">
        <ele>1558</ele>
        <time>2013-04-07T06:23:00Z</time>
      </trkpt>
      <trkpt lat="42.91442" lon="0.21676">
        <ele>1558</ele>
        <time>2013-04-07T06:23:02Z</time>
      </trkpt>
      <trkpt lat="42.9144" lon="0.21676">
        <ele>1558</ele>
        <time>2013-04-07T06:23:04Z</time>
      </trkpt>
      <trkpt lat="42.91438" lon="0.21677">
        <ele>1558</ele>
        <time>2013-04-07T06:23:06Z</time>
      </trkpt>
      <trkpt lat="42.91436" lon="0.21678">
        <ele>1558</ele>
        <time>2013-04-07T06:23:08Z</time>
      </trkpt>
      <trkpt lat="42.91434" lon="0.21678">
        <ele>1558</ele>
        <time>2013-04-07T06:23:10Z</time>
      </trkpt>
      <trkpt lat="42.91432" lon="0.21678">
        <ele>1558</ele>
        <time>2013-04-07T06:23:12Z</time>
      </trkpt>
      <trkpt lat="42.9143" lon="0.21678">
        <ele>1558</ele>
        <time>2013-04-07T06:23:14Z</time>
      </trkpt>
      <trkpt lat="42.91428" lon="0.21679">
        <ele>1558</ele>
        <time>2013-04-07T06:23:16Z</time>
      </trkpt>
      <trkpt lat="42.91427" lon="0.21679">
        <ele>1558</ele>
        <time>2013-04-07T06:23:17Z</time>
      </trkpt>
      <trkpt lat="42.91424" lon="0.21679">
        <ele>1558</ele>
        <time>2013-04-07T06:23:19Z</time>
      </trkpt>
      <trkpt lat="42.91423" lon="0.21679">
        <ele>1558</ele>
        <time>2013-04-07T06:23:20Z</time>
      </trkpt>
      <trkpt lat="42.91422" lon="0.21679">
        <ele>1558</ele>
        <time>2013-04-07T06:23:21Z</time>
      </trkpt>
      <trkpt lat="42.9142" lon="0.2168">
        <ele>1558</ele>
        <time>2013-04-07T06:23:22Z</time>
      </trkpt>
      <trkpt lat="42.91419" lon="0.2168">
        <ele>1558</ele>
        <time>2013-04-07T06:23:23Z</time>
      </trkpt>
      <trkpt lat="42.91418" lon="0.2168">
        <ele>1558</ele>
        <time>2013-04-07T06:23:24Z</time>
      </trkpt>
      <trkpt lat="42.91416" lon="0.2168">
        <ele>1558</ele>
        <time>2013-04-07T06:23:26Z</time>
      </trkpt>
      <trkpt lat="42.91414" lon="0.2168">
        <ele>1558</ele>
        <time>2013-04-07T06:23:28Z</time>
      </trkpt>
      <trkpt lat="42.91412" lon="0.2168">
        <ele>1558</ele>
        <time>2013-04-07T06:23:30Z</time>
      </trkpt>
      <trkpt lat="42.9141" lon="0.2168">
        <ele>1558</ele>
        <time>2013-04-07T06:23:32Z</time>
      </trkpt>
      <trkpt lat="42.91409" lon="0.2168">
        <ele>1558</ele>
        <time>2013-04-07T06:23:33Z</time>
      </trkpt>
      <trkpt lat="42.91407" lon="0.21681">
        <ele>1558</ele>
        <time>2013-04-07T06:23:34Z</time>
      </trkpt>
      <trkpt lat="42.91406" lon="0.21681">
        <ele>1558</ele>
        <time>2013-04-07T06:23:35Z</time>
      </trkpt>
      <trkpt lat="42.91404" lon="0.21681">
        <ele>1558</ele>
        <time>2013-04-07T06:23:37Z</time>
      </trkpt>
      <trkpt lat="42.91402" lon="0.21681">
        <ele>1558</ele>
        <time>2013-04-07T06:23:39Z</time>
      </trkpt>
      <trkpt lat="42.914" lon="0.21681">
        <ele>1558</ele>
        <time>2013-04-07T06:23:41Z</time>
      </trkpt>
      <trkpt lat="42.91399" lon="0.21682">
        <ele>1558</ele>
        <time>2013-04-07T06:23:42Z</time>
      </trkpt>
      <trkpt lat="42.91397" lon="0.21682">
        <ele>1558</ele>
        <time>2013-04-07T06:23:44Z</time>
      </trkpt>
      <trkpt lat="42.91395" lon="0.21682">
        <ele>1558</ele>
        <time>2013-04-07T06:23:46Z</time>
      </trkpt>
      <trkpt lat="42.91393" lon="0.21682">
        <ele>1558</ele>
        <time>2013-04-07T06:23:48Z</time>
      </trkpt>
      <trkpt lat="42.91391" lon="0.21683">
        <ele>1558</ele>
        <time>2013-04-07T06:23:50Z</time>
      </trkpt>
      <trkpt lat="42.9139" lon="0.21683">
        <ele>1558</ele>
        <time>2013-04-07T06:23:52Z</time>
      </trkpt>
      <trkpt lat="42.91388" lon="0.21683">
        <ele>1558</ele>
        <time>2013-04-07T06:23:54Z</time>
      </trkpt>
      <trkpt lat="42.91386" lon="0.21683">
        <ele>1558</ele>
        <time>2013-04-07T06:23:56Z</time>
      </trkpt>
      <trkpt lat="42.91384" lon="0.21683">
        <ele>1558</ele>
        <time>2013-04-07T06:23:58Z</time>
      </trkpt>
      <trkpt lat="42.91382" lon="0.21683">
        <ele>1558</ele>
        <time>2013-04-07T06:24:00Z</time>
      </trkpt>
      <trkpt lat="42.91381" lon="0.21683">
        <ele>1558</ele>
        <time>2013-04-07T06:24:01Z</time>
      </trkpt>
      <trkpt lat="42.91379" lon="0.21684">
        <ele>1558</ele>
        <time>2013-04-07T06:24:03Z</time>
      </trkpt>
      <trkpt lat="42.91377" lon="0.21684">
        <ele>1558</ele>
        <time>2013-04-07T06:24:05Z</time>
      </trkpt>
      <trkpt lat="42.91375" lon="0.21684">
        <ele>1558</ele>
        <time>2013-04-07T06:24:07Z</time>
      </trkpt>
      <trkpt lat="42.91373" lon="0.21684">
        <ele>1558</ele>
        <time>2013-04-07T06:24:09Z</time>
      </trkpt>
      <trkpt lat="42.91371" lon="0.21684">
        <ele>1558</ele>
        <time>2013-04-07T06:24:12Z</time>
      </trkpt>
      <trkpt lat="42.91369" lon="0.21684">
        <ele>1558</ele>
        <time>2013-04-07T06:24:13Z</time>
      </trkpt>
      <trkpt lat="42.91367" lon="0.21683">
        <ele>1558</ele>
        <time>2013-04-07T06:24:15Z</time>
      </trkpt>
      <trkpt lat="42.91366" lon="0.21683">
        <ele>1558</ele>
        <time>2013-04-07T06:24:17Z</time>
      </trkpt>
      <trkpt lat="42.91365" lon="0.21683">
        <ele>1558</ele>
        <time>2013-04-07T06:24:19Z</time>
      </trkpt>
      <trkpt lat="42.91364" lon="0.21683">
        <ele>1558</ele>
        <time>2013-04-07T06:24:23Z</time>
      </trkpt>
      <trkpt lat="42.91365" lon="0.21683">
        <ele>1558</ele>
        <time>2013-04-07T06:24:56Z</time>
      </trkpt>
      <trkpt lat="42.91364" lon="0.21685">
        <ele>1558</ele>
        <time>2013-04-07T06:25:36Z</time>
      </trkpt>
      <trkpt lat="42.91365" lon="0.21683">
        <ele>1558</ele>
        <time>2013-04-07T06:26:26Z</time>
      </trkpt>
      <trkpt lat="42.91364" lon="0.21683">
        <ele>1558</ele>
        <time>2013-04-07T06:26:42Z</time>
      </trkpt>
      <trkpt lat="42.91362" lon="0.21684">
        <ele>1558</ele>
        <time>2013-04-07T06:26:45Z</time>
      </trkpt>
      <trkpt lat="42.9136" lon="0.21684">
        <ele>1558</ele>
        <time>2013-04-07T06:26:47Z</time>
      </trkpt>
      <trkpt lat="42.91359" lon="0.21685">
        <ele>1558</ele>
        <time>2013-04-07T06:26:49Z</time>
      </trkpt>
      <trkpt lat="42.91358" lon="0.21686">
        <ele>1558</ele>
        <time>2013-04-07T06:27:00Z</time>
      </trkpt>
      <trkpt lat="42.91357" lon="0.21688">
        <ele>1558</ele>
        <time>2013-04-07T06:27:08Z</time>
      </trkpt>
      <trkpt lat="42.91356" lon="0.21688">
        <ele>1558</ele>
        <time>2013-04-07T06:27:15Z</time>
      </trkpt>
      <trkpt lat="42.91354" lon="0.21688">
        <ele>1558</ele>
        <time>2013-04-07T06:27:18Z</time>
      </trkpt>
      <trkpt lat="42.91352" lon="0.21689">
        <ele>1558</ele>
        <time>2013-04-07T06:27:21Z</time>
      </trkpt>
      <trkpt lat="42.91351" lon="0.21689">
        <ele>1558</ele>
        <time>2013-04-07T06:27:23Z</time>
      </trkpt>
      <trkpt lat="42.91349" lon="0.2169">
        <ele>1558</ele>
        <time>2013-04-07T06:27:25Z</time>
      </trkpt>
      <trkpt lat="42.91348" lon="0.2169">
        <ele>1558</ele>
        <time>2013-04-07T06:27:27Z</time>
      </trkpt>
      <trkpt lat="42.91346" lon="0.21692">
        <ele>1558</ele>
        <time>2013-04-07T06:27:29Z</time>
      </trkpt>
      <trkpt lat="42.91344" lon="0.21693">
        <ele>1558</ele>
        <time>2013-04-07T06:27:31Z</time>
      </trkpt>
      <trkpt lat="42.91343" lon="0.21694">
        <ele>1558</ele>
        <time>2013-04-07T06:27:33Z</time>
      </trkpt>
      <trkpt lat="42.91341" lon="0.21695">
        <ele>1558</ele>
        <time>2013-04-07T06:27:35Z</time>
      </trkpt>
      <trkpt lat="42.9134" lon="0.21696">
        <ele>1558</ele>
        <time>2013-04-07T06:27:37Z</time>
      </trkpt>
      <trkpt lat="42.91338" lon="0.21697">
        <ele>1558</ele>
        <time>2013-04-07T06:27:39Z</time>
      </trkpt>
      <trkpt lat="42.91337" lon="0.21698">
        <ele>1558</ele>
        <time>2013-04-07T06:27:41Z</time>
      </trkpt>
      <trkpt lat="42.91335" lon="0.217">
        <ele>1558</ele>
        <time>2013-04-07T06:27:43Z</time>
      </trkpt>
      <trkpt lat="42.91334" lon="0.21701">
        <ele>1558</ele>
        <time>2013-04-07T06:27:45Z</time>
      </trkpt>
      <trkpt lat="42.91333" lon="0.21702">
        <ele>1558</ele>
        <time>2013-04-07T06:27:47Z</time>
      </trkpt>
      <trkpt lat="42.91331" lon="0.21703">
        <ele>1558</ele>
        <time>2013-04-07T06:27:49Z</time>
      </trkpt>
      <trkpt lat="42.9133" lon="0.21704">
        <ele>1558</ele>
        <time>2013-04-07T06:27:51Z</time>
      </trkpt>
      <trkpt lat="42.91328" lon="0.21706">
        <ele>1558</ele>
        <time>2013-04-07T06:27:54Z</time>
      </trkpt>
      <trkpt lat="42.91327" lon="0.21707">
        <ele>1558</ele>
        <time>2013-04-07T06:27:56Z</time>
      </trkpt>
      <trkpt lat="42.91326" lon="0.21708">
        <ele>1558</ele>
        <time>2013-04-07T06:27:58Z</time>
      </trkpt>
      <trkpt lat="42.91324" lon="0.2171">
        <ele>1559</ele>
        <time>2013-04-07T06:28:01Z</time>
      </trkpt>
      <trkpt lat="42.91323" lon="0.21711">
        <ele>1559</ele>
        <time>2013-04-07T06:28:03Z</time>
      </trkpt>
      <trkpt lat="42.91322" lon="0.21713">
        <ele>1559</ele>
        <time>2013-04-07T06:28:05Z</time>
      </trkpt>
      <trkpt lat="42.9132" lon="0.21714">
        <ele>1559</ele>
        <time>2013-04-07T06:28:07Z</time>
      </trkpt>
      <trkpt lat="42.91319" lon="0.21715">
        <ele>1559</ele>
        <time>2013-04-07T06:28:09Z</time>
      </trkpt>
      <trkpt lat="42.91318" lon="0.21716">
        <ele>1559</ele>
        <time>2013-04-07T06:28:11Z</time>
      </trkpt>
      <trkpt lat="42.91317" lon="0.21718">
        <ele>1559</ele>
        <time>2013-04-07T06:28:13Z</time>
      </trkpt>
      <trkpt lat="42.91315" lon="0.21719">
        <ele>1559</ele>
        <time>2013-04-07T06:28:15Z</time>
      </trkpt>
      <trkpt lat="42.91314" lon="0.2172">
        <ele>1559</ele>
        <time>2013-04-07T06:28:17Z</time>
      </trkpt>
      <trkpt lat="42.91312" lon="0.21721">
        <ele>1559</ele>
        <time>2013-04-07T06:28:19Z</time>
      </trkpt>
      <trkpt lat="42.91311" lon="0.21722">
        <ele>1560</ele>
        <time>2013-04-07T06:28:21Z</time>
      </trkpt>
      <trkpt lat="42.9131" lon="0.21723">
        <ele>1560</ele>
        <time>2013-04-07T06:28:23Z</time>
      </trkpt>
      <trkpt lat="42.91308" lon="0.21725">
        <ele>1560</ele>
        <time>2013-04-07T06:28:26Z</time>
      </trkpt>
      <trkpt lat="42.91307" lon="0.21726">
        <ele>1560</ele>
        <time>2013-04-07T06:28:28Z</time>
      </trkpt>
      <trkpt lat="42.91306" lon="0.21727">
        <ele>1560</ele>
        <time>2013-04-07T06:28:30Z</time>
      </trkpt>
      <trkpt lat="42.91304" lon="0.21729">
        <ele>1561</ele>
        <time>2013-04-07T06:28:33Z</time>
      </trkpt>
      <trkpt lat="42.91303" lon="0.2173">
        <ele>1561</ele>
        <time>2013-04-07T06:28:35Z</time>
      </trkpt>
      <trkpt lat="42.91301" lon="0.21732">
        <ele>1561</ele>
        <time>2013-04-07T06:28:38Z</time>
      </trkpt>
      <trkpt lat="42.91301" lon="0.21733">
        <ele>1562</ele>
        <time>2013-04-07T06:28:40Z</time>
      </trkpt>
      <trkpt lat="42.91299" lon="0.21735">
        <ele>1562</ele>
        <time>2013-04-07T06:28:43Z</time>
      </trkpt>
      <trkpt lat="42.91298" lon="0.21736">
        <ele>1562</ele>
        <time>2013-04-07T06:28:45Z</time>
      </trkpt>
      <trkpt lat="42.91296" lon="0.21737">
        <ele>1562</ele>
        <time>2013-04-07T06:28:47Z</time>
      </trkpt>
      <trkpt lat="42.91295" lon="0.21739">
        <ele>1562</ele>
        <time>2013-04-07T06:28:50Z</time>
      </trkpt>
      <trkpt lat="42.91293" lon="0.21742">
        <ele>1563</ele>
        <time>2013-04-07T06:28:53Z</time>
      </trkpt>
      <trkpt lat="42.91292" lon="0.21743">
        <ele>1563</ele>
        <time>2013-04-07T06:28:56Z</time>
      </trkpt>
      <trkpt lat="42.91291" lon="0.21745">
        <ele>1563</ele>
        <time>2013-04-07T06:28:59Z</time>
      </trkpt>
      <trkpt lat="42.91289" lon="0.21746">
        <ele>1564</ele>
        <time>2013-04-07T06:29:02Z</time>
      </trkpt>
      <trkpt lat="42.91288" lon="0.21748">
        <ele>1564</ele>
        <time>2013-04-07T06:29:04Z</time>
      </trkpt>
      <trkpt lat="42.91287" lon="0.21749">
        <ele>1564</ele>
        <time>2013-04-07T06:29:06Z</time>
      </trkpt>
      <trkpt lat="42.91285" lon="0.2175">
        <ele>1564</ele>
        <time>2013-04-07T06:29:08Z</time>
      </trkpt>
      <trkpt lat="42.91284" lon="0.21752">
        <ele>1565</ele>
        <time>2013-04-07T06:29:10Z</time>
      </trkpt>
      <trkpt lat="42.91283" lon="0.21753">
        <ele>1565</ele>
        <time>2013-04-07T06:29:12Z</time>
      </trkpt>
      <trkpt lat="42.91282" lon="0.21754">
        <ele>1565</ele>
        <time>2013-04-07T06:29:14Z</time>
      </trkpt>
      <trkpt lat="42.9128" lon="0.21755">
        <ele>1566</ele>
        <time>2013-04-07T06:29:16Z</time>
      </trkpt>
      <trkpt lat="42.91279" lon="0.21757">
        <ele>1566</ele>
        <time>2013-04-07T06:29:18Z</time>
      </trkpt>
      <trkpt lat="42.91278" lon="0.21757">
        <ele>1567</ele>
        <time>2013-04-07T06:29:20Z</time>
      </trkpt>
      <trkpt lat="42.91277" lon="0.21759">
        <ele>1567</ele>
        <time>2013-04-07T06:29:22Z</time>
      </trkpt>
      <trkpt lat="42.91276" lon="0.2176">
        <ele>1567</ele>
        <time>2013-04-07T06:29:24Z</time>
      </trkpt>
      <trkpt lat="42.91275" lon="0.21761">
        <ele>1567</ele>
        <time>2013-04-07T06:29:26Z</time>
      </trkpt>
      <trkpt lat="42.91273" lon="0.21762">
        <ele>1568</ele>
        <time>2013-04-07T06:29:28Z</time>
      </trkpt>
      <trkpt lat="42.91272" lon="0.21764">
        <ele>1568</ele>
        <time>2013-04-07T06:29:31Z</time>
      </trkpt>
      <trkpt lat="42.91271" lon="0.21765">
        <ele>1569</ele>
        <time>2013-04-07T06:29:33Z</time>
      </trkpt>
      <trkpt lat="42.9127" lon="0.21766">
        <ele>1569</ele>
        <time>2013-04-07T06:29:36Z</time>
      </trkpt>
      <trkpt lat="42.91268" lon="0.21768">
        <ele>1569</ele>
        <time>2013-04-07T06:29:38Z</time>
      </trkpt>
      <trkpt lat="42.91267" lon="0.21769">
        <ele>1569</ele>
        <time>2013-04-07T06:29:41Z</time>
      </trkpt>
      <trkpt lat="42.91265" lon="0.2177">
        <ele>1569</ele>
        <time>2013-04-07T06:29:44Z</time>
      </trkpt>
      <trkpt lat="42.91264" lon="0.21772">
        <ele>1570</ele>
        <time>2013-04-07T06:29:47Z</time>
      </trkpt>
      <trkpt lat="42.91262" lon="0.21773">
        <ele>1570</ele>
        <time>2013-04-07T06:29:50Z</time>
      </trkpt>
      <trkpt lat="42.91261" lon="0.21774">
        <ele>1570</ele>
        <time>2013-04-07T06:29:53Z</time>
      </trkpt>
      <trkpt lat="42.9126" lon="0.21775">
        <ele>1571</ele>
        <time>2013-04-07T06:29:55Z</time>
      </trkpt>
      <trkpt lat="42.91258" lon="0.21775">
        <ele>1571</ele>
        <time>2013-04-07T06:29:58Z</time>
      </trkpt>
      <trkpt lat="42.91257" lon="0.21776">
        <ele>1572</ele>
        <time>2013-04-07T06:30:01Z</time>
      </trkpt>
      <trkpt lat="42.91255" lon="0.21777">
        <ele>1572</ele>
        <time>2013-04-07T06:30:04Z</time>
      </trkpt>
      <trkpt lat="42.91254" lon="0.21778">
        <ele>1572</ele>
        <time>2013-04-07T06:30:07Z</time>
      </trkpt>
      <trkpt lat="42.91252" lon="0.21778">
        <ele>1573</ele>
        <time>2013-04-07T06:30:10Z</time>
      </trkpt>
      <trkpt lat="42.9125" lon="0.21778">
        <ele>1574</ele>
        <time>2013-04-07T06:30:13Z</time>
      </trkpt>
      <trkpt lat="42.91249" lon="0.21778">
        <ele>1574</ele>
        <time>2013-04-07T06:30:15Z</time>
      </trkpt>
      <trkpt lat="42.91248" lon="0.21778">
        <ele>1575</ele>
        <time>2013-04-07T06:30:17Z</time>
      </trkpt>
      <trkpt lat="42.91246" lon="0.21778">
        <ele>1575</ele>
        <time>2013-04-07T06:30:19Z</time>
      </trkpt>
      <trkpt lat="42.91245" lon="0.21778">
        <ele>1575</ele>
        <time>2013-04-07T06:30:21Z</time>
      </trkpt>
      <trkpt lat="42.91244" lon="0.21778">
        <ele>1575</ele>
        <time>2013-04-07T06:30:23Z</time>
      </trkpt>
      <trkpt lat="42.91243" lon="0.21778">
        <ele>1576</ele>
        <time>2013-04-07T06:30:25Z</time>
      </trkpt>
      <trkpt lat="42.91241" lon="0.21779">
        <ele>1577</ele>
        <time>2013-04-07T06:30:41Z</time>
      </trkpt>
      <trkpt lat="42.91239" lon="0.21779">
        <ele>1577</ele>
        <time>2013-04-07T06:30:43Z</time>
      </trkpt>
      <trkpt lat="42.91238" lon="0.21778">
        <ele>1577</ele>
        <time>2013-04-07T06:30:45Z</time>
      </trkpt>
      <trkpt lat="42.91236" lon="0.21778">
        <ele>1578</ele>
        <time>2013-04-07T06:30:47Z</time>
      </trkpt>
      <trkpt lat="42.91235" lon="0.21778">
        <ele>1578</ele>
        <time>2013-04-07T06:30:49Z</time>
      </trkpt>
      <trkpt lat="42.91233" lon="0.21778">
        <ele>1578</ele>
        <time>2013-04-07T06:30:51Z</time>
      </trkpt>
      <trkpt lat="42.91232" lon="0.21778">
        <ele>1579</ele>
        <time>2013-04-07T06:30:53Z</time>
      </trkpt>
      <trkpt lat="42.9123" lon="0.21778">
        <ele>1579</ele>
        <time>2013-04-07T06:30:55Z</time>
      </trkpt>
      <trkpt lat="42.91229" lon="0.21778">
        <ele>1579</ele>
        <time>2013-04-07T06:30:57Z</time>
      </trkpt>
      <trkpt lat="42.91227" lon="0.21779">
        <ele>1580</ele>
        <time>2013-04-07T06:30:59Z</time>
      </trkpt>
      <trkpt lat="42.91226" lon="0.21778">
        <ele>1580</ele>
        <time>2013-04-07T06:31:01Z</time>
      </trkpt>
      <trkpt lat="42.91224" lon="0.21778">
        <ele>1580</ele>
        <time>2013-04-07T06:31:03Z</time>
      </trkpt>
      <trkpt lat="42.91222" lon="0.21778">
        <ele>1581</ele>
        <time>2013-04-07T06:31:05Z</time>
      </trkpt>
      <trkpt lat="42.91221" lon="0.21778">
        <ele>1581</ele>
        <time>2013-04-07T06:31:07Z</time>
      </trkpt>
      <trkpt lat="42.91219" lon="0.21778">
        <ele>1581</ele>
        <time>2013-04-07T06:31:09Z</time>
      </trkpt>
      <trkpt lat="42.91217" lon="0.21778">
        <ele>1582</ele>
        <time>2013-04-07T06:31:11Z</time>
      </trkpt>
      <trkpt lat="42.91216" lon="0.21777">
        <ele>1582</ele>
        <time>2013-04-07T06:31:13Z</time>
      </trkpt>
      <trkpt lat="42.91215" lon="0.21776">
        <ele>1582</ele>
        <time>2013-04-07T06:31:15Z</time>
      </trkpt>
      <trkpt lat="42.91214" lon="0.21775">
        <ele>1583</ele>
        <time>2013-04-07T06:31:17Z</time>
      </trkpt>
      <trkpt lat="42.91213" lon="0.21773">
        <ele>1583</ele>
        <time>2013-04-07T06:31:19Z</time>
      </trkpt>
      <trkpt lat="42.91211" lon="0.21771">
        <ele>1583</ele>
        <time>2013-04-07T06:31:21Z</time>
      </trkpt>
      <trkpt lat="42.9121" lon="0.2177">
        <ele>1584</ele>
        <time>2013-04-07T06:31:24Z</time>
      </trkpt>
      <trkpt lat="42.91209" lon="0.21768">
        <ele>1584</ele>
        <time>2013-04-07T06:31:27Z</time>
      </trkpt>
      <trkpt lat="42.91208" lon="0.21766">
        <ele>1585</ele>
        <time>2013-04-07T06:31:30Z</time>
      </trkpt>
      <trkpt lat="42.91207" lon="0.21765">
        <ele>1585</ele>
        <time>2013-04-07T06:31:33Z</time>
      </trkpt>
      <trkpt lat="42.91206" lon="0.21763">
        <ele>1586</ele>
        <time>2013-04-07T06:31:35Z</time>
      </trkpt>
      <trkpt lat="42.91204" lon="0.21762">
        <ele>1586</ele>
        <time>2013-04-07T06:31:38Z</time>
      </trkpt>
      <trkpt lat="42.91203" lon="0.2176">
        <ele>1587</ele>
        <time>2013-04-07T06:31:41Z</time>
      </trkpt>
      <trkpt lat="42.91201" lon="0.21758">
        <ele>1588</ele>
        <time>2013-04-07T06:31:44Z</time>
      </trkpt>
      <trkpt lat="42.912" lon="0.21757">
        <ele>1588</ele>
        <time>2013-04-07T06:31:47Z</time>
      </trkpt>
      <trkpt lat="42.91199" lon="0.21755">
        <ele>1589</ele>
        <time>2013-04-07T06:31:50Z</time>
      </trkpt>
      <trkpt lat="42.91198" lon="0.21754">
        <ele>1589</ele>
        <time>2013-04-07T06:31:53Z</time>
      </trkpt>
      <trkpt lat="42.91196" lon="0.21753">
        <ele>1590</ele>
        <time>2013-04-07T06:31:56Z</time>
      </trkpt>
      <trkpt lat="42.91195" lon="0.21752">
        <ele>1590</ele>
        <time>2013-04-07T06:31:59Z</time>
      </trkpt>
      <trkpt lat="42.91194" lon="0.2175">
        <ele>1591</ele>
        <time>2013-04-07T06:32:02Z</time>
      </trkpt>
      <trkpt lat="42.91193" lon="0.21749">
        <ele>1591</ele>
        <time>2013-04-07T06:32:05Z</time>
      </trkpt>
      <trkpt lat="42.91191" lon="0.21748">
        <ele>1591</ele>
        <time>2013-04-07T06:32:08Z</time>
      </trkpt>
      <trkpt lat="42.9119" lon="0.21746">
        <ele>1592</ele>
        <time>2013-04-07T06:32:11Z</time>
      </trkpt>
      <trkpt lat="42.91189" lon="0.21745">
        <ele>1593</ele>
        <time>2013-04-07T06:32:15Z</time>
      </trkpt>
      <trkpt lat="42.91188" lon="0.21743">
        <ele>1593</ele>
        <time>2013-04-07T06:32:18Z</time>
      </trkpt>
      <trkpt lat="42.91186" lon="0.21743">
        <ele>1594</ele>
        <time>2013-04-07T06:32:21Z</time>
      </trkpt>
      <trkpt lat="42.91185" lon="0.21744">
        <ele>1595</ele>
        <time>2013-04-07T06:32:24Z</time>
      </trkpt>
      <trkpt lat="42.91183" lon="0.21745">
        <ele>1595</ele>
        <time>2013-04-07T06:32:27Z</time>
      </trkpt>
      <trkpt lat="42.91182" lon="0.21747">
        <ele>1596</ele>
        <time>2013-04-07T06:32:30Z</time>
      </trkpt>
      <trkpt lat="42.91182" lon="0.21749">
        <ele>1596</ele>
        <time>2013-04-07T06:32:32Z</time>
      </trkpt>
      <trkpt lat="42.91181" lon="0.2175">
        <ele>1596</ele>
        <time>2013-04-07T06:32:35Z</time>
      </trkpt>
      <trkpt lat="42.9118" lon="0.21752">
        <ele>1597</ele>
        <time>2013-04-07T06:32:38Z</time>
      </trkpt>
      <trkpt lat="42.91179" lon="0.21754">
        <ele>1598</ele>
        <time>2013-04-07T06:32:41Z</time>
      </trkpt>
      <trkpt lat="42.91178" lon="0.21756">
        <ele>1598</ele>
        <time>2013-04-07T06:32:44Z</time>
      </trkpt>
      <trkpt lat="42.91177" lon="0.21758">
        <ele>1599</ele>
        <time>2013-04-07T06:32:47Z</time>
      </trkpt>
      <trkpt lat="42.91177" lon="0.21759">
        <ele>1599</ele>
        <time>2013-04-07T06:32:49Z</time>
      </trkpt>
      <trkpt lat="42.91176" lon="0.21761">
        <ele>1600</ele>
        <time>2013-04-07T06:32:52Z</time>
      </trkpt>
      <trkpt lat="42.91175" lon="0.21763">
        <ele>1601</ele>
        <time>2013-04-07T06:32:55Z</time>
      </trkpt>
      <trkpt lat="42.91175" lon="0.21765">
        <ele>1601</ele>
        <time>2013-04-07T06:32:58Z</time>
      </trkpt>
      <trkpt lat="42.91174" lon="0.21767">
        <ele>1601</ele>
        <time>2013-04-07T06:33:01Z</time>
      </trkpt>
      <trkpt lat="42.91174" lon="0.21768">
        <ele>1602</ele>
        <time>2013-04-07T06:33:03Z</time>
      </trkpt>
      <trkpt lat="42.91173" lon="0.2177">
        <ele>1602</ele>
        <time>2013-04-07T06:33:05Z</time>
      </trkpt>
      <trkpt lat="42.91173" lon="0.21771">
        <ele>1602</ele>
        <time>2013-04-07T06:33:07Z</time>
      </trkpt>
      <trkpt lat="42.91172" lon="0.21773">
        <ele>1603</ele>
        <time>2013-04-07T06:33:09Z</time>
      </trkpt>
      <trkpt lat="42.91172" lon="0.21774">
        <ele>1603</ele>
        <time>2013-04-07T06:33:11Z</time>
      </trkpt>
      <trkpt lat="42.91172" lon="0.21776">
        <ele>1604</ele>
        <time>2013-04-07T06:33:13Z</time>
      </trkpt>
      <trkpt lat="42.91172" lon="0.21778">
        <ele>1604</ele>
        <time>2013-04-07T06:33:15Z</time>
      </trkpt>
      <trkpt lat="42.91172" lon="0.21779">
        <ele>1605</ele>
        <time>2013-04-07T06:33:17Z</time>
      </trkpt>
      <trkpt lat="42.91172" lon="0.2178">
        <ele>1605</ele>
        <time>2013-04-07T06:33:19Z</time>
      </trkpt>
      <trkpt lat="42.91172" lon="0.21782">
        <ele>1606</ele>
        <time>2013-04-07T06:33:22Z</time>
      </trkpt>
      <trkpt lat="42.91171" lon="0.21785">
        <ele>1606</ele>
        <time>2013-04-07T06:33:25Z</time>
      </trkpt>
      <trkpt lat="42.91172" lon="0.21786">
        <ele>1607</ele>
        <time>2013-04-07T06:33:28Z</time>
      </trkpt>
      <trkpt lat="42.91172" lon="0.21788">
        <ele>1607</ele>
        <time>2013-04-07T06:33:31Z</time>
      </trkpt>
      <trkpt lat="42.91172" lon="0.2179">
        <ele>1607</ele>
        <time>2013-04-07T06:33:34Z</time>
      </trkpt>
      <trkpt lat="42.91171" lon="0.21792">
        <ele>1608</ele>
        <time>2013-04-07T06:33:37Z</time>
      </trkpt>
      <trkpt lat="42.91171" lon="0.21794">
        <ele>1608</ele>
        <time>2013-04-07T06:33:39Z</time>
      </trkpt>
      <trkpt lat="42.9117" lon="0.21795">
        <ele>1608</ele>
        <time>2013-04-07T06:33:41Z</time>
      </trkpt>
      <trkpt lat="42.9117" lon="0.21797">
        <ele>1609</ele>
        <time>2013-04-07T06:33:43Z</time>
      </trkpt>
      <trkpt lat="42.91169" lon="0.21799">
        <ele>1609</ele>
        <time>2013-04-07T06:33:46Z</time>
      </trkpt>
      <trkpt lat="42.91169" lon="0.21801">
        <ele>1610</ele>
        <time>2013-04-07T06:33:49Z</time>
      </trkpt>
      <trkpt lat="42.91169" lon="0.21802">
        <ele>1610</ele>
        <time>2013-04-07T06:33:51Z</time>
      </trkpt>
      <trkpt lat="42.91169" lon="0.21804">
        <ele>1610</ele>
        <time>2013-04-07T06:33:53Z</time>
      </trkpt>
      <trkpt lat="42.91169" lon="0.21805">
        <ele>1611</ele>
        <time>2013-04-07T06:33:55Z</time>
      </trkpt>
      <trkpt lat="42.91169" lon="0.21807">
        <ele>1611</ele>
        <time>2013-04-07T06:33:57Z</time>
      </trkpt>
      <trkpt lat="42.91168" lon="0.21808">
        <ele>1611</ele>
        <time>2013-04-07T06:33:59Z</time>
      </trkpt>
      <trkpt lat="42.91167" lon="0.2181">
        <ele>1612</ele>
        <time>2013-04-07T06:34:01Z</time>
      </trkpt>
      <trkpt lat="42.91166" lon="0.21812">
        <ele>1612</ele>
        <time>2013-04-07T06:34:04Z</time>
      </trkpt>
      <trkpt lat="42.91166" lon="0.21813">
        <ele>1613</ele>
        <time>2013-04-07T06:34:07Z</time>
      </trkpt>
      <trkpt lat="42.91165" lon="0.21815">
        <ele>1613</ele>
        <time>2013-04-07T06:34:10Z</time>
      </trkpt>
      <trkpt lat="42.91163" lon="0.21817">
        <ele>1614</ele>
        <time>2013-04-07T06:34:14Z</time>
      </trkpt>
      <trkpt lat="42.91162" lon="0.21818">
        <ele>1614</ele>
        <time>2013-04-07T06:34:17Z</time>
      </trkpt>
      <trkpt lat="42.91161" lon="0.21819">
        <ele>1615</ele>
        <time>2013-04-07T06:34:20Z</time>
      </trkpt>
      <trkpt lat="42.9116" lon="0.2182">
        <ele>1615</ele>
        <time>2013-04-07T06:34:24Z</time>
      </trkpt>
      <trkpt lat="42.91158" lon="0.21819">
        <ele>1616</ele>
        <time>2013-04-07T06:34:28Z</time>
      </trkpt>
      <trkpt lat="42.91157" lon="0.21817">
        <ele>1616</ele>
        <time>2013-04-07T06:34:31Z</time>
      </trkpt>
      <trkpt lat="42.91156" lon="0.21816">
        <ele>1617</ele>
        <time>2013-04-07T06:34:34Z</time>
      </trkpt>
      <trkpt lat="42.91155" lon="0.21815">
        <ele>1617</ele>
        <time>2013-04-07T06:34:37Z</time>
      </trkpt>
      <trkpt lat="42.91153" lon="0.21814">
        <ele>1617</ele>
        <time>2013-04-07T06:34:40Z</time>
      </trkpt>
      <trkpt lat="42.91152" lon="0.21812">
        <ele>1618</ele>
        <time>2013-04-07T06:34:43Z</time>
      </trkpt>
      <trkpt lat="42.91151" lon="0.21811">
        <ele>1619</ele>
        <time>2013-04-07T06:34:46Z</time>
      </trkpt>
      <trkpt lat="42.9115" lon="0.21809">
        <ele>1619</ele>
        <time>2013-04-07T06:34:49Z</time>
      </trkpt>
      <trkpt lat="42.91148" lon="0.21807">
        <ele>1620</ele>
        <time>2013-04-07T06:34:52Z</time>
      </trkpt>
      <trkpt lat="42.91147" lon="0.21805">
        <ele>1621</ele>
        <time>2013-04-07T06:34:55Z</time>
      </trkpt>
      <trkpt lat="42.91145" lon="0.21804">
        <ele>1622</ele>
        <time>2013-04-07T06:34:58Z</time>
      </trkpt>
      <trkpt lat="42.91144" lon="0.21803">
        <ele>1623</ele>
        <time>2013-04-07T06:35:00Z</time>
      </trkpt>
      <trkpt lat="42.91143" lon="0.21801">
        <ele>1624</ele>
        <time>2013-04-07T06:35:03Z</time>
      </trkpt>
      <trkpt lat="42.91142" lon="0.218">
        <ele>1625</ele>
        <time>2013-04-07T06:35:06Z</time>
      </trkpt>
      <trkpt lat="42.91141" lon="0.21798">
        <ele>1626</ele>
        <time>2013-04-07T06:35:09Z</time>
      </trkpt>
      <trkpt lat="42.91139" lon="0.21796">
        <ele>1626</ele>
        <time>2013-04-07T06:35:12Z</time>
      </trkpt>
      <trkpt lat="42.91138" lon="0.21795">
        <ele>1627</ele>
        <time>2013-04-07T06:35:20Z</time>
      </trkpt>
      <trkpt lat="42.91137" lon="0.21795">
        <ele>1627</ele>
        <time>2013-04-07T06:35:22Z</time>
      </trkpt>
      <trkpt lat="42.91135" lon="0.21797">
        <ele>1627</ele>
        <time>2013-04-07T06:35:25Z</time>
      </trkpt>
      <trkpt lat="42.91135" lon="0.21798">
        <ele>1627</ele>
        <time>2013-04-07T06:35:27Z</time>
      </trkpt>
      <trkpt lat="42.91134" lon="0.218">
        <ele>1627</ele>
        <time>2013-04-07T06:35:29Z</time>
      </trkpt>
      <trkpt lat="42.91133" lon="0.21801">
        <ele>1627</ele>
        <time>2013-04-07T06:35:31Z</time>
      </trkpt>
      <trkpt lat="42.91132" lon="0.21803">
        <ele>1627</ele>
        <time>2013-04-07T06:35:34Z</time>
      </trkpt>
      <trkpt lat="42.91131" lon="0.21805">
        <ele>1627</ele>
        <time>2013-04-07T06:35:36Z</time>
      </trkpt>
      <trkpt lat="42.9113" lon="0.21806">
        <ele>1627</ele>
        <time>2013-04-07T06:35:38Z</time>
      </trkpt>
      <trkpt lat="42.91129" lon="0.21808">
        <ele>1627</ele>
        <time>2013-04-07T06:35:40Z</time>
      </trkpt>
      <trkpt lat="42.91128" lon="0.2181">
        <ele>1627</ele>
        <time>2013-04-07T06:35:42Z</time>
      </trkpt>
      <trkpt lat="42.91127" lon="0.21811">
        <ele>1627</ele>
        <time>2013-04-07T06:35:44Z</time>
      </trkpt>
      <trkpt lat="42.91126" lon="0.21813">
        <ele>1627</ele>
        <time>2013-04-07T06:35:46Z</time>
      </trkpt>
      <trkpt lat="42.91125" lon="0.21814">
        <ele>1628</ele>
        <time>2013-04-07T06:35:49Z</time>
      </trkpt>
      <trkpt lat="42.91124" lon="0.21815">
        <ele>1628</ele>
        <time>2013-04-07T06:35:51Z</time>
      </trkpt>
      <trkpt lat="42.91122" lon="0.21817">
        <ele>1628</ele>
        <time>2013-04-07T06:35:53Z</time>
      </trkpt>
      <trkpt lat="42.91121" lon="0.21817">
        <ele>1629</ele>
        <time>2013-04-07T06:35:55Z</time>
      </trkpt>
      <trkpt lat="42.91119" lon="0.21818">
        <ele>1629</ele>
        <time>2013-04-07T06:35:57Z</time>
      </trkpt>
      <trkpt lat="42.91118" lon="0.21819">
        <ele>1629</ele>
        <time>2013-04-07T06:35:59Z</time>
      </trkpt>
      <trkpt lat="42.91116" lon="0.2182">
        <ele>1630</ele>
        <time>2013-04-07T06:36:01Z</time>
      </trkpt>
      <trkpt lat="42.91115" lon="0.2182">
        <ele>1630</ele>
        <time>2013-04-07T06:36:03Z</time>
      </trkpt>
      <trkpt lat="42.91114" lon="0.21821">
        <ele>1630</ele>
        <time>2013-04-07T06:36:05Z</time>
      </trkpt>
      <trkpt lat="42.91113" lon="0.21821">
        <ele>1631</ele>
        <time>2013-04-07T06:36:07Z</time>
      </trkpt>
      <trkpt lat="42.91111" lon="0.21821">
        <ele>1631</ele>
        <time>2013-04-07T06:36:09Z</time>
      </trkpt>
      <trkpt lat="42.9111" lon="0.21821">
        <ele>1631</ele>
        <time>2013-04-07T06:36:11Z</time>
      </trkpt>
      <trkpt lat="42.91108" lon="0.21822">
        <ele>1631</ele>
        <time>2013-04-07T06:36:13Z</time>
      </trkpt>
      <trkpt lat="42.91107" lon="0.21822">
        <ele>1632</ele>
        <time>2013-04-07T06:36:15Z</time>
      </trkpt>
      <trkpt lat="42.91105" lon="0.21822">
        <ele>1632</ele>
        <time>2013-04-07T06:36:17Z</time>
      </trkpt>
      <trkpt lat="42.91104" lon="0.21823">
        <ele>1632</ele>
        <time>2013-04-07T06:36:19Z</time>
      </trkpt>
      <trkpt lat="42.91102" lon="0.21823">
        <ele>1632</ele>
        <time>2013-04-07T06:36:21Z</time>
      </trkpt>
      <trkpt lat="42.911" lon="0.21823">
        <ele>1632</ele>
        <time>2013-04-07T06:36:23Z</time>
      </trkpt>
      <trkpt lat="42.91099" lon="0.21822">
        <ele>1632</ele>
        <time>2013-04-07T06:36:25Z</time>
      </trkpt>
      <trkpt lat="42.91097" lon="0.21821">
        <ele>1632</ele>
        <time>2013-04-07T06:36:27Z</time>
      </trkpt>
      <trkpt lat="42.91096" lon="0.2182">
        <ele>1632</ele>
        <time>2013-04-07T06:36:29Z</time>
      </trkpt>
      <trkpt lat="42.91094" lon="0.21819">
        <ele>1632</ele>
        <time>2013-04-07T06:36:31Z</time>
      </trkpt>
      <trkpt lat="42.91092" lon="0.21819">
        <ele>1632</ele>
        <time>2013-04-07T06:36:33Z</time>
      </trkpt>
      <trkpt lat="42.9109" lon="0.21818">
        <ele>1632</ele>
        <time>2013-04-07T06:36:35Z</time>
      </trkpt>
      <trkpt lat="42.91089" lon="0.21817">
        <ele>1632</ele>
        <time>2013-04-07T06:36:37Z</time>
      </trkpt>
      <trkpt lat="42.91087" lon="0.21816">
        <ele>1632</ele>
        <time>2013-04-07T06:36:39Z</time>
      </trkpt>
      <trkpt lat="42.91085" lon="0.21815">
        <ele>1633</ele>
        <time>2013-04-07T06:36:41Z</time>
      </trkpt>
      <trkpt lat="42.91083" lon="0.21815">
        <ele>1633</ele>
        <time>2013-04-07T06:36:43Z</time>
      </trkpt>
      <trkpt lat="42.91081" lon="0.21814">
        <ele>1634</ele>
        <time>2013-04-07T06:36:45Z</time>
      </trkpt>
      <trkpt lat="42.91079" lon="0.21813">
        <ele>1634</ele>
        <time>2013-04-07T06:36:47Z</time>
      </trkpt>
      <trkpt lat="42.91078" lon="0.21812">
        <ele>1634</ele>
        <time>2013-04-07T06:36:49Z</time>
      </trkpt>
      <trkpt lat="42.91076" lon="0.21811">
        <ele>1634</ele>
        <time>2013-04-07T06:36:51Z</time>
      </trkpt>
      <trkpt lat="42.91074" lon="0.2181">
        <ele>1634</ele>
        <time>2013-04-07T06:36:53Z</time>
      </trkpt>
      <trkpt lat="42.91072" lon="0.21809">
        <ele>1634</ele>
        <time>2013-04-07T06:36:55Z</time>
      </trkpt>
      <trkpt lat="42.9107" lon="0.21808">
        <ele>1634</ele>
        <time>2013-04-07T06:36:57Z</time>
      </trkpt>
      <trkpt lat="42.91069" lon="0.21808">
        <ele>1634</ele>
        <time>2013-04-07T06:36:58Z</time>
      </trkpt>
      <trkpt lat="42.91066" lon="0.21807">
        <ele>1634</ele>
        <time>2013-04-07T06:37:00Z</time>
      </trkpt>
      <trkpt lat="42.91065" lon="0.21806">
        <ele>1634</ele>
        <time>2013-04-07T06:37:02Z</time>
      </trkpt>
      <trkpt lat="42.91063" lon="0.21805">
        <ele>1634</ele>
        <time>2013-04-07T06:37:04Z</time>
      </trkpt>
      <trkpt lat="42.91061" lon="0.21805">
        <ele>1634</ele>
        <time>2013-04-07T06:37:06Z</time>
      </trkpt>
      <trkpt lat="42.91058" lon="0.21804">
        <ele>1634</ele>
        <time>2013-04-07T06:37:08Z</time>
      </trkpt>
      <trkpt lat="42.91056" lon="0.21804">
        <ele>1634</ele>
        <time>2013-04-07T06:37:10Z</time>
      </trkpt>
      <trkpt lat="42.91055" lon="0.21804">
        <ele>1634</ele>
        <time>2013-04-07T06:37:11Z</time>
      </trkpt>
      <trkpt lat="42.91053" lon="0.21804">
        <ele>1634</ele>
        <time>2013-04-07T06:37:13Z</time>
      </trkpt>
      <trkpt lat="42.91052" lon="0.21804">
        <ele>1634</ele>
        <time>2013-04-07T06:37:14Z</time>
      </trkpt>
      <trkpt lat="42.9105" lon="0.21804">
        <ele>1634</ele>
        <time>2013-04-07T06:37:16Z</time>
      </trkpt>
      <trkpt lat="42.91049" lon="0.21804">
        <ele>1634</ele>
        <time>2013-04-07T06:37:17Z</time>
      </trkpt>
      <trkpt lat="42.91047" lon="0.21804">
        <ele>1634</ele>
        <time>2013-04-07T06:37:19Z</time>
      </trkpt>
      <trkpt lat="42.91045" lon="0.21804">
        <ele>1634</ele>
        <time>2013-04-07T06:37:21Z</time>
      </trkpt>
      <trkpt lat="42.91043" lon="0.21804">
        <ele>1634</ele>
        <time>2013-04-07T06:37:23Z</time>
      </trkpt>
      <trkpt lat="42.91042" lon="0.21804">
        <ele>1634</ele>
        <time>2013-04-07T06:37:24Z</time>
      </trkpt>
      <trkpt lat="42.9104" lon="0.21803">
        <ele>1634</ele>
        <time>2013-04-07T06:37:26Z</time>
      </trkpt>
      <trkpt lat="42.91039" lon="0.21803">
        <ele>1634</ele>
        <time>2013-04-07T06:37:27Z</time>
      </trkpt>
      <trkpt lat="42.91037" lon="0.21803">
        <ele>1634</ele>
        <time>2013-04-07T06:37:28Z</time>
      </trkpt>
      <trkpt lat="42.91034" lon="0.21803">
        <ele>1634</ele>
        <time>2013-04-07T06:37:30Z</time>
      </trkpt>
      <trkpt lat="42.91032" lon="0.21803">
        <ele>1634</ele>
        <time>2013-04-07T06:37:31Z</time>
      </trkpt>
      <trkpt lat="42.91031" lon="0.21803">
        <ele>1634</ele>
        <time>2013-04-07T06:37:32Z</time>
      </trkpt>
      <trkpt lat="42.9103" lon="0.21803">
        <ele>1634</ele>
        <time>2013-04-07T06:37:33Z</time>
      </trkpt>
      <trkpt lat="42.91029" lon="0.21803">
        <ele>1634</ele>
        <time>2013-04-07T06:37:34Z</time>
      </trkpt>
      <trkpt lat="42.91027" lon="0.21803">
        <ele>1634</ele>
        <time>2013-04-07T06:37:36Z</time>
      </trkpt>
      <trkpt lat="42.91025" lon="0.21803">
        <ele>1634</ele>
        <time>2013-04-07T06:37:38Z</time>
      </trkpt>
      <trkpt lat="42.91023" lon="0.21802">
        <ele>1634</ele>
        <time>2013-04-07T06:37:40Z</time>
      </trkpt>
      <trkpt lat="42.91021" lon="0.21802">
        <ele>1634</ele>
        <time>2013-04-07T06:37:42Z</time>
      </trkpt>
      <trkpt lat="42.91019" lon="0.21801">
        <ele>1634</ele>
        <time>2013-04-07T06:37:44Z</time>
      </trkpt>
      <trkpt lat="42.91018" lon="0.218">
        <ele>1634</ele>
        <time>2013-04-07T06:37:46Z</time>
      </trkpt>
      <trkpt lat="42.91016" lon="0.21799">
        <ele>1634</ele>
        <time>2013-04-07T06:37:48Z</time>
      </trkpt>
      <trkpt lat="42.91014" lon="0.21798">
        <ele>1634</ele>
        <time>2013-04-07T06:37:50Z</time>
      </trkpt>
      <trkpt lat="42.91012" lon="0.21797">
        <ele>1634</ele>
        <time>2013-04-07T06:37:52Z</time>
      </trkpt>
      <trkpt lat="42.9101" lon="0.21796">
        <ele>1634</ele>
        <time>2013-04-07T06:37:54Z</time>
      </trkpt>
      <trkpt lat="42.91008" lon="0.21795">
        <ele>1634</ele>
        <time>2013-04-07T06:37:56Z</time>
      </trkpt>
      <trkpt lat="42.91006" lon="0.21794">
        <ele>1634</ele>
        <time>2013-04-07T06:37:58Z</time>
      </trkpt>
      <trkpt lat="42.91005" lon="0.21793">
        <ele>1634</ele>
        <time>2013-04-07T06:38:00Z</time>
      </trkpt>
      <trkpt lat="42.91003" lon="0.21792">
        <ele>1634</ele>
        <time>2013-04-07T06:38:02Z</time>
      </trkpt>
      <trkpt lat="42.91001" lon="0.21791">
        <ele>1634</ele>
        <time>2013-04-07T06:38:04Z</time>
      </trkpt>
      <trkpt lat="42.91" lon="0.21789">
        <ele>1634</ele>
        <time>2013-04-07T06:38:06Z</time>
      </trkpt>
      <trkpt lat="42.90998" lon="0.21788">
        <ele>1634</ele>
        <time>2013-04-07T06:38:08Z</time>
      </trkpt>
      <trkpt lat="42.90996" lon="0.21787">
        <ele>1634</ele>
        <time>2013-04-07T06:38:10Z</time>
      </trkpt>
      <trkpt lat="42.90995" lon="0.21785">
        <ele>1634</ele>
        <time>2013-04-07T06:38:12Z</time>
      </trkpt>
      <trkpt lat="42.90993" lon="0.21784">
        <ele>1634</ele>
        <time>2013-04-07T06:38:14Z</time>
      </trkpt>
      <trkpt lat="42.90992" lon="0.21783">
        <ele>1634</ele>
        <time>2013-04-07T06:38:16Z</time>
      </trkpt>
      <trkpt lat="42.9099" lon="0.21782">
        <ele>1634</ele>
        <time>2013-04-07T06:38:18Z</time>
      </trkpt>
      <trkpt lat="42.90989" lon="0.2178">
        <ele>1634</ele>
        <time>2013-04-07T06:38:20Z</time>
      </trkpt>
      <trkpt lat="42.90987" lon="0.21779">
        <ele>1634</ele>
        <time>2013-04-07T06:38:22Z</time>
      </trkpt>
      <trkpt lat="42.90986" lon="0.21778">
        <ele>1634</ele>
        <time>2013-04-07T06:38:24Z</time>
      </trkpt>
      <trkpt lat="42.90985" lon="0.21777">
        <ele>1635</ele>
        <time>2013-04-07T06:38:26Z</time>
      </trkpt>
      <trkpt lat="42.90984" lon="0.21776">
        <ele>1635</ele>
        <time>2013-04-07T06:38:28Z</time>
      </trkpt>
      <trkpt lat="42.90982" lon="0.21775">
        <ele>1636</ele>
        <time>2013-04-07T06:38:30Z</time>
      </trkpt>
      <trkpt lat="42.90981" lon="0.21773">
        <ele>1636</ele>
        <time>2013-04-07T06:38:32Z</time>
      </trkpt>
      <trkpt lat="42.90979" lon="0.21772">
        <ele>1636</ele>
        <time>2013-04-07T06:38:34Z</time>
      </trkpt>
      <trkpt lat="42.90978" lon="0.21771">
        <ele>1636</ele>
        <time>2013-04-07T06:38:36Z</time>
      </trkpt>
      <trkpt lat="42.90976" lon="0.21769">
        <ele>1636</ele>
        <time>2013-04-07T06:38:38Z</time>
      </trkpt>
      <trkpt lat="42.90975" lon="0.21768">
        <ele>1637</ele>
        <time>2013-04-07T06:38:40Z</time>
      </trkpt>
      <trkpt lat="42.90974" lon="0.21766">
        <ele>1637</ele>
        <time>2013-04-07T06:38:42Z</time>
      </trkpt>
      <trkpt lat="42.90972" lon="0.21765">
        <ele>1637</ele>
        <time>2013-04-07T06:38:44Z</time>
      </trkpt>
      <trkpt lat="42.90971" lon="0.21764">
        <ele>1638</ele>
        <time>2013-04-07T06:38:46Z</time>
      </trkpt>
      <trkpt lat="42.90969" lon="0.21762">
        <ele>1638</ele>
        <time>2013-04-07T06:38:48Z</time>
      </trkpt>
      <trkpt lat="42.90968" lon="0.21761">
        <ele>1638</ele>
        <time>2013-04-07T06:38:56Z</time>
      </trkpt>
      <trkpt lat="42.90966" lon="0.2176">
        <ele>1638</ele>
        <time>2013-04-07T06:38:58Z</time>
      </trkpt>
      <trkpt lat="42.90965" lon="0.21758">
        <ele>1638</ele>
        <time>2013-04-07T06:39:00Z</time>
      </trkpt>
      <trkpt lat="42.90963" lon="0.21757">
        <ele>1638</ele>
        <time>2013-04-07T06:39:02Z</time>
      </trkpt>
      <trkpt lat="42.90962" lon="0.21756">
        <ele>1638</ele>
        <time>2013-04-07T06:39:05Z</time>
      </trkpt>
      <trkpt lat="42.90961" lon="0.21754">
        <ele>1639</ele>
        <time>2013-04-07T06:39:11Z</time>
      </trkpt>
      <trkpt lat="42.9096" lon="0.21752">
        <ele>1639</ele>
        <time>2013-04-07T06:39:13Z</time>
      </trkpt>
      <trkpt lat="42.90958" lon="0.21752">
        <ele>1639</ele>
        <time>2013-04-07T06:39:15Z</time>
      </trkpt>
      <trkpt lat="42.90956" lon="0.2175">
        <ele>1639</ele>
        <time>2013-04-07T06:39:17Z</time>
      </trkpt>
      <trkpt lat="42.90955" lon="0.21748">
        <ele>1640</ele>
        <time>2013-04-07T06:39:34Z</time>
      </trkpt>
      <trkpt lat="42.90953" lon="0.21747">
        <ele>1640</ele>
        <time>2013-04-07T06:39:36Z</time>
      </trkpt>
      <trkpt lat="42.90952" lon="0.21745">
        <ele>1641</ele>
        <time>2013-04-07T06:39:38Z</time>
      </trkpt>
      <trkpt lat="42.9095" lon="0.21744">
        <ele>1641</ele>
        <time>2013-04-07T06:39:40Z</time>
      </trkpt>
      <trkpt lat="42.90948" lon="0.21743">
        <ele>1641</ele>
        <time>2013-04-07T06:39:42Z</time>
      </trkpt>
      <trkpt lat="42.90946" lon="0.21742">
        <ele>1641</ele>
        <time>2013-04-07T06:39:44Z</time>
      </trkpt>
      <trkpt lat="42.90945" lon="0.21741">
        <ele>1641</ele>
        <time>2013-04-07T06:39:46Z</time>
      </trkpt>
      <trkpt lat="42.90943" lon="0.2174">
        <ele>1641</ele>
        <time>2013-04-07T06:39:48Z</time>
      </trkpt>
      <trkpt lat="42.90941" lon="0.21739">
        <ele>1641</ele>
        <time>2013-04-07T06:39:50Z</time>
      </trkpt>
      <trkpt lat="42.9094" lon="0.21738">
        <ele>1642</ele>
        <time>2013-04-07T06:39:52Z</time>
      </trkpt>
      <trkpt lat="42.90938" lon="0.21736">
        <ele>1642</ele>
        <time>2013-04-07T06:39:54Z</time>
      </trkpt>
      <trkpt lat="42.90936" lon="0.21736">
        <ele>1642</ele>
        <time>2013-04-07T06:39:56Z</time>
      </trkpt>
      <trkpt lat="42.90934" lon="0.21734">
        <ele>1642</ele>
        <time>2013-04-07T06:39:58Z</time>
      </trkpt>
      <trkpt lat="42.90932" lon="0.21734">
        <ele>1642</ele>
        <time>2013-04-07T06:40:00Z</time>
      </trkpt>
      <trkpt lat="42.90931" lon="0.21733">
        <ele>1642</ele>
        <time>2013-04-07T06:40:01Z</time>
      </trkpt>
      <trkpt lat="42.9093" lon="0.21733">
        <ele>1642</ele>
        <time>2013-04-07T06:40:02Z</time>
      </trkpt>
      <trkpt lat="42.90928" lon="0.21733">
        <ele>1642</ele>
        <time>2013-04-07T06:40:04Z</time>
      </trkpt>
      <trkpt lat="42.90926" lon="0.21733">
        <ele>1642</ele>
        <time>2013-04-07T06:40:05Z</time>
      </trkpt>
      <trkpt lat="42.90924" lon="0.21734">
        <ele>1642</ele>
        <time>2013-04-07T06:40:07Z</time>
      </trkpt>
      <trkpt lat="42.90923" lon="0.21735">
        <ele>1642</ele>
        <time>2013-04-07T06:40:09Z</time>
      </trkpt>
      <trkpt lat="42.90921" lon="0.21737">
        <ele>1642</ele>
        <time>2013-04-07T06:40:10Z</time>
      </trkpt>
      <trkpt lat="42.90919" lon="0.21739">
        <ele>1642</ele>
        <time>2013-04-07T06:40:11Z</time>
      </trkpt>
      <trkpt lat="42.90917" lon="0.21741">
        <ele>1642</ele>
        <time>2013-04-07T06:40:12Z</time>
      </trkpt>
      <trkpt lat="42.90916" lon="0.21742">
        <ele>1642</ele>
        <time>2013-04-07T06:40:13Z</time>
      </trkpt>
      <trkpt lat="42.90915" lon="0.21743">
        <ele>1642</ele>
        <time>2013-04-07T06:40:14Z</time>
      </trkpt>
      <trkpt lat="42.90913" lon="0.21744">
        <ele>1642</ele>
        <time>2013-04-07T06:40:15Z</time>
      </trkpt>
      <trkpt lat="42.90911" lon="0.21745">
        <ele>1642</ele>
        <time>2013-04-07T06:40:17Z</time>
      </trkpt>
      <trkpt lat="42.9091" lon="0.21746">
        <ele>1642</ele>
        <time>2013-04-07T06:40:18Z</time>
      </trkpt>
      <trkpt lat="42.90909" lon="0.21746">
        <ele>1642</ele>
        <time>2013-04-07T06:40:19Z</time>
      </trkpt>
      <trkpt lat="42.90907" lon="0.21747">
        <ele>1642</ele>
        <time>2013-04-07T06:40:20Z</time>
      </trkpt>
      <trkpt lat="42.90905" lon="0.21748">
        <ele>1642</ele>
        <time>2013-04-07T06:40:21Z</time>
      </trkpt>
      <trkpt lat="42.90903" lon="0.21748">
        <ele>1641</ele>
        <time>2013-04-07T06:40:22Z</time>
      </trkpt>
      <trkpt lat="42.90901" lon="0.21748">
        <ele>1641</ele>
        <time>2013-04-07T06:40:24Z</time>
      </trkpt>
      <trkpt lat="42.909" lon="0.21747">
        <ele>1641</ele>
        <time>2013-04-07T06:40:27Z</time>
      </trkpt>
      <trkpt lat="42.90899" lon="0.21746">
        <ele>1641</ele>
        <time>2013-04-07T06:40:29Z</time>
      </trkpt>
      <trkpt lat="42.90897" lon="0.21745">
        <ele>1641</ele>
        <time>2013-04-07T06:40:31Z</time>
      </trkpt>
      <trkpt lat="42.90895" lon="0.21745">
        <ele>1641</ele>
        <time>2013-04-07T06:40:33Z</time>
      </trkpt>
      <trkpt lat="42.90893" lon="0.21745">
        <ele>1641</ele>
        <time>2013-04-07T06:40:35Z</time>
      </trkpt>
      <trkpt lat="42.90891" lon="0.21744">
        <ele>1641</ele>
        <time>2013-04-07T06:40:37Z</time>
      </trkpt>
      <trkpt lat="42.90889" lon="0.21744">
        <ele>1641</ele>
        <time>2013-04-07T06:40:39Z</time>
      </trkpt>
      <trkpt lat="42.90887" lon="0.21744">
        <ele>1641</ele>
        <time>2013-04-07T06:40:41Z</time>
      </trkpt>
      <trkpt lat="42.90885" lon="0.21743">
        <ele>1641</ele>
        <time>2013-04-07T06:40:43Z</time>
      </trkpt>
      <trkpt lat="42.90883" lon="0.21743">
        <ele>1641</ele>
        <time>2013-04-07T06:40:45Z</time>
      </trkpt>
      <trkpt lat="42.90881" lon="0.21742">
        <ele>1641</ele>
        <time>2013-04-07T06:40:47Z</time>
      </trkpt>
      <trkpt lat="42.90879" lon="0.21741">
        <ele>1641</ele>
        <time>2013-04-07T06:40:49Z</time>
      </trkpt>
      <trkpt lat="42.90878" lon="0.2174">
        <ele>1641</ele>
        <time>2013-04-07T06:40:51Z</time>
      </trkpt>
      <trkpt lat="42.90875" lon="0.21739">
        <ele>1641</ele>
        <time>2013-04-07T06:40:53Z</time>
      </trkpt>
      <trkpt lat="42.90873" lon="0.21738">
        <ele>1641</ele>
        <time>2013-04-07T06:40:55Z</time>
      </trkpt>
      <trkpt lat="42.90872" lon="0.21737">
        <ele>1641</ele>
        <time>2013-04-07T06:40:56Z</time>
      </trkpt>
      <trkpt lat="42.90871" lon="0.21736">
        <ele>1641</ele>
        <time>2013-04-07T06:40:57Z</time>
      </trkpt>
      <trkpt lat="42.90869" lon="0.21735">
        <ele>1641</ele>
        <time>2013-04-07T06:40:59Z</time>
      </trkpt>
      <trkpt lat="42.90867" lon="0.21733">
        <ele>1641</ele>
        <time>2013-04-07T06:41:01Z</time>
      </trkpt>
      <trkpt lat="42.90865" lon="0.21731">
        <ele>1641</ele>
        <time>2013-04-07T06:41:03Z</time>
      </trkpt>
      <trkpt lat="42.90863" lon="0.21729">
        <ele>1641</ele>
        <time>2013-04-07T06:41:05Z</time>
      </trkpt>
      <trkpt lat="42.90861" lon="0.21728">
        <ele>1641</ele>
        <time>2013-04-07T06:41:07Z</time>
      </trkpt>
      <trkpt lat="42.9086" lon="0.21727">
        <ele>1641</ele>
        <time>2013-04-07T06:41:09Z</time>
      </trkpt>
      <trkpt lat="42.90858" lon="0.21726">
        <ele>1641</ele>
        <time>2013-04-07T06:41:11Z</time>
      </trkpt>
      <trkpt lat="42.90856" lon="0.21725">
        <ele>1641</ele>
        <time>2013-04-07T06:41:13Z</time>
      </trkpt>
      <trkpt lat="42.90854" lon="0.21724">
        <ele>1641</ele>
        <time>2013-04-07T06:41:15Z</time>
      </trkpt>
      <trkpt lat="42.90852" lon="0.21723">
        <ele>1641</ele>
        <time>2013-04-07T06:41:17Z</time>
      </trkpt>
      <trkpt lat="42.9085" lon="0.21722">
        <ele>1641</ele>
        <time>2013-04-07T06:41:19Z</time>
      </trkpt>
      <trkpt lat="42.90848" lon="0.21721">
        <ele>1641</ele>
        <time>2013-04-07T06:41:21Z</time>
      </trkpt>
      <trkpt lat="42.90846" lon="0.2172">
        <ele>1641</ele>
        <time>2013-04-07T06:41:23Z</time>
      </trkpt>
      <trkpt lat="42.90844" lon="0.21719">
        <ele>1641</ele>
        <time>2013-04-07T06:41:25Z</time>
      </trkpt>
      <trkpt lat="42.90842" lon="0.21718">
        <ele>1641</ele>
        <time>2013-04-07T06:41:27Z</time>
      </trkpt>
      <trkpt lat="42.90841" lon="0.21717">
        <ele>1641</ele>
        <time>2013-04-07T06:41:28Z</time>
      </trkpt>
      <trkpt lat="42.90839" lon="0.21717">
        <ele>1641</ele>
        <time>2013-04-07T06:41:30Z</time>
      </trkpt>
      <trkpt lat="42.90837" lon="0.21715">
        <ele>1641</ele>
        <time>2013-04-07T06:41:32Z</time>
      </trkpt>
      <trkpt lat="42.90835" lon="0.21714">
        <ele>1641</ele>
        <time>2013-04-07T06:41:34Z</time>
      </trkpt>
      <trkpt lat="42.90833" lon="0.21713">
        <ele>1641</ele>
        <time>2013-04-07T06:41:36Z</time>
      </trkpt>
      <trkpt lat="42.90831" lon="0.21712">
        <ele>1641</ele>
        <time>2013-04-07T06:41:38Z</time>
      </trkpt>
      <trkpt lat="42.90829" lon="0.21711">
        <ele>1641</ele>
        <time>2013-04-07T06:41:40Z</time>
      </trkpt>
      <trkpt lat="42.90828" lon="0.2171">
        <ele>1641</ele>
        <time>2013-04-07T06:41:42Z</time>
      </trkpt>
      <trkpt lat="42.90826" lon="0.21709">
        <ele>1641</ele>
        <time>2013-04-07T06:41:44Z</time>
      </trkpt>
      <trkpt lat="42.90825" lon="0.21708">
        <ele>1641</ele>
        <time>2013-04-07T06:41:46Z</time>
      </trkpt>
      <trkpt lat="42.90823" lon="0.21707">
        <ele>1641</ele>
        <time>2013-04-07T06:41:48Z</time>
      </trkpt>
      <trkpt lat="42.90822" lon="0.21706">
        <ele>1641</ele>
        <time>2013-04-07T06:41:50Z</time>
      </trkpt>
      <trkpt lat="42.9082" lon="0.21705">
        <ele>1641</ele>
        <time>2013-04-07T06:41:52Z</time>
      </trkpt>
      <trkpt lat="42.90819" lon="0.21704">
        <ele>1641</ele>
        <time>2013-04-07T06:41:54Z</time>
      </trkpt>
      <trkpt lat="42.90817" lon="0.21703">
        <ele>1641</ele>
        <time>2013-04-07T06:41:56Z</time>
      </trkpt>
      <trkpt lat="42.90815" lon="0.21702">
        <ele>1641</ele>
        <time>2013-04-07T06:41:58Z</time>
      </trkpt>
      <trkpt lat="42.90814" lon="0.21701">
        <ele>1641</ele>
        <time>2013-04-07T06:42:00Z</time>
      </trkpt>
      <trkpt lat="42.90812" lon="0.217">
        <ele>1641</ele>
        <time>2013-04-07T06:42:02Z</time>
      </trkpt>
      <trkpt lat="42.90811" lon="0.21699">
        <ele>1641</ele>
        <time>2013-04-07T06:42:04Z</time>
      </trkpt>
      <trkpt lat="42.90809" lon="0.21697">
        <ele>1641</ele>
        <time>2013-04-07T06:42:06Z</time>
      </trkpt>
      <trkpt lat="42.90807" lon="0.21696">
        <ele>1641</ele>
        <time>2013-04-07T06:42:08Z</time>
      </trkpt>
      <trkpt lat="42.90805" lon="0.21694">
        <ele>1641</ele>
        <time>2013-04-07T06:42:10Z</time>
      </trkpt>
      <trkpt lat="42.90804" lon="0.21693">
        <ele>1641</ele>
        <time>2013-04-07T06:42:12Z</time>
      </trkpt>
      <trkpt lat="42.90802" lon="0.21692">
        <ele>1641</ele>
        <time>2013-04-07T06:42:14Z</time>
      </trkpt>
      <trkpt lat="42.908" lon="0.2169">
        <ele>1641</ele>
        <time>2013-04-07T06:42:16Z</time>
      </trkpt>
      <trkpt lat="42.90798" lon="0.21689">
        <ele>1641</ele>
        <time>2013-04-07T06:42:18Z</time>
      </trkpt>
      <trkpt lat="42.90796" lon="0.21688">
        <ele>1641</ele>
        <time>2013-04-07T06:42:20Z</time>
      </trkpt>
      <trkpt lat="42.90794" lon="0.21686">
        <ele>1641</ele>
        <time>2013-04-07T06:42:22Z</time>
      </trkpt>
      <trkpt lat="42.90793" lon="0.21685">
        <ele>1641</ele>
        <time>2013-04-07T06:42:24Z</time>
      </trkpt>
      <trkpt lat="42.90791" lon="0.21683">
        <ele>1641</ele>
        <time>2013-04-07T06:42:26Z</time>
      </trkpt>
      <trkpt lat="42.90789" lon="0.21682">
        <ele>1641</ele>
        <time>2013-04-07T06:42:28Z</time>
      </trkpt>
      <trkpt lat="42.90788" lon="0.21681">
        <ele>1641</ele>
        <time>2013-04-07T06:42:30Z</time>
      </trkpt>
      <trkpt lat="42.90786" lon="0.21679">
        <ele>1641</ele>
        <time>2013-04-07T06:42:32Z</time>
      </trkpt>
      <trkpt lat="42.90785" lon="0.21679">
        <ele>1641</ele>
        <time>2013-04-07T06:42:34Z</time>
      </trkpt>
      <trkpt lat="42.90783" lon="0.21677">
        <ele>1641</ele>
        <time>2013-04-07T06:42:36Z</time>
      </trkpt>
      <trkpt lat="42.90781" lon="0.21676">
        <ele>1641</ele>
        <time>2013-04-07T06:42:38Z</time>
      </trkpt>
      <trkpt lat="42.9078" lon="0.21675">
        <ele>1641</ele>
        <time>2013-04-07T06:42:39Z</time>
      </trkpt>
      <trkpt lat="42.90778" lon="0.21674">
        <ele>1641</ele>
        <time>2013-04-07T06:42:41Z</time>
      </trkpt>
      <trkpt lat="42.90776" lon="0.21673">
        <ele>1641</ele>
        <time>2013-04-07T06:42:43Z</time>
      </trkpt>
      <trkpt lat="42.90774" lon="0.21672">
        <ele>1641</ele>
        <time>2013-04-07T06:42:45Z</time>
      </trkpt>
      <trkpt lat="42.90773" lon="0.21671">
        <ele>1641</ele>
        <time>2013-04-07T06:42:47Z</time>
      </trkpt>
      <trkpt lat="42.90771" lon="0.2167">
        <ele>1641</ele>
        <time>2013-04-07T06:42:49Z</time>
      </trkpt>
      <trkpt lat="42.90769" lon="0.21669">
        <ele>1641</ele>
        <time>2013-04-07T06:42:51Z</time>
      </trkpt>
      <trkpt lat="42.90768" lon="0.21668">
        <ele>1641</ele>
        <time>2013-04-07T06:42:53Z</time>
      </trkpt>
      <trkpt lat="42.90766" lon="0.21666">
        <ele>1641</ele>
        <time>2013-04-07T06:42:55Z</time>
      </trkpt>
      <trkpt lat="42.90765" lon="0.21665">
        <ele>1641</ele>
        <time>2013-04-07T06:42:57Z</time>
      </trkpt>
      <trkpt lat="42.90763" lon="0.21664">
        <ele>1641</ele>
        <time>2013-04-07T06:42:59Z</time>
      </trkpt>
      <trkpt lat="42.90762" lon="0.21663">
        <ele>1642</ele>
        <time>2013-04-07T06:43:02Z</time>
      </trkpt>
      <trkpt lat="42.9076" lon="0.21662">
        <ele>1642</ele>
        <time>2013-04-07T06:43:04Z</time>
      </trkpt>
      <trkpt lat="42.90759" lon="0.2166">
        <ele>1643</ele>
        <time>2013-04-07T06:43:06Z</time>
      </trkpt>
      <trkpt lat="42.90757" lon="0.21658">
        <ele>1643</ele>
        <time>2013-04-07T06:43:08Z</time>
      </trkpt>
      <trkpt lat="42.90756" lon="0.21657">
        <ele>1643</ele>
        <time>2013-04-07T06:43:10Z</time>
      </trkpt>
      <trkpt lat="42.90754" lon="0.21656">
        <ele>1643</ele>
        <time>2013-04-07T06:43:13Z</time>
      </trkpt>
      <trkpt lat="42.90753" lon="0.21654">
        <ele>1644</ele>
        <time>2013-04-07T06:43:16Z</time>
      </trkpt>
      <trkpt lat="42.90752" lon="0.21653">
        <ele>1644</ele>
        <time>2013-04-07T06:43:18Z</time>
      </trkpt>
      <trkpt lat="42.90751" lon="0.21651">
        <ele>1645</ele>
        <time>2013-04-07T06:43:20Z</time>
      </trkpt>
      <trkpt lat="42.90749" lon="0.2165">
        <ele>1645</ele>
        <time>2013-04-07T06:43:22Z</time>
      </trkpt>
      <trkpt lat="42.90748" lon="0.21648">
        <ele>1645</ele>
        <time>2013-04-07T06:43:24Z</time>
      </trkpt>
      <trkpt lat="42.90747" lon="0.21647">
        <ele>1646</ele>
        <time>2013-04-07T06:43:26Z</time>
      </trkpt>
      <trkpt lat="42.90746" lon="0.21645">
        <ele>1647</ele>
        <time>2013-04-07T06:43:29Z</time>
      </trkpt>
      <trkpt lat="42.90745" lon="0.21644">
        <ele>1647</ele>
        <time>2013-04-07T06:43:32Z</time>
      </trkpt>
      <trkpt lat="42.90743" lon="0.21642">
        <ele>1647</ele>
        <time>2013-04-07T06:43:35Z</time>
      </trkpt>
      <trkpt lat="42.90742" lon="0.21641">
        <ele>1648</ele>
        <time>2013-04-07T06:43:37Z</time>
      </trkpt>
      <trkpt lat="42.9074" lon="0.21639">
        <ele>1648</ele>
        <time>2013-04-07T06:43:40Z</time>
      </trkpt>
      <trkpt lat="42.90739" lon="0.21638">
        <ele>1648</ele>
        <time>2013-04-07T06:43:43Z</time>
      </trkpt>
      <trkpt lat="42.90737" lon="0.21636">
        <ele>1649</ele>
        <time>2013-04-07T06:43:46Z</time>
      </trkpt>
      <trkpt lat="42.90736" lon="0.21635">
        <ele>1649</ele>
        <time>2013-04-07T06:43:48Z</time>
      </trkpt>
      <trkpt lat="42.90735" lon="0.21633">
        <ele>1650</ele>
        <time>2013-04-07T06:43:50Z</time>
      </trkpt>
      <trkpt lat="42.90733" lon="0.21632">
        <ele>1650</ele>
        <time>2013-04-07T06:43:53Z</time>
      </trkpt>
      <trkpt lat="42.90732" lon="0.2163">
        <ele>1651</ele>
        <time>2013-04-07T06:43:56Z</time>
      </trkpt>
      <trkpt lat="42.90731" lon="0.21628">
        <ele>1651</ele>
        <time>2013-04-07T06:43:59Z</time>
      </trkpt>
      <trkpt lat="42.90729" lon="0.21626">
        <ele>1652</ele>
        <time>2013-04-07T06:44:02Z</time>
      </trkpt>
      <trkpt lat="42.90728" lon="0.21625">
        <ele>1652</ele>
        <time>2013-04-07T06:44:05Z</time>
      </trkpt>
      <trkpt lat="42.90727" lon="0.21623">
        <ele>1653</ele>
        <time>2013-04-07T06:44:08Z</time>
      </trkpt>
      <trkpt lat="42.90725" lon="0.21621">
        <ele>1653</ele>
        <time>2013-04-07T06:44:11Z</time>
      </trkpt>
      <trkpt lat="42.90724" lon="0.2162">
        <ele>1653</ele>
        <time>2013-04-07T06:44:13Z</time>
      </trkpt>
      <trkpt lat="42.90723" lon="0.21619">
        <ele>1654</ele>
        <time>2013-04-07T06:44:15Z</time>
      </trkpt>
      <trkpt lat="42.90721" lon="0.21618">
        <ele>1654</ele>
        <time>2013-04-07T06:44:17Z</time>
      </trkpt>
      <trkpt lat="42.9072" lon="0.21617">
        <ele>1654</ele>
        <time>2013-04-07T06:44:19Z</time>
      </trkpt>
      <trkpt lat="42.90719" lon="0.21616">
        <ele>1655</ele>
        <time>2013-04-07T06:44:21Z</time>
      </trkpt>
      <trkpt lat="42.90717" lon="0.21615">
        <ele>1655</ele>
        <time>2013-04-07T06:44:23Z</time>
      </trkpt>
      <trkpt lat="42.90716" lon="0.21614">
        <ele>1655</ele>
        <time>2013-04-07T06:44:25Z</time>
      </trkpt>
      <trkpt lat="42.90715" lon="0.21613">
        <ele>1655</ele>
        <time>2013-04-07T06:44:28Z</time>
      </trkpt>
      <trkpt lat="42.90713" lon="0.21612">
        <ele>1656</ele>
        <time>2013-04-07T06:44:31Z</time>
      </trkpt>
      <trkpt lat="42.90712" lon="0.21611">
        <ele>1656</ele>
        <time>2013-04-07T06:44:34Z</time>
      </trkpt>
      <trkpt lat="42.9071" lon="0.2161">
        <ele>1656</ele>
        <time>2013-04-07T06:44:37Z</time>
      </trkpt>
      <trkpt lat="42.90709" lon="0.21609">
        <ele>1657</ele>
        <time>2013-04-07T06:44:40Z</time>
      </trkpt>
      <trkpt lat="42.90707" lon="0.21608">
        <ele>1657</ele>
        <time>2013-04-07T06:44:42Z</time>
      </trkpt>
      <trkpt lat="42.90706" lon="0.21607">
        <ele>1657</ele>
        <time>2013-04-07T06:44:44Z</time>
      </trkpt>
      <trkpt lat="42.90705" lon="0.21606">
        <ele>1658</ele>
        <time>2013-04-07T06:44:59Z</time>
      </trkpt>
      <trkpt lat="42.90704" lon="0.21605">
        <ele>1658</ele>
        <time>2013-04-07T06:45:04Z</time>
      </trkpt>
      <trkpt lat="42.90703" lon="0.21604">
        <ele>1658</ele>
        <time>2013-04-07T06:45:06Z</time>
      </trkpt>
      <trkpt lat="42.90702" lon="0.21603">
        <ele>1658</ele>
        <time>2013-04-07T06:45:08Z</time>
      </trkpt>
      <trkpt lat="42.907" lon="0.21602">
        <ele>1659</ele>
        <time>2013-04-07T06:45:10Z</time>
      </trkpt>
      <trkpt lat="42.90699" lon="0.21601">
        <ele>1659</ele>
        <time>2013-04-07T06:45:12Z</time>
      </trkpt>
      <trkpt lat="42.90698" lon="0.216">
        <ele>1660</ele>
        <time>2013-04-07T06:45:14Z</time>
      </trkpt>
      <trkpt lat="42.90696" lon="0.21598">
        <ele>1660</ele>
        <time>2013-04-07T06:45:17Z</time>
      </trkpt>
      <trkpt lat="42.90695" lon="0.21596">
        <ele>1660</ele>
        <time>2013-04-07T06:45:19Z</time>
      </trkpt>
      <trkpt lat="42.90694" lon="0.21595">
        <ele>1660</ele>
        <time>2013-04-07T06:45:21Z</time>
      </trkpt>
      <trkpt lat="42.90693" lon="0.21593">
        <ele>1660</ele>
        <time>2013-04-07T06:45:24Z</time>
      </trkpt>
      <trkpt lat="42.90691" lon="0.21592">
        <ele>1661</ele>
        <time>2013-04-07T06:45:26Z</time>
      </trkpt>
      <trkpt lat="42.9069" lon="0.21591">
        <ele>1661</ele>
        <time>2013-04-07T06:45:28Z</time>
      </trkpt>
      <trkpt lat="42.90689" lon="0.21589">
        <ele>1662</ele>
        <time>2013-04-07T06:45:30Z</time>
      </trkpt>
      <trkpt lat="42.90687" lon="0.21587">
        <ele>1663</ele>
        <time>2013-04-07T06:45:33Z</time>
      </trkpt>
      <trkpt lat="42.90686" lon="0.21585">
        <ele>1664</ele>
        <time>2013-04-07T06:45:35Z</time>
      </trkpt>
      <trkpt lat="42.90685" lon="0.21584">
        <ele>1665</ele>
        <time>2013-04-07T06:45:38Z</time>
      </trkpt>
      <trkpt lat="42.90683" lon="0.21583">
        <ele>1665</ele>
        <time>2013-04-07T06:45:40Z</time>
      </trkpt>
      <trkpt lat="42.90682" lon="0.21581">
        <ele>1665</ele>
        <time>2013-04-07T06:45:42Z</time>
      </trkpt>
      <trkpt lat="42.90681" lon="0.2158">
        <ele>1665</ele>
        <time>2013-04-07T06:45:45Z</time>
      </trkpt>
      <trkpt lat="42.90679" lon="0.21578">
        <ele>1665</ele>
        <time>2013-04-07T06:45:48Z</time>
      </trkpt>
      <trkpt lat="42.90678" lon="0.21577">
        <ele>1665</ele>
        <time>2013-04-07T06:45:51Z</time>
      </trkpt>
      <trkpt lat="42.90676" lon="0.21575">
        <ele>1666</ele>
        <time>2013-04-07T06:45:54Z</time>
      </trkpt>
      <trkpt lat="42.90675" lon="0.21574">
        <ele>1666</ele>
        <time>2013-04-07T06:45:57Z</time>
      </trkpt>
      <trkpt lat="42.90674" lon="0.21572">
        <ele>1667</ele>
        <time>2013-04-07T06:46:00Z</time>
      </trkpt>
      <trkpt lat="42.90672" lon="0.21571">
        <ele>1667</ele>
        <time>2013-04-07T06:46:03Z</time>
      </trkpt>
      <trkpt lat="42.90671" lon="0.21569">
        <ele>1668</ele>
        <time>2013-04-07T06:46:06Z</time>
      </trkpt>
      <trkpt lat="42.90669" lon="0.21568">
        <ele>1668</ele>
        <time>2013-04-07T06:46:09Z</time>
      </trkpt>
      <trkpt lat="42.90668" lon="0.21567">
        <ele>1669</ele>
        <time>2013-04-07T06:46:11Z</time>
      </trkpt>
      <trkpt lat="42.90666" lon="0.21565">
        <ele>1669</ele>
        <time>2013-04-07T06:46:14Z</time>
      </trkpt>
      <trkpt lat="42.90665" lon="0.21563">
        <ele>1670</ele>
        <time>2013-04-07T06:46:17Z</time>
      </trkpt>
      <trkpt lat="42.90663" lon="0.21562">
        <ele>1670</ele>
        <time>2013-04-07T06:46:20Z</time>
      </trkpt>
      <trkpt lat="42.90662" lon="0.21561">
        <ele>1670</ele>
        <time>2013-04-07T06:46:22Z</time>
      </trkpt>
      <trkpt lat="42.90661" lon="0.2156">
        <ele>1671</ele>
        <time>2013-04-07T06:46:24Z</time>
      </trkpt>
      <trkpt lat="42.90659" lon="0.21559">
        <ele>1671</ele>
        <time>2013-04-07T06:46:26Z</time>
      </trkpt>
      <trkpt lat="42.90658" lon="0.21558">
        <ele>1671</ele>
        <time>2013-04-07T06:46:28Z</time>
      </trkpt>
      <trkpt lat="42.90657" lon="0.21557">
        <ele>1671</ele>
        <time>2013-04-07T06:46:30Z</time>
      </trkpt>
      <trkpt lat="42.90656" lon="0.21558">
        <ele>1671</ele>
        <time>2013-04-07T06:46:42Z</time>
      </trkpt>
      <trkpt lat="42.90654" lon="0.21557">
        <ele>1671</ele>
        <time>2013-04-07T06:46:44Z</time>
      </trkpt>
      <trkpt lat="42.90653" lon="0.21556">
        <ele>1671</ele>
        <time>2013-04-07T06:46:46Z</time>
      </trkpt>
      <trkpt lat="42.90652" lon="0.21555">
        <ele>1671</ele>
        <time>2013-04-07T06:46:48Z</time>
      </trkpt>
      <trkpt lat="42.90651" lon="0.21554">
        <ele>1671</ele>
        <time>2013-04-07T06:46:50Z</time>
      </trkpt>
      <trkpt lat="42.9065" lon="0.21553">
        <ele>1671</ele>
        <time>2013-04-07T06:46:52Z</time>
      </trkpt>
      <trkpt lat="42.90649" lon="0.21552">
        <ele>1671</ele>
        <time>2013-04-07T06:46:54Z</time>
      </trkpt>
      <trkpt lat="42.90647" lon="0.21551">
        <ele>1671</ele>
        <time>2013-04-07T06:46:56Z</time>
      </trkpt>
      <trkpt lat="42.90646" lon="0.2155">
        <ele>1671</ele>
        <time>2013-04-07T06:46:59Z</time>
      </trkpt>
      <trkpt lat="42.90644" lon="0.21549">
        <ele>1671</ele>
        <time>2013-04-07T06:47:01Z</time>
      </trkpt>
      <trkpt lat="42.90643" lon="0.21548">
        <ele>1671</ele>
        <time>2013-04-07T06:47:04Z</time>
      </trkpt>
      <trkpt lat="42.90642" lon="0.21547">
        <ele>1671</ele>
        <time>2013-04-07T06:47:07Z</time>
      </trkpt>
      <trkpt lat="42.90641" lon="0.21545">
        <ele>1672</ele>
        <time>2013-04-07T06:47:21Z</time>
      </trkpt>
      <trkpt lat="42.9064" lon="0.21544">
        <ele>1672</ele>
        <time>2013-04-07T06:47:23Z</time>
      </trkpt>
      <trkpt lat="42.90639" lon="0.21543">
        <ele>1673</ele>
        <time>2013-04-07T06:47:25Z</time>
      </trkpt>
      <trkpt lat="42.90638" lon="0.21542">
        <ele>1673</ele>
        <time>2013-04-07T06:47:27Z</time>
      </trkpt>
      <trkpt lat="42.90636" lon="0.21541">
        <ele>1673</ele>
        <time>2013-04-07T06:47:29Z</time>
      </trkpt>
      <trkpt lat="42.90635" lon="0.2154">
        <ele>1673</ele>
        <time>2013-04-07T06:47:31Z</time>
      </trkpt>
      <trkpt lat="42.90634" lon="0.21539">
        <ele>1673</ele>
        <time>2013-04-07T06:47:33Z</time>
      </trkpt>
      <trkpt lat="42.90633" lon="0.21538">
        <ele>1674</ele>
        <time>2013-04-07T06:47:35Z</time>
      </trkpt>
      <trkpt lat="42.90631" lon="0.21536">
        <ele>1674</ele>
        <time>2013-04-07T06:47:37Z</time>
      </trkpt>
      <trkpt lat="42.9063" lon="0.21535">
        <ele>1674</ele>
        <time>2013-04-07T06:47:39Z</time>
      </trkpt>
      <trkpt lat="42.90629" lon="0.21534">
        <ele>1675</ele>
        <time>2013-04-07T06:47:41Z</time>
      </trkpt>
      <trkpt lat="42.90628" lon="0.21533">
        <ele>1675</ele>
        <time>2013-04-07T06:47:43Z</time>
      </trkpt>
      <trkpt lat="42.90627" lon="0.21532">
        <ele>1675</ele>
        <time>2013-04-07T06:47:45Z</time>
      </trkpt>
      <trkpt lat="42.90625" lon="0.2153">
        <ele>1676</ele>
        <time>2013-04-07T06:47:48Z</time>
      </trkpt>
      <trkpt lat="42.90624" lon="0.21529">
        <ele>1676</ele>
        <time>2013-04-07T06:47:50Z</time>
      </trkpt>
      <trkpt lat="42.90622" lon="0.21528">
        <ele>1676</ele>
        <time>2013-04-07T06:47:52Z</time>
      </trkpt>
      <trkpt lat="42.90621" lon="0.21527">
        <ele>1677</ele>
        <time>2013-04-07T06:47:54Z</time>
      </trkpt>
      <trkpt lat="42.9062" lon="0.21526">
        <ele>1677</ele>
        <time>2013-04-07T06:47:56Z</time>
      </trkpt>
      <trkpt lat="42.90619" lon="0.21525">
        <ele>1677</ele>
        <time>2013-04-07T06:47:58Z</time>
      </trkpt>
      <trkpt lat="42.90618" lon="0.21524">
        <ele>1677</ele>
        <time>2013-04-07T06:48:00Z</time>
      </trkpt>
      <trkpt lat="42.90617" lon="0.21522">
        <ele>1677</ele>
        <time>2013-04-07T06:48:02Z</time>
      </trkpt>
      <trkpt lat="42.90615" lon="0.21521">
        <ele>1678</ele>
        <time>2013-04-07T06:48:04Z</time>
      </trkpt>
      <trkpt lat="42.90614" lon="0.2152">
        <ele>1678</ele>
        <time>2013-04-07T06:48:07Z</time>
      </trkpt>
      <trkpt lat="42.90613" lon="0.21519">
        <ele>1678</ele>
        <time>2013-04-07T06:48:09Z</time>
      </trkpt>
      <trkpt lat="42.90611" lon="0.21517">
        <ele>1679</ele>
        <time>2013-04-07T06:48:12Z</time>
      </trkpt>
      <trkpt lat="42.9061" lon="0.21515">
        <ele>1679</ele>
        <time>2013-04-07T06:48:15Z</time>
      </trkpt>
      <trkpt lat="42.90609" lon="0.21514">
        <ele>1679</ele>
        <time>2013-04-07T06:48:17Z</time>
      </trkpt>
      <trkpt lat="42.90607" lon="0.21512">
        <ele>1680</ele>
        <time>2013-04-07T06:48:20Z</time>
      </trkpt>
      <trkpt lat="42.90606" lon="0.21511">
        <ele>1680</ele>
        <time>2013-04-07T06:48:22Z</time>
      </trkpt>
      <trkpt lat="42.90604" lon="0.21509">
        <ele>1681</ele>
        <time>2013-04-07T06:48:25Z</time>
      </trkpt>
      <trkpt lat="42.90603" lon="0.21508">
        <ele>1681</ele>
        <time>2013-04-07T06:48:27Z</time>
      </trkpt>
      <trkpt lat="42.90602" lon="0.21506">
        <ele>1682</ele>
        <time>2013-04-07T06:48:30Z</time>
      </trkpt>
      <trkpt lat="42.90601" lon="0.21504">
        <ele>1682</ele>
        <time>2013-04-07T06:48:41Z</time>
      </trkpt>
      <trkpt lat="42.90599" lon="0.21503">
        <ele>1682</ele>
        <time>2013-04-07T06:48:42Z</time>
      </trkpt>
      <trkpt lat="42.90598" lon="0.21501">
        <ele>1683</ele>
        <time>2013-04-07T06:48:44Z</time>
      </trkpt>
      <trkpt lat="42.90597" lon="0.215">
        <ele>1683</ele>
        <time>2013-04-07T06:48:46Z</time>
      </trkpt>
      <trkpt lat="42.90596" lon="0.21499">
        <ele>1683</ele>
        <time>2013-04-07T06:48:48Z</time>
      </trkpt>
      <trkpt lat="42.90594" lon="0.21497">
        <ele>1684</ele>
        <time>2013-04-07T06:48:50Z</time>
      </trkpt>
      <trkpt lat="42.90593" lon="0.21496">
        <ele>1684</ele>
        <time>2013-04-07T06:48:52Z</time>
      </trkpt>
      <trkpt lat="42.90592" lon="0.21495">
        <ele>1684</ele>
        <time>2013-04-07T06:48:54Z</time>
      </trkpt>
      <trkpt lat="42.90591" lon="0.21494">
        <ele>1685</ele>
        <time>2013-04-07T06:48:56Z</time>
      </trkpt>
      <trkpt lat="42.9059" lon="0.21493">
        <ele>1685</ele>
        <time>2013-04-07T06:48:58Z</time>
      </trkpt>
      <trkpt lat="42.90588" lon="0.21492">
        <ele>1685</ele>
        <time>2013-04-07T06:49:00Z</time>
      </trkpt>
      <trkpt lat="42.90587" lon="0.2149">
        <ele>1685</ele>
        <time>2013-04-07T06:49:02Z</time>
      </trkpt>
      <trkpt lat="42.90586" lon="0.21489">
        <ele>1685</ele>
        <time>2013-04-07T06:49:04Z</time>
      </trkpt>
      <trkpt lat="42.90585" lon="0.21488">
        <ele>1686</ele>
        <time>2013-04-07T06:49:06Z</time>
      </trkpt>
      <trkpt lat="42.90583" lon="0.21486">
        <ele>1686</ele>
        <time>2013-04-07T06:49:08Z</time>
      </trkpt>
      <trkpt lat="42.90582" lon="0.21485">
        <ele>1686</ele>
        <time>2013-04-07T06:49:10Z</time>
      </trkpt>
      <trkpt lat="42.90581" lon="0.21484">
        <ele>1686</ele>
        <time>2013-04-07T06:49:12Z</time>
      </trkpt>
      <trkpt lat="42.90579" lon="0.21482">
        <ele>1687</ele>
        <time>2013-04-07T06:49:15Z</time>
      </trkpt>
      <trkpt lat="42.90578" lon="0.21481">
        <ele>1687</ele>
        <time>2013-04-07T06:49:17Z</time>
      </trkpt>
      <trkpt lat="42.90577" lon="0.21479">
        <ele>1687</ele>
        <time>2013-04-07T06:49:19Z</time>
      </trkpt>
      <trkpt lat="42.90576" lon="0.21478">
        <ele>1688</ele>
        <time>2013-04-07T06:49:21Z</time>
      </trkpt>
      <trkpt lat="42.90575" lon="0.21477">
        <ele>1688</ele>
        <time>2013-04-07T06:49:23Z</time>
      </trkpt>
      <trkpt lat="42.90574" lon="0.21475">
        <ele>1688</ele>
        <time>2013-04-07T06:49:25Z</time>
      </trkpt>
      <trkpt lat="42.90572" lon="0.21474">
        <ele>1689</ele>
        <time>2013-04-07T06:49:28Z</time>
      </trkpt>
      <trkpt lat="42.90571" lon="0.21472">
        <ele>1689</ele>
        <time>2013-04-07T06:49:30Z</time>
      </trkpt>
      <trkpt lat="42.9057" lon="0.21471">
        <ele>1689</ele>
        <time>2013-04-07T06:49:32Z</time>
      </trkpt>
      <trkpt lat="42.90568" lon="0.21469">
        <ele>1689</ele>
        <time>2013-04-07T06:49:34Z</time>
      </trkpt>
      <trkpt lat="42.90567" lon="0.21468">
        <ele>1690</ele>
        <time>2013-04-07T06:49:36Z</time>
      </trkpt>
      <trkpt lat="42.90565" lon="0.21466">
        <ele>1690</ele>
        <time>2013-04-07T06:49:39Z</time>
      </trkpt>
      <trkpt lat="42.90564" lon="0.21464">
        <ele>1690</ele>
        <time>2013-04-07T06:49:42Z</time>
      </trkpt>
      <trkpt lat="42.90562" lon="0.21462">
        <ele>1691</ele>
        <time>2013-04-07T06:49:45Z</time>
      </trkpt>
      <trkpt lat="42.90561" lon="0.2146">
        <ele>1691</ele>
        <time>2013-04-07T06:49:48Z</time>
      </trkpt>
      <trkpt lat="42.90559" lon="0.21459">
        <ele>1692</ele>
        <time>2013-04-07T06:49:51Z</time>
      </trkpt>
      <trkpt lat="42.90558" lon="0.21457">
        <ele>1692</ele>
        <time>2013-04-07T06:49:53Z</time>
      </trkpt>
      <trkpt lat="42.90557" lon="0.21455">
        <ele>1692</ele>
        <time>2013-04-07T06:49:55Z</time>
      </trkpt>
      <trkpt lat="42.90556" lon="0.21454">
        <ele>1693</ele>
        <time>2013-04-07T06:49:58Z</time>
      </trkpt>
      <trkpt lat="42.90555" lon="0.21452">
        <ele>1693</ele>
        <time>2013-04-07T06:50:00Z</time>
      </trkpt>
      <trkpt lat="42.90554" lon="0.21451">
        <ele>1694</ele>
        <time>2013-04-07T06:50:03Z</time>
      </trkpt>
      <trkpt lat="42.90552" lon="0.21449">
        <ele>1694</ele>
        <time>2013-04-07T06:50:06Z</time>
      </trkpt>
      <trkpt lat="42.90551" lon="0.21447">
        <ele>1695</ele>
        <time>2013-04-07T06:50:09Z</time>
      </trkpt>
      <trkpt lat="42.90549" lon="0.21445">
        <ele>1696</ele>
        <time>2013-04-07T06:50:12Z</time>
      </trkpt>
      <trkpt lat="42.90548" lon="0.21443">
        <ele>1697</ele>
        <time>2013-04-07T06:50:15Z</time>
      </trkpt>
      <trkpt lat="42.90546" lon="0.21441">
        <ele>1698</ele>
        <time>2013-04-07T06:50:18Z</time>
      </trkpt>
      <trkpt lat="42.90545" lon="0.2144">
        <ele>1698</ele>
        <time>2013-04-07T06:50:20Z</time>
      </trkpt>
      <trkpt lat="42.90544" lon="0.21439">
        <ele>1698</ele>
        <time>2013-04-07T06:50:22Z</time>
      </trkpt>
      <trkpt lat="42.90543" lon="0.21437">
        <ele>1698</ele>
        <time>2013-04-07T06:50:24Z</time>
      </trkpt>
      <trkpt lat="42.90541" lon="0.21436">
        <ele>1699</ele>
        <time>2013-04-07T06:50:27Z</time>
      </trkpt>
      <trkpt lat="42.9054" lon="0.21434">
        <ele>1699</ele>
        <time>2013-04-07T06:50:29Z</time>
      </trkpt>
      <trkpt lat="42.90539" lon="0.21433">
        <ele>1699</ele>
        <time>2013-04-07T06:50:31Z</time>
      </trkpt>
      <trkpt lat="42.90538" lon="0.21432">
        <ele>1700</ele>
        <time>2013-04-07T06:50:33Z</time>
      </trkpt>
      <trkpt lat="42.90536" lon="0.21431">
        <ele>1700</ele>
        <time>2013-04-07T06:50:35Z</time>
      </trkpt>
      <trkpt lat="42.90535" lon="0.2143">
        <ele>1700</ele>
        <time>2013-04-07T06:50:37Z</time>
      </trkpt>
      <trkpt lat="42.90534" lon="0.21429">
        <ele>1700</ele>
        <time>2013-04-07T06:50:39Z</time>
      </trkpt>
      <trkpt lat="42.90533" lon="0.21428">
        <ele>1701</ele>
        <time>2013-04-07T06:50:41Z</time>
      </trkpt>
      <trkpt lat="42.90531" lon="0.21427">
        <ele>1701</ele>
        <time>2013-04-07T06:50:43Z</time>
      </trkpt>
      <trkpt lat="42.9053" lon="0.21426">
        <ele>1701</ele>
        <time>2013-04-07T06:50:45Z</time>
      </trkpt>
      <trkpt lat="42.90529" lon="0.21425">
        <ele>1701</ele>
        <time>2013-04-07T06:50:47Z</time>
      </trkpt>
      <trkpt lat="42.90527" lon="0.21424">
        <ele>1702</ele>
        <time>2013-04-07T06:50:49Z</time>
      </trkpt>
      <trkpt lat="42.90526" lon="0.21423">
        <ele>1702</ele>
        <time>2013-04-07T06:50:51Z</time>
      </trkpt>
      <trkpt lat="42.90525" lon="0.21422">
        <ele>1702</ele>
        <time>2013-04-07T06:50:53Z</time>
      </trkpt>
      <trkpt lat="42.90524" lon="0.2142">
        <ele>1702</ele>
        <time>2013-04-07T06:50:55Z</time>
      </trkpt>
      <trkpt lat="42.90522" lon="0.21419">
        <ele>1702</ele>
        <time>2013-04-07T06:50:57Z</time>
      </trkpt>
      <trkpt lat="42.90521" lon="0.21418">
        <ele>1703</ele>
        <time>2013-04-07T06:50:59Z</time>
      </trkpt>
      <trkpt lat="42.90519" lon="0.21417">
        <ele>1703</ele>
        <time>2013-04-07T06:51:01Z</time>
      </trkpt>
      <trkpt lat="42.90518" lon="0.21416">
        <ele>1703</ele>
        <time>2013-04-07T06:51:03Z</time>
      </trkpt>
      <trkpt lat="42.90517" lon="0.21415">
        <ele>1704</ele>
        <time>2013-04-07T06:51:05Z</time>
      </trkpt>
      <trkpt lat="42.90516" lon="0.21414">
        <ele>1704</ele>
        <time>2013-04-07T06:51:07Z</time>
      </trkpt>
      <trkpt lat="42.90514" lon="0.21413">
        <ele>1704</ele>
        <time>2013-04-07T06:51:09Z</time>
      </trkpt>
      <trkpt lat="42.90513" lon="0.21412">
        <ele>1705</ele>
        <time>2013-04-07T06:51:11Z</time>
      </trkpt>
      <trkpt lat="42.90511" lon="0.21411">
        <ele>1705</ele>
        <time>2013-04-07T06:51:13Z</time>
      </trkpt>
      <trkpt lat="42.9051" lon="0.2141">
        <ele>1705</ele>
        <time>2013-04-07T06:51:15Z</time>
      </trkpt>
      <trkpt lat="42.90509" lon="0.2141">
        <ele>1705</ele>
        <time>2013-04-07T06:51:17Z</time>
      </trkpt>
      <trkpt lat="42.90507" lon="0.21409">
        <ele>1705</ele>
        <time>2013-04-07T06:51:19Z</time>
      </trkpt>
      <trkpt lat="42.90506" lon="0.21408">
        <ele>1706</ele>
        <time>2013-04-07T06:51:21Z</time>
      </trkpt>
      <trkpt lat="42.90504" lon="0.21407">
        <ele>1706</ele>
        <time>2013-04-07T06:51:23Z</time>
      </trkpt>
      <trkpt lat="42.90503" lon="0.21407">
        <ele>1706</ele>
        <time>2013-04-07T06:51:25Z</time>
      </trkpt>
      <trkpt lat="42.90501" lon="0.21406">
        <ele>1706</ele>
        <time>2013-04-07T06:51:27Z</time>
      </trkpt>
      <trkpt lat="42.905" lon="0.21405">
        <ele>1706</ele>
        <time>2013-04-07T06:51:29Z</time>
      </trkpt>
      <trkpt lat="42.90498" lon="0.21404">
        <ele>1706</ele>
        <time>2013-04-07T06:51:31Z</time>
      </trkpt>
      <trkpt lat="42.90497" lon="0.21404">
        <ele>1706</ele>
        <time>2013-04-07T06:51:33Z</time>
      </trkpt>
      <trkpt lat="42.90496" lon="0.21403">
        <ele>1706</ele>
        <time>2013-04-07T06:51:35Z</time>
      </trkpt>
      <trkpt lat="42.90494" lon="0.21402">
        <ele>1706</ele>
        <time>2013-04-07T06:51:37Z</time>
      </trkpt>
      <trkpt lat="42.90493" lon="0.21401">
        <ele>1706</ele>
        <time>2013-04-07T06:51:39Z</time>
      </trkpt>
      <trkpt lat="42.90491" lon="0.214">
        <ele>1706</ele>
        <time>2013-04-07T06:51:41Z</time>
      </trkpt>
      <trkpt lat="42.9049" lon="0.21399">
        <ele>1706</ele>
        <time>2013-04-07T06:51:43Z</time>
      </trkpt>
      <trkpt lat="42.90488" lon="0.21398">
        <ele>1706</ele>
        <time>2013-04-07T06:51:45Z</time>
      </trkpt>
      <trkpt lat="42.90487" lon="0.21397">
        <ele>1706</ele>
        <time>2013-04-07T06:51:47Z</time>
      </trkpt>
      <trkpt lat="42.90486" lon="0.21396">
        <ele>1707</ele>
        <time>2013-04-07T06:51:49Z</time>
      </trkpt>
      <trkpt lat="42.90484" lon="0.21395">
        <ele>1707</ele>
        <time>2013-04-07T06:51:51Z</time>
      </trkpt>
      <trkpt lat="42.90483" lon="0.21394">
        <ele>1707</ele>
        <time>2013-04-07T06:51:53Z</time>
      </trkpt>
      <trkpt lat="42.90482" lon="0.21393">
        <ele>1707</ele>
        <time>2013-04-07T06:51:55Z</time>
      </trkpt>
      <trkpt lat="42.9048" lon="0.21392">
        <ele>1707</ele>
        <time>2013-04-07T06:51:57Z</time>
      </trkpt>
      <trkpt lat="42.90479" lon="0.21391">
        <ele>1708</ele>
        <time>2013-04-07T06:51:59Z</time>
      </trkpt>
      <trkpt lat="42.90478" lon="0.2139">
        <ele>1708</ele>
        <time>2013-04-07T06:52:01Z</time>
      </trkpt>
      <trkpt lat="42.90476" lon="0.21389">
        <ele>1708</ele>
        <time>2013-04-07T06:52:03Z</time>
      </trkpt>
      <trkpt lat="42.90475" lon="0.21388">
        <ele>1708</ele>
        <time>2013-04-07T06:52:05Z</time>
      </trkpt>
      <trkpt lat="42.90474" lon="0.21387">
        <ele>1708</ele>
        <time>2013-04-07T06:52:07Z</time>
      </trkpt>
      <trkpt lat="42.90472" lon="0.21386">
        <ele>1708</ele>
        <time>2013-04-07T06:52:09Z</time>
      </trkpt>
      <trkpt lat="42.90471" lon="0.21385">
        <ele>1708</ele>
        <time>2013-04-07T06:52:11Z</time>
      </trkpt>
      <trkpt lat="42.90469" lon="0.21384">
        <ele>1709</ele>
        <time>2013-04-07T06:52:13Z</time>
      </trkpt>
      <trkpt lat="42.90468" lon="0.21383">
        <ele>1709</ele>
        <time>2013-04-07T06:52:15Z</time>
      </trkpt>
      <trkpt lat="42.90467" lon="0.21382">
        <ele>1709</ele>
        <time>2013-04-07T06:52:17Z</time>
      </trkpt>
      <trkpt lat="42.90465" lon="0.21381">
        <ele>1709</ele>
        <time>2013-04-07T06:52:19Z</time>
      </trkpt>
      <trkpt lat="42.90464" lon="0.21381">
        <ele>1709</ele>
        <time>2013-04-07T06:52:21Z</time>
      </trkpt>
      <trkpt lat="42.90462" lon="0.2138">
        <ele>1709</ele>
        <time>2013-04-07T06:52:23Z</time>
      </trkpt>
      <trkpt lat="42.90461" lon="0.21378">
        <ele>1709</ele>
        <time>2013-04-07T06:52:25Z</time>
      </trkpt>
      <trkpt lat="42.90459" lon="0.21377">
        <ele>1709</ele>
        <time>2013-04-07T06:52:27Z</time>
      </trkpt>
      <trkpt lat="42.90458" lon="0.21376">
        <ele>1710</ele>
        <time>2013-04-07T06:52:29Z</time>
      </trkpt>
      <trkpt lat="42.90456" lon="0.21375">
        <ele>1710</ele>
        <time>2013-04-07T06:52:31Z</time>
      </trkpt>
      <trkpt lat="42.90455" lon="0.21374">
        <ele>1710</ele>
        <time>2013-04-07T06:52:33Z</time>
      </trkpt>
      <trkpt lat="42.90453" lon="0.21373">
        <ele>1710</ele>
        <time>2013-04-07T06:52:35Z</time>
      </trkpt>
      <trkpt lat="42.90452" lon="0.21373">
        <ele>1710</ele>
        <time>2013-04-07T06:52:37Z</time>
      </trkpt>
      <trkpt lat="42.90451" lon="0.21372">
        <ele>1710</ele>
        <time>2013-04-07T06:52:39Z</time>
      </trkpt>
      <trkpt lat="42.9045" lon="0.2137">
        <ele>1710</ele>
        <time>2013-04-07T06:52:41Z</time>
      </trkpt>
      <trkpt lat="42.90448" lon="0.2137">
        <ele>1710</ele>
        <time>2013-04-07T06:52:43Z</time>
      </trkpt>
      <trkpt lat="42.90447" lon="0.21369">
        <ele>1711</ele>
        <time>2013-04-07T06:52:45Z</time>
      </trkpt>
      <trkpt lat="42.90445" lon="0.21367">
        <ele>1711</ele>
        <time>2013-04-07T06:52:47Z</time>
      </trkpt>
      <trkpt lat="42.90444" lon="0.21366">
        <ele>1711</ele>
        <time>2013-04-07T06:52:49Z</time>
      </trkpt>
      <trkpt lat="42.90443" lon="0.21365">
        <ele>1711</ele>
        <time>2013-04-07T06:52:51Z</time>
      </trkpt>
      <trkpt lat="42.90441" lon="0.21364">
        <ele>1711</ele>
        <time>2013-04-07T06:52:53Z</time>
      </trkpt>
      <trkpt lat="42.9044" lon="0.21363">
        <ele>1711</ele>
        <time>2013-04-07T06:52:55Z</time>
      </trkpt>
      <trkpt lat="42.90439" lon="0.21362">
        <ele>1711</ele>
        <time>2013-04-07T06:52:57Z</time>
      </trkpt>
      <trkpt lat="42.90437" lon="0.21361">
        <ele>1712</ele>
        <time>2013-04-07T06:52:59Z</time>
      </trkpt>
      <trkpt lat="42.90436" lon="0.21359">
        <ele>1712</ele>
        <time>2013-04-07T06:53:01Z</time>
      </trkpt>
      <trkpt lat="42.90435" lon="0.21358">
        <ele>1712</ele>
        <time>2013-04-07T06:53:03Z</time>
      </trkpt>
      <trkpt lat="42.90433" lon="0.21356">
        <ele>1712</ele>
        <time>2013-04-07T06:53:05Z</time>
      </trkpt>
      <trkpt lat="42.90432" lon="0.21354">
        <ele>1712</ele>
        <time>2013-04-07T06:53:07Z</time>
      </trkpt>
      <trkpt lat="42.90431" lon="0.21352">
        <ele>1712</ele>
        <time>2013-04-07T06:53:09Z</time>
      </trkpt>
      <trkpt lat="42.9043" lon="0.21351">
        <ele>1712</ele>
        <time>2013-04-07T06:53:11Z</time>
      </trkpt>
      <trkpt lat="42.90428" lon="0.2135">
        <ele>1712</ele>
        <time>2013-04-07T06:53:13Z</time>
      </trkpt>
      <trkpt lat="42.90428" lon="0.21348">
        <ele>1713</ele>
        <time>2013-04-07T06:53:21Z</time>
      </trkpt>
      <trkpt lat="42.90427" lon="0.21348">
        <ele>1713</ele>
        <time>2013-04-07T06:53:29Z</time>
      </trkpt>
      <trkpt lat="42.90425" lon="0.21346">
        <ele>1713</ele>
        <time>2013-04-07T06:53:31Z</time>
      </trkpt>
      <trkpt lat="42.90424" lon="0.21344">
        <ele>1713</ele>
        <time>2013-04-07T06:53:33Z</time>
      </trkpt>
      <trkpt lat="42.90424" lon="0.21342">
        <ele>1713</ele>
        <time>2013-04-07T06:53:35Z</time>
      </trkpt>
      <trkpt lat="42.90422" lon="0.21341">
        <ele>1714</ele>
        <time>2013-04-07T06:53:37Z</time>
      </trkpt>
      <trkpt lat="42.90422" lon="0.21339">
        <ele>1714</ele>
        <time>2013-04-07T06:53:39Z</time>
      </trkpt>
      <trkpt lat="42.9042" lon="0.21337">
        <ele>1714</ele>
        <time>2013-04-07T06:53:42Z</time>
      </trkpt>
      <trkpt lat="42.90419" lon="0.21336">
        <ele>1714</ele>
        <time>2013-04-07T06:53:44Z</time>
      </trkpt>
      <trkpt lat="42.90418" lon="0.21333">
        <ele>1715</ele>
        <time>2013-04-07T06:53:47Z</time>
      </trkpt>
      <trkpt lat="42.90416" lon="0.21331">
        <ele>1715</ele>
        <time>2013-04-07T06:53:50Z</time>
      </trkpt>
      <trkpt lat="42.90415" lon="0.21329">
        <ele>1715</ele>
        <time>2013-04-07T06:53:53Z</time>
      </trkpt>
      <trkpt lat="42.90414" lon="0.21328">
        <ele>1715</ele>
        <time>2013-04-07T06:53:55Z</time>
      </trkpt>
      <trkpt lat="42.90413" lon="0.21326">
        <ele>1715</ele>
        <time>2013-04-07T06:53:57Z</time>
      </trkpt>
      <trkpt lat="42.90412" lon="0.21325">
        <ele>1715</ele>
        <time>2013-04-07T06:53:59Z</time>
      </trkpt>
      <trkpt lat="42.90411" lon="0.21323">
        <ele>1716</ele>
        <time>2013-04-07T06:54:01Z</time>
      </trkpt>
      <trkpt lat="42.90411" lon="0.21321">
        <ele>1716</ele>
        <time>2013-04-07T06:54:03Z</time>
      </trkpt>
      <trkpt lat="42.90411" lon="0.21319">
        <ele>1717</ele>
        <time>2013-04-07T06:54:06Z</time>
      </trkpt>
      <trkpt lat="42.90411" lon="0.21317">
        <ele>1717</ele>
        <time>2013-04-07T06:54:08Z</time>
      </trkpt>
      <trkpt lat="42.90411" lon="0.21315">
        <ele>1717</ele>
        <time>2013-04-07T06:54:10Z</time>
      </trkpt>
      <trkpt lat="42.90411" lon="0.21314">
        <ele>1718</ele>
        <time>2013-04-07T06:54:12Z</time>
      </trkpt>
      <trkpt lat="42.90411" lon="0.21312">
        <ele>1719</ele>
        <time>2013-04-07T06:54:15Z</time>
      </trkpt>
      <trkpt lat="42.90411" lon="0.2131">
        <ele>1719</ele>
        <time>2013-04-07T06:54:20Z</time>
      </trkpt>
      <trkpt lat="42.9041" lon="0.21309">
        <ele>1719</ele>
        <time>2013-04-07T06:54:22Z</time>
      </trkpt>
      <trkpt lat="42.9041" lon="0.21306">
        <ele>1719</ele>
        <time>2013-04-07T06:54:24Z</time>
      </trkpt>
      <trkpt lat="42.90409" lon="0.21305">
        <ele>1720</ele>
        <time>2013-04-07T06:54:26Z</time>
      </trkpt>
      <trkpt lat="42.90409" lon="0.21303">
        <ele>1720</ele>
        <time>2013-04-07T06:54:28Z</time>
      </trkpt>
      <trkpt lat="42.90408" lon="0.21302">
        <ele>1720</ele>
        <time>2013-04-07T06:54:30Z</time>
      </trkpt>
      <trkpt lat="42.90408" lon="0.213">
        <ele>1721</ele>
        <time>2013-04-07T06:54:32Z</time>
      </trkpt>
      <trkpt lat="42.90407" lon="0.21298">
        <ele>1721</ele>
        <time>2013-04-07T06:54:34Z</time>
      </trkpt>
      <trkpt lat="42.90407" lon="0.21296">
        <ele>1721</ele>
        <time>2013-04-07T06:54:36Z</time>
      </trkpt>
      <trkpt lat="42.90406" lon="0.21295">
        <ele>1721</ele>
        <time>2013-04-07T06:54:38Z</time>
      </trkpt>
      <trkpt lat="42.90405" lon="0.21293">
        <ele>1721</ele>
        <time>2013-04-07T06:54:41Z</time>
      </trkpt>
      <trkpt lat="42.90405" lon="0.21291">
        <ele>1722</ele>
        <time>2013-04-07T06:54:43Z</time>
      </trkpt>
      <trkpt lat="42.90404" lon="0.2129">
        <ele>1722</ele>
        <time>2013-04-07T06:54:45Z</time>
      </trkpt>
      <trkpt lat="42.90403" lon="0.21287">
        <ele>1722</ele>
        <time>2013-04-07T06:54:47Z</time>
      </trkpt>
      <trkpt lat="42.90403" lon="0.21285">
        <ele>1723</ele>
        <time>2013-04-07T06:54:49Z</time>
      </trkpt>
      <trkpt lat="42.90402" lon="0.21283">
        <ele>1723</ele>
        <time>2013-04-07T06:54:51Z</time>
      </trkpt>
      <trkpt lat="42.90401" lon="0.21282">
        <ele>1723</ele>
        <time>2013-04-07T06:54:53Z</time>
      </trkpt>
      <trkpt lat="42.90401" lon="0.2128">
        <ele>1723</ele>
        <time>2013-04-07T06:54:55Z</time>
      </trkpt>
      <trkpt lat="42.904" lon="0.21278">
        <ele>1724</ele>
        <time>2013-04-07T06:54:57Z</time>
      </trkpt>
      <trkpt lat="42.904" lon="0.21276">
        <ele>1724</ele>
        <time>2013-04-07T06:54:59Z</time>
      </trkpt>
      <trkpt lat="42.90399" lon="0.21274">
        <ele>1725</ele>
        <time>2013-04-07T06:55:01Z</time>
      </trkpt>
      <trkpt lat="42.90399" lon="0.21272">
        <ele>1725</ele>
        <time>2013-04-07T06:55:03Z</time>
      </trkpt>
      <trkpt lat="42.90398" lon="0.21271">
        <ele>1725</ele>
        <time>2013-04-07T06:55:05Z</time>
      </trkpt>
      <trkpt lat="42.90398" lon="0.21269">
        <ele>1726</ele>
        <time>2013-04-07T06:55:07Z</time>
      </trkpt>
      <trkpt lat="42.90397" lon="0.21267">
        <ele>1726</ele>
        <time>2013-04-07T06:55:10Z</time>
      </trkpt>
      <trkpt lat="42.90396" lon="0.21265">
        <ele>1727</ele>
        <time>2013-04-07T06:55:13Z</time>
      </trkpt>
      <trkpt lat="42.90395" lon="0.21263">
        <ele>1727</ele>
        <time>2013-04-07T06:55:15Z</time>
      </trkpt>
      <trkpt lat="42.90395" lon="0.21261">
        <ele>1727</ele>
        <time>2013-04-07T06:55:17Z</time>
      </trkpt>
      <trkpt lat="42.90394" lon="0.2126">
        <ele>1727</ele>
        <time>2013-04-07T06:55:19Z</time>
      </trkpt>
      <trkpt lat="42.90394" lon="0.21258">
        <ele>1728</ele>
        <time>2013-04-07T06:55:21Z</time>
      </trkpt>
      <trkpt lat="42.90393" lon="0.21257">
        <ele>1729</ele>
        <time>2013-04-07T06:55:35Z</time>
      </trkpt>
      <trkpt lat="42.90392" lon="0.21254">
        <ele>1729</ele>
        <time>2013-04-07T06:55:38Z</time>
      </trkpt>
      <trkpt lat="42.90391" lon="0.21253">
        <ele>1729</ele>
        <time>2013-04-07T06:55:40Z</time>
      </trkpt>
      <trkpt lat="42.9039" lon="0.21251">
        <ele>1729</ele>
        <time>2013-04-07T06:55:42Z</time>
      </trkpt>
      <trkpt lat="42.9039" lon="0.21249">
        <ele>1729</ele>
        <time>2013-04-07T06:55:44Z</time>
      </trkpt>
      <trkpt lat="42.90389" lon="0.21247">
        <ele>1730</ele>
        <time>2013-04-07T06:55:46Z</time>
      </trkpt>
      <trkpt lat="42.90388" lon="0.21246">
        <ele>1730</ele>
        <time>2013-04-07T06:55:48Z</time>
      </trkpt>
      <trkpt lat="42.90387" lon="0.21244">
        <ele>1731</ele>
        <time>2013-04-07T06:55:50Z</time>
      </trkpt>
      <trkpt lat="42.90387" lon="0.21242">
        <ele>1731</ele>
        <time>2013-04-07T06:55:52Z</time>
      </trkpt>
      <trkpt lat="42.90386" lon="0.2124">
        <ele>1731</ele>
        <time>2013-04-07T06:55:54Z</time>
      </trkpt>
      <trkpt lat="42.90385" lon="0.21238">
        <ele>1732</ele>
        <time>2013-04-07T06:55:56Z</time>
      </trkpt>
      <trkpt lat="42.90384" lon="0.21236">
        <ele>1732</ele>
        <time>2013-04-07T06:55:58Z</time>
      </trkpt>
      <trkpt lat="42.90383" lon="0.21235">
        <ele>1732</ele>
        <time>2013-04-07T06:56:00Z</time>
      </trkpt>
      <trkpt lat="42.90382" lon="0.21233">
        <ele>1733</ele>
        <time>2013-04-07T06:56:02Z</time>
      </trkpt>
      <trkpt lat="42.90382" lon="0.21231">
        <ele>1733</ele>
        <time>2013-04-07T06:56:04Z</time>
      </trkpt>
      <trkpt lat="42.90381" lon="0.21229">
        <ele>1734</ele>
        <time>2013-04-07T06:56:06Z</time>
      </trkpt>
      <trkpt lat="42.9038" lon="0.21228">
        <ele>1734</ele>
        <time>2013-04-07T06:56:08Z</time>
      </trkpt>
      <trkpt lat="42.90379" lon="0.21226">
        <ele>1734</ele>
        <time>2013-04-07T06:56:10Z</time>
      </trkpt>
      <trkpt lat="42.90378" lon="0.21225">
        <ele>1734</ele>
        <time>2013-04-07T06:56:12Z</time>
      </trkpt>
      <trkpt lat="42.90377" lon="0.21223">
        <ele>1734</ele>
        <time>2013-04-07T06:56:15Z</time>
      </trkpt>
      <trkpt lat="42.90376" lon="0.21221">
        <ele>1735</ele>
        <time>2013-04-07T06:56:17Z</time>
      </trkpt>
      <trkpt lat="42.90376" lon="0.21219">
        <ele>1735</ele>
        <time>2013-04-07T06:56:19Z</time>
      </trkpt>
      <trkpt lat="42.90375" lon="0.21217">
        <ele>1735</ele>
        <time>2013-04-07T06:56:21Z</time>
      </trkpt>
      <trkpt lat="42.90375" lon="0.21216">
        <ele>1736</ele>
        <time>2013-04-07T06:56:23Z</time>
      </trkpt>
      <trkpt lat="42.90374" lon="0.21215">
        <ele>1736</ele>
        <time>2013-04-07T06:56:25Z</time>
      </trkpt>
      <trkpt lat="42.90374" lon="0.21213">
        <ele>1737</ele>
        <time>2013-04-07T06:56:27Z</time>
      </trkpt>
      <trkpt lat="42.90373" lon="0.21211">
        <ele>1737</ele>
        <time>2013-04-07T06:56:30Z</time>
      </trkpt>
      <trkpt lat="42.90373" lon="0.2121">
        <ele>1738</ele>
        <time>2013-04-07T06:56:32Z</time>
      </trkpt>
      <trkpt lat="42.90373" lon="0.21208">
        <ele>1738</ele>
        <time>2013-04-07T06:56:34Z</time>
      </trkpt>
      <trkpt lat="42.90372" lon="0.21206">
        <ele>1738</ele>
        <time>2013-04-07T06:56:37Z</time>
      </trkpt>
      <trkpt lat="42.90372" lon="0.21204">
        <ele>1739</ele>
        <time>2013-04-07T06:56:40Z</time>
      </trkpt>
      <trkpt lat="42.90371" lon="0.21203">
        <ele>1739</ele>
        <time>2013-04-07T06:56:42Z</time>
      </trkpt>
      <trkpt lat="42.90371" lon="0.212">
        <ele>1740</ele>
        <time>2013-04-07T06:56:45Z</time>
      </trkpt>
      <trkpt lat="42.90371" lon="0.21199">
        <ele>1740</ele>
        <time>2013-04-07T06:56:47Z</time>
      </trkpt>
      <trkpt lat="42.9037" lon="0.21197">
        <ele>1740</ele>
        <time>2013-04-07T06:56:49Z</time>
      </trkpt>
      <trkpt lat="42.9037" lon="0.21195">
        <ele>1741</ele>
        <time>2013-04-07T06:56:51Z</time>
      </trkpt>
      <trkpt lat="42.90369" lon="0.21194">
        <ele>1741</ele>
        <time>2013-04-07T06:56:53Z</time>
      </trkpt>
      <trkpt lat="42.90369" lon="0.21192">
        <ele>1741</ele>
        <time>2013-04-07T06:56:55Z</time>
      </trkpt>
      <trkpt lat="42.90368" lon="0.2119">
        <ele>1742</ele>
        <time>2013-04-07T06:56:58Z</time>
      </trkpt>
      <trkpt lat="42.90368" lon="0.21189">
        <ele>1742</ele>
        <time>2013-04-07T06:57:00Z</time>
      </trkpt>
      <trkpt lat="42.90367" lon="0.21187">
        <ele>1743</ele>
        <time>2013-04-07T06:57:03Z</time>
      </trkpt>
      <trkpt lat="42.90366" lon="0.21185">
        <ele>1743</ele>
        <time>2013-04-07T06:57:05Z</time>
      </trkpt>
      <trkpt lat="42.90365" lon="0.21183">
        <ele>1744</ele>
        <time>2013-04-07T06:57:08Z</time>
      </trkpt>
      <trkpt lat="42.90364" lon="0.21182">
        <ele>1745</ele>
        <time>2013-04-07T06:57:11Z</time>
      </trkpt>
      <trkpt lat="42.90363" lon="0.2118">
        <ele>1746</ele>
        <time>2013-04-07T06:57:22Z</time>
      </trkpt>
      <trkpt lat="42.90362" lon="0.21178">
        <ele>1746</ele>
        <time>2013-04-07T06:57:25Z</time>
      </trkpt>
      <trkpt lat="42.90361" lon="0.21176">
        <ele>1746</ele>
        <time>2013-04-07T06:57:28Z</time>
      </trkpt>
      <trkpt lat="42.90359" lon="0.21175">
        <ele>1747</ele>
        <time>2013-04-07T06:57:31Z</time>
      </trkpt>
      <trkpt lat="42.90358" lon="0.21173">
        <ele>1747</ele>
        <time>2013-04-07T06:57:34Z</time>
      </trkpt>
      <trkpt lat="42.90357" lon="0.21171">
        <ele>1748</ele>
        <time>2013-04-07T06:57:37Z</time>
      </trkpt>
      <trkpt lat="42.90356" lon="0.2117">
        <ele>1748</ele>
        <time>2013-04-07T06:57:39Z</time>
      </trkpt>
      <trkpt lat="42.90355" lon="0.21168">
        <ele>1749</ele>
        <time>2013-04-07T06:57:42Z</time>
      </trkpt>
      <trkpt lat="42.90353" lon="0.21167">
        <ele>1749</ele>
        <time>2013-04-07T06:57:45Z</time>
      </trkpt>
      <trkpt lat="42.90352" lon="0.21166">
        <ele>1750</ele>
        <time>2013-04-07T06:57:48Z</time>
      </trkpt>
      <trkpt lat="42.9035" lon="0.21164">
        <ele>1750</ele>
        <time>2013-04-07T06:57:51Z</time>
      </trkpt>
      <trkpt lat="42.90349" lon="0.21163">
        <ele>1751</ele>
        <time>2013-04-07T06:57:54Z</time>
      </trkpt>
      <trkpt lat="42.90347" lon="0.21162">
        <ele>1751</ele>
        <time>2013-04-07T06:57:57Z</time>
      </trkpt>
      <trkpt lat="42.90346" lon="0.21161">
        <ele>1752</ele>
        <time>2013-04-07T06:58:00Z</time>
      </trkpt>
      <trkpt lat="42.90345" lon="0.2116">
        <ele>1752</ele>
        <time>2013-04-07T06:58:02Z</time>
      </trkpt>
      <trkpt lat="42.90343" lon="0.21159">
        <ele>1752</ele>
        <time>2013-04-07T06:58:04Z</time>
      </trkpt>
      <trkpt lat="42.90342" lon="0.21158">
        <ele>1753</ele>
        <time>2013-04-07T06:58:06Z</time>
      </trkpt>
      <trkpt lat="42.90341" lon="0.21158">
        <ele>1753</ele>
        <time>2013-04-07T06:58:08Z</time>
      </trkpt>
      <trkpt lat="42.9034" lon="0.21156">
        <ele>1753</ele>
        <time>2013-04-07T06:58:10Z</time>
      </trkpt>
      <trkpt lat="42.90339" lon="0.21155">
        <ele>1753</ele>
        <time>2013-04-07T06:58:12Z</time>
      </trkpt>
      <trkpt lat="42.90337" lon="0.21154">
        <ele>1754</ele>
        <time>2013-04-07T06:58:15Z</time>
      </trkpt>
      <trkpt lat="42.90336" lon="0.21152">
        <ele>1754</ele>
        <time>2013-04-07T06:58:20Z</time>
      </trkpt>
      <trkpt lat="42.90336" lon="0.21151">
        <ele>1755</ele>
        <time>2013-04-07T06:58:28Z</time>
      </trkpt>
      <trkpt lat="42.90335" lon="0.21149">
        <ele>1756</ele>
        <time>2013-04-07T06:58:31Z</time>
      </trkpt>
      <trkpt lat="42.90333" lon="0.21148">
        <ele>1756</ele>
        <time>2013-04-07T06:58:34Z</time>
      </trkpt>
      <trkpt lat="42.90332" lon="0.21146">
        <ele>1756</ele>
        <time>2013-04-07T06:58:37Z</time>
      </trkpt>
      <trkpt lat="42.9033" lon="0.21145">
        <ele>1756</ele>
        <time>2013-04-07T06:58:40Z</time>
      </trkpt>
      <trkpt lat="42.90329" lon="0.21143">
        <ele>1756</ele>
        <time>2013-04-07T06:58:43Z</time>
      </trkpt>
      <trkpt lat="42.90328" lon="0.21141">
        <ele>1757</ele>
        <time>2013-04-07T06:58:45Z</time>
      </trkpt>
      <trkpt lat="42.90327" lon="0.2114">
        <ele>1757</ele>
        <time>2013-04-07T06:58:47Z</time>
      </trkpt>
      <trkpt lat="42.90325" lon="0.21138">
        <ele>1757</ele>
        <time>2013-04-07T06:58:49Z</time>
      </trkpt>
      <trkpt lat="42.90324" lon="0.21137">
        <ele>1757</ele>
        <time>2013-04-07T06:58:51Z</time>
      </trkpt>
      <trkpt lat="42.90323" lon="0.21136">
        <ele>1757</ele>
        <time>2013-04-07T06:58:53Z</time>
      </trkpt>
      <trkpt lat="42.90322" lon="0.21134">
        <ele>1757</ele>
        <time>2013-04-07T06:58:55Z</time>
      </trkpt>
      <trkpt lat="42.90321" lon="0.21132">
        <ele>1757</ele>
        <time>2013-04-07T06:58:57Z</time>
      </trkpt>
      <trkpt lat="42.90319" lon="0.21131">
        <ele>1757</ele>
        <time>2013-04-07T06:58:59Z</time>
      </trkpt>
      <trkpt lat="42.90318" lon="0.21129">
        <ele>1757</ele>
        <time>2013-04-07T06:59:01Z</time>
      </trkpt>
      <trkpt lat="42.90317" lon="0.21128">
        <ele>1757</ele>
        <time>2013-04-07T06:59:03Z</time>
      </trkpt>
      <trkpt lat="42.90316" lon="0.21126">
        <ele>1757</ele>
        <time>2013-04-07T06:59:05Z</time>
      </trkpt>
      <trkpt lat="42.90314" lon="0.21125">
        <ele>1757</ele>
        <time>2013-04-07T06:59:07Z</time>
      </trkpt>
      <trkpt lat="42.90313" lon="0.21123">
        <ele>1757</ele>
        <time>2013-04-07T06:59:09Z</time>
      </trkpt>
      <trkpt lat="42.90312" lon="0.21122">
        <ele>1757</ele>
        <time>2013-04-07T06:59:11Z</time>
      </trkpt>
      <trkpt lat="42.9031" lon="0.2112">
        <ele>1757</ele>
        <time>2013-04-07T06:59:13Z</time>
      </trkpt>
      <trkpt lat="42.90309" lon="0.21118">
        <ele>1757</ele>
        <time>2013-04-07T06:59:15Z</time>
      </trkpt>
      <trkpt lat="42.90308" lon="0.21117">
        <ele>1757</ele>
        <time>2013-04-07T06:59:17Z</time>
      </trkpt>
      <trkpt lat="42.90307" lon="0.21116">
        <ele>1757</ele>
        <time>2013-04-07T06:59:19Z</time>
      </trkpt>
      <trkpt lat="42.90305" lon="0.21114">
        <ele>1757</ele>
        <time>2013-04-07T06:59:21Z</time>
      </trkpt>
      <trkpt lat="42.90304" lon="0.21113">
        <ele>1757</ele>
        <time>2013-04-07T06:59:23Z</time>
      </trkpt>
      <trkpt lat="42.90303" lon="0.21112">
        <ele>1757</ele>
        <time>2013-04-07T06:59:25Z</time>
      </trkpt>
      <trkpt lat="42.90302" lon="0.21111">
        <ele>1758</ele>
        <time>2013-04-07T06:59:27Z</time>
      </trkpt>
      <trkpt lat="42.903" lon="0.2111">
        <ele>1758</ele>
        <time>2013-04-07T06:59:29Z</time>
      </trkpt>
      <trkpt lat="42.90299" lon="0.21108">
        <ele>1758</ele>
        <time>2013-04-07T06:59:31Z</time>
      </trkpt>
      <trkpt lat="42.90298" lon="0.21107">
        <ele>1758</ele>
        <time>2013-04-07T06:59:33Z</time>
      </trkpt>
      <trkpt lat="42.90297" lon="0.21106">
        <ele>1758</ele>
        <time>2013-04-07T06:59:35Z</time>
      </trkpt>
      <trkpt lat="42.90296" lon="0.21105">
        <ele>1759</ele>
        <time>2013-04-07T06:59:37Z</time>
      </trkpt>
      <trkpt lat="42.90294" lon="0.21104">
        <ele>1759</ele>
        <time>2013-04-07T06:59:39Z</time>
      </trkpt>
      <trkpt lat="42.90293" lon="0.21103">
        <ele>1759</ele>
        <time>2013-04-07T06:59:42Z</time>
      </trkpt>
      <trkpt lat="42.90292" lon="0.21101">
        <ele>1759</ele>
        <time>2013-04-07T06:59:45Z</time>
      </trkpt>
      <trkpt lat="42.9029" lon="0.211">
        <ele>1760</ele>
        <time>2013-04-07T06:59:48Z</time>
      </trkpt>
      <trkpt lat="42.90289" lon="0.21098">
        <ele>1760</ele>
        <time>2013-04-07T06:59:51Z</time>
      </trkpt>
      <trkpt lat="42.90287" lon="0.21097">
        <ele>1761</ele>
        <time>2013-04-07T06:59:54Z</time>
      </trkpt>
      <trkpt lat="42.90286" lon="0.21095">
        <ele>1762</ele>
        <time>2013-04-07T06:59:57Z</time>
      </trkpt>
      <trkpt lat="42.90284" lon="0.21094">
        <ele>1762</ele>
        <time>2013-04-07T07:00:00Z</time>
      </trkpt>
      <trkpt lat="42.90283" lon="0.21092">
        <ele>1763</ele>
        <time>2013-04-07T07:00:03Z</time>
      </trkpt>
      <trkpt lat="42.90281" lon="0.21091">
        <ele>1763</ele>
        <time>2013-04-07T07:00:06Z</time>
      </trkpt>
      <trkpt lat="42.9028" lon="0.2109">
        <ele>1764</ele>
        <time>2013-04-07T07:00:08Z</time>
      </trkpt>
      <trkpt lat="42.90279" lon="0.21089">
        <ele>1764</ele>
        <time>2013-04-07T07:00:11Z</time>
      </trkpt>
      <trkpt lat="42.90277" lon="0.21088">
        <ele>1764</ele>
        <time>2013-04-07T07:00:13Z</time>
      </trkpt>
      <trkpt lat="42.90276" lon="0.21086">
        <ele>1765</ele>
        <time>2013-04-07T07:00:16Z</time>
      </trkpt>
      <trkpt lat="42.90275" lon="0.21085">
        <ele>1766</ele>
        <time>2013-04-07T07:00:18Z</time>
      </trkpt>
      <trkpt lat="42.90274" lon="0.21084">
        <ele>1766</ele>
        <time>2013-04-07T07:00:20Z</time>
      </trkpt>
      <trkpt lat="42.90272" lon="0.21083">
        <ele>1766</ele>
        <time>2013-04-07T07:00:23Z</time>
      </trkpt>
      <trkpt lat="42.9027" lon="0.21082">
        <ele>1766</ele>
        <time>2013-04-07T07:00:26Z</time>
      </trkpt>
      <trkpt lat="42.90268" lon="0.2108">
        <ele>1767</ele>
        <time>2013-04-07T07:00:29Z</time>
      </trkpt>
      <trkpt lat="42.90267" lon="0.21079">
        <ele>1767</ele>
        <time>2013-04-07T07:00:32Z</time>
      </trkpt>
      <trkpt lat="42.90266" lon="0.21078">
        <ele>1768</ele>
        <time>2013-04-07T07:00:34Z</time>
      </trkpt>
      <trkpt lat="42.90265" lon="0.21076">
        <ele>1768</ele>
        <time>2013-04-07T07:00:36Z</time>
      </trkpt>
      <trkpt lat="42.90263" lon="0.21075">
        <ele>1768</ele>
        <time>2013-04-07T07:00:38Z</time>
      </trkpt>
      <trkpt lat="42.90263" lon="0.21074">
        <ele>1768</ele>
        <time>2013-04-07T07:00:40Z</time>
      </trkpt>
      <trkpt lat="42.90261" lon="0.21072">
        <ele>1769</ele>
        <time>2013-04-07T07:00:43Z</time>
      </trkpt>
      <trkpt lat="42.9026" lon="0.21072">
        <ele>1770</ele>
        <time>2013-04-07T07:00:48Z</time>
      </trkpt>
      <trkpt lat="42.90259" lon="0.2107">
        <ele>1770</ele>
        <time>2013-04-07T07:00:50Z</time>
      </trkpt>
      <trkpt lat="42.90258" lon="0.21069">
        <ele>1770</ele>
        <time>2013-04-07T07:00:52Z</time>
      </trkpt>
      <trkpt lat="42.90256" lon="0.21068">
        <ele>1770</ele>
        <time>2013-04-07T07:00:55Z</time>
      </trkpt>
      <trkpt lat="42.90255" lon="0.21067">
        <ele>1771</ele>
        <time>2013-04-07T07:00:57Z</time>
      </trkpt>
      <trkpt lat="42.90254" lon="0.21065">
        <ele>1771</ele>
        <time>2013-04-07T07:01:00Z</time>
      </trkpt>
      <trkpt lat="42.90252" lon="0.21064">
        <ele>1772</ele>
        <time>2013-04-07T07:01:03Z</time>
      </trkpt>
      <trkpt lat="42.90251" lon="0.21062">
        <ele>1772</ele>
        <time>2013-04-07T07:01:06Z</time>
      </trkpt>
      <trkpt lat="42.9025" lon="0.21061">
        <ele>1772</ele>
        <time>2013-04-07T07:01:08Z</time>
      </trkpt>
      <trkpt lat="42.90249" lon="0.2106">
        <ele>1773</ele>
        <time>2013-04-07T07:01:10Z</time>
      </trkpt>
      <trkpt lat="42.90247" lon="0.21058">
        <ele>1773</ele>
        <time>2013-04-07T07:01:13Z</time>
      </trkpt>
      <trkpt lat="42.90245" lon="0.21056">
        <ele>1774</ele>
        <time>2013-04-07T07:01:16Z</time>
      </trkpt>
      <trkpt lat="42.90244" lon="0.21055">
        <ele>1774</ele>
        <time>2013-04-07T07:01:19Z</time>
      </trkpt>
      <trkpt lat="42.90242" lon="0.21053">
        <ele>1775</ele>
        <time>2013-04-07T07:01:22Z</time>
      </trkpt>
      <trkpt lat="42.90241" lon="0.21052">
        <ele>1775</ele>
        <time>2013-04-07T07:01:24Z</time>
      </trkpt>
      <trkpt lat="42.9024" lon="0.2105">
        <ele>1775</ele>
        <time>2013-04-07T07:01:27Z</time>
      </trkpt>
      <trkpt lat="42.90239" lon="0.21049">
        <ele>1776</ele>
        <time>2013-04-07T07:01:30Z</time>
      </trkpt>
      <trkpt lat="42.90237" lon="0.21048">
        <ele>1776</ele>
        <time>2013-04-07T07:01:33Z</time>
      </trkpt>
      <trkpt lat="42.90236" lon="0.21046">
        <ele>1777</ele>
        <time>2013-04-07T07:01:36Z</time>
      </trkpt>
      <trkpt lat="42.90235" lon="0.21045">
        <ele>1777</ele>
        <time>2013-04-07T07:01:39Z</time>
      </trkpt>
      <trkpt lat="42.90233" lon="0.21043">
        <ele>1777</ele>
        <time>2013-04-07T07:01:42Z</time>
      </trkpt>
      <trkpt lat="42.90232" lon="0.21042">
        <ele>1778</ele>
        <time>2013-04-07T07:01:45Z</time>
      </trkpt>
      <trkpt lat="42.9023" lon="0.2104">
        <ele>1778</ele>
        <time>2013-04-07T07:01:48Z</time>
      </trkpt>
      <trkpt lat="42.90229" lon="0.21039">
        <ele>1778</ele>
        <time>2013-04-07T07:01:51Z</time>
      </trkpt>
      <trkpt lat="42.90227" lon="0.21037">
        <ele>1778</ele>
        <time>2013-04-07T07:01:54Z</time>
      </trkpt>
      <trkpt lat="42.90226" lon="0.21036">
        <ele>1778</ele>
        <time>2013-04-07T07:01:57Z</time>
      </trkpt>
      <trkpt lat="42.90224" lon="0.21034">
        <ele>1779</ele>
        <time>2013-04-07T07:02:00Z</time>
      </trkpt>
      <trkpt lat="42.90223" lon="0.21033">
        <ele>1779</ele>
        <time>2013-04-07T07:02:03Z</time>
      </trkpt>
      <trkpt lat="42.90222" lon="0.21032">
        <ele>1779</ele>
        <time>2013-04-07T07:02:06Z</time>
      </trkpt>
      <trkpt lat="42.9022" lon="0.2103">
        <ele>1780</ele>
        <time>2013-04-07T07:02:09Z</time>
      </trkpt>
      <trkpt lat="42.90219" lon="0.21029">
        <ele>1780</ele>
        <time>2013-04-07T07:02:12Z</time>
      </trkpt>
      <trkpt lat="42.90217" lon="0.21027">
        <ele>1780</ele>
        <time>2013-04-07T07:02:15Z</time>
      </trkpt>
      <trkpt lat="42.90216" lon="0.21025">
        <ele>1781</ele>
        <time>2013-04-07T07:02:18Z</time>
      </trkpt>
      <trkpt lat="42.90214" lon="0.21024">
        <ele>1781</ele>
        <time>2013-04-07T07:02:21Z</time>
      </trkpt>
      <trkpt lat="42.90213" lon="0.21022">
        <ele>1781</ele>
        <time>2013-04-07T07:02:23Z</time>
      </trkpt>
      <trkpt lat="42.90212" lon="0.21021">
        <ele>1781</ele>
        <time>2013-04-07T07:02:25Z</time>
      </trkpt>
      <trkpt lat="42.9021" lon="0.21019">
        <ele>1781</ele>
        <time>2013-04-07T07:02:28Z</time>
      </trkpt>
      <trkpt lat="42.90209" lon="0.21017">
        <ele>1781</ele>
        <time>2013-04-07T07:02:30Z</time>
      </trkpt>
      <trkpt lat="42.90208" lon="0.21016">
        <ele>1782</ele>
        <time>2013-04-07T07:02:32Z</time>
      </trkpt>
      <trkpt lat="42.90208" lon="0.21014">
        <ele>1782</ele>
        <time>2013-04-07T07:02:34Z</time>
      </trkpt>
      <trkpt lat="42.90206" lon="0.21013">
        <ele>1782</ele>
        <time>2013-04-07T07:02:37Z</time>
      </trkpt>
      <trkpt lat="42.90206" lon="0.21012">
        <ele>1782</ele>
        <time>2013-04-07T07:02:40Z</time>
      </trkpt>
      <trkpt lat="42.90205" lon="0.2101">
        <ele>1782</ele>
        <time>2013-04-07T07:02:51Z</time>
      </trkpt>
      <trkpt lat="42.90204" lon="0.21008">
        <ele>1782</ele>
        <time>2013-04-07T07:02:53Z</time>
      </trkpt>
      <trkpt lat="42.90203" lon="0.21006">
        <ele>1783</ele>
        <time>2013-04-07T07:02:56Z</time>
      </trkpt>
      <trkpt lat="42.90202" lon="0.21005">
        <ele>1784</ele>
        <time>2013-04-07T07:03:01Z</time>
      </trkpt>
      <trkpt lat="42.90201" lon="0.21003">
        <ele>1784</ele>
        <time>2013-04-07T07:03:04Z</time>
      </trkpt>
      <trkpt lat="42.902" lon="0.21001">
        <ele>1784</ele>
        <time>2013-04-07T07:03:06Z</time>
      </trkpt>
      <trkpt lat="42.902" lon="0.20999">
        <ele>1784</ele>
        <time>2013-04-07T07:03:08Z</time>
      </trkpt>
      <trkpt lat="42.90199" lon="0.20997">
        <ele>1784</ele>
        <time>2013-04-07T07:03:10Z</time>
      </trkpt>
      <trkpt lat="42.90198" lon="0.20995">
        <ele>1785</ele>
        <time>2013-04-07T07:03:12Z</time>
      </trkpt>
      <trkpt lat="42.90197" lon="0.20993">
        <ele>1786</ele>
        <time>2013-04-07T07:03:14Z</time>
      </trkpt>
      <trkpt lat="42.90197" lon="0.20991">
        <ele>1786</ele>
        <time>2013-04-07T07:03:16Z</time>
      </trkpt>
      <trkpt lat="42.90195" lon="0.20989">
        <ele>1787</ele>
        <time>2013-04-07T07:03:19Z</time>
      </trkpt>
      <trkpt lat="42.90195" lon="0.20988">
        <ele>1787</ele>
        <time>2013-04-07T07:03:21Z</time>
      </trkpt>
      <trkpt lat="42.90193" lon="0.20986">
        <ele>1788</ele>
        <time>2013-04-07T07:03:24Z</time>
      </trkpt>
      <trkpt lat="42.90193" lon="0.20984">
        <ele>1788</ele>
        <time>2013-04-07T07:03:26Z</time>
      </trkpt>
      <trkpt lat="42.90192" lon="0.20983">
        <ele>1788</ele>
        <time>2013-04-07T07:03:28Z</time>
      </trkpt>
      <trkpt lat="42.90191" lon="0.20981">
        <ele>1789</ele>
        <time>2013-04-07T07:03:30Z</time>
      </trkpt>
      <trkpt lat="42.90191" lon="0.20979">
        <ele>1789</ele>
        <time>2013-04-07T07:03:32Z</time>
      </trkpt>
      <trkpt lat="42.90189" lon="0.20977">
        <ele>1790</ele>
        <time>2013-04-07T07:03:35Z</time>
      </trkpt>
      <trkpt lat="42.90188" lon="0.20975">
        <ele>1790</ele>
        <time>2013-04-07T07:03:38Z</time>
      </trkpt>
      <trkpt lat="42.90187" lon="0.20974">
        <ele>1790</ele>
        <time>2013-04-07T07:03:40Z</time>
      </trkpt>
      <trkpt lat="42.90186" lon="0.20973">
        <ele>1790</ele>
        <time>2013-04-07T07:03:42Z</time>
      </trkpt>
      <trkpt lat="42.90184" lon="0.20972">
        <ele>1790</ele>
        <time>2013-04-07T07:03:44Z</time>
      </trkpt>
      <trkpt lat="42.90183" lon="0.20973">
        <ele>1790</ele>
        <time>2013-04-07T07:03:46Z</time>
      </trkpt>
      <trkpt lat="42.90181" lon="0.20973">
        <ele>1790</ele>
        <time>2013-04-07T07:03:48Z</time>
      </trkpt>
      <trkpt lat="42.9018" lon="0.20974">
        <ele>1790</ele>
        <time>2013-04-07T07:03:51Z</time>
      </trkpt>
      <trkpt lat="42.90179" lon="0.20974">
        <ele>1791</ele>
        <time>2013-04-07T07:03:53Z</time>
      </trkpt>
      <trkpt lat="42.90177" lon="0.20974">
        <ele>1791</ele>
        <time>2013-04-07T07:03:55Z</time>
      </trkpt>
      <trkpt lat="42.90176" lon="0.20975">
        <ele>1791</ele>
        <time>2013-04-07T07:03:57Z</time>
      </trkpt>
      <trkpt lat="42.90175" lon="0.20975">
        <ele>1792</ele>
        <time>2013-04-07T07:03:59Z</time>
      </trkpt>
      <trkpt lat="42.90173" lon="0.20976">
        <ele>1792</ele>
        <time>2013-04-07T07:04:02Z</time>
      </trkpt>
      <trkpt lat="42.90172" lon="0.20975">
        <ele>1793</ele>
        <time>2013-04-07T07:04:05Z</time>
      </trkpt>
      <trkpt lat="42.90171" lon="0.20973">
        <ele>1794</ele>
        <time>2013-04-07T07:04:07Z</time>
      </trkpt>
      <trkpt lat="42.90171" lon="0.20972">
        <ele>1796</ele>
        <time>2013-04-07T07:04:11Z</time>
      </trkpt>
      <trkpt lat="42.9017" lon="0.2097">
        <ele>1796</ele>
        <time>2013-04-07T07:04:13Z</time>
      </trkpt>
      <trkpt lat="42.9017" lon="0.20968">
        <ele>1798</ele>
        <time>2013-04-07T07:04:16Z</time>
      </trkpt>
      <trkpt lat="42.90169" lon="0.20967">
        <ele>1798</ele>
        <time>2013-04-07T07:04:17Z</time>
      </trkpt>
      <trkpt lat="42.90169" lon="0.20965">
        <ele>1799</ele>
        <time>2013-04-07T07:04:19Z</time>
      </trkpt>
      <trkpt lat="42.90168" lon="0.20963">
        <ele>1799</ele>
        <time>2013-04-07T07:04:23Z</time>
      </trkpt>
      <trkpt lat="42.90168" lon="0.20962">
        <ele>1799</ele>
        <time>2013-04-07T07:04:26Z</time>
      </trkpt>
      <trkpt lat="42.90168" lon="0.2096">
        <ele>1799</ele>
        <time>2013-04-07T07:04:28Z</time>
      </trkpt>
      <trkpt lat="42.90168" lon="0.20958">
        <ele>1800</ele>
        <time>2013-04-07T07:04:30Z</time>
      </trkpt>
      <trkpt lat="42.90168" lon="0.20957">
        <ele>1800</ele>
        <time>2013-04-07T07:04:32Z</time>
      </trkpt>
      <trkpt lat="42.90168" lon="0.20955">
        <ele>1801</ele>
        <time>2013-04-07T07:04:34Z</time>
      </trkpt>
      <trkpt lat="42.90168" lon="0.20953">
        <ele>1802</ele>
        <time>2013-04-07T07:04:36Z</time>
      </trkpt>
      <trkpt lat="42.90168" lon="0.20952">
        <ele>1802</ele>
        <time>2013-04-07T07:04:38Z</time>
      </trkpt>
      <trkpt lat="42.90168" lon="0.2095">
        <ele>1802</ele>
        <time>2013-04-07T07:04:40Z</time>
      </trkpt>
      <trkpt lat="42.90168" lon="0.20948">
        <ele>1802</ele>
        <time>2013-04-07T07:04:43Z</time>
      </trkpt>
      <trkpt lat="42.90168" lon="0.20947">
        <ele>1802</ele>
        <time>2013-04-07T07:04:45Z</time>
      </trkpt>
      <trkpt lat="42.90168" lon="0.20945">
        <ele>1803</ele>
        <time>2013-04-07T07:04:47Z</time>
      </trkpt>
      <trkpt lat="42.90168" lon="0.20944">
        <ele>1803</ele>
        <time>2013-04-07T07:04:49Z</time>
      </trkpt>
      <trkpt lat="42.90168" lon="0.20942">
        <ele>1803</ele>
        <time>2013-04-07T07:04:51Z</time>
      </trkpt>
      <trkpt lat="42.90168" lon="0.2094">
        <ele>1804</ele>
        <time>2013-04-07T07:04:54Z</time>
      </trkpt>
      <trkpt lat="42.90168" lon="0.20939">
        <ele>1804</ele>
        <time>2013-04-07T07:05:16Z</time>
      </trkpt>
      <trkpt lat="42.90166" lon="0.20939">
        <ele>1804</ele>
        <time>2013-04-07T07:05:23Z</time>
      </trkpt>
      <trkpt lat="42.90165" lon="0.20941">
        <ele>1804</ele>
        <time>2013-04-07T07:05:27Z</time>
      </trkpt>
      <trkpt lat="42.90165" lon="0.20943">
        <ele>1804</ele>
        <time>2013-04-07T07:05:29Z</time>
      </trkpt>
      <trkpt lat="42.90163" lon="0.20945">
        <ele>1804</ele>
        <time>2013-04-07T07:05:31Z</time>
      </trkpt>
      <trkpt lat="42.90163" lon="0.20946">
        <ele>1804</ele>
        <time>2013-04-07T07:05:33Z</time>
      </trkpt>
      <trkpt lat="42.90162" lon="0.20948">
        <ele>1804</ele>
        <time>2013-04-07T07:05:36Z</time>
      </trkpt>
      <trkpt lat="42.90163" lon="0.20946">
        <ele>1804</ele>
        <time>2013-04-07T07:05:45Z</time>
      </trkpt>
      <trkpt lat="42.90163" lon="0.20945">
        <ele>1804</ele>
        <time>2013-04-07T07:05:48Z</time>
      </trkpt>
      <trkpt lat="42.90163" lon="0.20943">
        <ele>1805</ele>
        <time>2013-04-07T07:05:56Z</time>
      </trkpt>
      <trkpt lat="42.90163" lon="0.20941">
        <ele>1806</ele>
        <time>2013-04-07T07:05:59Z</time>
      </trkpt>
      <trkpt lat="42.90163" lon="0.20939">
        <ele>1806</ele>
        <time>2013-04-07T07:06:01Z</time>
      </trkpt>
      <trkpt lat="42.90162" lon="0.20937">
        <ele>1807</ele>
        <time>2013-04-07T07:06:04Z</time>
      </trkpt>
      <trkpt lat="42.90162" lon="0.20935">
        <ele>1808</ele>
        <time>2013-04-07T07:06:06Z</time>
      </trkpt>
      <trkpt lat="42.90161" lon="0.20933">
        <ele>1809</ele>
        <time>2013-04-07T07:06:08Z</time>
      </trkpt>
      <trkpt lat="42.90161" lon="0.20932">
        <ele>1809</ele>
        <time>2013-04-07T07:06:10Z</time>
      </trkpt>
      <trkpt lat="42.90161" lon="0.2093">
        <ele>1810</ele>
        <time>2013-04-07T07:06:12Z</time>
      </trkpt>
      <trkpt lat="42.9016" lon="0.20928">
        <ele>1810</ele>
        <time>2013-04-07T07:06:14Z</time>
      </trkpt>
      <trkpt lat="42.9016" lon="0.20926">
        <ele>1811</ele>
        <time>2013-04-07T07:06:16Z</time>
      </trkpt>
      <trkpt lat="42.9016" lon="0.20924">
        <ele>1812</ele>
        <time>2013-04-07T07:06:18Z</time>
      </trkpt>
      <trkpt lat="42.90159" lon="0.20923">
        <ele>1812</ele>
        <time>2013-04-07T07:06:20Z</time>
      </trkpt>
      <trkpt lat="42.90158" lon="0.20922">
        <ele>1812</ele>
        <time>2013-04-07T07:06:23Z</time>
      </trkpt>
      <trkpt lat="42.90157" lon="0.20922">
        <ele>1813</ele>
        <time>2013-04-07T07:06:26Z</time>
      </trkpt>
      <trkpt lat="42.90155" lon="0.20922">
        <ele>1813</ele>
        <time>2013-04-07T07:06:28Z</time>
      </trkpt>
      <trkpt lat="42.90154" lon="0.20922">
        <ele>1813</ele>
        <time>2013-04-07T07:06:30Z</time>
      </trkpt>
      <trkpt lat="42.90153" lon="0.20923">
        <ele>1813</ele>
        <time>2013-04-07T07:06:32Z</time>
      </trkpt>
      <trkpt lat="42.90152" lon="0.20923">
        <ele>1814</ele>
        <time>2013-04-07T07:06:34Z</time>
      </trkpt>
      <trkpt lat="42.9015" lon="0.20924">
        <ele>1814</ele>
        <time>2013-04-07T07:06:36Z</time>
      </trkpt>
      <trkpt lat="42.90148" lon="0.20925">
        <ele>1814</ele>
        <time>2013-04-07T07:06:38Z</time>
      </trkpt>
      <trkpt lat="42.90147" lon="0.20926">
        <ele>1814</ele>
        <time>2013-04-07T07:06:40Z</time>
      </trkpt>
      <trkpt lat="42.90146" lon="0.20928">
        <ele>1815</ele>
        <time>2013-04-07T07:06:43Z</time>
      </trkpt>
      <trkpt lat="42.90145" lon="0.2093">
        <ele>1815</ele>
        <time>2013-04-07T07:06:46Z</time>
      </trkpt>
      <trkpt lat="42.90144" lon="0.20932">
        <ele>1816</ele>
        <time>2013-04-07T07:06:49Z</time>
      </trkpt>
      <trkpt lat="42.90142" lon="0.20933">
        <ele>1816</ele>
        <time>2013-04-07T07:06:52Z</time>
      </trkpt>
      <trkpt lat="42.90141" lon="0.20935">
        <ele>1817</ele>
        <time>2013-04-07T07:06:55Z</time>
      </trkpt>
      <trkpt lat="42.90141" lon="0.20937">
        <ele>1817</ele>
        <time>2013-04-07T07:06:57Z</time>
      </trkpt>
      <trkpt lat="42.90141" lon="0.20935">
        <ele>1817</ele>
        <time>2013-04-07T07:07:08Z</time>
      </trkpt>
      <trkpt lat="42.90141" lon="0.20934">
        <ele>1818</ele>
        <time>2013-04-07T07:07:11Z</time>
      </trkpt>
      <trkpt lat="42.9014" lon="0.20932">
        <ele>1818</ele>
        <time>2013-04-07T07:07:13Z</time>
      </trkpt>
      <trkpt lat="42.9014" lon="0.20931">
        <ele>1818</ele>
        <time>2013-04-07T07:07:15Z</time>
      </trkpt>
      <trkpt lat="42.90139" lon="0.20929">
        <ele>1818</ele>
        <time>2013-04-07T07:07:18Z</time>
      </trkpt>
      <trkpt lat="42.90139" lon="0.20927">
        <ele>1819</ele>
        <time>2013-04-07T07:07:20Z</time>
      </trkpt>
      <trkpt lat="42.90139" lon="0.20925">
        <ele>1819</ele>
        <time>2013-04-07T07:07:23Z</time>
      </trkpt>
      <trkpt lat="42.90138" lon="0.20924">
        <ele>1820</ele>
        <time>2013-04-07T07:07:26Z</time>
      </trkpt>
      <trkpt lat="42.90138" lon="0.20922">
        <ele>1822</ele>
        <time>2013-04-07T07:07:40Z</time>
      </trkpt>
      <trkpt lat="42.90137" lon="0.20921">
        <ele>1822</ele>
        <time>2013-04-07T07:07:43Z</time>
      </trkpt>
      <trkpt lat="42.90137" lon="0.20919">
        <ele>1823</ele>
        <time>2013-04-07T07:07:45Z</time>
      </trkpt>
      <trkpt lat="42.90136" lon="0.20918">
        <ele>1823</ele>
        <time>2013-04-07T07:07:48Z</time>
      </trkpt>
      <trkpt lat="42.90136" lon="0.20916">
        <ele>1823</ele>
        <time>2013-04-07T07:07:51Z</time>
      </trkpt>
      <trkpt lat="42.90135" lon="0.20914">
        <ele>1823</ele>
        <time>2013-04-07T07:07:54Z</time>
      </trkpt>
      <trkpt lat="42.90135" lon="0.20912">
        <ele>1823</ele>
        <time>2013-04-07T07:07:57Z</time>
      </trkpt>
      <trkpt lat="42.90135" lon="0.2091">
        <ele>1824</ele>
        <time>2013-04-07T07:08:00Z</time>
      </trkpt>
      <trkpt lat="42.90135" lon="0.20908">
        <ele>1824</ele>
        <time>2013-04-07T07:08:03Z</time>
      </trkpt>
      <trkpt lat="42.90134" lon="0.20906">
        <ele>1824</ele>
        <time>2013-04-07T07:08:05Z</time>
      </trkpt>
      <trkpt lat="42.90134" lon="0.20904">
        <ele>1824</ele>
        <time>2013-04-07T07:08:07Z</time>
      </trkpt>
      <trkpt lat="42.90133" lon="0.20905">
        <ele>1825</ele>
        <time>2013-04-07T07:08:11Z</time>
      </trkpt>
      <trkpt lat="42.90132" lon="0.20907">
        <ele>1826</ele>
        <time>2013-04-07T07:08:14Z</time>
      </trkpt>
      <trkpt lat="42.90131" lon="0.20908">
        <ele>1826</ele>
        <time>2013-04-07T07:08:16Z</time>
      </trkpt>
      <trkpt lat="42.9013" lon="0.2091">
        <ele>1826</ele>
        <time>2013-04-07T07:08:18Z</time>
      </trkpt>
      <trkpt lat="42.90131" lon="0.20908">
        <ele>1827</ele>
        <time>2013-04-07T07:08:34Z</time>
      </trkpt>
      <trkpt lat="42.90131" lon="0.20907">
        <ele>1827</ele>
        <time>2013-04-07T07:08:37Z</time>
      </trkpt>
      <trkpt lat="42.9013" lon="0.20905">
        <ele>1827</ele>
        <time>2013-04-07T07:08:39Z</time>
      </trkpt>
      <trkpt lat="42.90129" lon="0.20904">
        <ele>1828</ele>
        <time>2013-04-07T07:08:42Z</time>
      </trkpt>
      <trkpt lat="42.90129" lon="0.20902">
        <ele>1828</ele>
        <time>2013-04-07T07:08:44Z</time>
      </trkpt>
      <trkpt lat="42.90128" lon="0.209">
        <ele>1828</ele>
        <time>2013-04-07T07:08:46Z</time>
      </trkpt>
      <trkpt lat="42.90128" lon="0.20898">
        <ele>1828</ele>
        <time>2013-04-07T07:08:48Z</time>
      </trkpt>
      <trkpt lat="42.90127" lon="0.20896">
        <ele>1829</ele>
        <time>2013-04-07T07:08:50Z</time>
      </trkpt>
      <trkpt lat="42.90127" lon="0.20895">
        <ele>1830</ele>
        <time>2013-04-07T07:08:52Z</time>
      </trkpt>
      <trkpt lat="42.90126" lon="0.20893">
        <ele>1831</ele>
        <time>2013-04-07T07:09:18Z</time>
      </trkpt>
      <trkpt lat="42.90126" lon="0.20891">
        <ele>1831</ele>
        <time>2013-04-07T07:09:19Z</time>
      </trkpt>
      <trkpt lat="42.90126" lon="0.2089">
        <ele>1831</ele>
        <time>2013-04-07T07:09:21Z</time>
      </trkpt>
      <trkpt lat="42.90126" lon="0.20888">
        <ele>1831</ele>
        <time>2013-04-07T07:09:23Z</time>
      </trkpt>
      <trkpt lat="42.90125" lon="0.20886">
        <ele>1831</ele>
        <time>2013-04-07T07:09:25Z</time>
      </trkpt>
      <trkpt lat="42.90125" lon="0.20884">
        <ele>1831</ele>
        <time>2013-04-07T07:09:27Z</time>
      </trkpt>
      <trkpt lat="42.90124" lon="0.20882">
        <ele>1831</ele>
        <time>2013-04-07T07:09:29Z</time>
      </trkpt>
      <trkpt lat="42.90123" lon="0.20879">
        <ele>1831</ele>
        <time>2013-04-07T07:09:31Z</time>
      </trkpt>
      <trkpt lat="42.90123" lon="0.20878">
        <ele>1831</ele>
        <time>2013-04-07T07:09:33Z</time>
      </trkpt>
      <trkpt lat="42.90123" lon="0.20876">
        <ele>1831</ele>
        <time>2013-04-07T07:09:35Z</time>
      </trkpt>
      <trkpt lat="42.90123" lon="0.20875">
        <ele>1832</ele>
        <time>2013-04-07T07:09:37Z</time>
      </trkpt>
      <trkpt lat="42.90123" lon="0.20873">
        <ele>1833</ele>
        <time>2013-04-07T07:09:39Z</time>
      </trkpt>
      <trkpt lat="42.90122" lon="0.2087">
        <ele>1834</ele>
        <time>2013-04-07T07:09:41Z</time>
      </trkpt>
      <trkpt lat="42.90121" lon="0.20869">
        <ele>1834</ele>
        <time>2013-04-07T07:09:43Z</time>
      </trkpt>
      <trkpt lat="42.90121" lon="0.20867">
        <ele>1835</ele>
        <time>2013-04-07T07:09:45Z</time>
      </trkpt>
      <trkpt lat="42.9012" lon="0.20865">
        <ele>1835</ele>
        <time>2013-04-07T07:09:47Z</time>
      </trkpt>
      <trkpt lat="42.9012" lon="0.20863">
        <ele>1837</ele>
        <time>2013-04-07T07:09:50Z</time>
      </trkpt>
      <trkpt lat="42.90119" lon="0.20861">
        <ele>1839</ele>
        <time>2013-04-07T07:09:52Z</time>
      </trkpt>
      <trkpt lat="42.90118" lon="0.20859">
        <ele>1839</ele>
        <time>2013-04-07T07:09:54Z</time>
      </trkpt>
      <trkpt lat="42.90117" lon="0.20858">
        <ele>1840</ele>
        <time>2013-04-07T07:09:57Z</time>
      </trkpt>
      <trkpt lat="42.90116" lon="0.20856">
        <ele>1840</ele>
        <time>2013-04-07T07:10:00Z</time>
      </trkpt>
      <trkpt lat="42.90115" lon="0.20854">
        <ele>1841</ele>
        <time>2013-04-07T07:10:02Z</time>
      </trkpt>
      <trkpt lat="42.90115" lon="0.20853">
        <ele>1842</ele>
        <time>2013-04-07T07:10:04Z</time>
      </trkpt>
      <trkpt lat="42.90114" lon="0.20851">
        <ele>1842</ele>
        <time>2013-04-07T07:10:06Z</time>
      </trkpt>
      <trkpt lat="42.90113" lon="0.2085">
        <ele>1843</ele>
        <time>2013-04-07T07:10:09Z</time>
      </trkpt>
      <trkpt lat="42.90112" lon="0.20848">
        <ele>1844</ele>
        <time>2013-04-07T07:10:12Z</time>
      </trkpt>
      <trkpt lat="42.90111" lon="0.20846">
        <ele>1844</ele>
        <time>2013-04-07T07:10:13Z</time>
      </trkpt>
      <trkpt lat="42.9011" lon="0.20845">
        <ele>1844</ele>
        <time>2013-04-07T07:10:14Z</time>
      </trkpt>
      <trkpt lat="42.90109" lon="0.20843">
        <ele>1845</ele>
        <time>2013-04-07T07:10:16Z</time>
      </trkpt>
      <trkpt lat="42.90108" lon="0.2084">
        <ele>1845</ele>
        <time>2013-04-07T07:10:18Z</time>
      </trkpt>
      <trkpt lat="42.90107" lon="0.20839">
        <ele>1845</ele>
        <time>2013-04-07T07:10:20Z</time>
      </trkpt>
      <trkpt lat="42.90106" lon="0.20837">
        <ele>1845</ele>
        <time>2013-04-07T07:10:23Z</time>
      </trkpt>
      <trkpt lat="42.90105" lon="0.20836">
        <ele>1845</ele>
        <time>2013-04-07T07:10:25Z</time>
      </trkpt>
      <trkpt lat="42.90103" lon="0.20835">
        <ele>1845</ele>
        <time>2013-04-07T07:10:29Z</time>
      </trkpt>
      <trkpt lat="42.90102" lon="0.20832">
        <ele>1845</ele>
        <time>2013-04-07T07:10:32Z</time>
      </trkpt>
      <trkpt lat="42.90101" lon="0.20831">
        <ele>1845</ele>
        <time>2013-04-07T07:10:33Z</time>
      </trkpt>
      <trkpt lat="42.901" lon="0.20829">
        <ele>1845</ele>
        <time>2013-04-07T07:10:34Z</time>
      </trkpt>
      <trkpt lat="42.90099" lon="0.20827">
        <ele>1846</ele>
        <time>2013-04-07T07:10:37Z</time>
      </trkpt>
      <trkpt lat="42.90098" lon="0.20826">
        <ele>1847</ele>
        <time>2013-04-07T07:10:40Z</time>
      </trkpt>
      <trkpt lat="42.90097" lon="0.20824">
        <ele>1848</ele>
        <time>2013-04-07T07:10:43Z</time>
      </trkpt>
      <trkpt lat="42.90096" lon="0.20823">
        <ele>1848</ele>
        <time>2013-04-07T07:10:46Z</time>
      </trkpt>
      <trkpt lat="42.90096" lon="0.20825">
        <ele>1848</ele>
        <time>2013-04-07T07:10:50Z</time>
      </trkpt>
      <trkpt lat="42.90097" lon="0.20826">
        <ele>1848</ele>
        <time>2013-04-07T07:10:56Z</time>
      </trkpt>
      <trkpt lat="42.90099" lon="0.20826">
        <ele>1848</ele>
        <time>2013-04-07T07:11:01Z</time>
      </trkpt>
      <trkpt lat="42.901" lon="0.20827">
        <ele>1848</ele>
        <time>2013-04-07T07:11:05Z</time>
      </trkpt>
      <trkpt lat="42.90099" lon="0.20825">
        <ele>1851</ele>
        <time>2013-04-07T07:11:10Z</time>
      </trkpt>
      <trkpt lat="42.90099" lon="0.20824">
        <ele>1853</ele>
        <time>2013-04-07T07:11:13Z</time>
      </trkpt>
      <trkpt lat="42.90098" lon="0.20822">
        <ele>1854</ele>
        <time>2013-04-07T07:11:16Z</time>
      </trkpt>
      <trkpt lat="42.90097" lon="0.20824">
        <ele>1858</ele>
        <time>2013-04-07T07:11:21Z</time>
      </trkpt>
      <trkpt lat="42.90096" lon="0.20826">
        <ele>1859</ele>
        <time>2013-04-07T07:11:23Z</time>
      </trkpt>
      <trkpt lat="42.90096" lon="0.20827">
        <ele>1859</ele>
        <time>2013-04-07T07:11:26Z</time>
      </trkpt>
      <trkpt lat="42.90096" lon="0.2083">
        <ele>1859</ele>
        <time>2013-04-07T07:11:28Z</time>
      </trkpt>
      <trkpt lat="42.90095" lon="0.20831">
        <ele>1860</ele>
        <time>2013-04-07T07:11:30Z</time>
      </trkpt>
      <trkpt lat="42.90094" lon="0.20833">
        <ele>1860</ele>
        <time>2013-04-07T07:11:33Z</time>
      </trkpt>
      <trkpt lat="42.90094" lon="0.20835">
        <ele>1860</ele>
        <time>2013-04-07T07:11:35Z</time>
      </trkpt>
      <trkpt lat="42.90094" lon="0.20837">
        <ele>1860</ele>
        <time>2013-04-07T07:11:37Z</time>
      </trkpt>
      <trkpt lat="42.90093" lon="0.20839">
        <ele>1861</ele>
        <time>2013-04-07T07:11:39Z</time>
      </trkpt>
      <trkpt lat="42.90093" lon="0.2084">
        <ele>1861</ele>
        <time>2013-04-07T07:11:41Z</time>
      </trkpt>
      <trkpt lat="42.90092" lon="0.20842">
        <ele>1862</ele>
        <time>2013-04-07T07:11:44Z</time>
      </trkpt>
      <trkpt lat="42.90092" lon="0.20844">
        <ele>1863</ele>
        <time>2013-04-07T07:11:46Z</time>
      </trkpt>
      <trkpt lat="42.90091" lon="0.20846">
        <ele>1863</ele>
        <time>2013-04-07T07:11:49Z</time>
      </trkpt>
      <trkpt lat="42.90091" lon="0.20847">
        <ele>1863</ele>
        <time>2013-04-07T07:11:51Z</time>
      </trkpt>
      <trkpt lat="42.90091" lon="0.20849">
        <ele>1863</ele>
        <time>2013-04-07T07:11:53Z</time>
      </trkpt>
      <trkpt lat="42.90091" lon="0.2085">
        <ele>1864</ele>
        <time>2013-04-07T07:11:55Z</time>
      </trkpt>
      <trkpt lat="42.90091" lon="0.20852">
        <ele>1864</ele>
        <time>2013-04-07T07:11:57Z</time>
      </trkpt>
      <trkpt lat="42.90089" lon="0.20854">
        <ele>1864</ele>
        <time>2013-04-07T07:12:00Z</time>
      </trkpt>
      <trkpt lat="42.90089" lon="0.20856">
        <ele>1864</ele>
        <time>2013-04-07T07:12:03Z</time>
      </trkpt>
      <trkpt lat="42.90089" lon="0.20857">
        <ele>1864</ele>
        <time>2013-04-07T07:12:05Z</time>
      </trkpt>
      <trkpt lat="42.90088" lon="0.20858">
        <ele>1864</ele>
        <time>2013-04-07T07:12:07Z</time>
      </trkpt>
      <trkpt lat="42.90087" lon="0.2086">
        <ele>1864</ele>
        <time>2013-04-07T07:12:10Z</time>
      </trkpt>
      <trkpt lat="42.90085" lon="0.20859">
        <ele>1864</ele>
        <time>2013-04-07T07:12:14Z</time>
      </trkpt>
      <trkpt lat="42.90084" lon="0.20858">
        <ele>1864</ele>
        <time>2013-04-07T07:12:21Z</time>
      </trkpt>
      <trkpt lat="42.90084" lon="0.20856">
        <ele>1864</ele>
        <time>2013-04-07T07:12:24Z</time>
      </trkpt>
      <trkpt lat="42.90083" lon="0.20855">
        <ele>1864</ele>
        <time>2013-04-07T07:12:34Z</time>
      </trkpt>
      <trkpt lat="42.90082" lon="0.20854">
        <ele>1864</ele>
        <time>2013-04-07T07:12:36Z</time>
      </trkpt>
      <trkpt lat="42.9008" lon="0.20853">
        <ele>1864</ele>
        <time>2013-04-07T07:12:38Z</time>
      </trkpt>
      <trkpt lat="42.90079" lon="0.20852">
        <ele>1864</ele>
        <time>2013-04-07T07:12:41Z</time>
      </trkpt>
      <trkpt lat="42.90078" lon="0.2085">
        <ele>1864</ele>
        <time>2013-04-07T07:12:43Z</time>
      </trkpt>
      <trkpt lat="42.90077" lon="0.20849">
        <ele>1864</ele>
        <time>2013-04-07T07:12:46Z</time>
      </trkpt>
      <trkpt lat="42.90077" lon="0.20846">
        <ele>1864</ele>
        <time>2013-04-07T07:12:51Z</time>
      </trkpt>
      <trkpt lat="42.90077" lon="0.20844">
        <ele>1864</ele>
        <time>2013-04-07T07:12:53Z</time>
      </trkpt>
      <trkpt lat="42.90078" lon="0.20843">
        <ele>1867</ele>
        <time>2013-04-07T07:12:56Z</time>
      </trkpt>
      <trkpt lat="42.90078" lon="0.20845">
        <ele>1871</ele>
        <time>2013-04-07T07:13:02Z</time>
      </trkpt>
      <trkpt lat="42.90078" lon="0.20847">
        <ele>1871</ele>
        <time>2013-04-07T07:13:04Z</time>
      </trkpt>
      <trkpt lat="42.90079" lon="0.20848">
        <ele>1872</ele>
        <time>2013-04-07T07:13:07Z</time>
      </trkpt>
      <trkpt lat="42.90079" lon="0.2085">
        <ele>1872</ele>
        <time>2013-04-07T07:13:09Z</time>
      </trkpt>
      <trkpt lat="42.90078" lon="0.20852">
        <ele>1872</ele>
        <time>2013-04-07T07:13:12Z</time>
      </trkpt>
      <trkpt lat="42.90077" lon="0.20853">
        <ele>1872</ele>
        <time>2013-04-07T07:13:14Z</time>
      </trkpt>
      <trkpt lat="42.90077" lon="0.20855">
        <ele>1872</ele>
        <time>2013-04-07T07:13:16Z</time>
      </trkpt>
      <trkpt lat="42.90076" lon="0.20857">
        <ele>1872</ele>
        <time>2013-04-07T07:13:19Z</time>
      </trkpt>
      <trkpt lat="42.90075" lon="0.20858">
        <ele>1872</ele>
        <time>2013-04-07T07:13:22Z</time>
      </trkpt>
      <trkpt lat="42.90074" lon="0.20861">
        <ele>1872</ele>
        <time>2013-04-07T07:13:25Z</time>
      </trkpt>
      <trkpt lat="42.90074" lon="0.20863">
        <ele>1872</ele>
        <time>2013-04-07T07:13:28Z</time>
      </trkpt>
      <trkpt lat="42.90073" lon="0.20865">
        <ele>1872</ele>
        <time>2013-04-07T07:13:30Z</time>
      </trkpt>
      <trkpt lat="42.90073" lon="0.20866">
        <ele>1872</ele>
        <time>2013-04-07T07:13:33Z</time>
      </trkpt>
      <trkpt lat="42.90073" lon="0.20868">
        <ele>1872</ele>
        <time>2013-04-07T07:13:35Z</time>
      </trkpt>
      <trkpt lat="42.90073" lon="0.20869">
        <ele>1872</ele>
        <time>2013-04-07T07:13:38Z</time>
      </trkpt>
      <trkpt lat="42.90072" lon="0.20869">
        <ele>1872</ele>
        <time>2013-04-07T07:13:44Z</time>
      </trkpt>
      <trkpt lat="42.90071" lon="0.20868">
        <ele>1872</ele>
        <time>2013-04-07T07:13:51Z</time>
      </trkpt>
      <trkpt lat="42.9007" lon="0.20867">
        <ele>1872</ele>
        <time>2013-04-07T07:13:55Z</time>
      </trkpt>
      <trkpt lat="42.90069" lon="0.20866">
        <ele>1872</ele>
        <time>2013-04-07T07:13:57Z</time>
      </trkpt>
      <trkpt lat="42.90067" lon="0.20865">
        <ele>1872</ele>
        <time>2013-04-07T07:13:59Z</time>
      </trkpt>
      <trkpt lat="42.90066" lon="0.20863">
        <ele>1872</ele>
        <time>2013-04-07T07:14:02Z</time>
      </trkpt>
      <trkpt lat="42.90065" lon="0.20862">
        <ele>1872</ele>
        <time>2013-04-07T07:14:05Z</time>
      </trkpt>
      <trkpt lat="42.90065" lon="0.2086">
        <ele>1872</ele>
        <time>2013-04-07T07:14:07Z</time>
      </trkpt>
      <trkpt lat="42.90065" lon="0.20859">
        <ele>1872</ele>
        <time>2013-04-07T07:14:09Z</time>
      </trkpt>
      <trkpt lat="42.90064" lon="0.20857">
        <ele>1872</ele>
        <time>2013-04-07T07:14:11Z</time>
      </trkpt>
      <trkpt lat="42.90064" lon="0.20855">
        <ele>1872</ele>
        <time>2013-04-07T07:14:13Z</time>
      </trkpt>
      <trkpt lat="42.90064" lon="0.20854">
        <ele>1872</ele>
        <time>2013-04-07T07:14:17Z</time>
      </trkpt>
      <trkpt lat="42.90065" lon="0.20852">
        <ele>1872</ele>
        <time>2013-04-07T07:14:20Z</time>
      </trkpt>
      <trkpt lat="42.90064" lon="0.20851">
        <ele>1872</ele>
        <time>2013-04-07T07:14:22Z</time>
      </trkpt>
      <trkpt lat="42.90063" lon="0.20849">
        <ele>1872</ele>
        <time>2013-04-07T07:14:24Z</time>
      </trkpt>
      <trkpt lat="42.90063" lon="0.20847">
        <ele>1872</ele>
        <time>2013-04-07T07:14:26Z</time>
      </trkpt>
      <trkpt lat="42.90062" lon="0.20845">
        <ele>1872</ele>
        <time>2013-04-07T07:14:29Z</time>
      </trkpt>
      <trkpt lat="42.90062" lon="0.20844">
        <ele>1872</ele>
        <time>2013-04-07T07:14:31Z</time>
      </trkpt>
      <trkpt lat="42.90062" lon="0.20842">
        <ele>1872</ele>
        <time>2013-04-07T07:14:33Z</time>
      </trkpt>
      <trkpt lat="42.90062" lon="0.20841">
        <ele>1872</ele>
        <time>2013-04-07T07:14:35Z</time>
      </trkpt>
      <trkpt lat="42.90062" lon="0.20839">
        <ele>1872</ele>
        <time>2013-04-07T07:14:37Z</time>
      </trkpt>
      <trkpt lat="42.9006" lon="0.20839">
        <ele>1872</ele>
        <time>2013-04-07T07:14:48Z</time>
      </trkpt>
      <trkpt lat="42.9006" lon="0.2084">
        <ele>1872</ele>
        <time>2013-04-07T07:14:52Z</time>
      </trkpt>
      <trkpt lat="42.90059" lon="0.20842">
        <ele>1872</ele>
        <time>2013-04-07T07:14:54Z</time>
      </trkpt>
      <trkpt lat="42.9006" lon="0.2084">
        <ele>1874</ele>
        <time>2013-04-07T07:15:07Z</time>
      </trkpt>
      <trkpt lat="42.9006" lon="0.20838">
        <ele>1875</ele>
        <time>2013-04-07T07:15:09Z</time>
      </trkpt>
      <trkpt lat="42.9006" lon="0.20836">
        <ele>1875</ele>
        <time>2013-04-07T07:15:11Z</time>
      </trkpt>
      <trkpt lat="42.90059" lon="0.20834">
        <ele>1875</ele>
        <time>2013-04-07T07:15:13Z</time>
      </trkpt>
      <trkpt lat="42.90058" lon="0.20833">
        <ele>1875</ele>
        <time>2013-04-07T07:15:16Z</time>
      </trkpt>
      <trkpt lat="42.90058" lon="0.20831">
        <ele>1875</ele>
        <time>2013-04-07T07:15:19Z</time>
      </trkpt>
      <trkpt lat="42.90057" lon="0.2083">
        <ele>1875</ele>
        <time>2013-04-07T07:15:21Z</time>
      </trkpt>
      <trkpt lat="42.90057" lon="0.20828">
        <ele>1875</ele>
        <time>2013-04-07T07:15:23Z</time>
      </trkpt>
      <trkpt lat="42.90057" lon="0.20826">
        <ele>1876</ele>
        <time>2013-04-07T07:15:26Z</time>
      </trkpt>
      <trkpt lat="42.90057" lon="0.20824">
        <ele>1877</ele>
        <time>2013-04-07T07:15:30Z</time>
      </trkpt>
      <trkpt lat="42.90057" lon="0.20826">
        <ele>1879</ele>
        <time>2013-04-07T07:15:34Z</time>
      </trkpt>
      <trkpt lat="42.90056" lon="0.20827">
        <ele>1879</ele>
        <time>2013-04-07T07:15:37Z</time>
      </trkpt>
      <trkpt lat="42.90055" lon="0.20829">
        <ele>1879</ele>
        <time>2013-04-07T07:15:41Z</time>
      </trkpt>
      <trkpt lat="42.90056" lon="0.2083">
        <ele>1880</ele>
        <time>2013-04-07T07:15:43Z</time>
      </trkpt>
      <trkpt lat="42.90058" lon="0.20829">
        <ele>1880</ele>
        <time>2013-04-07T07:15:46Z</time>
      </trkpt>
      <trkpt lat="42.90057" lon="0.20828">
        <ele>1881</ele>
        <time>2013-04-07T07:15:57Z</time>
      </trkpt>
      <trkpt lat="42.90058" lon="0.20826">
        <ele>1881</ele>
        <time>2013-04-07T07:16:12Z</time>
      </trkpt>
      <trkpt lat="42.90058" lon="0.20825">
        <ele>1881</ele>
        <time>2013-04-07T07:16:16Z</time>
      </trkpt>
      <trkpt lat="42.90058" lon="0.20823">
        <ele>1881</ele>
        <time>2013-04-07T07:16:18Z</time>
      </trkpt>
      <trkpt lat="42.90058" lon="0.20822">
        <ele>1881</ele>
        <time>2013-04-07T07:16:22Z</time>
      </trkpt>
      <trkpt lat="42.90057" lon="0.2082">
        <ele>1881</ele>
        <time>2013-04-07T07:16:36Z</time>
      </trkpt>
      <trkpt lat="42.90058" lon="0.20821">
        <ele>1881</ele>
        <time>2013-04-07T07:16:53Z</time>
      </trkpt>
      <trkpt lat="42.9006" lon="0.20822">
        <ele>1881</ele>
        <time>2013-04-07T07:16:55Z</time>
      </trkpt>
      <trkpt lat="42.90059" lon="0.20824">
        <ele>1882</ele>
        <time>2013-04-07T07:16:59Z</time>
      </trkpt>
      <trkpt lat="42.90058" lon="0.20825">
        <ele>1882</ele>
        <time>2013-04-07T07:17:02Z</time>
      </trkpt>
      <trkpt lat="42.90057" lon="0.20827">
        <ele>1882</ele>
        <time>2013-04-07T07:17:07Z</time>
      </trkpt>
      <trkpt lat="42.90056" lon="0.20827">
        <ele>1882</ele>
        <time>2013-04-07T07:17:17Z</time>
      </trkpt>
      <trkpt lat="42.90055" lon="0.20825">
        <ele>1882</ele>
        <time>2013-04-07T07:17:31Z</time>
      </trkpt>
      <trkpt lat="42.90055" lon="0.20824">
        <ele>1882</ele>
        <time>2013-04-07T07:17:40Z</time>
      </trkpt>
      <trkpt lat="42.90056" lon="0.20822">
        <ele>1882</ele>
        <time>2013-04-07T07:17:44Z</time>
      </trkpt>
      <trkpt lat="42.90055" lon="0.20821">
        <ele>1882</ele>
        <time>2013-04-07T07:17:47Z</time>
      </trkpt>
      <trkpt lat="42.90055" lon="0.20819">
        <ele>1882</ele>
        <time>2013-04-07T07:17:50Z</time>
      </trkpt>
      <trkpt lat="42.90055" lon="0.20817">
        <ele>1882</ele>
        <time>2013-04-07T07:17:52Z</time>
      </trkpt>
      <trkpt lat="42.90056" lon="0.20815">
        <ele>1882</ele>
        <time>2013-04-07T07:17:55Z</time>
      </trkpt>
      <trkpt lat="42.90056" lon="0.20813">
        <ele>1882</ele>
        <time>2013-04-07T07:17:58Z</time>
      </trkpt>
      <trkpt lat="42.90056" lon="0.20812">
        <ele>1882</ele>
        <time>2013-04-07T07:18:06Z</time>
      </trkpt>
      <trkpt lat="42.90055" lon="0.20813">
        <ele>1882</ele>
        <time>2013-04-07T07:18:08Z</time>
      </trkpt>
      <trkpt lat="42.90057" lon="0.2081">
        <ele>1882</ele>
        <time>2013-04-07T07:18:11Z</time>
      </trkpt>
      <trkpt lat="42.90061" lon="0.20809">
        <ele>1882</ele>
        <time>2013-04-07T07:18:12Z</time>
      </trkpt>
      <trkpt lat="42.9006" lon="0.20811">
        <ele>1882</ele>
        <time>2013-04-07T07:18:16Z</time>
      </trkpt>
      <trkpt lat="42.90058" lon="0.20811">
        <ele>1882</ele>
        <time>2013-04-07T07:18:19Z</time>
      </trkpt>
      <trkpt lat="42.90057" lon="0.20812">
        <ele>1882</ele>
        <time>2013-04-07T07:18:21Z</time>
      </trkpt>
      <trkpt lat="42.90055" lon="0.20813">
        <ele>1882</ele>
        <time>2013-04-07T07:18:23Z</time>
      </trkpt>
      <trkpt lat="42.90054" lon="0.20813">
        <ele>1882</ele>
        <time>2013-04-07T07:18:27Z</time>
      </trkpt>
      <trkpt lat="42.90053" lon="0.20814">
        <ele>1882</ele>
        <time>2013-04-07T07:18:31Z</time>
      </trkpt>
      <trkpt lat="42.90052" lon="0.20815">
        <ele>1882</ele>
        <time>2013-04-07T07:18:35Z</time>
      </trkpt>
      <trkpt lat="42.90051" lon="0.20814">
        <ele>1882</ele>
        <time>2013-04-07T07:18:47Z</time>
      </trkpt>
      <trkpt lat="42.90051" lon="0.20812">
        <ele>1882</ele>
        <time>2013-04-07T07:18:49Z</time>
      </trkpt>
      <trkpt lat="42.90051" lon="0.20811">
        <ele>1882</ele>
        <time>2013-04-07T07:18:52Z</time>
      </trkpt>
      <trkpt lat="42.90051" lon="0.20809">
        <ele>1882</ele>
        <time>2013-04-07T07:19:12Z</time>
      </trkpt>
      <trkpt lat="42.9005" lon="0.20806">
        <ele>1882</ele>
        <time>2013-04-07T07:19:14Z</time>
      </trkpt>
      <trkpt lat="42.9005" lon="0.20805">
        <ele>1882</ele>
        <time>2013-04-07T07:19:16Z</time>
      </trkpt>
      <trkpt lat="42.9005" lon="0.20803">
        <ele>1882</ele>
        <time>2013-04-07T07:19:18Z</time>
      </trkpt>
      <trkpt lat="42.90049" lon="0.20801">
        <ele>1882</ele>
        <time>2013-04-07T07:19:20Z</time>
      </trkpt>
      <trkpt lat="42.90049" lon="0.20799">
        <ele>1882</ele>
        <time>2013-04-07T07:19:22Z</time>
      </trkpt>
      <trkpt lat="42.90048" lon="0.20797">
        <ele>1883</ele>
        <time>2013-04-07T07:19:24Z</time>
      </trkpt>
      <trkpt lat="42.90047" lon="0.20795">
        <ele>1884</ele>
        <time>2013-04-07T07:19:26Z</time>
      </trkpt>
      <trkpt lat="42.90046" lon="0.20793">
        <ele>1885</ele>
        <time>2013-04-07T07:19:28Z</time>
      </trkpt>
      <trkpt lat="42.90045" lon="0.20795">
        <ele>1885</ele>
        <time>2013-04-07T07:19:45Z</time>
      </trkpt>
      <trkpt lat="42.90045" lon="0.20793">
        <ele>1885</ele>
        <time>2013-04-07T07:19:48Z</time>
      </trkpt>
      <trkpt lat="42.90043" lon="0.20792">
        <ele>1885</ele>
        <time>2013-04-07T07:19:50Z</time>
      </trkpt>
      <trkpt lat="42.90041" lon="0.20791">
        <ele>1885</ele>
        <time>2013-04-07T07:19:52Z</time>
      </trkpt>
      <trkpt lat="42.9004" lon="0.2079">
        <ele>1885</ele>
        <time>2013-04-07T07:19:54Z</time>
      </trkpt>
      <trkpt lat="42.90039" lon="0.20789">
        <ele>1886</ele>
        <time>2013-04-07T07:19:56Z</time>
      </trkpt>
      <trkpt lat="42.90037" lon="0.20789">
        <ele>1887</ele>
        <time>2013-04-07T07:19:58Z</time>
      </trkpt>
      <trkpt lat="42.90036" lon="0.20788">
        <ele>1887</ele>
        <time>2013-04-07T07:20:00Z</time>
      </trkpt>
      <trkpt lat="42.90034" lon="0.20788">
        <ele>1888</ele>
        <time>2013-04-07T07:20:02Z</time>
      </trkpt>
      <trkpt lat="42.90033" lon="0.20788">
        <ele>1888</ele>
        <time>2013-04-07T07:20:04Z</time>
      </trkpt>
      <trkpt lat="42.90031" lon="0.20788">
        <ele>1888</ele>
        <time>2013-04-07T07:20:06Z</time>
      </trkpt>
      <trkpt lat="42.9003" lon="0.20787">
        <ele>1889</ele>
        <time>2013-04-07T07:20:08Z</time>
      </trkpt>
      <trkpt lat="42.90028" lon="0.20786">
        <ele>1889</ele>
        <time>2013-04-07T07:20:10Z</time>
      </trkpt>
      <trkpt lat="42.90027" lon="0.20784">
        <ele>1889</ele>
        <time>2013-04-07T07:20:12Z</time>
      </trkpt>
      <trkpt lat="42.90027" lon="0.20783">
        <ele>1889</ele>
        <time>2013-04-07T07:20:13Z</time>
      </trkpt>
      <trkpt lat="42.90026" lon="0.20781">
        <ele>1889</ele>
        <time>2013-04-07T07:20:14Z</time>
      </trkpt>
      <trkpt lat="42.90025" lon="0.20779">
        <ele>1890</ele>
        <time>2013-04-07T07:20:17Z</time>
      </trkpt>
      <trkpt lat="42.90023" lon="0.20777">
        <ele>1891</ele>
        <time>2013-04-07T07:20:20Z</time>
      </trkpt>
      <trkpt lat="42.90022" lon="0.20776">
        <ele>1891</ele>
        <time>2013-04-07T07:20:22Z</time>
      </trkpt>
      <trkpt lat="42.90021" lon="0.20775">
        <ele>1891</ele>
        <time>2013-04-07T07:20:24Z</time>
      </trkpt>
      <trkpt lat="42.9002" lon="0.20774">
        <ele>1891</ele>
        <time>2013-04-07T07:20:26Z</time>
      </trkpt>
      <trkpt lat="42.90019" lon="0.20774">
        <ele>1891</ele>
        <time>2013-04-07T07:20:28Z</time>
      </trkpt>
      <trkpt lat="42.90017" lon="0.20773">
        <ele>1892</ele>
        <time>2013-04-07T07:20:30Z</time>
      </trkpt>
      <trkpt lat="42.90016" lon="0.20772">
        <ele>1892</ele>
        <time>2013-04-07T07:20:32Z</time>
      </trkpt>
      <trkpt lat="42.90015" lon="0.20772">
        <ele>1892</ele>
        <time>2013-04-07T07:20:34Z</time>
      </trkpt>
      <trkpt lat="42.90013" lon="0.20771">
        <ele>1892</ele>
        <time>2013-04-07T07:20:36Z</time>
      </trkpt>
      <trkpt lat="42.90012" lon="0.2077">
        <ele>1892</ele>
        <time>2013-04-07T07:20:38Z</time>
      </trkpt>
      <trkpt lat="42.9001" lon="0.2077">
        <ele>1893</ele>
        <time>2013-04-07T07:20:40Z</time>
      </trkpt>
      <trkpt lat="42.90009" lon="0.20769">
        <ele>1893</ele>
        <time>2013-04-07T07:20:42Z</time>
      </trkpt>
      <trkpt lat="42.90007" lon="0.20767">
        <ele>1893</ele>
        <time>2013-04-07T07:20:44Z</time>
      </trkpt>
      <trkpt lat="42.90006" lon="0.20766">
        <ele>1893</ele>
        <time>2013-04-07T07:20:46Z</time>
      </trkpt>
      <trkpt lat="42.90004" lon="0.20765">
        <ele>1894</ele>
        <time>2013-04-07T07:20:48Z</time>
      </trkpt>
      <trkpt lat="42.90003" lon="0.20765">
        <ele>1894</ele>
        <time>2013-04-07T07:20:50Z</time>
      </trkpt>
      <trkpt lat="42.90002" lon="0.20764">
        <ele>1894</ele>
        <time>2013-04-07T07:20:52Z</time>
      </trkpt>
      <trkpt lat="42.90001" lon="0.20764">
        <ele>1894</ele>
        <time>2013-04-07T07:20:54Z</time>
      </trkpt>
      <trkpt lat="42.89999" lon="0.20764">
        <ele>1894</ele>
        <time>2013-04-07T07:20:56Z</time>
      </trkpt>
      <trkpt lat="42.89998" lon="0.20764">
        <ele>1894</ele>
        <time>2013-04-07T07:20:58Z</time>
      </trkpt>
      <trkpt lat="42.89997" lon="0.20764">
        <ele>1895</ele>
        <time>2013-04-07T07:21:00Z</time>
      </trkpt>
      <trkpt lat="42.89995" lon="0.20764">
        <ele>1895</ele>
        <time>2013-04-07T07:21:02Z</time>
      </trkpt>
      <trkpt lat="42.89994" lon="0.20763">
        <ele>1895</ele>
        <time>2013-04-07T07:21:04Z</time>
      </trkpt>
      <trkpt lat="42.89993" lon="0.20763">
        <ele>1896</ele>
        <time>2013-04-07T07:21:06Z</time>
      </trkpt>
      <trkpt lat="42.89991" lon="0.20763">
        <ele>1896</ele>
        <time>2013-04-07T07:21:08Z</time>
      </trkpt>
      <trkpt lat="42.8999" lon="0.20762">
        <ele>1897</ele>
        <time>2013-04-07T07:21:10Z</time>
      </trkpt>
      <trkpt lat="42.89988" lon="0.20763">
        <ele>1898</ele>
        <time>2013-04-07T07:21:13Z</time>
      </trkpt>
      <trkpt lat="42.89987" lon="0.20763">
        <ele>1898</ele>
        <time>2013-04-07T07:21:15Z</time>
      </trkpt>
      <trkpt lat="42.89985" lon="0.20763">
        <ele>1899</ele>
        <time>2013-04-07T07:21:17Z</time>
      </trkpt>
      <trkpt lat="42.89983" lon="0.20763">
        <ele>1899</ele>
        <time>2013-04-07T07:21:19Z</time>
      </trkpt>
      <trkpt lat="42.89981" lon="0.20761">
        <ele>1900</ele>
        <time>2013-04-07T07:21:21Z</time>
      </trkpt>
      <trkpt lat="42.8998" lon="0.20761">
        <ele>1901</ele>
        <time>2013-04-07T07:21:23Z</time>
      </trkpt>
      <trkpt lat="42.89978" lon="0.2076">
        <ele>1902</ele>
        <time>2013-04-07T07:21:25Z</time>
      </trkpt>
      <trkpt lat="42.89976" lon="0.20759">
        <ele>1902</ele>
        <time>2013-04-07T07:21:27Z</time>
      </trkpt>
      <trkpt lat="42.89975" lon="0.20759">
        <ele>1903</ele>
        <time>2013-04-07T07:21:31Z</time>
      </trkpt>
      <trkpt lat="42.89974" lon="0.20758">
        <ele>1903</ele>
        <time>2013-04-07T07:21:33Z</time>
      </trkpt>
      <trkpt lat="42.89973" lon="0.20758">
        <ele>1903</ele>
        <time>2013-04-07T07:21:35Z</time>
      </trkpt>
      <trkpt lat="42.89971" lon="0.20757">
        <ele>1903</ele>
        <time>2013-04-07T07:21:37Z</time>
      </trkpt>
      <trkpt lat="42.8997" lon="0.20757">
        <ele>1904</ele>
        <time>2013-04-07T07:21:40Z</time>
      </trkpt>
      <trkpt lat="42.89968" lon="0.20757">
        <ele>1904</ele>
        <time>2013-04-07T07:21:43Z</time>
      </trkpt>
      <trkpt lat="42.89967" lon="0.20757">
        <ele>1904</ele>
        <time>2013-04-07T07:21:46Z</time>
      </trkpt>
      <trkpt lat="42.89966" lon="0.20756">
        <ele>1904</ele>
        <time>2013-04-07T07:21:48Z</time>
      </trkpt>
      <trkpt lat="42.89964" lon="0.20755">
        <ele>1904</ele>
        <time>2013-04-07T07:21:51Z</time>
      </trkpt>
      <trkpt lat="42.89963" lon="0.20754">
        <ele>1905</ele>
        <time>2013-04-07T07:21:54Z</time>
      </trkpt>
      <trkpt lat="42.89962" lon="0.20754">
        <ele>1905</ele>
        <time>2013-04-07T07:21:56Z</time>
      </trkpt>
      <trkpt lat="42.8996" lon="0.20753">
        <ele>1906</ele>
        <time>2013-04-07T07:21:58Z</time>
      </trkpt>
      <trkpt lat="42.89959" lon="0.20752">
        <ele>1906</ele>
        <time>2013-04-07T07:22:01Z</time>
      </trkpt>
      <trkpt lat="42.89958" lon="0.20752">
        <ele>1907</ele>
        <time>2013-04-07T07:22:03Z</time>
      </trkpt>
      <trkpt lat="42.89956" lon="0.20751">
        <ele>1907</ele>
        <time>2013-04-07T07:22:06Z</time>
      </trkpt>
      <trkpt lat="42.89955" lon="0.20753">
        <ele>1908</ele>
        <time>2013-04-07T07:22:13Z</time>
      </trkpt>
      <trkpt lat="42.89954" lon="0.20754">
        <ele>1908</ele>
        <time>2013-04-07T07:22:16Z</time>
      </trkpt>
      <trkpt lat="42.89953" lon="0.20753">
        <ele>1908</ele>
        <time>2013-04-07T07:22:17Z</time>
      </trkpt>
      <trkpt lat="42.89952" lon="0.20751">
        <ele>1908</ele>
        <time>2013-04-07T07:22:20Z</time>
      </trkpt>
      <trkpt lat="42.89951" lon="0.2075">
        <ele>1908</ele>
        <time>2013-04-07T07:22:22Z</time>
      </trkpt>
      <trkpt lat="42.89949" lon="0.20751">
        <ele>1909</ele>
        <time>2013-04-07T07:22:45Z</time>
      </trkpt>
      <trkpt lat="42.89948" lon="0.20752">
        <ele>1909</ele>
        <time>2013-04-07T07:22:47Z</time>
      </trkpt>
      <trkpt lat="42.89946" lon="0.20751">
        <ele>1909</ele>
        <time>2013-04-07T07:22:50Z</time>
      </trkpt>
      <trkpt lat="42.89945" lon="0.20751">
        <ele>1909</ele>
        <time>2013-04-07T07:22:51Z</time>
      </trkpt>
      <trkpt lat="42.89943" lon="0.2075">
        <ele>1909</ele>
        <time>2013-04-07T07:22:53Z</time>
      </trkpt>
      <trkpt lat="42.89942" lon="0.2075">
        <ele>1909</ele>
        <time>2013-04-07T07:22:56Z</time>
      </trkpt>
      <trkpt lat="42.8994" lon="0.20749">
        <ele>1909</ele>
        <time>2013-04-07T07:22:59Z</time>
      </trkpt>
      <trkpt lat="42.89939" lon="0.20749">
        <ele>1909</ele>
        <time>2013-04-07T07:23:04Z</time>
      </trkpt>
      <trkpt lat="42.89938" lon="0.20748">
        <ele>1909</ele>
        <time>2013-04-07T07:23:07Z</time>
      </trkpt>
      <trkpt lat="42.89936" lon="0.20747">
        <ele>1909</ele>
        <time>2013-04-07T07:23:09Z</time>
      </trkpt>
      <trkpt lat="42.89935" lon="0.20746">
        <ele>1909</ele>
        <time>2013-04-07T07:23:11Z</time>
      </trkpt>
      <trkpt lat="42.89934" lon="0.20746">
        <ele>1909</ele>
        <time>2013-04-07T07:23:13Z</time>
      </trkpt>
      <trkpt lat="42.89933" lon="0.20745">
        <ele>1909</ele>
        <time>2013-04-07T07:23:15Z</time>
      </trkpt>
      <trkpt lat="42.89931" lon="0.20744">
        <ele>1909</ele>
        <time>2013-04-07T07:23:17Z</time>
      </trkpt>
      <trkpt lat="42.8993" lon="0.20744">
        <ele>1909</ele>
        <time>2013-04-07T07:23:19Z</time>
      </trkpt>
      <trkpt lat="42.89928" lon="0.20742">
        <ele>1909</ele>
        <time>2013-04-07T07:23:22Z</time>
      </trkpt>
      <trkpt lat="42.89927" lon="0.20741">
        <ele>1909</ele>
        <time>2013-04-07T07:23:25Z</time>
      </trkpt>
      <trkpt lat="42.89926" lon="0.20741">
        <ele>1909</ele>
        <time>2013-04-07T07:23:27Z</time>
      </trkpt>
      <trkpt lat="42.89924" lon="0.2074">
        <ele>1909</ele>
        <time>2013-04-07T07:23:30Z</time>
      </trkpt>
      <trkpt lat="42.89923" lon="0.20739">
        <ele>1909</ele>
        <time>2013-04-07T07:23:32Z</time>
      </trkpt>
      <trkpt lat="42.89921" lon="0.20737">
        <ele>1910</ele>
        <time>2013-04-07T07:23:34Z</time>
      </trkpt>
      <trkpt lat="42.8992" lon="0.20736">
        <ele>1912</ele>
        <time>2013-04-07T07:23:36Z</time>
      </trkpt>
      <trkpt lat="42.89918" lon="0.20735">
        <ele>1913</ele>
        <time>2013-04-07T07:23:39Z</time>
      </trkpt>
      <trkpt lat="42.89917" lon="0.20734">
        <ele>1914</ele>
        <time>2013-04-07T07:23:42Z</time>
      </trkpt>
      <trkpt lat="42.89916" lon="0.20733">
        <ele>1914</ele>
        <time>2013-04-07T07:23:45Z</time>
      </trkpt>
      <trkpt lat="42.89915" lon="0.20732">
        <ele>1914</ele>
        <time>2013-04-07T07:23:49Z</time>
      </trkpt>
      <trkpt lat="42.89913" lon="0.20731">
        <ele>1914</ele>
        <time>2013-04-07T07:23:52Z</time>
      </trkpt>
      <trkpt lat="42.89912" lon="0.20731">
        <ele>1914</ele>
        <time>2013-04-07T07:23:54Z</time>
      </trkpt>
      <trkpt lat="42.89911" lon="0.2073">
        <ele>1914</ele>
        <time>2013-04-07T07:23:57Z</time>
      </trkpt>
      <trkpt lat="42.89909" lon="0.20729">
        <ele>1914</ele>
        <time>2013-04-07T07:24:00Z</time>
      </trkpt>
      <trkpt lat="42.89908" lon="0.20728">
        <ele>1914</ele>
        <time>2013-04-07T07:24:03Z</time>
      </trkpt>
      <trkpt lat="42.89907" lon="0.20728">
        <ele>1914</ele>
        <time>2013-04-07T07:24:06Z</time>
      </trkpt>
      <trkpt lat="42.89906" lon="0.20728">
        <ele>1914</ele>
        <time>2013-04-07T07:24:11Z</time>
      </trkpt>
      <trkpt lat="42.89904" lon="0.20727">
        <ele>1914</ele>
        <time>2013-04-07T07:24:15Z</time>
      </trkpt>
      <trkpt lat="42.89903" lon="0.20726">
        <ele>1914</ele>
        <time>2013-04-07T07:24:18Z</time>
      </trkpt>
      <trkpt lat="42.89901" lon="0.20725">
        <ele>1914</ele>
        <time>2013-04-07T07:24:22Z</time>
      </trkpt>
      <trkpt lat="42.899" lon="0.20722">
        <ele>1914</ele>
        <time>2013-04-07T07:24:24Z</time>
      </trkpt>
      <trkpt lat="42.89899" lon="0.20721">
        <ele>1915</ele>
        <time>2013-04-07T07:24:26Z</time>
      </trkpt>
      <trkpt lat="42.89898" lon="0.20719">
        <ele>1917</ele>
        <time>2013-04-07T07:24:28Z</time>
      </trkpt>
      <trkpt lat="42.89897" lon="0.20718">
        <ele>1918</ele>
        <time>2013-04-07T07:24:31Z</time>
      </trkpt>
      <trkpt lat="42.89896" lon="0.20717">
        <ele>1918</ele>
        <time>2013-04-07T07:24:35Z</time>
      </trkpt>
      <trkpt lat="42.89894" lon="0.20715">
        <ele>1919</ele>
        <time>2013-04-07T07:24:38Z</time>
      </trkpt>
      <trkpt lat="42.89893" lon="0.20714">
        <ele>1919</ele>
        <time>2013-04-07T07:24:40Z</time>
      </trkpt>
      <trkpt lat="42.89891" lon="0.20712">
        <ele>1919</ele>
        <time>2013-04-07T07:24:43Z</time>
      </trkpt>
      <trkpt lat="42.8989" lon="0.20712">
        <ele>1920</ele>
        <time>2013-04-07T07:24:47Z</time>
      </trkpt>
      <trkpt lat="42.89889" lon="0.2071">
        <ele>1920</ele>
        <time>2013-04-07T07:24:50Z</time>
      </trkpt>
      <trkpt lat="42.89888" lon="0.2071">
        <ele>1921</ele>
        <time>2013-04-07T07:24:53Z</time>
      </trkpt>
      <trkpt lat="42.89886" lon="0.20709">
        <ele>1921</ele>
        <time>2013-04-07T07:24:56Z</time>
      </trkpt>
      <trkpt lat="42.89885" lon="0.20708">
        <ele>1921</ele>
        <time>2013-04-07T07:24:59Z</time>
      </trkpt>
      <trkpt lat="42.89884" lon="0.20707">
        <ele>1921</ele>
        <time>2013-04-07T07:25:02Z</time>
      </trkpt>
      <trkpt lat="42.89883" lon="0.20707">
        <ele>1921</ele>
        <time>2013-04-07T07:25:05Z</time>
      </trkpt>
      <trkpt lat="42.89882" lon="0.20706">
        <ele>1921</ele>
        <time>2013-04-07T07:25:10Z</time>
      </trkpt>
      <trkpt lat="42.8988" lon="0.20704">
        <ele>1921</ele>
        <time>2013-04-07T07:25:13Z</time>
      </trkpt>
      <trkpt lat="42.89879" lon="0.20703">
        <ele>1921</ele>
        <time>2013-04-07T07:25:16Z</time>
      </trkpt>
      <trkpt lat="42.89878" lon="0.20702">
        <ele>1921</ele>
        <time>2013-04-07T07:25:19Z</time>
      </trkpt>
      <trkpt lat="42.89877" lon="0.207">
        <ele>1922</ele>
        <time>2013-04-07T07:25:22Z</time>
      </trkpt>
      <trkpt lat="42.89875" lon="0.20699">
        <ele>1923</ele>
        <time>2013-04-07T07:25:25Z</time>
      </trkpt>
      <trkpt lat="42.89874" lon="0.20698">
        <ele>1923</ele>
        <time>2013-04-07T07:25:28Z</time>
      </trkpt>
      <trkpt lat="42.89873" lon="0.20697">
        <ele>1923</ele>
        <time>2013-04-07T07:25:31Z</time>
      </trkpt>
      <trkpt lat="42.89872" lon="0.20696">
        <ele>1923</ele>
        <time>2013-04-07T07:25:34Z</time>
      </trkpt>
      <trkpt lat="42.89871" lon="0.20694">
        <ele>1923</ele>
        <time>2013-04-07T07:25:39Z</time>
      </trkpt>
      <trkpt lat="42.8987" lon="0.20693">
        <ele>1923</ele>
        <time>2013-04-07T07:25:41Z</time>
      </trkpt>
      <trkpt lat="42.89869" lon="0.20691">
        <ele>1924</ele>
        <time>2013-04-07T07:25:50Z</time>
      </trkpt>
      <trkpt lat="42.89867" lon="0.2069">
        <ele>1924</ele>
        <time>2013-04-07T07:25:53Z</time>
      </trkpt>
      <trkpt lat="42.89866" lon="0.20689">
        <ele>1924</ele>
        <time>2013-04-07T07:25:55Z</time>
      </trkpt>
      <trkpt lat="42.89865" lon="0.20687">
        <ele>1924</ele>
        <time>2013-04-07T07:25:57Z</time>
      </trkpt>
      <trkpt lat="42.89864" lon="0.20686">
        <ele>1925</ele>
        <time>2013-04-07T07:26:00Z</time>
      </trkpt>
      <trkpt lat="42.89863" lon="0.20685">
        <ele>1925</ele>
        <time>2013-04-07T07:26:02Z</time>
      </trkpt>
      <trkpt lat="42.89862" lon="0.20683">
        <ele>1926</ele>
        <time>2013-04-07T07:26:05Z</time>
      </trkpt>
      <trkpt lat="42.89861" lon="0.20681">
        <ele>1927</ele>
        <time>2013-04-07T07:26:07Z</time>
      </trkpt>
      <trkpt lat="42.8986" lon="0.20679">
        <ele>1928</ele>
        <time>2013-04-07T07:26:09Z</time>
      </trkpt>
      <trkpt lat="42.89858" lon="0.20677">
        <ele>1930</ele>
        <time>2013-04-07T07:26:13Z</time>
      </trkpt>
      <trkpt lat="42.89857" lon="0.20675">
        <ele>1930</ele>
        <time>2013-04-07T07:26:17Z</time>
      </trkpt>
      <trkpt lat="42.89856" lon="0.20674">
        <ele>1930</ele>
        <time>2013-04-07T07:26:19Z</time>
      </trkpt>
      <trkpt lat="42.89856" lon="0.20672">
        <ele>1930</ele>
        <time>2013-04-07T07:26:21Z</time>
      </trkpt>
      <trkpt lat="42.89855" lon="0.2067">
        <ele>1931</ele>
        <time>2013-04-07T07:26:23Z</time>
      </trkpt>
      <trkpt lat="42.89854" lon="0.20669">
        <ele>1931</ele>
        <time>2013-04-07T07:26:27Z</time>
      </trkpt>
      <trkpt lat="42.89853" lon="0.20667">
        <ele>1931</ele>
        <time>2013-04-07T07:26:31Z</time>
      </trkpt>
      <trkpt lat="42.89851" lon="0.20665">
        <ele>1931</ele>
        <time>2013-04-07T07:26:34Z</time>
      </trkpt>
      <trkpt lat="42.8985" lon="0.20664">
        <ele>1931</ele>
        <time>2013-04-07T07:26:36Z</time>
      </trkpt>
      <trkpt lat="42.89849" lon="0.20662">
        <ele>1932</ele>
        <time>2013-04-07T07:26:39Z</time>
      </trkpt>
      <trkpt lat="42.89848" lon="0.2066">
        <ele>1932</ele>
        <time>2013-04-07T07:26:42Z</time>
      </trkpt>
      <trkpt lat="42.89846" lon="0.20659">
        <ele>1932</ele>
        <time>2013-04-07T07:26:45Z</time>
      </trkpt>
      <trkpt lat="42.89846" lon="0.20657">
        <ele>1932</ele>
        <time>2013-04-07T07:26:48Z</time>
      </trkpt>
      <trkpt lat="42.89845" lon="0.20655">
        <ele>1932</ele>
        <time>2013-04-07T07:26:52Z</time>
      </trkpt>
      <trkpt lat="42.89844" lon="0.20653">
        <ele>1933</ele>
        <time>2013-04-07T07:26:54Z</time>
      </trkpt>
      <trkpt lat="42.89843" lon="0.20652">
        <ele>1933</ele>
        <time>2013-04-07T07:26:56Z</time>
      </trkpt>
      <trkpt lat="42.89843" lon="0.20651">
        <ele>1934</ele>
        <time>2013-04-07T07:27:00Z</time>
      </trkpt>
      <trkpt lat="42.89842" lon="0.20649">
        <ele>1934</ele>
        <time>2013-04-07T07:27:03Z</time>
      </trkpt>
      <trkpt lat="42.89841" lon="0.20648">
        <ele>1935</ele>
        <time>2013-04-07T07:27:05Z</time>
      </trkpt>
      <trkpt lat="42.8984" lon="0.20648">
        <ele>1935</ele>
        <time>2013-04-07T07:27:10Z</time>
      </trkpt>
      <trkpt lat="42.89839" lon="0.20646">
        <ele>1936</ele>
        <time>2013-04-07T07:27:13Z</time>
      </trkpt>
      <trkpt lat="42.89839" lon="0.20644">
        <ele>1936</ele>
        <time>2013-04-07T07:27:15Z</time>
      </trkpt>
      <trkpt lat="42.89839" lon="0.20642">
        <ele>1936</ele>
        <time>2013-04-07T07:27:17Z</time>
      </trkpt>
      <trkpt lat="42.89838" lon="0.2064">
        <ele>1936</ele>
        <time>2013-04-07T07:27:19Z</time>
      </trkpt>
      <trkpt lat="42.89837" lon="0.20639">
        <ele>1936</ele>
        <time>2013-04-07T07:27:21Z</time>
      </trkpt>
      <trkpt lat="42.89836" lon="0.20637">
        <ele>1936</ele>
        <time>2013-04-07T07:27:24Z</time>
      </trkpt>
      <trkpt lat="42.89836" lon="0.20636">
        <ele>1936</ele>
        <time>2013-04-07T07:27:26Z</time>
      </trkpt>
      <trkpt lat="42.89836" lon="0.20634">
        <ele>1936</ele>
        <time>2013-04-07T07:27:28Z</time>
      </trkpt>
      <trkpt lat="42.89835" lon="0.20632">
        <ele>1936</ele>
        <time>2013-04-07T07:27:30Z</time>
      </trkpt>
      <trkpt lat="42.89835" lon="0.2063">
        <ele>1936</ele>
        <time>2013-04-07T07:27:33Z</time>
      </trkpt>
      <trkpt lat="42.89834" lon="0.20628">
        <ele>1936</ele>
        <time>2013-04-07T07:27:35Z</time>
      </trkpt>
      <trkpt lat="42.89834" lon="0.20627">
        <ele>1936</ele>
        <time>2013-04-07T07:27:37Z</time>
      </trkpt>
      <trkpt lat="42.89833" lon="0.20625">
        <ele>1936</ele>
        <time>2013-04-07T07:27:40Z</time>
      </trkpt>
      <trkpt lat="42.89833" lon="0.20623">
        <ele>1937</ele>
        <time>2013-04-07T07:27:43Z</time>
      </trkpt>
      <trkpt lat="42.89832" lon="0.20621">
        <ele>1938</ele>
        <time>2013-04-07T07:27:46Z</time>
      </trkpt>
      <trkpt lat="42.89831" lon="0.20619">
        <ele>1938</ele>
        <time>2013-04-07T07:27:49Z</time>
      </trkpt>
      <trkpt lat="42.89831" lon="0.20618">
        <ele>1938</ele>
        <time>2013-04-07T07:27:52Z</time>
      </trkpt>
      <trkpt lat="42.8983" lon="0.20616">
        <ele>1938</ele>
        <time>2013-04-07T07:27:56Z</time>
      </trkpt>
      <trkpt lat="42.8983" lon="0.20615">
        <ele>1938</ele>
        <time>2013-04-07T07:27:58Z</time>
      </trkpt>
      <trkpt lat="42.89829" lon="0.20613">
        <ele>1938</ele>
        <time>2013-04-07T07:28:00Z</time>
      </trkpt>
      <trkpt lat="42.89828" lon="0.20611">
        <ele>1938</ele>
        <time>2013-04-07T07:28:03Z</time>
      </trkpt>
      <trkpt lat="42.89828" lon="0.20609">
        <ele>1939</ele>
        <time>2013-04-07T07:28:06Z</time>
      </trkpt>
      <trkpt lat="42.89827" lon="0.20608">
        <ele>1939</ele>
        <time>2013-04-07T07:28:08Z</time>
      </trkpt>
      <trkpt lat="42.89827" lon="0.20606">
        <ele>1939</ele>
        <time>2013-04-07T07:28:10Z</time>
      </trkpt>
      <trkpt lat="42.89826" lon="0.20605">
        <ele>1940</ele>
        <time>2013-04-07T07:28:15Z</time>
      </trkpt>
      <trkpt lat="42.89826" lon="0.20603">
        <ele>1940</ele>
        <time>2013-04-07T07:28:17Z</time>
      </trkpt>
      <trkpt lat="42.89826" lon="0.20601">
        <ele>1940</ele>
        <time>2013-04-07T07:28:19Z</time>
      </trkpt>
      <trkpt lat="42.89824" lon="0.20599">
        <ele>1940</ele>
        <time>2013-04-07T07:28:21Z</time>
      </trkpt>
      <trkpt lat="42.89824" lon="0.20597">
        <ele>1940</ele>
        <time>2013-04-07T07:28:23Z</time>
      </trkpt>
      <trkpt lat="42.89822" lon="0.20596">
        <ele>1942</ele>
        <time>2013-04-07T07:28:25Z</time>
      </trkpt>
      <trkpt lat="42.89821" lon="0.20595">
        <ele>1943</ele>
        <time>2013-04-07T07:28:27Z</time>
      </trkpt>
      <trkpt lat="42.8982" lon="0.20593">
        <ele>1945</ele>
        <time>2013-04-07T07:28:31Z</time>
      </trkpt>
      <trkpt lat="42.8982" lon="0.20591">
        <ele>1946</ele>
        <time>2013-04-07T07:28:34Z</time>
      </trkpt>
      <trkpt lat="42.89819" lon="0.20589">
        <ele>1946</ele>
        <time>2013-04-07T07:28:37Z</time>
      </trkpt>
      <trkpt lat="42.89819" lon="0.20587">
        <ele>1947</ele>
        <time>2013-04-07T07:28:40Z</time>
      </trkpt>
      <trkpt lat="42.89819" lon="0.20586">
        <ele>1947</ele>
        <time>2013-04-07T07:28:42Z</time>
      </trkpt>
      <trkpt lat="42.89818" lon="0.20584">
        <ele>1947</ele>
        <time>2013-04-07T07:28:45Z</time>
      </trkpt>
      <trkpt lat="42.89818" lon="0.20582">
        <ele>1948</ele>
        <time>2013-04-07T07:28:48Z</time>
      </trkpt>
      <trkpt lat="42.89818" lon="0.2058">
        <ele>1948</ele>
        <time>2013-04-07T07:28:51Z</time>
      </trkpt>
      <trkpt lat="42.89818" lon="0.20578">
        <ele>1948</ele>
        <time>2013-04-07T07:28:54Z</time>
      </trkpt>
      <trkpt lat="42.89818" lon="0.20576">
        <ele>1948</ele>
        <time>2013-04-07T07:28:56Z</time>
      </trkpt>
      <trkpt lat="42.89818" lon="0.20575">
        <ele>1948</ele>
        <time>2013-04-07T07:28:58Z</time>
      </trkpt>
      <trkpt lat="42.89818" lon="0.20573">
        <ele>1948</ele>
        <time>2013-04-07T07:29:01Z</time>
      </trkpt>
      <trkpt lat="42.89817" lon="0.20571">
        <ele>1948</ele>
        <time>2013-04-07T07:29:03Z</time>
      </trkpt>
      <trkpt lat="42.89817" lon="0.2057">
        <ele>1948</ele>
        <time>2013-04-07T07:29:06Z</time>
      </trkpt>
      <trkpt lat="42.89817" lon="0.20568">
        <ele>1948</ele>
        <time>2013-04-07T07:29:09Z</time>
      </trkpt>
      <trkpt lat="42.89816" lon="0.20566">
        <ele>1948</ele>
        <time>2013-04-07T07:29:13Z</time>
      </trkpt>
      <trkpt lat="42.89815" lon="0.20564">
        <ele>1949</ele>
        <time>2013-04-07T07:29:16Z</time>
      </trkpt>
      <trkpt lat="42.89815" lon="0.20562">
        <ele>1949</ele>
        <time>2013-04-07T07:29:19Z</time>
      </trkpt>
      <trkpt lat="42.89814" lon="0.2056">
        <ele>1950</ele>
        <time>2013-04-07T07:29:22Z</time>
      </trkpt>
      <trkpt lat="42.89814" lon="0.20559">
        <ele>1951</ele>
        <time>2013-04-07T07:29:24Z</time>
      </trkpt>
      <trkpt lat="42.89813" lon="0.20557">
        <ele>1951</ele>
        <time>2013-04-07T07:29:27Z</time>
      </trkpt>
      <trkpt lat="42.89812" lon="0.20556">
        <ele>1952</ele>
        <time>2013-04-07T07:29:29Z</time>
      </trkpt>
      <trkpt lat="42.89811" lon="0.20554">
        <ele>1952</ele>
        <time>2013-04-07T07:29:32Z</time>
      </trkpt>
      <trkpt lat="42.8981" lon="0.20552">
        <ele>1953</ele>
        <time>2013-04-07T07:29:35Z</time>
      </trkpt>
      <trkpt lat="42.89809" lon="0.2055">
        <ele>1953</ele>
        <time>2013-04-07T07:29:37Z</time>
      </trkpt>
      <trkpt lat="42.89809" lon="0.20548">
        <ele>1953</ele>
        <time>2013-04-07T07:29:40Z</time>
      </trkpt>
      <trkpt lat="42.89808" lon="0.20547">
        <ele>1953</ele>
        <time>2013-04-07T07:29:45Z</time>
      </trkpt>
      <trkpt lat="42.89807" lon="0.20545">
        <ele>1953</ele>
        <time>2013-04-07T07:29:49Z</time>
      </trkpt>
      <trkpt lat="42.89806" lon="0.20543">
        <ele>1953</ele>
        <time>2013-04-07T07:29:51Z</time>
      </trkpt>
      <trkpt lat="42.89805" lon="0.20542">
        <ele>1953</ele>
        <time>2013-04-07T07:29:53Z</time>
      </trkpt>
      <trkpt lat="42.89804" lon="0.2054">
        <ele>1953</ele>
        <time>2013-04-07T07:29:55Z</time>
      </trkpt>
      <trkpt lat="42.89803" lon="0.20538">
        <ele>1953</ele>
        <time>2013-04-07T07:29:57Z</time>
      </trkpt>
      <trkpt lat="42.89802" lon="0.20536">
        <ele>1954</ele>
        <time>2013-04-07T07:29:59Z</time>
      </trkpt>
      <trkpt lat="42.89801" lon="0.20535">
        <ele>1955</ele>
        <time>2013-04-07T07:30:03Z</time>
      </trkpt>
      <trkpt lat="42.898" lon="0.20533">
        <ele>1955</ele>
        <time>2013-04-07T07:30:06Z</time>
      </trkpt>
      <trkpt lat="42.89798" lon="0.20532">
        <ele>1955</ele>
        <time>2013-04-07T07:30:09Z</time>
      </trkpt>
      <trkpt lat="42.89798" lon="0.2053">
        <ele>1955</ele>
        <time>2013-04-07T07:30:13Z</time>
      </trkpt>
      <trkpt lat="42.89796" lon="0.20529">
        <ele>1955</ele>
        <time>2013-04-07T07:30:16Z</time>
      </trkpt>
      <trkpt lat="42.89795" lon="0.20528">
        <ele>1955</ele>
        <time>2013-04-07T07:30:21Z</time>
      </trkpt>
      <trkpt lat="42.89793" lon="0.20527">
        <ele>1955</ele>
        <time>2013-04-07T07:30:25Z</time>
      </trkpt>
      <trkpt lat="42.89792" lon="0.20526">
        <ele>1955</ele>
        <time>2013-04-07T07:30:28Z</time>
      </trkpt>
      <trkpt lat="42.89791" lon="0.20525">
        <ele>1955</ele>
        <time>2013-04-07T07:30:31Z</time>
      </trkpt>
      <trkpt lat="42.89789" lon="0.20524">
        <ele>1955</ele>
        <time>2013-04-07T07:30:34Z</time>
      </trkpt>
      <trkpt lat="42.89788" lon="0.20523">
        <ele>1955</ele>
        <time>2013-04-07T07:30:37Z</time>
      </trkpt>
      <trkpt lat="42.89786" lon="0.20522">
        <ele>1955</ele>
        <time>2013-04-07T07:30:39Z</time>
      </trkpt>
      <trkpt lat="42.89785" lon="0.20522">
        <ele>1955</ele>
        <time>2013-04-07T07:30:41Z</time>
      </trkpt>
      <trkpt lat="42.89784" lon="0.20521">
        <ele>1955</ele>
        <time>2013-04-07T07:30:43Z</time>
      </trkpt>
      <trkpt lat="42.89782" lon="0.2052">
        <ele>1956</ele>
        <time>2013-04-07T07:30:45Z</time>
      </trkpt>
      <trkpt lat="42.89781" lon="0.20519">
        <ele>1957</ele>
        <time>2013-04-07T07:30:48Z</time>
      </trkpt>
      <trkpt lat="42.89779" lon="0.20519">
        <ele>1957</ele>
        <time>2013-04-07T07:30:50Z</time>
      </trkpt>
      <trkpt lat="42.89778" lon="0.20518">
        <ele>1958</ele>
        <time>2013-04-07T07:30:52Z</time>
      </trkpt>
      <trkpt lat="42.89777" lon="0.20518">
        <ele>1958</ele>
        <time>2013-04-07T07:30:54Z</time>
      </trkpt>
      <trkpt lat="42.89775" lon="0.20518">
        <ele>1959</ele>
        <time>2013-04-07T07:30:56Z</time>
      </trkpt>
      <trkpt lat="42.89774" lon="0.20519">
        <ele>1959</ele>
        <time>2013-04-07T07:30:58Z</time>
      </trkpt>
      <trkpt lat="42.89772" lon="0.20519">
        <ele>1960</ele>
        <time>2013-04-07T07:31:00Z</time>
      </trkpt>
      <trkpt lat="42.89771" lon="0.2052">
        <ele>1960</ele>
        <time>2013-04-07T07:31:03Z</time>
      </trkpt>
      <trkpt lat="42.89769" lon="0.20521">
        <ele>1960</ele>
        <time>2013-04-07T07:31:06Z</time>
      </trkpt>
      <trkpt lat="42.89768" lon="0.20522">
        <ele>1961</ele>
        <time>2013-04-07T07:31:16Z</time>
      </trkpt>
      <trkpt lat="42.89766" lon="0.20523">
        <ele>1961</ele>
        <time>2013-04-07T07:31:21Z</time>
      </trkpt>
      <trkpt lat="42.89765" lon="0.20524">
        <ele>1961</ele>
        <time>2013-04-07T07:31:24Z</time>
      </trkpt>
      <trkpt lat="42.89764" lon="0.20526">
        <ele>1961</ele>
        <time>2013-04-07T07:31:27Z</time>
      </trkpt>
      <trkpt lat="42.89762" lon="0.20528">
        <ele>1961</ele>
        <time>2013-04-07T07:31:30Z</time>
      </trkpt>
      <trkpt lat="42.89761" lon="0.20529">
        <ele>1961</ele>
        <time>2013-04-07T07:31:34Z</time>
      </trkpt>
      <trkpt lat="42.89762" lon="0.2053">
        <ele>1961</ele>
        <time>2013-04-07T07:32:02Z</time>
      </trkpt>
      <trkpt lat="42.89761" lon="0.2053">
        <ele>1961</ele>
        <time>2013-04-07T07:32:16Z</time>
      </trkpt>
      <trkpt lat="42.89761" lon="0.20532">
        <ele>1961</ele>
        <time>2013-04-07T07:32:19Z</time>
      </trkpt>
      <trkpt lat="42.89762" lon="0.20531">
        <ele>1962</ele>
        <time>2013-04-07T07:33:45Z</time>
      </trkpt>
      <trkpt lat="42.89763" lon="0.20532">
        <ele>1962</ele>
        <time>2013-04-07T07:34:05Z</time>
      </trkpt>
      <trkpt lat="42.89762" lon="0.20531">
        <ele>1962</ele>
        <time>2013-04-07T07:34:25Z</time>
      </trkpt>
      <trkpt lat="42.89761" lon="0.2053">
        <ele>1962</ele>
        <time>2013-04-07T07:34:37Z</time>
      </trkpt>
      <trkpt lat="42.89761" lon="0.20531">
        <ele>1963</ele>
        <time>2013-04-07T07:34:57Z</time>
      </trkpt>
      <trkpt lat="42.89761" lon="0.20533">
        <ele>1963</ele>
        <time>2013-04-07T07:35:13Z</time>
      </trkpt>
      <trkpt lat="42.8976" lon="0.20534">
        <ele>1963</ele>
        <time>2013-04-07T07:35:27Z</time>
      </trkpt>
      <trkpt lat="42.8976" lon="0.20532">
        <ele>1963</ele>
        <time>2013-04-07T07:36:14Z</time>
      </trkpt>
      <trkpt lat="42.89759" lon="0.2053">
        <ele>1963</ele>
        <time>2013-04-07T07:36:25Z</time>
      </trkpt>
      <trkpt lat="42.8976" lon="0.20532">
        <ele>1966</ele>
        <time>2013-04-07T07:37:39Z</time>
      </trkpt>
      <trkpt lat="42.8976" lon="0.20534">
        <ele>1966</ele>
        <time>2013-04-07T07:37:54Z</time>
      </trkpt>
      <trkpt lat="42.8976" lon="0.20535">
        <ele>1966</ele>
        <time>2013-04-07T07:38:23Z</time>
      </trkpt>
      <trkpt lat="42.89762" lon="0.20536">
        <ele>1966</ele>
        <time>2013-04-07T07:38:25Z</time>
      </trkpt>
      <trkpt lat="42.89761" lon="0.20534">
        <ele>1965</ele>
        <time>2013-04-07T07:38:28Z</time>
      </trkpt>
      <trkpt lat="42.8976" lon="0.20533">
        <ele>1965</ele>
        <time>2013-04-07T07:38:36Z</time>
      </trkpt>
      <trkpt lat="42.8976" lon="0.20534">
        <ele>1965</ele>
        <time>2013-04-07T07:38:43Z</time>
      </trkpt>
      <trkpt lat="42.89761" lon="0.20535">
        <ele>1961</ele>
        <time>2013-04-07T07:39:00Z</time>
      </trkpt>
      <trkpt lat="42.89761" lon="0.20537">
        <ele>1958</ele>
        <time>2013-04-07T07:39:09Z</time>
      </trkpt>
      <trkpt lat="42.89761" lon="0.20539">
        <ele>1957</ele>
        <time>2013-04-07T07:39:11Z</time>
      </trkpt>
      <trkpt lat="42.8976" lon="0.2054">
        <ele>1957</ele>
        <time>2013-04-07T07:39:15Z</time>
      </trkpt>
      <trkpt lat="42.89759" lon="0.20541">
        <ele>1957</ele>
        <time>2013-04-07T07:39:21Z</time>
      </trkpt>
      <trkpt lat="42.89759" lon="0.2054">
        <ele>1957</ele>
        <time>2013-04-07T07:39:28Z</time>
      </trkpt>
      <trkpt lat="42.89759" lon="0.20538">
        <ele>1957</ele>
        <time>2013-04-07T07:39:30Z</time>
      </trkpt>
      <trkpt lat="42.89759" lon="0.20537">
        <ele>1957</ele>
        <time>2013-04-07T07:39:35Z</time>
      </trkpt>
      <trkpt lat="42.89759" lon="0.20535">
        <ele>1957</ele>
        <time>2013-04-07T07:39:44Z</time>
      </trkpt>
      <trkpt lat="42.8976" lon="0.20534">
        <ele>1958</ele>
        <time>2013-04-07T07:39:48Z</time>
      </trkpt>
      <trkpt lat="42.8976" lon="0.20532">
        <ele>1959</ele>
        <time>2013-04-07T07:40:06Z</time>
      </trkpt>
      <trkpt lat="42.8976" lon="0.2053">
        <ele>1959</ele>
        <time>2013-04-07T07:40:16Z</time>
      </trkpt>
      <trkpt lat="42.8976" lon="0.20532">
        <ele>1960</ele>
        <time>2013-04-07T07:40:39Z</time>
      </trkpt>
      <trkpt lat="42.89759" lon="0.20532">
        <ele>1960</ele>
        <time>2013-04-07T07:42:05Z</time>
      </trkpt>
      <trkpt lat="42.89758" lon="0.20534">
        <ele>1960</ele>
        <time>2013-04-07T07:42:08Z</time>
      </trkpt>
      <trkpt lat="42.89756" lon="0.20536">
        <ele>1960</ele>
        <time>2013-04-07T07:42:10Z</time>
      </trkpt>
      <trkpt lat="42.89755" lon="0.20538">
        <ele>1960</ele>
        <time>2013-04-07T07:42:12Z</time>
      </trkpt>
      <trkpt lat="42.89753" lon="0.20539">
        <ele>1960</ele>
        <time>2013-04-07T07:42:14Z</time>
      </trkpt>
      <trkpt lat="42.89752" lon="0.2054">
        <ele>1961</ele>
        <time>2013-04-07T07:42:16Z</time>
      </trkpt>
      <trkpt lat="42.89751" lon="0.20541">
        <ele>1961</ele>
        <time>2013-04-07T07:42:18Z</time>
      </trkpt>
      <trkpt lat="42.8975" lon="0.20542">
        <ele>1961</ele>
        <time>2013-04-07T07:42:20Z</time>
      </trkpt>
      <trkpt lat="42.89748" lon="0.20544">
        <ele>1961</ele>
        <time>2013-04-07T07:42:22Z</time>
      </trkpt>
      <trkpt lat="42.89747" lon="0.20545">
        <ele>1962</ele>
        <time>2013-04-07T07:42:24Z</time>
      </trkpt>
      <trkpt lat="42.89745" lon="0.20546">
        <ele>1962</ele>
        <time>2013-04-07T07:42:26Z</time>
      </trkpt>
      <trkpt lat="42.89744" lon="0.20547">
        <ele>1963</ele>
        <time>2013-04-07T07:42:28Z</time>
      </trkpt>
      <trkpt lat="42.89742" lon="0.20549">
        <ele>1963</ele>
        <time>2013-04-07T07:42:31Z</time>
      </trkpt>
      <trkpt lat="42.89741" lon="0.2055">
        <ele>1963</ele>
        <time>2013-04-07T07:42:34Z</time>
      </trkpt>
      <trkpt lat="42.8974" lon="0.20551">
        <ele>1964</ele>
        <time>2013-04-07T07:42:36Z</time>
      </trkpt>
      <trkpt lat="42.89738" lon="0.20552">
        <ele>1964</ele>
        <time>2013-04-07T07:42:38Z</time>
      </trkpt>
      <trkpt lat="42.89737" lon="0.20553">
        <ele>1964</ele>
        <time>2013-04-07T07:42:40Z</time>
      </trkpt>
      <trkpt lat="42.89736" lon="0.20554">
        <ele>1965</ele>
        <time>2013-04-07T07:42:42Z</time>
      </trkpt>
      <trkpt lat="42.89735" lon="0.20555">
        <ele>1965</ele>
        <time>2013-04-07T07:42:44Z</time>
      </trkpt>
      <trkpt lat="42.89734" lon="0.20556">
        <ele>1965</ele>
        <time>2013-04-07T07:42:46Z</time>
      </trkpt>
      <trkpt lat="42.89732" lon="0.20556">
        <ele>1965</ele>
        <time>2013-04-07T07:42:48Z</time>
      </trkpt>
      <trkpt lat="42.8973" lon="0.20556">
        <ele>1966</ele>
        <time>2013-04-07T07:42:50Z</time>
      </trkpt>
      <trkpt lat="42.89729" lon="0.20556">
        <ele>1966</ele>
        <time>2013-04-07T07:42:52Z</time>
      </trkpt>
      <trkpt lat="42.89727" lon="0.20557">
        <ele>1967</ele>
        <time>2013-04-07T07:42:54Z</time>
      </trkpt>
      <trkpt lat="42.89726" lon="0.20557">
        <ele>1968</ele>
        <time>2013-04-07T07:42:56Z</time>
      </trkpt>
      <trkpt lat="42.89725" lon="0.20557">
        <ele>1968</ele>
        <time>2013-04-07T07:42:58Z</time>
      </trkpt>
      <trkpt lat="42.89723" lon="0.20557">
        <ele>1969</ele>
        <time>2013-04-07T07:43:00Z</time>
      </trkpt>
      <trkpt lat="42.89722" lon="0.20557">
        <ele>1969</ele>
        <time>2013-04-07T07:43:02Z</time>
      </trkpt>
      <trkpt lat="42.89721" lon="0.20557">
        <ele>1969</ele>
        <time>2013-04-07T07:43:04Z</time>
      </trkpt>
      <trkpt lat="42.89719" lon="0.20557">
        <ele>1970</ele>
        <time>2013-04-07T07:43:06Z</time>
      </trkpt>
      <trkpt lat="42.89718" lon="0.20557">
        <ele>1970</ele>
        <time>2013-04-07T07:43:08Z</time>
      </trkpt>
      <trkpt lat="42.89717" lon="0.20557">
        <ele>1970</ele>
        <time>2013-04-07T07:43:10Z</time>
      </trkpt>
      <trkpt lat="42.89716" lon="0.20557">
        <ele>1970</ele>
        <time>2013-04-07T07:43:12Z</time>
      </trkpt>
      <trkpt lat="42.89714" lon="0.20557">
        <ele>1971</ele>
        <time>2013-04-07T07:43:14Z</time>
      </trkpt>
      <trkpt lat="42.89713" lon="0.20557">
        <ele>1971</ele>
        <time>2013-04-07T07:43:16Z</time>
      </trkpt>
      <trkpt lat="42.89712" lon="0.20557">
        <ele>1972</ele>
        <time>2013-04-07T07:43:18Z</time>
      </trkpt>
      <trkpt lat="42.89711" lon="0.20557">
        <ele>1972</ele>
        <time>2013-04-07T07:43:20Z</time>
      </trkpt>
      <trkpt lat="42.89709" lon="0.20557">
        <ele>1973</ele>
        <time>2013-04-07T07:43:22Z</time>
      </trkpt>
      <trkpt lat="42.89708" lon="0.20558">
        <ele>1973</ele>
        <time>2013-04-07T07:43:24Z</time>
      </trkpt>
      <trkpt lat="42.89707" lon="0.20557">
        <ele>1973</ele>
        <time>2013-04-07T07:43:26Z</time>
      </trkpt>
      <trkpt lat="42.89706" lon="0.20557">
        <ele>1974</ele>
        <time>2013-04-07T07:43:28Z</time>
      </trkpt>
      <trkpt lat="42.89704" lon="0.20557">
        <ele>1974</ele>
        <time>2013-04-07T07:43:30Z</time>
      </trkpt>
      <trkpt lat="42.89703" lon="0.20557">
        <ele>1974</ele>
        <time>2013-04-07T07:43:32Z</time>
      </trkpt>
      <trkpt lat="42.89701" lon="0.20557">
        <ele>1975</ele>
        <time>2013-04-07T07:43:34Z</time>
      </trkpt>
      <trkpt lat="42.897" lon="0.20557">
        <ele>1975</ele>
        <time>2013-04-07T07:43:36Z</time>
      </trkpt>
      <trkpt lat="42.89699" lon="0.20557">
        <ele>1975</ele>
        <time>2013-04-07T07:43:38Z</time>
      </trkpt>
      <trkpt lat="42.89697" lon="0.20557">
        <ele>1975</ele>
        <time>2013-04-07T07:43:40Z</time>
      </trkpt>
      <trkpt lat="42.89696" lon="0.20557">
        <ele>1976</ele>
        <time>2013-04-07T07:43:42Z</time>
      </trkpt>
      <trkpt lat="42.89694" lon="0.20557">
        <ele>1976</ele>
        <time>2013-04-07T07:43:44Z</time>
      </trkpt>
      <trkpt lat="42.89693" lon="0.20557">
        <ele>1976</ele>
        <time>2013-04-07T07:43:46Z</time>
      </trkpt>
      <trkpt lat="42.89692" lon="0.20558">
        <ele>1977</ele>
        <time>2013-04-07T07:43:48Z</time>
      </trkpt>
      <trkpt lat="42.8969" lon="0.20558">
        <ele>1977</ele>
        <time>2013-04-07T07:43:50Z</time>
      </trkpt>
      <trkpt lat="42.89689" lon="0.20558">
        <ele>1977</ele>
        <time>2013-04-07T07:43:52Z</time>
      </trkpt>
      <trkpt lat="42.89687" lon="0.20559">
        <ele>1977</ele>
        <time>2013-04-07T07:43:54Z</time>
      </trkpt>
      <trkpt lat="42.89686" lon="0.20559">
        <ele>1978</ele>
        <time>2013-04-07T07:43:56Z</time>
      </trkpt>
      <trkpt lat="42.89685" lon="0.2056">
        <ele>1978</ele>
        <time>2013-04-07T07:43:58Z</time>
      </trkpt>
      <trkpt lat="42.89684" lon="0.2056">
        <ele>1978</ele>
        <time>2013-04-07T07:44:00Z</time>
      </trkpt>
      <trkpt lat="42.89682" lon="0.2056">
        <ele>1979</ele>
        <time>2013-04-07T07:44:02Z</time>
      </trkpt>
      <trkpt lat="42.89681" lon="0.20561">
        <ele>1979</ele>
        <time>2013-04-07T07:44:04Z</time>
      </trkpt>
      <trkpt lat="42.89679" lon="0.20561">
        <ele>1979</ele>
        <time>2013-04-07T07:44:06Z</time>
      </trkpt>
      <trkpt lat="42.89677" lon="0.20562">
        <ele>1979</ele>
        <time>2013-04-07T07:44:08Z</time>
      </trkpt>
      <trkpt lat="42.89676" lon="0.20562">
        <ele>1979</ele>
        <time>2013-04-07T07:44:10Z</time>
      </trkpt>
      <trkpt lat="42.89674" lon="0.20563">
        <ele>1980</ele>
        <time>2013-04-07T07:44:12Z</time>
      </trkpt>
      <trkpt lat="42.89673" lon="0.20563">
        <ele>1980</ele>
        <time>2013-04-07T07:44:14Z</time>
      </trkpt>
      <trkpt lat="42.89672" lon="0.20564">
        <ele>1980</ele>
        <time>2013-04-07T07:44:16Z</time>
      </trkpt>
      <trkpt lat="42.8967" lon="0.20564">
        <ele>1980</ele>
        <time>2013-04-07T07:44:18Z</time>
      </trkpt>
      <trkpt lat="42.89669" lon="0.20565">
        <ele>1980</ele>
        <time>2013-04-07T07:44:20Z</time>
      </trkpt>
      <trkpt lat="42.89668" lon="0.20565">
        <ele>1981</ele>
        <time>2013-04-07T07:44:22Z</time>
      </trkpt>
      <trkpt lat="42.89667" lon="0.20566">
        <ele>1981</ele>
        <time>2013-04-07T07:44:24Z</time>
      </trkpt>
      <trkpt lat="42.89666" lon="0.20566">
        <ele>1981</ele>
        <time>2013-04-07T07:44:26Z</time>
      </trkpt>
      <trkpt lat="42.89664" lon="0.20567">
        <ele>1981</ele>
        <time>2013-04-07T07:44:28Z</time>
      </trkpt>
      <trkpt lat="42.89663" lon="0.20567">
        <ele>1981</ele>
        <time>2013-04-07T07:44:30Z</time>
      </trkpt>
      <trkpt lat="42.89662" lon="0.20568">
        <ele>1982</ele>
        <time>2013-04-07T07:44:32Z</time>
      </trkpt>
      <trkpt lat="42.89661" lon="0.20569">
        <ele>1982</ele>
        <time>2013-04-07T07:44:34Z</time>
      </trkpt>
      <trkpt lat="42.8966" lon="0.20569">
        <ele>1982</ele>
        <time>2013-04-07T07:44:36Z</time>
      </trkpt>
      <trkpt lat="42.89658" lon="0.2057">
        <ele>1983</ele>
        <time>2013-04-07T07:44:38Z</time>
      </trkpt>
      <trkpt lat="42.89657" lon="0.2057">
        <ele>1983</ele>
        <time>2013-04-07T07:44:40Z</time>
      </trkpt>
      <trkpt lat="42.89656" lon="0.20571">
        <ele>1984</ele>
        <time>2013-04-07T07:44:43Z</time>
      </trkpt>
      <trkpt lat="42.89654" lon="0.20571">
        <ele>1984</ele>
        <time>2013-04-07T07:44:45Z</time>
      </trkpt>
      <trkpt lat="42.89653" lon="0.20571">
        <ele>1984</ele>
        <time>2013-04-07T07:44:47Z</time>
      </trkpt>
      <trkpt lat="42.89652" lon="0.20572">
        <ele>1984</ele>
        <time>2013-04-07T07:44:49Z</time>
      </trkpt>
      <trkpt lat="42.89651" lon="0.20572">
        <ele>1985</ele>
        <time>2013-04-07T07:44:51Z</time>
      </trkpt>
      <trkpt lat="42.8965" lon="0.20572">
        <ele>1985</ele>
        <time>2013-04-07T07:44:53Z</time>
      </trkpt>
      <trkpt lat="42.89648" lon="0.20573">
        <ele>1986</ele>
        <time>2013-04-07T07:44:55Z</time>
      </trkpt>
      <trkpt lat="42.89647" lon="0.20573">
        <ele>1986</ele>
        <time>2013-04-07T07:44:57Z</time>
      </trkpt>
      <trkpt lat="42.89646" lon="0.20574">
        <ele>1986</ele>
        <time>2013-04-07T07:44:59Z</time>
      </trkpt>
      <trkpt lat="42.89645" lon="0.20574">
        <ele>1987</ele>
        <time>2013-04-07T07:45:01Z</time>
      </trkpt>
      <trkpt lat="42.89643" lon="0.20575">
        <ele>1987</ele>
        <time>2013-04-07T07:45:03Z</time>
      </trkpt>
      <trkpt lat="42.89642" lon="0.20575">
        <ele>1988</ele>
        <time>2013-04-07T07:45:05Z</time>
      </trkpt>
      <trkpt lat="42.89641" lon="0.20576">
        <ele>1988</ele>
        <time>2013-04-07T07:45:07Z</time>
      </trkpt>
      <trkpt lat="42.8964" lon="0.20576">
        <ele>1989</ele>
        <time>2013-04-07T07:45:09Z</time>
      </trkpt>
      <trkpt lat="42.89638" lon="0.20577">
        <ele>1989</ele>
        <time>2013-04-07T07:45:11Z</time>
      </trkpt>
      <trkpt lat="42.89637" lon="0.20577">
        <ele>1990</ele>
        <time>2013-04-07T07:45:13Z</time>
      </trkpt>
      <trkpt lat="42.89636" lon="0.20578">
        <ele>1990</ele>
        <time>2013-04-07T07:45:15Z</time>
      </trkpt>
      <trkpt lat="42.89634" lon="0.20578">
        <ele>1991</ele>
        <time>2013-04-07T07:45:17Z</time>
      </trkpt>
      <trkpt lat="42.89633" lon="0.20579">
        <ele>1991</ele>
        <time>2013-04-07T07:45:19Z</time>
      </trkpt>
      <trkpt lat="42.89632" lon="0.20579">
        <ele>1991</ele>
        <time>2013-04-07T07:45:21Z</time>
      </trkpt>
      <trkpt lat="42.89631" lon="0.2058">
        <ele>1992</ele>
        <time>2013-04-07T07:45:23Z</time>
      </trkpt>
      <trkpt lat="42.89629" lon="0.2058">
        <ele>1992</ele>
        <time>2013-04-07T07:45:25Z</time>
      </trkpt>
      <trkpt lat="42.89628" lon="0.2058">
        <ele>1992</ele>
        <time>2013-04-07T07:45:27Z</time>
      </trkpt>
      <trkpt lat="42.89627" lon="0.20581">
        <ele>1993</ele>
        <time>2013-04-07T07:45:29Z</time>
      </trkpt>
      <trkpt lat="42.89625" lon="0.20581">
        <ele>1993</ele>
        <time>2013-04-07T07:45:31Z</time>
      </trkpt>
      <trkpt lat="42.89624" lon="0.2058">
        <ele>1993</ele>
        <time>2013-04-07T07:45:33Z</time>
      </trkpt>
      <trkpt lat="42.89623" lon="0.2058">
        <ele>1993</ele>
        <time>2013-04-07T07:45:35Z</time>
      </trkpt>
      <trkpt lat="42.89621" lon="0.20579">
        <ele>1993</ele>
        <time>2013-04-07T07:45:37Z</time>
      </trkpt>
      <trkpt lat="42.8962" lon="0.20578">
        <ele>1993</ele>
        <time>2013-04-07T07:45:39Z</time>
      </trkpt>
      <trkpt lat="42.89619" lon="0.20577">
        <ele>1993</ele>
        <time>2013-04-07T07:45:42Z</time>
      </trkpt>
      <trkpt lat="42.89618" lon="0.20576">
        <ele>1994</ele>
        <time>2013-04-07T07:45:45Z</time>
      </trkpt>
      <trkpt lat="42.89617" lon="0.20574">
        <ele>1994</ele>
        <time>2013-04-07T07:45:49Z</time>
      </trkpt>
      <trkpt lat="42.89617" lon="0.20576">
        <ele>1995</ele>
        <time>2013-04-07T07:46:10Z</time>
      </trkpt>
      <trkpt lat="42.89616" lon="0.20577">
        <ele>1995</ele>
        <time>2013-04-07T07:46:33Z</time>
      </trkpt>
      <trkpt lat="42.89614" lon="0.20576">
        <ele>1995</ele>
        <time>2013-04-07T07:46:36Z</time>
      </trkpt>
      <trkpt lat="42.89613" lon="0.20575">
        <ele>1995</ele>
        <time>2013-04-07T07:46:38Z</time>
      </trkpt>
      <trkpt lat="42.89611" lon="0.20575">
        <ele>1995</ele>
        <time>2013-04-07T07:46:40Z</time>
      </trkpt>
      <trkpt lat="42.8961" lon="0.20574">
        <ele>1995</ele>
        <time>2013-04-07T07:46:42Z</time>
      </trkpt>
      <trkpt lat="42.89609" lon="0.20573">
        <ele>1995</ele>
        <time>2013-04-07T07:46:44Z</time>
      </trkpt>
      <trkpt lat="42.89608" lon="0.20572">
        <ele>1995</ele>
        <time>2013-04-07T07:46:46Z</time>
      </trkpt>
      <trkpt lat="42.89606" lon="0.20571">
        <ele>1995</ele>
        <time>2013-04-07T07:46:48Z</time>
      </trkpt>
      <trkpt lat="42.89605" lon="0.20569">
        <ele>1995</ele>
        <time>2013-04-07T07:46:50Z</time>
      </trkpt>
      <trkpt lat="42.89603" lon="0.20568">
        <ele>1995</ele>
        <time>2013-04-07T07:46:52Z</time>
      </trkpt>
      <trkpt lat="42.89602" lon="0.20566">
        <ele>1995</ele>
        <time>2013-04-07T07:46:53Z</time>
      </trkpt>
      <trkpt lat="42.89601" lon="0.20565">
        <ele>1995</ele>
        <time>2013-04-07T07:46:54Z</time>
      </trkpt>
      <trkpt lat="42.896" lon="0.20563">
        <ele>1995</ele>
        <time>2013-04-07T07:46:56Z</time>
      </trkpt>
      <trkpt lat="42.896" lon="0.20562">
        <ele>1995</ele>
        <time>2013-04-07T07:46:57Z</time>
      </trkpt>
      <trkpt lat="42.89598" lon="0.20559">
        <ele>1995</ele>
        <time>2013-04-07T07:46:59Z</time>
      </trkpt>
      <trkpt lat="42.89598" lon="0.20558">
        <ele>1995</ele>
        <time>2013-04-07T07:47:00Z</time>
      </trkpt>
      <trkpt lat="42.89597" lon="0.20555">
        <ele>1995</ele>
        <time>2013-04-07T07:47:02Z</time>
      </trkpt>
      <trkpt lat="42.89596" lon="0.20554">
        <ele>1995</ele>
        <time>2013-04-07T07:47:03Z</time>
      </trkpt>
      <trkpt lat="42.89595" lon="0.20551">
        <ele>1995</ele>
        <time>2013-04-07T07:47:05Z</time>
      </trkpt>
      <trkpt lat="42.89594" lon="0.2055">
        <ele>1995</ele>
        <time>2013-04-07T07:47:06Z</time>
      </trkpt>
      <trkpt lat="42.89594" lon="0.20548">
        <ele>1995</ele>
        <time>2013-04-07T07:47:07Z</time>
      </trkpt>
      <trkpt lat="42.89592" lon="0.20546">
        <ele>1995</ele>
        <time>2013-04-07T07:47:09Z</time>
      </trkpt>
      <trkpt lat="42.89592" lon="0.20543">
        <ele>1995</ele>
        <time>2013-04-07T07:47:11Z</time>
      </trkpt>
      <trkpt lat="42.89592" lon="0.20542">
        <ele>1995</ele>
        <time>2013-04-07T07:47:12Z</time>
      </trkpt>
      <trkpt lat="42.89592" lon="0.2054">
        <ele>1995</ele>
        <time>2013-04-07T07:47:13Z</time>
      </trkpt>
      <trkpt lat="42.89591" lon="0.20539">
        <ele>1995</ele>
        <time>2013-04-07T07:47:14Z</time>
      </trkpt>
      <trkpt lat="42.89591" lon="0.20537">
        <ele>1995</ele>
        <time>2013-04-07T07:47:15Z</time>
      </trkpt>
      <trkpt lat="42.89591" lon="0.20536">
        <ele>1995</ele>
        <time>2013-04-07T07:47:16Z</time>
      </trkpt>
      <trkpt lat="42.8959" lon="0.20533">
        <ele>1995</ele>
        <time>2013-04-07T07:47:18Z</time>
      </trkpt>
      <trkpt lat="42.8959" lon="0.2053">
        <ele>1995</ele>
        <time>2013-04-07T07:47:20Z</time>
      </trkpt>
      <trkpt lat="42.89589" lon="0.20528">
        <ele>1995</ele>
        <time>2013-04-07T07:47:22Z</time>
      </trkpt>
      <trkpt lat="42.89588" lon="0.20526">
        <ele>1995</ele>
        <time>2013-04-07T07:47:24Z</time>
      </trkpt>
      <trkpt lat="42.89587" lon="0.20523">
        <ele>1995</ele>
        <time>2013-04-07T07:47:26Z</time>
      </trkpt>
      <trkpt lat="42.89586" lon="0.2052">
        <ele>1995</ele>
        <time>2013-04-07T07:47:28Z</time>
      </trkpt>
      <trkpt lat="42.89586" lon="0.20518">
        <ele>1995</ele>
        <time>2013-04-07T07:47:30Z</time>
      </trkpt>
      <trkpt lat="42.89585" lon="0.20516">
        <ele>1995</ele>
        <time>2013-04-07T07:47:31Z</time>
      </trkpt>
      <trkpt lat="42.89585" lon="0.20515">
        <ele>1995</ele>
        <time>2013-04-07T07:47:32Z</time>
      </trkpt>
      <trkpt lat="42.89585" lon="0.20512">
        <ele>1995</ele>
        <time>2013-04-07T07:47:34Z</time>
      </trkpt>
      <trkpt lat="42.89584" lon="0.20511">
        <ele>1995</ele>
        <time>2013-04-07T07:47:35Z</time>
      </trkpt>
      <trkpt lat="42.89584" lon="0.20509">
        <ele>1995</ele>
        <time>2013-04-07T07:47:36Z</time>
      </trkpt>
      <trkpt lat="42.89583" lon="0.20507">
        <ele>1995</ele>
        <time>2013-04-07T07:47:38Z</time>
      </trkpt>
      <trkpt lat="42.89583" lon="0.20505">
        <ele>1995</ele>
        <time>2013-04-07T07:47:39Z</time>
      </trkpt>
      <trkpt lat="42.89583" lon="0.20504">
        <ele>1995</ele>
        <time>2013-04-07T07:47:40Z</time>
      </trkpt>
      <trkpt lat="42.89583" lon="0.20501">
        <ele>1995</ele>
        <time>2013-04-07T07:47:42Z</time>
      </trkpt>
      <trkpt lat="42.89582" lon="0.20499">
        <ele>1995</ele>
        <time>2013-04-07T07:47:43Z</time>
      </trkpt>
      <trkpt lat="42.89582" lon="0.20497">
        <ele>1995</ele>
        <time>2013-04-07T07:47:44Z</time>
      </trkpt>
      <trkpt lat="42.89582" lon="0.20496">
        <ele>1995</ele>
        <time>2013-04-07T07:47:45Z</time>
      </trkpt>
      <trkpt lat="42.89583" lon="0.20494">
        <ele>1995</ele>
        <time>2013-04-07T07:47:46Z</time>
      </trkpt>
      <trkpt lat="42.89583" lon="0.20492">
        <ele>1995</ele>
        <time>2013-04-07T07:47:47Z</time>
      </trkpt>
      <trkpt lat="42.89582" lon="0.20491">
        <ele>1995</ele>
        <time>2013-04-07T07:47:48Z</time>
      </trkpt>
      <trkpt lat="42.89582" lon="0.20489">
        <ele>1995</ele>
        <time>2013-04-07T07:47:49Z</time>
      </trkpt>
      <trkpt lat="42.89582" lon="0.20488">
        <ele>1995</ele>
        <time>2013-04-07T07:47:50Z</time>
      </trkpt>
      <trkpt lat="42.89582" lon="0.20485">
        <ele>1995</ele>
        <time>2013-04-07T07:47:52Z</time>
      </trkpt>
      <trkpt lat="42.89582" lon="0.20483">
        <ele>1995</ele>
        <time>2013-04-07T07:47:53Z</time>
      </trkpt>
      <trkpt lat="42.89582" lon="0.20482">
        <ele>1995</ele>
        <time>2013-04-07T07:47:54Z</time>
      </trkpt>
      <trkpt lat="42.89582" lon="0.20479">
        <ele>1995</ele>
        <time>2013-04-07T07:47:56Z</time>
      </trkpt>
      <trkpt lat="42.89582" lon="0.20478">
        <ele>1995</ele>
        <time>2013-04-07T07:47:57Z</time>
      </trkpt>
      <trkpt lat="42.89581" lon="0.20476">
        <ele>1995</ele>
        <time>2013-04-07T07:47:58Z</time>
      </trkpt>
      <trkpt lat="42.8958" lon="0.20473">
        <ele>1995</ele>
        <time>2013-04-07T07:48:00Z</time>
      </trkpt>
      <trkpt lat="42.89579" lon="0.20472">
        <ele>1995</ele>
        <time>2013-04-07T07:48:01Z</time>
      </trkpt>
      <trkpt lat="42.89578" lon="0.20469">
        <ele>1995</ele>
        <time>2013-04-07T07:48:03Z</time>
      </trkpt>
      <trkpt lat="42.89577" lon="0.20467">
        <ele>1995</ele>
        <time>2013-04-07T07:48:05Z</time>
      </trkpt>
      <trkpt lat="42.89577" lon="0.20464">
        <ele>1995</ele>
        <time>2013-04-07T07:48:07Z</time>
      </trkpt>
      <trkpt lat="42.89577" lon="0.20461">
        <ele>1995</ele>
        <time>2013-04-07T07:48:09Z</time>
      </trkpt>
      <trkpt lat="42.89577" lon="0.20459">
        <ele>1995</ele>
        <time>2013-04-07T07:48:11Z</time>
      </trkpt>
      <trkpt lat="42.89577" lon="0.20457">
        <ele>1995</ele>
        <time>2013-04-07T07:48:13Z</time>
      </trkpt>
      <trkpt lat="42.89576" lon="0.20456">
        <ele>1995</ele>
        <time>2013-04-07T07:48:15Z</time>
      </trkpt>
      <trkpt lat="42.89575" lon="0.20454">
        <ele>1995</ele>
        <time>2013-04-07T07:48:17Z</time>
      </trkpt>
      <trkpt lat="42.89573" lon="0.20452">
        <ele>1995</ele>
        <time>2013-04-07T07:48:20Z</time>
      </trkpt>
      <trkpt lat="42.89572" lon="0.20451">
        <ele>1995</ele>
        <time>2013-04-07T07:48:23Z</time>
      </trkpt>
      <trkpt lat="42.89571" lon="0.20449">
        <ele>1995</ele>
        <time>2013-04-07T07:48:25Z</time>
      </trkpt>
      <trkpt lat="42.89569" lon="0.20448">
        <ele>1995</ele>
        <time>2013-04-07T07:48:27Z</time>
      </trkpt>
      <trkpt lat="42.89568" lon="0.20447">
        <ele>1995</ele>
        <time>2013-04-07T07:48:29Z</time>
      </trkpt>
      <trkpt lat="42.89566" lon="0.20446">
        <ele>1995</ele>
        <time>2013-04-07T07:48:31Z</time>
      </trkpt>
      <trkpt lat="42.89565" lon="0.20445">
        <ele>1995</ele>
        <time>2013-04-07T07:48:33Z</time>
      </trkpt>
      <trkpt lat="42.89564" lon="0.20444">
        <ele>1995</ele>
        <time>2013-04-07T07:48:35Z</time>
      </trkpt>
      <trkpt lat="42.89562" lon="0.20443">
        <ele>1995</ele>
        <time>2013-04-07T07:48:37Z</time>
      </trkpt>
      <trkpt lat="42.89561" lon="0.20442">
        <ele>1995</ele>
        <time>2013-04-07T07:48:39Z</time>
      </trkpt>
      <trkpt lat="42.8956" lon="0.20442">
        <ele>1995</ele>
        <time>2013-04-07T07:48:42Z</time>
      </trkpt>
      <trkpt lat="42.89558" lon="0.20442">
        <ele>1995</ele>
        <time>2013-04-07T07:48:44Z</time>
      </trkpt>
      <trkpt lat="42.89556" lon="0.20441">
        <ele>1995</ele>
        <time>2013-04-07T07:48:46Z</time>
      </trkpt>
      <trkpt lat="42.89555" lon="0.20441">
        <ele>1995</ele>
        <time>2013-04-07T07:48:48Z</time>
      </trkpt>
      <trkpt lat="42.89554" lon="0.20441">
        <ele>1996</ele>
        <time>2013-04-07T07:48:50Z</time>
      </trkpt>
      <trkpt lat="42.89552" lon="0.2044">
        <ele>1996</ele>
        <time>2013-04-07T07:48:52Z</time>
      </trkpt>
      <trkpt lat="42.89551" lon="0.2044">
        <ele>1996</ele>
        <time>2013-04-07T07:48:54Z</time>
      </trkpt>
      <trkpt lat="42.8955" lon="0.2044">
        <ele>1996</ele>
        <time>2013-04-07T07:48:57Z</time>
      </trkpt>
      <trkpt lat="42.89548" lon="0.2044">
        <ele>1996</ele>
        <time>2013-04-07T07:48:59Z</time>
      </trkpt>
      <trkpt lat="42.89547" lon="0.20439">
        <ele>1996</ele>
        <time>2013-04-07T07:49:02Z</time>
      </trkpt>
      <trkpt lat="42.89545" lon="0.20439">
        <ele>1996</ele>
        <time>2013-04-07T07:49:04Z</time>
      </trkpt>
      <trkpt lat="42.89544" lon="0.20439">
        <ele>1996</ele>
        <time>2013-04-07T07:49:06Z</time>
      </trkpt>
      <trkpt lat="42.89543" lon="0.20438">
        <ele>1996</ele>
        <time>2013-04-07T07:49:08Z</time>
      </trkpt>
      <trkpt lat="42.89542" lon="0.20438">
        <ele>1996</ele>
        <time>2013-04-07T07:49:10Z</time>
      </trkpt>
      <trkpt lat="42.8954" lon="0.20438">
        <ele>1996</ele>
        <time>2013-04-07T07:49:12Z</time>
      </trkpt>
      <trkpt lat="42.89539" lon="0.20437">
        <ele>1996</ele>
        <time>2013-04-07T07:49:14Z</time>
      </trkpt>
      <trkpt lat="42.89537" lon="0.20437">
        <ele>1996</ele>
        <time>2013-04-07T07:49:16Z</time>
      </trkpt>
      <trkpt lat="42.89536" lon="0.20437">
        <ele>1996</ele>
        <time>2013-04-07T07:49:18Z</time>
      </trkpt>
      <trkpt lat="42.89534" lon="0.20436">
        <ele>1997</ele>
        <time>2013-04-07T07:49:20Z</time>
      </trkpt>
      <trkpt lat="42.89532" lon="0.20436">
        <ele>1997</ele>
        <time>2013-04-07T07:49:22Z</time>
      </trkpt>
      <trkpt lat="42.89531" lon="0.20437">
        <ele>1997</ele>
        <time>2013-04-07T07:49:24Z</time>
      </trkpt>
      <trkpt lat="42.89529" lon="0.20437">
        <ele>1997</ele>
        <time>2013-04-07T07:49:26Z</time>
      </trkpt>
      <trkpt lat="42.89528" lon="0.20437">
        <ele>1997</ele>
        <time>2013-04-07T07:49:28Z</time>
      </trkpt>
      <trkpt lat="42.89526" lon="0.20437">
        <ele>1998</ele>
        <time>2013-04-07T07:49:31Z</time>
      </trkpt>
      <trkpt lat="42.89525" lon="0.20437">
        <ele>1998</ele>
        <time>2013-04-07T07:49:34Z</time>
      </trkpt>
      <trkpt lat="42.89523" lon="0.20437">
        <ele>1999</ele>
        <time>2013-04-07T07:49:36Z</time>
      </trkpt>
      <trkpt lat="42.89522" lon="0.20437">
        <ele>2000</ele>
        <time>2013-04-07T07:49:40Z</time>
      </trkpt>
      <trkpt lat="42.8952" lon="0.20437">
        <ele>2000</ele>
        <time>2013-04-07T07:49:42Z</time>
      </trkpt>
      <trkpt lat="42.89519" lon="0.20436">
        <ele>2000</ele>
        <time>2013-04-07T07:49:44Z</time>
      </trkpt>
      <trkpt lat="42.89518" lon="0.20437">
        <ele>2001</ele>
        <time>2013-04-07T07:49:47Z</time>
      </trkpt>
      <trkpt lat="42.89516" lon="0.20437">
        <ele>2001</ele>
        <time>2013-04-07T07:49:49Z</time>
      </trkpt>
      <trkpt lat="42.89515" lon="0.20437">
        <ele>2002</ele>
        <time>2013-04-07T07:49:51Z</time>
      </trkpt>
      <trkpt lat="42.89513" lon="0.20437">
        <ele>2002</ele>
        <time>2013-04-07T07:49:53Z</time>
      </trkpt>
      <trkpt lat="42.89511" lon="0.20437">
        <ele>2002</ele>
        <time>2013-04-07T07:49:55Z</time>
      </trkpt>
      <trkpt lat="42.8951" lon="0.20437">
        <ele>2002</ele>
        <time>2013-04-07T07:49:57Z</time>
      </trkpt>
      <trkpt lat="42.89508" lon="0.20437">
        <ele>2003</ele>
        <time>2013-04-07T07:49:59Z</time>
      </trkpt>
      <trkpt lat="42.89507" lon="0.20437">
        <ele>2003</ele>
        <time>2013-04-07T07:50:01Z</time>
      </trkpt>
      <trkpt lat="42.89505" lon="0.20438">
        <ele>2003</ele>
        <time>2013-04-07T07:50:03Z</time>
      </trkpt>
      <trkpt lat="42.89504" lon="0.20438">
        <ele>2003</ele>
        <time>2013-04-07T07:50:05Z</time>
      </trkpt>
      <trkpt lat="42.89503" lon="0.20438">
        <ele>2004</ele>
        <time>2013-04-07T07:50:07Z</time>
      </trkpt>
      <trkpt lat="42.89502" lon="0.20438">
        <ele>2004</ele>
        <time>2013-04-07T07:50:12Z</time>
      </trkpt>
      <trkpt lat="42.895" lon="0.20438">
        <ele>2004</ele>
        <time>2013-04-07T07:50:14Z</time>
      </trkpt>
      <trkpt lat="42.89499" lon="0.20439">
        <ele>2004</ele>
        <time>2013-04-07T07:50:16Z</time>
      </trkpt>
      <trkpt lat="42.89497" lon="0.20439">
        <ele>2004</ele>
        <time>2013-04-07T07:50:18Z</time>
      </trkpt>
      <trkpt lat="42.89495" lon="0.20439">
        <ele>2004</ele>
        <time>2013-04-07T07:50:20Z</time>
      </trkpt>
      <trkpt lat="42.89493" lon="0.2044">
        <ele>2004</ele>
        <time>2013-04-07T07:50:22Z</time>
      </trkpt>
      <trkpt lat="42.89492" lon="0.20441">
        <ele>2004</ele>
        <time>2013-04-07T07:50:24Z</time>
      </trkpt>
      <trkpt lat="42.89491" lon="0.20441">
        <ele>2004</ele>
        <time>2013-04-07T07:50:26Z</time>
      </trkpt>
      <trkpt lat="42.89489" lon="0.20443">
        <ele>2004</ele>
        <time>2013-04-07T07:50:28Z</time>
      </trkpt>
      <trkpt lat="42.89487" lon="0.20444">
        <ele>2004</ele>
        <time>2013-04-07T07:50:30Z</time>
      </trkpt>
      <trkpt lat="42.89486" lon="0.20445">
        <ele>2004</ele>
        <time>2013-04-07T07:50:33Z</time>
      </trkpt>
      <trkpt lat="42.89485" lon="0.20446">
        <ele>2004</ele>
        <time>2013-04-07T07:50:35Z</time>
      </trkpt>
      <trkpt lat="42.89483" lon="0.20447">
        <ele>2004</ele>
        <time>2013-04-07T07:50:39Z</time>
      </trkpt>
      <trkpt lat="42.89482" lon="0.20448">
        <ele>2004</ele>
        <time>2013-04-07T07:50:41Z</time>
      </trkpt>
      <trkpt lat="42.89481" lon="0.20449">
        <ele>2004</ele>
        <time>2013-04-07T07:50:44Z</time>
      </trkpt>
      <trkpt lat="42.89479" lon="0.20449">
        <ele>2004</ele>
        <time>2013-04-07T07:50:47Z</time>
      </trkpt>
      <trkpt lat="42.89478" lon="0.2045">
        <ele>2004</ele>
        <time>2013-04-07T07:50:49Z</time>
      </trkpt>
      <trkpt lat="42.89476" lon="0.20451">
        <ele>2004</ele>
        <time>2013-04-07T07:50:52Z</time>
      </trkpt>
      <trkpt lat="42.89475" lon="0.20451">
        <ele>2004</ele>
        <time>2013-04-07T07:50:54Z</time>
      </trkpt>
      <trkpt lat="42.89473" lon="0.20451">
        <ele>2004</ele>
        <time>2013-04-07T07:50:56Z</time>
      </trkpt>
      <trkpt lat="42.89472" lon="0.20451">
        <ele>2004</ele>
        <time>2013-04-07T07:50:58Z</time>
      </trkpt>
      <trkpt lat="42.89471" lon="0.20451">
        <ele>2004</ele>
        <time>2013-04-07T07:51:00Z</time>
      </trkpt>
      <trkpt lat="42.89469" lon="0.20451">
        <ele>2004</ele>
        <time>2013-04-07T07:51:02Z</time>
      </trkpt>
      <trkpt lat="42.89468" lon="0.20451">
        <ele>2004</ele>
        <time>2013-04-07T07:51:04Z</time>
      </trkpt>
      <trkpt lat="42.89466" lon="0.20451">
        <ele>2005</ele>
        <time>2013-04-07T07:51:06Z</time>
      </trkpt>
      <trkpt lat="42.89465" lon="0.20451">
        <ele>2005</ele>
        <time>2013-04-07T07:51:08Z</time>
      </trkpt>
      <trkpt lat="42.89463" lon="0.20451">
        <ele>2005</ele>
        <time>2013-04-07T07:51:10Z</time>
      </trkpt>
      <trkpt lat="42.89462" lon="0.20451">
        <ele>2005</ele>
        <time>2013-04-07T07:51:12Z</time>
      </trkpt>
      <trkpt lat="42.8946" lon="0.20451">
        <ele>2005</ele>
        <time>2013-04-07T07:51:14Z</time>
      </trkpt>
      <trkpt lat="42.89459" lon="0.20451">
        <ele>2005</ele>
        <time>2013-04-07T07:51:16Z</time>
      </trkpt>
      <trkpt lat="42.89458" lon="0.20451">
        <ele>2005</ele>
        <time>2013-04-07T07:51:18Z</time>
      </trkpt>
      <trkpt lat="42.89457" lon="0.20451">
        <ele>2006</ele>
        <time>2013-04-07T07:51:20Z</time>
      </trkpt>
      <trkpt lat="42.89455" lon="0.20452">
        <ele>2007</ele>
        <time>2013-04-07T07:51:25Z</time>
      </trkpt>
      <trkpt lat="42.89454" lon="0.20453">
        <ele>2007</ele>
        <time>2013-04-07T07:51:27Z</time>
      </trkpt>
      <trkpt lat="42.89453" lon="0.20453">
        <ele>2007</ele>
        <time>2013-04-07T07:51:29Z</time>
      </trkpt>
      <trkpt lat="42.89451" lon="0.20454">
        <ele>2007</ele>
        <time>2013-04-07T07:51:31Z</time>
      </trkpt>
      <trkpt lat="42.8945" lon="0.20455">
        <ele>2007</ele>
        <time>2013-04-07T07:51:33Z</time>
      </trkpt>
      <trkpt lat="42.89449" lon="0.20456">
        <ele>2008</ele>
        <time>2013-04-07T07:51:36Z</time>
      </trkpt>
      <trkpt lat="42.89448" lon="0.20456">
        <ele>2008</ele>
        <time>2013-04-07T07:51:38Z</time>
      </trkpt>
      <trkpt lat="42.89447" lon="0.20456">
        <ele>2009</ele>
        <time>2013-04-07T07:51:40Z</time>
      </trkpt>
      <trkpt lat="42.89445" lon="0.20457">
        <ele>2009</ele>
        <time>2013-04-07T07:51:42Z</time>
      </trkpt>
      <trkpt lat="42.89444" lon="0.20457">
        <ele>2009</ele>
        <time>2013-04-07T07:51:45Z</time>
      </trkpt>
      <trkpt lat="42.89442" lon="0.20457">
        <ele>2010</ele>
        <time>2013-04-07T07:51:48Z</time>
      </trkpt>
      <trkpt lat="42.89441" lon="0.20458">
        <ele>2010</ele>
        <time>2013-04-07T07:51:51Z</time>
      </trkpt>
      <trkpt lat="42.89439" lon="0.20458">
        <ele>2011</ele>
        <time>2013-04-07T07:51:54Z</time>
      </trkpt>
      <trkpt lat="42.89438" lon="0.20458">
        <ele>2011</ele>
        <time>2013-04-07T07:51:57Z</time>
      </trkpt>
      <trkpt lat="42.89436" lon="0.20459">
        <ele>2011</ele>
        <time>2013-04-07T07:52:00Z</time>
      </trkpt>
      <trkpt lat="42.89435" lon="0.20459">
        <ele>2011</ele>
        <time>2013-04-07T07:52:03Z</time>
      </trkpt>
      <trkpt lat="42.89433" lon="0.20459">
        <ele>2012</ele>
        <time>2013-04-07T07:52:06Z</time>
      </trkpt>
      <trkpt lat="42.89432" lon="0.20459">
        <ele>2012</ele>
        <time>2013-04-07T07:52:10Z</time>
      </trkpt>
      <trkpt lat="42.89431" lon="0.2046">
        <ele>2013</ele>
        <time>2013-04-07T07:52:12Z</time>
      </trkpt>
      <trkpt lat="42.89429" lon="0.2046">
        <ele>2013</ele>
        <time>2013-04-07T07:52:14Z</time>
      </trkpt>
      <trkpt lat="42.89428" lon="0.2046">
        <ele>2013</ele>
        <time>2013-04-07T07:52:16Z</time>
      </trkpt>
      <trkpt lat="42.89427" lon="0.2046">
        <ele>2013</ele>
        <time>2013-04-07T07:52:18Z</time>
      </trkpt>
      <trkpt lat="42.89426" lon="0.20461">
        <ele>2013</ele>
        <time>2013-04-07T07:52:21Z</time>
      </trkpt>
      <trkpt lat="42.89424" lon="0.20461">
        <ele>2014</ele>
        <time>2013-04-07T07:52:24Z</time>
      </trkpt>
      <trkpt lat="42.89423" lon="0.20462">
        <ele>2014</ele>
        <time>2013-04-07T07:52:27Z</time>
      </trkpt>
      <trkpt lat="42.89422" lon="0.20463">
        <ele>2015</ele>
        <time>2013-04-07T07:52:30Z</time>
      </trkpt>
      <trkpt lat="42.89421" lon="0.20463">
        <ele>2015</ele>
        <time>2013-04-07T07:52:33Z</time>
      </trkpt>
      <trkpt lat="42.89419" lon="0.20464">
        <ele>2016</ele>
        <time>2013-04-07T07:52:37Z</time>
      </trkpt>
      <trkpt lat="42.89418" lon="0.20464">
        <ele>2016</ele>
        <time>2013-04-07T07:52:40Z</time>
      </trkpt>
      <trkpt lat="42.89417" lon="0.20465">
        <ele>2016</ele>
        <time>2013-04-07T07:52:44Z</time>
      </trkpt>
      <trkpt lat="42.89415" lon="0.20466">
        <ele>2017</ele>
        <time>2013-04-07T07:52:47Z</time>
      </trkpt>
      <trkpt lat="42.89414" lon="0.20467">
        <ele>2018</ele>
        <time>2013-04-07T07:52:50Z</time>
      </trkpt>
      <trkpt lat="42.89413" lon="0.20467">
        <ele>2018</ele>
        <time>2013-04-07T07:52:53Z</time>
      </trkpt>
      <trkpt lat="42.89411" lon="0.20468">
        <ele>2018</ele>
        <time>2013-04-07T07:52:56Z</time>
      </trkpt>
      <trkpt lat="42.8941" lon="0.20469">
        <ele>2019</ele>
        <time>2013-04-07T07:53:00Z</time>
      </trkpt>
      <trkpt lat="42.89409" lon="0.2047">
        <ele>2020</ele>
        <time>2013-04-07T07:53:05Z</time>
      </trkpt>
      <trkpt lat="42.89408" lon="0.20471">
        <ele>2021</ele>
        <time>2013-04-07T07:53:16Z</time>
      </trkpt>
      <trkpt lat="42.89408" lon="0.2047">
        <ele>2021</ele>
        <time>2013-04-07T07:53:23Z</time>
      </trkpt>
      <trkpt lat="42.89408" lon="0.20468">
        <ele>2021</ele>
        <time>2013-04-07T07:53:26Z</time>
      </trkpt>
      <trkpt lat="42.89407" lon="0.20466">
        <ele>2021</ele>
        <time>2013-04-07T07:53:28Z</time>
      </trkpt>
      <trkpt lat="42.89407" lon="0.20465">
        <ele>2021</ele>
        <time>2013-04-07T07:53:30Z</time>
      </trkpt>
      <trkpt lat="42.89407" lon="0.20463">
        <ele>2022</ele>
        <time>2013-04-07T07:53:32Z</time>
      </trkpt>
      <trkpt lat="42.89407" lon="0.20461">
        <ele>2022</ele>
        <time>2013-04-07T07:53:35Z</time>
      </trkpt>
      <trkpt lat="42.89407" lon="0.2046">
        <ele>2024</ele>
        <time>2013-04-07T07:53:42Z</time>
      </trkpt>
      <trkpt lat="42.89407" lon="0.20458">
        <ele>2024</ele>
        <time>2013-04-07T07:53:44Z</time>
      </trkpt>
      <trkpt lat="42.89407" lon="0.20457">
        <ele>2024</ele>
        <time>2013-04-07T07:53:46Z</time>
      </trkpt>
      <trkpt lat="42.89406" lon="0.20455">
        <ele>2024</ele>
        <time>2013-04-07T07:53:49Z</time>
      </trkpt>
      <trkpt lat="42.89406" lon="0.20453">
        <ele>2025</ele>
        <time>2013-04-07T07:53:52Z</time>
      </trkpt>
      <trkpt lat="42.89406" lon="0.20451">
        <ele>2026</ele>
        <time>2013-04-07T07:53:56Z</time>
      </trkpt>
      <trkpt lat="42.89405" lon="0.20449">
        <ele>2026</ele>
        <time>2013-04-07T07:54:00Z</time>
      </trkpt>
      <trkpt lat="42.89405" lon="0.20448">
        <ele>2026</ele>
        <time>2013-04-07T07:54:05Z</time>
      </trkpt>
      <trkpt lat="42.89405" lon="0.20446">
        <ele>2026</ele>
        <time>2013-04-07T07:54:08Z</time>
      </trkpt>
      <trkpt lat="42.89404" lon="0.20445">
        <ele>2027</ele>
        <time>2013-04-07T07:54:12Z</time>
      </trkpt>
      <trkpt lat="42.89404" lon="0.20443">
        <ele>2027</ele>
        <time>2013-04-07T07:54:16Z</time>
      </trkpt>
      <trkpt lat="42.89403" lon="0.20441">
        <ele>2028</ele>
        <time>2013-04-07T07:54:20Z</time>
      </trkpt>
      <trkpt lat="42.89403" lon="0.2044">
        <ele>2028</ele>
        <time>2013-04-07T07:54:24Z</time>
      </trkpt>
      <trkpt lat="42.89402" lon="0.20438">
        <ele>2028</ele>
        <time>2013-04-07T07:54:27Z</time>
      </trkpt>
      <trkpt lat="42.89401" lon="0.20437">
        <ele>2028</ele>
        <time>2013-04-07T07:54:30Z</time>
      </trkpt>
      <trkpt lat="42.89401" lon="0.20435">
        <ele>2028</ele>
        <time>2013-04-07T07:54:33Z</time>
      </trkpt>
      <trkpt lat="42.89401" lon="0.20434">
        <ele>2029</ele>
        <time>2013-04-07T07:54:37Z</time>
      </trkpt>
      <trkpt lat="42.894" lon="0.20432">
        <ele>2029</ele>
        <time>2013-04-07T07:54:40Z</time>
      </trkpt>
      <trkpt lat="42.894" lon="0.2043">
        <ele>2030</ele>
        <time>2013-04-07T07:54:43Z</time>
      </trkpt>
      <trkpt lat="42.894" lon="0.20429">
        <ele>2030</ele>
        <time>2013-04-07T07:54:47Z</time>
      </trkpt>
      <trkpt lat="42.894" lon="0.20427">
        <ele>2031</ele>
        <time>2013-04-07T07:54:50Z</time>
      </trkpt>
      <trkpt lat="42.894" lon="0.20425">
        <ele>2032</ele>
        <time>2013-04-07T07:54:53Z</time>
      </trkpt>
      <trkpt lat="42.894" lon="0.20424">
        <ele>2032</ele>
        <time>2013-04-07T07:54:57Z</time>
      </trkpt>
      <trkpt lat="42.894" lon="0.20422">
        <ele>2033</ele>
        <time>2013-04-07T07:55:00Z</time>
      </trkpt>
      <trkpt lat="42.894" lon="0.20421">
        <ele>2033</ele>
        <time>2013-04-07T07:55:03Z</time>
      </trkpt>
      <trkpt lat="42.894" lon="0.20419">
        <ele>2034</ele>
        <time>2013-04-07T07:55:06Z</time>
      </trkpt>
      <trkpt lat="42.894" lon="0.20417">
        <ele>2034</ele>
        <time>2013-04-07T07:55:10Z</time>
      </trkpt>
      <trkpt lat="42.894" lon="0.20416">
        <ele>2034</ele>
        <time>2013-04-07T07:55:13Z</time>
      </trkpt>
      <trkpt lat="42.894" lon="0.20414">
        <ele>2035</ele>
        <time>2013-04-07T07:55:16Z</time>
      </trkpt>
      <trkpt lat="42.894" lon="0.20412">
        <ele>2035</ele>
        <time>2013-04-07T07:55:20Z</time>
      </trkpt>
      <trkpt lat="42.89399" lon="0.20411">
        <ele>2035</ele>
        <time>2013-04-07T07:55:22Z</time>
      </trkpt>
      <trkpt lat="42.89399" lon="0.20409">
        <ele>2035</ele>
        <time>2013-04-07T07:55:26Z</time>
      </trkpt>
      <trkpt lat="42.89398" lon="0.20407">
        <ele>2036</ele>
        <time>2013-04-07T07:55:30Z</time>
      </trkpt>
      <trkpt lat="42.89397" lon="0.20406">
        <ele>2036</ele>
        <time>2013-04-07T07:55:33Z</time>
      </trkpt>
      <trkpt lat="42.89396" lon="0.20404">
        <ele>2036</ele>
        <time>2013-04-07T07:55:36Z</time>
      </trkpt>
      <trkpt lat="42.89395" lon="0.20403">
        <ele>2036</ele>
        <time>2013-04-07T07:55:40Z</time>
      </trkpt>
      <trkpt lat="42.89394" lon="0.20401">
        <ele>2037</ele>
        <time>2013-04-07T07:55:43Z</time>
      </trkpt>
      <trkpt lat="42.89393" lon="0.204">
        <ele>2038</ele>
        <time>2013-04-07T07:55:48Z</time>
      </trkpt>
      <trkpt lat="42.89391" lon="0.20398">
        <ele>2039</ele>
        <time>2013-04-07T07:55:53Z</time>
      </trkpt>
      <trkpt lat="42.8939" lon="0.20396">
        <ele>2039</ele>
        <time>2013-04-07T07:55:56Z</time>
      </trkpt>
      <trkpt lat="42.89389" lon="0.20395">
        <ele>2040</ele>
        <time>2013-04-07T07:56:00Z</time>
      </trkpt>
      <trkpt lat="42.89388" lon="0.20394">
        <ele>2041</ele>
        <time>2013-04-07T07:56:06Z</time>
      </trkpt>
      <trkpt lat="42.89387" lon="0.20392">
        <ele>2041</ele>
        <time>2013-04-07T07:56:09Z</time>
      </trkpt>
      <trkpt lat="42.89386" lon="0.2039">
        <ele>2041</ele>
        <time>2013-04-07T07:56:14Z</time>
      </trkpt>
      <trkpt lat="42.89385" lon="0.20389">
        <ele>2042</ele>
        <time>2013-04-07T07:56:19Z</time>
      </trkpt>
      <trkpt lat="42.89384" lon="0.20387">
        <ele>2042</ele>
        <time>2013-04-07T07:56:23Z</time>
      </trkpt>
      <trkpt lat="42.89383" lon="0.20386">
        <ele>2043</ele>
        <time>2013-04-07T07:56:27Z</time>
      </trkpt>
      <trkpt lat="42.89382" lon="0.20384">
        <ele>2043</ele>
        <time>2013-04-07T07:56:31Z</time>
      </trkpt>
      <trkpt lat="42.89381" lon="0.20383">
        <ele>2044</ele>
        <time>2013-04-07T07:56:34Z</time>
      </trkpt>
      <trkpt lat="42.8938" lon="0.20381">
        <ele>2045</ele>
        <time>2013-04-07T07:56:41Z</time>
      </trkpt>
      <trkpt lat="42.89379" lon="0.2038">
        <ele>2046</ele>
        <time>2013-04-07T07:56:43Z</time>
      </trkpt>
      <trkpt lat="42.89378" lon="0.20378">
        <ele>2047</ele>
        <time>2013-04-07T07:56:49Z</time>
      </trkpt>
      <trkpt lat="42.89377" lon="0.20377">
        <ele>2047</ele>
        <time>2013-04-07T07:56:53Z</time>
      </trkpt>
      <trkpt lat="42.89376" lon="0.20378">
        <ele>2048</ele>
        <time>2013-04-07T07:56:58Z</time>
      </trkpt>
      <trkpt lat="42.89375" lon="0.2038">
        <ele>2049</ele>
        <time>2013-04-07T07:57:02Z</time>
      </trkpt>
      <trkpt lat="42.89373" lon="0.20381">
        <ele>2049</ele>
        <time>2013-04-07T07:57:06Z</time>
      </trkpt>
      <trkpt lat="42.89373" lon="0.20383">
        <ele>2049</ele>
        <time>2013-04-07T07:57:10Z</time>
      </trkpt>
      <trkpt lat="42.89372" lon="0.20385">
        <ele>2050</ele>
        <time>2013-04-07T07:57:14Z</time>
      </trkpt>
      <trkpt lat="42.89371" lon="0.20387">
        <ele>2050</ele>
        <time>2013-04-07T07:57:17Z</time>
      </trkpt>
      <trkpt lat="42.8937" lon="0.20388">
        <ele>2050</ele>
        <time>2013-04-07T07:57:20Z</time>
      </trkpt>
      <trkpt lat="42.8937" lon="0.2039">
        <ele>2051</ele>
        <time>2013-04-07T07:57:24Z</time>
      </trkpt>
      <trkpt lat="42.89369" lon="0.20392">
        <ele>2051</ele>
        <time>2013-04-07T07:57:27Z</time>
      </trkpt>
      <trkpt lat="42.89368" lon="0.20394">
        <ele>2052</ele>
        <time>2013-04-07T07:57:31Z</time>
      </trkpt>
      <trkpt lat="42.89367" lon="0.20395">
        <ele>2052</ele>
        <time>2013-04-07T07:57:34Z</time>
      </trkpt>
      <trkpt lat="42.89367" lon="0.20397">
        <ele>2053</ele>
        <time>2013-04-07T07:57:55Z</time>
      </trkpt>
      <trkpt lat="42.89367" lon="0.20395">
        <ele>2053</ele>
        <time>2013-04-07T07:58:08Z</time>
      </trkpt>
      <trkpt lat="42.89369" lon="0.20395">
        <ele>2053</ele>
        <time>2013-04-07T07:58:41Z</time>
      </trkpt>
      <trkpt lat="42.8937" lon="0.20395">
        <ele>2053</ele>
        <time>2013-04-07T07:58:43Z</time>
      </trkpt>
      <trkpt lat="42.89371" lon="0.20395">
        <ele>2055</ele>
        <time>2013-04-07T07:58:47Z</time>
      </trkpt>
      <trkpt lat="42.8937" lon="0.20393">
        <ele>2057</ele>
        <time>2013-04-07T07:58:56Z</time>
      </trkpt>
      <trkpt lat="42.8937" lon="0.20392">
        <ele>2057</ele>
        <time>2013-04-07T07:58:58Z</time>
      </trkpt>
      <trkpt lat="42.89368" lon="0.2039">
        <ele>2057</ele>
        <time>2013-04-07T07:59:00Z</time>
      </trkpt>
      <trkpt lat="42.89368" lon="0.20388">
        <ele>2057</ele>
        <time>2013-04-07T07:59:02Z</time>
      </trkpt>
      <trkpt lat="42.89367" lon="0.20387">
        <ele>2057</ele>
        <time>2013-04-07T07:59:04Z</time>
      </trkpt>
      <trkpt lat="42.89367" lon="0.20385">
        <ele>2057</ele>
        <time>2013-04-07T07:59:06Z</time>
      </trkpt>
      <trkpt lat="42.89366" lon="0.20383">
        <ele>2057</ele>
        <time>2013-04-07T07:59:08Z</time>
      </trkpt>
      <trkpt lat="42.89366" lon="0.20382">
        <ele>2057</ele>
        <time>2013-04-07T07:59:10Z</time>
      </trkpt>
      <trkpt lat="42.89366" lon="0.2038">
        <ele>2057</ele>
        <time>2013-04-07T07:59:12Z</time>
      </trkpt>
      <trkpt lat="42.89365" lon="0.20379">
        <ele>2057</ele>
        <time>2013-04-07T07:59:15Z</time>
      </trkpt>
      <trkpt lat="42.89364" lon="0.20377">
        <ele>2057</ele>
        <time>2013-04-07T07:59:17Z</time>
      </trkpt>
      <trkpt lat="42.89364" lon="0.20375">
        <ele>2057</ele>
        <time>2013-04-07T07:59:20Z</time>
      </trkpt>
      <trkpt lat="42.89363" lon="0.20374">
        <ele>2057</ele>
        <time>2013-04-07T07:59:23Z</time>
      </trkpt>
      <trkpt lat="42.89362" lon="0.20372">
        <ele>2057</ele>
        <time>2013-04-07T07:59:26Z</time>
      </trkpt>
      <trkpt lat="42.89362" lon="0.20371">
        <ele>2057</ele>
        <time>2013-04-07T07:59:41Z</time>
      </trkpt>
      <trkpt lat="42.89361" lon="0.20369">
        <ele>2057</ele>
        <time>2013-04-07T07:59:43Z</time>
      </trkpt>
      <trkpt lat="42.8936" lon="0.20369">
        <ele>2057</ele>
        <time>2013-04-07T07:59:50Z</time>
      </trkpt>
      <trkpt lat="42.89359" lon="0.20371">
        <ele>2057</ele>
        <time>2013-04-07T07:59:53Z</time>
      </trkpt>
      <trkpt lat="42.89358" lon="0.20372">
        <ele>2057</ele>
        <time>2013-04-07T07:59:55Z</time>
      </trkpt>
      <trkpt lat="42.89357" lon="0.20374">
        <ele>2057</ele>
        <time>2013-04-07T07:59:57Z</time>
      </trkpt>
      <trkpt lat="42.89357" lon="0.20375">
        <ele>2057</ele>
        <time>2013-04-07T08:00:02Z</time>
      </trkpt>
      <trkpt lat="42.89357" lon="0.20377">
        <ele>2058</ele>
        <time>2013-04-07T08:00:05Z</time>
      </trkpt>
      <trkpt lat="42.89357" lon="0.20379">
        <ele>2059</ele>
        <time>2013-04-07T08:00:08Z</time>
      </trkpt>
      <trkpt lat="42.89357" lon="0.20377">
        <ele>2059</ele>
        <time>2013-04-07T08:00:18Z</time>
      </trkpt>
      <trkpt lat="42.89357" lon="0.20376">
        <ele>2059</ele>
        <time>2013-04-07T08:00:21Z</time>
      </trkpt>
      <trkpt lat="42.89356" lon="0.20374">
        <ele>2060</ele>
        <time>2013-04-07T08:00:25Z</time>
      </trkpt>
      <trkpt lat="42.89355" lon="0.20373">
        <ele>2061</ele>
        <time>2013-04-07T08:00:30Z</time>
      </trkpt>
      <trkpt lat="42.89355" lon="0.20371">
        <ele>2062</ele>
        <time>2013-04-07T08:00:49Z</time>
      </trkpt>
      <trkpt lat="42.89354" lon="0.2037">
        <ele>2062</ele>
        <time>2013-04-07T08:00:51Z</time>
      </trkpt>
      <trkpt lat="42.89353" lon="0.20371">
        <ele>2062</ele>
        <time>2013-04-07T08:01:00Z</time>
      </trkpt>
      <trkpt lat="42.89352" lon="0.20373">
        <ele>2062</ele>
        <time>2013-04-07T08:01:03Z</time>
      </trkpt>
      <trkpt lat="42.89352" lon="0.20374">
        <ele>2062</ele>
        <time>2013-04-07T08:01:05Z</time>
      </trkpt>
      <trkpt lat="42.89351" lon="0.20376">
        <ele>2062</ele>
        <time>2013-04-07T08:01:08Z</time>
      </trkpt>
      <trkpt lat="42.8935" lon="0.20377">
        <ele>2062</ele>
        <time>2013-04-07T08:01:10Z</time>
      </trkpt>
      <trkpt lat="42.8935" lon="0.20379">
        <ele>2062</ele>
        <time>2013-04-07T08:01:12Z</time>
      </trkpt>
      <trkpt lat="42.89349" lon="0.2038">
        <ele>2062</ele>
        <time>2013-04-07T08:01:15Z</time>
      </trkpt>
      <trkpt lat="42.89348" lon="0.20382">
        <ele>2063</ele>
        <time>2013-04-07T08:01:19Z</time>
      </trkpt>
      <trkpt lat="42.89346" lon="0.20383">
        <ele>2064</ele>
        <time>2013-04-07T08:01:25Z</time>
      </trkpt>
      <trkpt lat="42.89345" lon="0.20384">
        <ele>2064</ele>
        <time>2013-04-07T08:01:27Z</time>
      </trkpt>
      <trkpt lat="42.89344" lon="0.20385">
        <ele>2064</ele>
        <time>2013-04-07T08:01:31Z</time>
      </trkpt>
      <trkpt lat="42.89343" lon="0.20387">
        <ele>2065</ele>
        <time>2013-04-07T08:01:36Z</time>
      </trkpt>
      <trkpt lat="42.89342" lon="0.20389">
        <ele>2066</ele>
        <time>2013-04-07T08:01:41Z</time>
      </trkpt>
      <trkpt lat="42.89341" lon="0.2039">
        <ele>2066</ele>
        <time>2013-04-07T08:01:45Z</time>
      </trkpt>
      <trkpt lat="42.89341" lon="0.20391">
        <ele>2067</ele>
        <time>2013-04-07T08:01:49Z</time>
      </trkpt>
      <trkpt lat="42.8934" lon="0.20393">
        <ele>2067</ele>
        <time>2013-04-07T08:01:54Z</time>
      </trkpt>
      <trkpt lat="42.8934" lon="0.20395">
        <ele>2067</ele>
        <time>2013-04-07T08:01:58Z</time>
      </trkpt>
      <trkpt lat="42.89339" lon="0.20396">
        <ele>2067</ele>
        <time>2013-04-07T08:02:02Z</time>
      </trkpt>
      <trkpt lat="42.89339" lon="0.20398">
        <ele>2067</ele>
        <time>2013-04-07T08:02:06Z</time>
      </trkpt>
      <trkpt lat="42.89339" lon="0.20399">
        <ele>2067</ele>
        <time>2013-04-07T08:02:09Z</time>
      </trkpt>
      <trkpt lat="42.89338" lon="0.20401">
        <ele>2067</ele>
        <time>2013-04-07T08:02:12Z</time>
      </trkpt>
      <trkpt lat="42.89337" lon="0.20403">
        <ele>2069</ele>
        <time>2013-04-07T08:02:15Z</time>
      </trkpt>
      <trkpt lat="42.89336" lon="0.20404">
        <ele>2070</ele>
        <time>2013-04-07T08:02:18Z</time>
      </trkpt>
      <trkpt lat="42.89336" lon="0.20405">
        <ele>2071</ele>
        <time>2013-04-07T08:02:21Z</time>
      </trkpt>
      <trkpt lat="42.89335" lon="0.20407">
        <ele>2072</ele>
        <time>2013-04-07T08:02:25Z</time>
      </trkpt>
      <trkpt lat="42.89335" lon="0.20409">
        <ele>2072</ele>
        <time>2013-04-07T08:02:28Z</time>
      </trkpt>
      <trkpt lat="42.89334" lon="0.2041">
        <ele>2073</ele>
        <time>2013-04-07T08:02:31Z</time>
      </trkpt>
      <trkpt lat="42.89333" lon="0.20412">
        <ele>2075</ele>
        <time>2013-04-07T08:02:34Z</time>
      </trkpt>
      <trkpt lat="42.89333" lon="0.20414">
        <ele>2076</ele>
        <time>2013-04-07T08:02:39Z</time>
      </trkpt>
      <trkpt lat="42.89332" lon="0.20415">
        <ele>2076</ele>
        <time>2013-04-07T08:02:42Z</time>
      </trkpt>
      <trkpt lat="42.89331" lon="0.20417">
        <ele>2077</ele>
        <time>2013-04-07T08:02:45Z</time>
      </trkpt>
      <trkpt lat="42.89331" lon="0.20419">
        <ele>2078</ele>
        <time>2013-04-07T08:02:49Z</time>
      </trkpt>
      <trkpt lat="42.8933" lon="0.2042">
        <ele>2078</ele>
        <time>2013-04-07T08:02:53Z</time>
      </trkpt>
      <trkpt lat="42.89329" lon="0.20422">
        <ele>2079</ele>
        <time>2013-04-07T08:02:57Z</time>
      </trkpt>
      <trkpt lat="42.89328" lon="0.20423">
        <ele>2079</ele>
        <time>2013-04-07T08:03:01Z</time>
      </trkpt>
      <trkpt lat="42.89327" lon="0.20424">
        <ele>2079</ele>
        <time>2013-04-07T08:03:11Z</time>
      </trkpt>
      <trkpt lat="42.89326" lon="0.20423">
        <ele>2080</ele>
        <time>2013-04-07T08:03:14Z</time>
      </trkpt>
      <trkpt lat="42.89325" lon="0.20421">
        <ele>2080</ele>
        <time>2013-04-07T08:03:18Z</time>
      </trkpt>
      <trkpt lat="42.89324" lon="0.2042">
        <ele>2081</ele>
        <time>2013-04-07T08:03:22Z</time>
      </trkpt>
      <trkpt lat="42.89323" lon="0.20418">
        <ele>2082</ele>
        <time>2013-04-07T08:03:26Z</time>
      </trkpt>
      <trkpt lat="42.89321" lon="0.20417">
        <ele>2082</ele>
        <time>2013-04-07T08:03:31Z</time>
      </trkpt>
      <trkpt lat="42.8932" lon="0.20415">
        <ele>2082</ele>
        <time>2013-04-07T08:03:35Z</time>
      </trkpt>
      <trkpt lat="42.89319" lon="0.20414">
        <ele>2083</ele>
        <time>2013-04-07T08:03:40Z</time>
      </trkpt>
      <trkpt lat="42.89318" lon="0.20413">
        <ele>2083</ele>
        <time>2013-04-07T08:03:45Z</time>
      </trkpt>
      <trkpt lat="42.89317" lon="0.20411">
        <ele>2083</ele>
        <time>2013-04-07T08:03:48Z</time>
      </trkpt>
      <trkpt lat="42.89315" lon="0.20409">
        <ele>2084</ele>
        <time>2013-04-07T08:03:53Z</time>
      </trkpt>
      <trkpt lat="42.89314" lon="0.20407">
        <ele>2084</ele>
        <time>2013-04-07T08:03:56Z</time>
      </trkpt>
      <trkpt lat="42.89314" lon="0.20406">
        <ele>2085</ele>
        <time>2013-04-07T08:04:09Z</time>
      </trkpt>
      <trkpt lat="42.89313" lon="0.20407">
        <ele>2086</ele>
        <time>2013-04-07T08:04:12Z</time>
      </trkpt>
      <trkpt lat="42.89313" lon="0.20409">
        <ele>2086</ele>
        <time>2013-04-07T08:04:14Z</time>
      </trkpt>
      <trkpt lat="42.89312" lon="0.20411">
        <ele>2086</ele>
        <time>2013-04-07T08:04:16Z</time>
      </trkpt>
      <trkpt lat="42.89312" lon="0.20413">
        <ele>2086</ele>
        <time>2013-04-07T08:04:18Z</time>
      </trkpt>
      <trkpt lat="42.89312" lon="0.20414">
        <ele>2086</ele>
        <time>2013-04-07T08:04:20Z</time>
      </trkpt>
      <trkpt lat="42.89311" lon="0.20416">
        <ele>2087</ele>
        <time>2013-04-07T08:04:22Z</time>
      </trkpt>
      <trkpt lat="42.8931" lon="0.20417">
        <ele>2087</ele>
        <time>2013-04-07T08:04:25Z</time>
      </trkpt>
      <trkpt lat="42.8931" lon="0.20419">
        <ele>2087</ele>
        <time>2013-04-07T08:04:28Z</time>
      </trkpt>
      <trkpt lat="42.89309" lon="0.20421">
        <ele>2087</ele>
        <time>2013-04-07T08:04:30Z</time>
      </trkpt>
      <trkpt lat="42.89309" lon="0.20422">
        <ele>2087</ele>
        <time>2013-04-07T08:04:32Z</time>
      </trkpt>
      <trkpt lat="42.89309" lon="0.20424">
        <ele>2087</ele>
        <time>2013-04-07T08:04:38Z</time>
      </trkpt>
      <trkpt lat="42.89309" lon="0.20425">
        <ele>2087</ele>
        <time>2013-04-07T08:04:40Z</time>
      </trkpt>
      <trkpt lat="42.89309" lon="0.20427">
        <ele>2087</ele>
        <time>2013-04-07T08:04:43Z</time>
      </trkpt>
      <trkpt lat="42.89309" lon="0.20429">
        <ele>2087</ele>
        <time>2013-04-07T08:04:46Z</time>
      </trkpt>
      <trkpt lat="42.89309" lon="0.20431">
        <ele>2087</ele>
        <time>2013-04-07T08:04:49Z</time>
      </trkpt>
      <trkpt lat="42.8931" lon="0.20432">
        <ele>2087</ele>
        <time>2013-04-07T08:04:51Z</time>
      </trkpt>
      <trkpt lat="42.8931" lon="0.20434">
        <ele>2088</ele>
        <time>2013-04-07T08:04:54Z</time>
      </trkpt>
      <trkpt lat="42.8931" lon="0.20436">
        <ele>2089</ele>
        <time>2013-04-07T08:05:00Z</time>
      </trkpt>
      <trkpt lat="42.89309" lon="0.20437">
        <ele>2089</ele>
        <time>2013-04-07T08:05:03Z</time>
      </trkpt>
      <trkpt lat="42.89309" lon="0.20439">
        <ele>2089</ele>
        <time>2013-04-07T08:05:07Z</time>
      </trkpt>
      <trkpt lat="42.89308" lon="0.20441">
        <ele>2090</ele>
        <time>2013-04-07T08:05:10Z</time>
      </trkpt>
      <trkpt lat="42.89307" lon="0.20442">
        <ele>2091</ele>
        <time>2013-04-07T08:05:12Z</time>
      </trkpt>
      <trkpt lat="42.89306" lon="0.20444">
        <ele>2092</ele>
        <time>2013-04-07T08:05:16Z</time>
      </trkpt>
      <trkpt lat="42.89305" lon="0.20445">
        <ele>2092</ele>
        <time>2013-04-07T08:05:20Z</time>
      </trkpt>
      <trkpt lat="42.89304" lon="0.20447">
        <ele>2092</ele>
        <time>2013-04-07T08:05:23Z</time>
      </trkpt>
      <trkpt lat="42.89303" lon="0.20448">
        <ele>2092</ele>
        <time>2013-04-07T08:05:27Z</time>
      </trkpt>
      <trkpt lat="42.89302" lon="0.2045">
        <ele>2092</ele>
        <time>2013-04-07T08:05:31Z</time>
      </trkpt>
      <trkpt lat="42.89301" lon="0.20451">
        <ele>2093</ele>
        <time>2013-04-07T08:05:36Z</time>
      </trkpt>
      <trkpt lat="42.893" lon="0.20453">
        <ele>2093</ele>
        <time>2013-04-07T08:05:40Z</time>
      </trkpt>
      <trkpt lat="42.89299" lon="0.20454">
        <ele>2093</ele>
        <time>2013-04-07T08:05:45Z</time>
      </trkpt>
      <trkpt lat="42.89298" lon="0.20453">
        <ele>2093</ele>
        <time>2013-04-07T08:05:52Z</time>
      </trkpt>
      <trkpt lat="42.89297" lon="0.20451">
        <ele>2094</ele>
        <time>2013-04-07T08:05:56Z</time>
      </trkpt>
      <trkpt lat="42.89296" lon="0.20449">
        <ele>2094</ele>
        <time>2013-04-07T08:05:59Z</time>
      </trkpt>
      <trkpt lat="42.89295" lon="0.20448">
        <ele>2094</ele>
        <time>2013-04-07T08:06:02Z</time>
      </trkpt>
      <trkpt lat="42.89294" lon="0.20446">
        <ele>2094</ele>
        <time>2013-04-07T08:06:05Z</time>
      </trkpt>
      <trkpt lat="42.89293" lon="0.20444">
        <ele>2094</ele>
        <time>2013-04-07T08:06:09Z</time>
      </trkpt>
      <trkpt lat="42.89292" lon="0.20443">
        <ele>2095</ele>
        <time>2013-04-07T08:06:13Z</time>
      </trkpt>
      <trkpt lat="42.89291" lon="0.20441">
        <ele>2095</ele>
        <time>2013-04-07T08:06:16Z</time>
      </trkpt>
      <trkpt lat="42.89291" lon="0.20439">
        <ele>2096</ele>
        <time>2013-04-07T08:06:19Z</time>
      </trkpt>
      <trkpt lat="42.8929" lon="0.20438">
        <ele>2098</ele>
        <time>2013-04-07T08:06:23Z</time>
      </trkpt>
      <trkpt lat="42.8929" lon="0.20436">
        <ele>2099</ele>
        <time>2013-04-07T08:06:26Z</time>
      </trkpt>
      <trkpt lat="42.89288" lon="0.20435">
        <ele>2099</ele>
        <time>2013-04-07T08:06:29Z</time>
      </trkpt>
      <trkpt lat="42.89287" lon="0.20433">
        <ele>2100</ele>
        <time>2013-04-07T08:06:34Z</time>
      </trkpt>
      <trkpt lat="42.89286" lon="0.20431">
        <ele>2101</ele>
        <time>2013-04-07T08:06:39Z</time>
      </trkpt>
      <trkpt lat="42.89285" lon="0.2043">
        <ele>2101</ele>
        <time>2013-04-07T08:06:44Z</time>
      </trkpt>
      <trkpt lat="42.89283" lon="0.20427">
        <ele>2102</ele>
        <time>2013-04-07T08:06:48Z</time>
      </trkpt>
      <trkpt lat="42.89283" lon="0.20425">
        <ele>2102</ele>
        <time>2013-04-07T08:06:51Z</time>
      </trkpt>
      <trkpt lat="42.89281" lon="0.20424">
        <ele>2103</ele>
        <time>2013-04-07T08:06:53Z</time>
      </trkpt>
      <trkpt lat="42.89281" lon="0.20422">
        <ele>2103</ele>
        <time>2013-04-07T08:06:56Z</time>
      </trkpt>
      <trkpt lat="42.89279" lon="0.20421">
        <ele>2103</ele>
        <time>2013-04-07T08:07:00Z</time>
      </trkpt>
      <trkpt lat="42.89278" lon="0.20419">
        <ele>2104</ele>
        <time>2013-04-07T08:07:04Z</time>
      </trkpt>
      <trkpt lat="42.89277" lon="0.20418">
        <ele>2104</ele>
        <time>2013-04-07T08:07:08Z</time>
      </trkpt>
      <trkpt lat="42.89276" lon="0.20416">
        <ele>2105</ele>
        <time>2013-04-07T08:07:11Z</time>
      </trkpt>
      <trkpt lat="42.89275" lon="0.20415">
        <ele>2105</ele>
        <time>2013-04-07T08:07:14Z</time>
      </trkpt>
      <trkpt lat="42.89274" lon="0.20413">
        <ele>2105</ele>
        <time>2013-04-07T08:07:19Z</time>
      </trkpt>
      <trkpt lat="42.89273" lon="0.20412">
        <ele>2105</ele>
        <time>2013-04-07T08:07:22Z</time>
      </trkpt>
      <trkpt lat="42.89273" lon="0.2041">
        <ele>2106</ele>
        <time>2013-04-07T08:07:26Z</time>
      </trkpt>
      <trkpt lat="42.89271" lon="0.20412">
        <ele>2106</ele>
        <time>2013-04-07T08:07:30Z</time>
      </trkpt>
      <trkpt lat="42.89271" lon="0.20414">
        <ele>2106</ele>
        <time>2013-04-07T08:07:32Z</time>
      </trkpt>
      <trkpt lat="42.8927" lon="0.20416">
        <ele>2106</ele>
        <time>2013-04-07T08:07:34Z</time>
      </trkpt>
      <trkpt lat="42.89269" lon="0.20417">
        <ele>2106</ele>
        <time>2013-04-07T08:07:36Z</time>
      </trkpt>
      <trkpt lat="42.89269" lon="0.20419">
        <ele>2106</ele>
        <time>2013-04-07T08:07:38Z</time>
      </trkpt>
      <trkpt lat="42.89268" lon="0.20421">
        <ele>2107</ele>
        <time>2013-04-07T08:07:40Z</time>
      </trkpt>
      <trkpt lat="42.89268" lon="0.20423">
        <ele>2107</ele>
        <time>2013-04-07T08:07:42Z</time>
      </trkpt>
      <trkpt lat="42.89267" lon="0.20425">
        <ele>2107</ele>
        <time>2013-04-07T08:07:45Z</time>
      </trkpt>
      <trkpt lat="42.89267" lon="0.20426">
        <ele>2107</ele>
        <time>2013-04-07T08:07:48Z</time>
      </trkpt>
      <trkpt lat="42.89266" lon="0.20428">
        <ele>2107</ele>
        <time>2013-04-07T08:07:50Z</time>
      </trkpt>
      <trkpt lat="42.89266" lon="0.2043">
        <ele>2108</ele>
        <time>2013-04-07T08:07:54Z</time>
      </trkpt>
      <trkpt lat="42.89265" lon="0.20431">
        <ele>2108</ele>
        <time>2013-04-07T08:07:57Z</time>
      </trkpt>
      <trkpt lat="42.89265" lon="0.20433">
        <ele>2108</ele>
        <time>2013-04-07T08:08:00Z</time>
      </trkpt>
      <trkpt lat="42.89264" lon="0.20435">
        <ele>2109</ele>
        <time>2013-04-07T08:08:03Z</time>
      </trkpt>
      <trkpt lat="42.89264" lon="0.20436">
        <ele>2109</ele>
        <time>2013-04-07T08:08:06Z</time>
      </trkpt>
      <trkpt lat="42.89263" lon="0.20437">
        <ele>2110</ele>
        <time>2013-04-07T08:08:09Z</time>
      </trkpt>
      <trkpt lat="42.89262" lon="0.20439">
        <ele>2110</ele>
        <time>2013-04-07T08:08:12Z</time>
      </trkpt>
      <trkpt lat="42.89261" lon="0.2044">
        <ele>2110</ele>
        <time>2013-04-07T08:08:15Z</time>
      </trkpt>
      <trkpt lat="42.89261" lon="0.20442">
        <ele>2111</ele>
        <time>2013-04-07T08:08:18Z</time>
      </trkpt>
      <trkpt lat="42.8926" lon="0.20444">
        <ele>2112</ele>
        <time>2013-04-07T08:08:22Z</time>
      </trkpt>
      <trkpt lat="42.89259" lon="0.20445">
        <ele>2112</ele>
        <time>2013-04-07T08:08:26Z</time>
      </trkpt>
      <trkpt lat="42.89258" lon="0.20447">
        <ele>2113</ele>
        <time>2013-04-07T08:08:30Z</time>
      </trkpt>
      <trkpt lat="42.89257" lon="0.20448">
        <ele>2113</ele>
        <time>2013-04-07T08:08:34Z</time>
      </trkpt>
      <trkpt lat="42.89256" lon="0.2045">
        <ele>2113</ele>
        <time>2013-04-07T08:08:38Z</time>
      </trkpt>
      <trkpt lat="42.89254" lon="0.20451">
        <ele>2114</ele>
        <time>2013-04-07T08:08:42Z</time>
      </trkpt>
      <trkpt lat="42.89254" lon="0.20453">
        <ele>2115</ele>
        <time>2013-04-07T08:08:46Z</time>
      </trkpt>
      <trkpt lat="42.89252" lon="0.20453">
        <ele>2115</ele>
        <time>2013-04-07T08:08:50Z</time>
      </trkpt>
      <trkpt lat="42.89251" lon="0.20454">
        <ele>2116</ele>
        <time>2013-04-07T08:08:54Z</time>
      </trkpt>
      <trkpt lat="42.8925" lon="0.20455">
        <ele>2116</ele>
        <time>2013-04-07T08:08:58Z</time>
      </trkpt>
      <trkpt lat="42.89249" lon="0.20456">
        <ele>2117</ele>
        <time>2013-04-07T08:09:02Z</time>
      </trkpt>
      <trkpt lat="42.89247" lon="0.20457">
        <ele>2118</ele>
        <time>2013-04-07T08:09:06Z</time>
      </trkpt>
      <trkpt lat="42.89246" lon="0.20458">
        <ele>2118</ele>
        <time>2013-04-07T08:09:09Z</time>
      </trkpt>
      <trkpt lat="42.89245" lon="0.2046">
        <ele>2119</ele>
        <time>2013-04-07T08:09:13Z</time>
      </trkpt>
      <trkpt lat="42.89245" lon="0.20462">
        <ele>2123</ele>
        <time>2013-04-07T08:10:23Z</time>
      </trkpt>
      <trkpt lat="42.89244" lon="0.20462">
        <ele>2124</ele>
        <time>2013-04-07T08:10:28Z</time>
      </trkpt>
      <trkpt lat="42.89243" lon="0.20463">
        <ele>2124</ele>
        <time>2013-04-07T08:10:30Z</time>
      </trkpt>
      <trkpt lat="42.89241" lon="0.20466">
        <ele>2124</ele>
        <time>2013-04-07T08:10:33Z</time>
      </trkpt>
      <trkpt lat="42.89241" lon="0.20467">
        <ele>2124</ele>
        <time>2013-04-07T08:10:35Z</time>
      </trkpt>
      <trkpt lat="42.8924" lon="0.20469">
        <ele>2124</ele>
        <time>2013-04-07T08:10:37Z</time>
      </trkpt>
      <trkpt lat="42.89239" lon="0.2047">
        <ele>2124</ele>
        <time>2013-04-07T08:10:41Z</time>
      </trkpt>
      <trkpt lat="42.89238" lon="0.20472">
        <ele>2124</ele>
        <time>2013-04-07T08:10:43Z</time>
      </trkpt>
      <trkpt lat="42.89237" lon="0.20473">
        <ele>2124</ele>
        <time>2013-04-07T08:10:46Z</time>
      </trkpt>
      <trkpt lat="42.89236" lon="0.20474">
        <ele>2124</ele>
        <time>2013-04-07T08:10:49Z</time>
      </trkpt>
      <trkpt lat="42.89235" lon="0.20475">
        <ele>2124</ele>
        <time>2013-04-07T08:10:51Z</time>
      </trkpt>
      <trkpt lat="42.89233" lon="0.20477">
        <ele>2124</ele>
        <time>2013-04-07T08:10:53Z</time>
      </trkpt>
      <trkpt lat="42.89233" lon="0.20478">
        <ele>2124</ele>
        <time>2013-04-07T08:10:55Z</time>
      </trkpt>
      <trkpt lat="42.89231" lon="0.2048">
        <ele>2124</ele>
        <time>2013-04-07T08:10:58Z</time>
      </trkpt>
      <trkpt lat="42.8923" lon="0.20482">
        <ele>2124</ele>
        <time>2013-04-07T08:11:01Z</time>
      </trkpt>
      <trkpt lat="42.89228" lon="0.20484">
        <ele>2125</ele>
        <time>2013-04-07T08:11:04Z</time>
      </trkpt>
      <trkpt lat="42.89228" lon="0.20485">
        <ele>2125</ele>
        <time>2013-04-07T08:11:06Z</time>
      </trkpt>
      <trkpt lat="42.89227" lon="0.20487">
        <ele>2125</ele>
        <time>2013-04-07T08:11:09Z</time>
      </trkpt>
      <trkpt lat="42.89226" lon="0.20489">
        <ele>2126</ele>
        <time>2013-04-07T08:11:11Z</time>
      </trkpt>
      <trkpt lat="42.89225" lon="0.20491">
        <ele>2126</ele>
        <time>2013-04-07T08:11:14Z</time>
      </trkpt>
      <trkpt lat="42.89224" lon="0.20492">
        <ele>2126</ele>
        <time>2013-04-07T08:11:16Z</time>
      </trkpt>
      <trkpt lat="42.89223" lon="0.20494">
        <ele>2127</ele>
        <time>2013-04-07T08:11:19Z</time>
      </trkpt>
      <trkpt lat="42.89222" lon="0.20496">
        <ele>2127</ele>
        <time>2013-04-07T08:11:21Z</time>
      </trkpt>
      <trkpt lat="42.8922" lon="0.20498">
        <ele>2128</ele>
        <time>2013-04-07T08:11:24Z</time>
      </trkpt>
      <trkpt lat="42.8922" lon="0.20499">
        <ele>2128</ele>
        <time>2013-04-07T08:11:26Z</time>
      </trkpt>
      <trkpt lat="42.89219" lon="0.20501">
        <ele>2129</ele>
        <time>2013-04-07T08:11:28Z</time>
      </trkpt>
      <trkpt lat="42.89218" lon="0.20502">
        <ele>2129</ele>
        <time>2013-04-07T08:11:30Z</time>
      </trkpt>
      <trkpt lat="42.89217" lon="0.20504">
        <ele>2130</ele>
        <time>2013-04-07T08:11:32Z</time>
      </trkpt>
      <trkpt lat="42.89215" lon="0.20505">
        <ele>2130</ele>
        <time>2013-04-07T08:11:35Z</time>
      </trkpt>
      <trkpt lat="42.89214" lon="0.20506">
        <ele>2130</ele>
        <time>2013-04-07T08:11:37Z</time>
      </trkpt>
      <trkpt lat="42.89213" lon="0.20506">
        <ele>2130</ele>
        <time>2013-04-07T08:11:39Z</time>
      </trkpt>
      <trkpt lat="42.89212" lon="0.20504">
        <ele>2130</ele>
        <time>2013-04-07T08:11:42Z</time>
      </trkpt>
      <trkpt lat="42.89212" lon="0.20503">
        <ele>2130</ele>
        <time>2013-04-07T08:11:54Z</time>
      </trkpt>
      <trkpt lat="42.89211" lon="0.20501">
        <ele>2130</ele>
        <time>2013-04-07T08:11:58Z</time>
      </trkpt>
      <trkpt lat="42.89211" lon="0.205">
        <ele>2131</ele>
        <time>2013-04-07T08:12:00Z</time>
      </trkpt>
      <trkpt lat="42.8921" lon="0.20498">
        <ele>2131</ele>
        <time>2013-04-07T08:12:02Z</time>
      </trkpt>
      <trkpt lat="42.89209" lon="0.20496">
        <ele>2131</ele>
        <time>2013-04-07T08:12:04Z</time>
      </trkpt>
      <trkpt lat="42.89209" lon="0.20494">
        <ele>2131</ele>
        <time>2013-04-07T08:12:06Z</time>
      </trkpt>
      <trkpt lat="42.89209" lon="0.20493">
        <ele>2131</ele>
        <time>2013-04-07T08:12:08Z</time>
      </trkpt>
      <trkpt lat="42.89208" lon="0.20491">
        <ele>2131</ele>
        <time>2013-04-07T08:12:10Z</time>
      </trkpt>
      <trkpt lat="42.89207" lon="0.20489">
        <ele>2132</ele>
        <time>2013-04-07T08:12:12Z</time>
      </trkpt>
      <trkpt lat="42.89206" lon="0.20488">
        <ele>2132</ele>
        <time>2013-04-07T08:12:14Z</time>
      </trkpt>
      <trkpt lat="42.89205" lon="0.20486">
        <ele>2132</ele>
        <time>2013-04-07T08:12:17Z</time>
      </trkpt>
      <trkpt lat="42.89204" lon="0.20484">
        <ele>2132</ele>
        <time>2013-04-07T08:12:19Z</time>
      </trkpt>
      <trkpt lat="42.89203" lon="0.20482">
        <ele>2133</ele>
        <time>2013-04-07T08:12:21Z</time>
      </trkpt>
      <trkpt lat="42.89202" lon="0.20481">
        <ele>2133</ele>
        <time>2013-04-07T08:12:23Z</time>
      </trkpt>
      <trkpt lat="42.89201" lon="0.20479">
        <ele>2134</ele>
        <time>2013-04-07T08:12:27Z</time>
      </trkpt>
      <trkpt lat="42.892" lon="0.20476">
        <ele>2135</ele>
        <time>2013-04-07T08:12:30Z</time>
      </trkpt>
      <trkpt lat="42.89199" lon="0.20475">
        <ele>2135</ele>
        <time>2013-04-07T08:12:32Z</time>
      </trkpt>
      <trkpt lat="42.89197" lon="0.20476">
        <ele>2136</ele>
        <time>2013-04-07T08:12:35Z</time>
      </trkpt>
      <trkpt lat="42.89197" lon="0.20478">
        <ele>2136</ele>
        <time>2013-04-07T08:12:37Z</time>
      </trkpt>
      <trkpt lat="42.89197" lon="0.20479">
        <ele>2136</ele>
        <time>2013-04-07T08:12:39Z</time>
      </trkpt>
      <trkpt lat="42.89196" lon="0.20481">
        <ele>2136</ele>
        <time>2013-04-07T08:12:41Z</time>
      </trkpt>
      <trkpt lat="42.89196" lon="0.20482">
        <ele>2136</ele>
        <time>2013-04-07T08:12:43Z</time>
      </trkpt>
      <trkpt lat="42.89195" lon="0.20484">
        <ele>2137</ele>
        <time>2013-04-07T08:12:46Z</time>
      </trkpt>
      <trkpt lat="42.89194" lon="0.20486">
        <ele>2137</ele>
        <time>2013-04-07T08:12:48Z</time>
      </trkpt>
      <trkpt lat="42.89193" lon="0.20488">
        <ele>2138</ele>
        <time>2013-04-07T08:12:51Z</time>
      </trkpt>
      <trkpt lat="42.89192" lon="0.2049">
        <ele>2138</ele>
        <time>2013-04-07T08:12:54Z</time>
      </trkpt>
      <trkpt lat="42.89191" lon="0.20491">
        <ele>2139</ele>
        <time>2013-04-07T08:12:57Z</time>
      </trkpt>
      <trkpt lat="42.89189" lon="0.20492">
        <ele>2139</ele>
        <time>2013-04-07T08:13:00Z</time>
      </trkpt>
      <trkpt lat="42.89187" lon="0.20493">
        <ele>2139</ele>
        <time>2013-04-07T08:13:03Z</time>
      </trkpt>
      <trkpt lat="42.89186" lon="0.20493">
        <ele>2140</ele>
        <time>2013-04-07T08:13:06Z</time>
      </trkpt>
      <trkpt lat="42.89185" lon="0.20491">
        <ele>2140</ele>
        <time>2013-04-07T08:13:10Z</time>
      </trkpt>
      <trkpt lat="42.89185" lon="0.2049">
        <ele>2140</ele>
        <time>2013-04-07T08:13:12Z</time>
      </trkpt>
      <trkpt lat="42.89185" lon="0.20488">
        <ele>2140</ele>
        <time>2013-04-07T08:13:14Z</time>
      </trkpt>
      <trkpt lat="42.89185" lon="0.20486">
        <ele>2140</ele>
        <time>2013-04-07T08:13:16Z</time>
      </trkpt>
      <trkpt lat="42.89185" lon="0.20484">
        <ele>2140</ele>
        <time>2013-04-07T08:13:18Z</time>
      </trkpt>
      <trkpt lat="42.89186" lon="0.20482">
        <ele>2141</ele>
        <time>2013-04-07T08:13:20Z</time>
      </trkpt>
      <trkpt lat="42.89185" lon="0.20481">
        <ele>2142</ele>
        <time>2013-04-07T08:13:29Z</time>
      </trkpt>
      <trkpt lat="42.89184" lon="0.20481">
        <ele>2142</ele>
        <time>2013-04-07T08:13:39Z</time>
      </trkpt>
      <trkpt lat="42.89184" lon="0.20479">
        <ele>2142</ele>
        <time>2013-04-07T08:13:41Z</time>
      </trkpt>
      <trkpt lat="42.89183" lon="0.20477">
        <ele>2142</ele>
        <time>2013-04-07T08:13:43Z</time>
      </trkpt>
      <trkpt lat="42.89182" lon="0.20475">
        <ele>2142</ele>
        <time>2013-04-07T08:13:45Z</time>
      </trkpt>
      <trkpt lat="42.89181" lon="0.20473">
        <ele>2142</ele>
        <time>2013-04-07T08:13:47Z</time>
      </trkpt>
      <trkpt lat="42.8918" lon="0.20472">
        <ele>2142</ele>
        <time>2013-04-07T08:13:50Z</time>
      </trkpt>
      <trkpt lat="42.89178" lon="0.20472">
        <ele>2142</ele>
        <time>2013-04-07T08:13:52Z</time>
      </trkpt>
      <trkpt lat="42.89177" lon="0.20473">
        <ele>2142</ele>
        <time>2013-04-07T08:13:54Z</time>
      </trkpt>
      <trkpt lat="42.89176" lon="0.20474">
        <ele>2142</ele>
        <time>2013-04-07T08:13:56Z</time>
      </trkpt>
      <trkpt lat="42.89175" lon="0.20475">
        <ele>2142</ele>
        <time>2013-04-07T08:13:58Z</time>
      </trkpt>
      <trkpt lat="42.89173" lon="0.20477">
        <ele>2142</ele>
        <time>2013-04-07T08:14:01Z</time>
      </trkpt>
      <trkpt lat="42.89172" lon="0.20477">
        <ele>2142</ele>
        <time>2013-04-07T08:14:03Z</time>
      </trkpt>
      <trkpt lat="42.8917" lon="0.20478">
        <ele>2142</ele>
        <time>2013-04-07T08:14:06Z</time>
      </trkpt>
      <trkpt lat="42.89168" lon="0.20478">
        <ele>2142</ele>
        <time>2013-04-07T08:14:09Z</time>
      </trkpt>
      <trkpt lat="42.89167" lon="0.20477">
        <ele>2142</ele>
        <time>2013-04-07T08:14:11Z</time>
      </trkpt>
      <trkpt lat="42.89166" lon="0.20476">
        <ele>2143</ele>
        <time>2013-04-07T08:14:13Z</time>
      </trkpt>
      <trkpt lat="42.89165" lon="0.20475">
        <ele>2143</ele>
        <time>2013-04-07T08:14:15Z</time>
      </trkpt>
      <trkpt lat="42.89163" lon="0.20474">
        <ele>2144</ele>
        <time>2013-04-07T08:14:18Z</time>
      </trkpt>
      <trkpt lat="42.89162" lon="0.20473">
        <ele>2144</ele>
        <time>2013-04-07T08:14:21Z</time>
      </trkpt>
      <trkpt lat="42.89161" lon="0.20472">
        <ele>2145</ele>
        <time>2013-04-07T08:14:23Z</time>
      </trkpt>
      <trkpt lat="42.89159" lon="0.20471">
        <ele>2145</ele>
        <time>2013-04-07T08:14:25Z</time>
      </trkpt>
      <trkpt lat="42.89158" lon="0.2047">
        <ele>2146</ele>
        <time>2013-04-07T08:14:27Z</time>
      </trkpt>
      <trkpt lat="42.89157" lon="0.20469">
        <ele>2146</ele>
        <time>2013-04-07T08:14:29Z</time>
      </trkpt>
      <trkpt lat="42.89156" lon="0.20468">
        <ele>2146</ele>
        <time>2013-04-07T08:14:31Z</time>
      </trkpt>
      <trkpt lat="42.89154" lon="0.20466">
        <ele>2146</ele>
        <time>2013-04-07T08:14:33Z</time>
      </trkpt>
      <trkpt lat="42.89153" lon="0.20465">
        <ele>2149</ele>
        <time>2013-04-07T08:15:08Z</time>
      </trkpt>
      <trkpt lat="42.89151" lon="0.20464">
        <ele>2149</ele>
        <time>2013-04-07T08:15:10Z</time>
      </trkpt>
      <trkpt lat="42.8915" lon="0.20463">
        <ele>2149</ele>
        <time>2013-04-07T08:15:12Z</time>
      </trkpt>
      <trkpt lat="42.89149" lon="0.20462">
        <ele>2149</ele>
        <time>2013-04-07T08:15:15Z</time>
      </trkpt>
      <trkpt lat="42.89147" lon="0.20461">
        <ele>2149</ele>
        <time>2013-04-07T08:15:17Z</time>
      </trkpt>
      <trkpt lat="42.89146" lon="0.20459">
        <ele>2149</ele>
        <time>2013-04-07T08:15:20Z</time>
      </trkpt>
      <trkpt lat="42.89144" lon="0.20458">
        <ele>2149</ele>
        <time>2013-04-07T08:15:22Z</time>
      </trkpt>
      <trkpt lat="42.89143" lon="0.20457">
        <ele>2150</ele>
        <time>2013-04-07T08:15:24Z</time>
      </trkpt>
      <trkpt lat="42.89142" lon="0.20456">
        <ele>2150</ele>
        <time>2013-04-07T08:15:26Z</time>
      </trkpt>
      <trkpt lat="42.89141" lon="0.20455">
        <ele>2150</ele>
        <time>2013-04-07T08:15:28Z</time>
      </trkpt>
      <trkpt lat="42.89139" lon="0.20454">
        <ele>2150</ele>
        <time>2013-04-07T08:15:31Z</time>
      </trkpt>
      <trkpt lat="42.89138" lon="0.20453">
        <ele>2150</ele>
        <time>2013-04-07T08:15:33Z</time>
      </trkpt>
      <trkpt lat="42.89137" lon="0.20452">
        <ele>2150</ele>
        <time>2013-04-07T08:15:35Z</time>
      </trkpt>
      <trkpt lat="42.89135" lon="0.20451">
        <ele>2150</ele>
        <time>2013-04-07T08:15:37Z</time>
      </trkpt>
      <trkpt lat="42.89134" lon="0.2045">
        <ele>2150</ele>
        <time>2013-04-07T08:15:39Z</time>
      </trkpt>
      <trkpt lat="42.89133" lon="0.20449">
        <ele>2150</ele>
        <time>2013-04-07T08:15:41Z</time>
      </trkpt>
      <trkpt lat="42.89132" lon="0.20448">
        <ele>2151</ele>
        <time>2013-04-07T08:15:43Z</time>
      </trkpt>
      <trkpt lat="42.8913" lon="0.20448">
        <ele>2151</ele>
        <time>2013-04-07T08:15:45Z</time>
      </trkpt>
      <trkpt lat="42.89129" lon="0.20447">
        <ele>2151</ele>
        <time>2013-04-07T08:15:47Z</time>
      </trkpt>
      <trkpt lat="42.89128" lon="0.20446">
        <ele>2151</ele>
        <time>2013-04-07T08:15:49Z</time>
      </trkpt>
      <trkpt lat="42.89127" lon="0.20446">
        <ele>2151</ele>
        <time>2013-04-07T08:15:51Z</time>
      </trkpt>
      <trkpt lat="42.89126" lon="0.20445">
        <ele>2152</ele>
        <time>2013-04-07T08:15:53Z</time>
      </trkpt>
      <trkpt lat="42.89125" lon="0.20444">
        <ele>2152</ele>
        <time>2013-04-07T08:15:55Z</time>
      </trkpt>
      <trkpt lat="42.89123" lon="0.20443">
        <ele>2152</ele>
        <time>2013-04-07T08:15:57Z</time>
      </trkpt>
      <trkpt lat="42.89122" lon="0.20442">
        <ele>2153</ele>
        <time>2013-04-07T08:15:59Z</time>
      </trkpt>
      <trkpt lat="42.89121" lon="0.20441">
        <ele>2153</ele>
        <time>2013-04-07T08:16:01Z</time>
      </trkpt>
      <trkpt lat="42.89119" lon="0.2044">
        <ele>2153</ele>
        <time>2013-04-07T08:16:04Z</time>
      </trkpt>
      <trkpt lat="42.89118" lon="0.20439">
        <ele>2154</ele>
        <time>2013-04-07T08:16:07Z</time>
      </trkpt>
      <trkpt lat="42.89117" lon="0.20439">
        <ele>2154</ele>
        <time>2013-04-07T08:16:09Z</time>
      </trkpt>
      <trkpt lat="42.89116" lon="0.20438">
        <ele>2154</ele>
        <time>2013-04-07T08:16:11Z</time>
      </trkpt>
      <trkpt lat="42.89114" lon="0.20437">
        <ele>2155</ele>
        <time>2013-04-07T08:16:13Z</time>
      </trkpt>
      <trkpt lat="42.89113" lon="0.20436">
        <ele>2155</ele>
        <time>2013-04-07T08:16:16Z</time>
      </trkpt>
      <trkpt lat="42.89111" lon="0.20436">
        <ele>2155</ele>
        <time>2013-04-07T08:16:18Z</time>
      </trkpt>
      <trkpt lat="42.8911" lon="0.20435">
        <ele>2156</ele>
        <time>2013-04-07T08:16:20Z</time>
      </trkpt>
      <trkpt lat="42.89109" lon="0.20434">
        <ele>2156</ele>
        <time>2013-04-07T08:16:22Z</time>
      </trkpt>
      <trkpt lat="42.89107" lon="0.20434">
        <ele>2156</ele>
        <time>2013-04-07T08:16:24Z</time>
      </trkpt>
      <trkpt lat="42.89106" lon="0.20433">
        <ele>2157</ele>
        <time>2013-04-07T08:16:26Z</time>
      </trkpt>
      <trkpt lat="42.89105" lon="0.20434">
        <ele>2157</ele>
        <time>2013-04-07T08:16:42Z</time>
      </trkpt>
      <trkpt lat="42.89103" lon="0.20433">
        <ele>2157</ele>
        <time>2013-04-07T08:16:44Z</time>
      </trkpt>
      <trkpt lat="42.89101" lon="0.20432">
        <ele>2158</ele>
        <time>2013-04-07T08:16:46Z</time>
      </trkpt>
      <trkpt lat="42.891" lon="0.20431">
        <ele>2158</ele>
        <time>2013-04-07T08:16:48Z</time>
      </trkpt>
      <trkpt lat="42.89098" lon="0.2043">
        <ele>2158</ele>
        <time>2013-04-07T08:16:50Z</time>
      </trkpt>
      <trkpt lat="42.89097" lon="0.20429">
        <ele>2158</ele>
        <time>2013-04-07T08:16:52Z</time>
      </trkpt>
      <trkpt lat="42.89095" lon="0.20428">
        <ele>2158</ele>
        <time>2013-04-07T08:16:54Z</time>
      </trkpt>
      <trkpt lat="42.89094" lon="0.20428">
        <ele>2159</ele>
        <time>2013-04-07T08:16:56Z</time>
      </trkpt>
      <trkpt lat="42.89092" lon="0.20426">
        <ele>2159</ele>
        <time>2013-04-07T08:16:58Z</time>
      </trkpt>
      <trkpt lat="42.8909" lon="0.20426">
        <ele>2159</ele>
        <time>2013-04-07T08:17:00Z</time>
      </trkpt>
      <trkpt lat="42.89089" lon="0.20425">
        <ele>2159</ele>
        <time>2013-04-07T08:17:02Z</time>
      </trkpt>
      <trkpt lat="42.89087" lon="0.20424">
        <ele>2160</ele>
        <time>2013-04-07T08:17:04Z</time>
      </trkpt>
      <trkpt lat="42.89086" lon="0.20423">
        <ele>2160</ele>
        <time>2013-04-07T08:17:06Z</time>
      </trkpt>
      <trkpt lat="42.89084" lon="0.20422">
        <ele>2160</ele>
        <time>2013-04-07T08:17:08Z</time>
      </trkpt>
      <trkpt lat="42.89083" lon="0.20422">
        <ele>2160</ele>
        <time>2013-04-07T08:17:10Z</time>
      </trkpt>
      <trkpt lat="42.89081" lon="0.2042">
        <ele>2161</ele>
        <time>2013-04-07T08:17:12Z</time>
      </trkpt>
      <trkpt lat="42.89079" lon="0.20419">
        <ele>2161</ele>
        <time>2013-04-07T08:17:14Z</time>
      </trkpt>
      <trkpt lat="42.89077" lon="0.20418">
        <ele>2161</ele>
        <time>2013-04-07T08:17:16Z</time>
      </trkpt>
      <trkpt lat="42.89076" lon="0.20418">
        <ele>2161</ele>
        <time>2013-04-07T08:17:18Z</time>
      </trkpt>
      <trkpt lat="42.89074" lon="0.20417">
        <ele>2161</ele>
        <time>2013-04-07T08:17:20Z</time>
      </trkpt>
      <trkpt lat="42.89072" lon="0.20417">
        <ele>2161</ele>
        <time>2013-04-07T08:17:22Z</time>
      </trkpt>
      <trkpt lat="42.8907" lon="0.20418">
        <ele>2161</ele>
        <time>2013-04-07T08:17:24Z</time>
      </trkpt>
      <trkpt lat="42.89068" lon="0.20419">
        <ele>2161</ele>
        <time>2013-04-07T08:17:26Z</time>
      </trkpt>
      <trkpt lat="42.89066" lon="0.20419">
        <ele>2161</ele>
        <time>2013-04-07T08:17:28Z</time>
      </trkpt>
      <trkpt lat="42.89065" lon="0.20419">
        <ele>2161</ele>
        <time>2013-04-07T08:17:29Z</time>
      </trkpt>
      <trkpt lat="42.89064" lon="0.20419">
        <ele>2161</ele>
        <time>2013-04-07T08:17:30Z</time>
      </trkpt>
      <trkpt lat="42.89062" lon="0.20419">
        <ele>2161</ele>
        <time>2013-04-07T08:17:32Z</time>
      </trkpt>
      <trkpt lat="42.8906" lon="0.20419">
        <ele>2161</ele>
        <time>2013-04-07T08:17:34Z</time>
      </trkpt>
      <trkpt lat="42.89059" lon="0.20418">
        <ele>2161</ele>
        <time>2013-04-07T08:17:36Z</time>
      </trkpt>
      <trkpt lat="42.89058" lon="0.20417">
        <ele>2161</ele>
        <time>2013-04-07T08:17:38Z</time>
      </trkpt>
      <trkpt lat="42.89057" lon="0.20416">
        <ele>2161</ele>
        <time>2013-04-07T08:17:40Z</time>
      </trkpt>
      <trkpt lat="42.89056" lon="0.20414">
        <ele>2161</ele>
        <time>2013-04-07T08:17:42Z</time>
      </trkpt>
      <trkpt lat="42.89054" lon="0.20413">
        <ele>2161</ele>
        <time>2013-04-07T08:17:44Z</time>
      </trkpt>
      <trkpt lat="42.89053" lon="0.20412">
        <ele>2161</ele>
        <time>2013-04-07T08:17:46Z</time>
      </trkpt>
      <trkpt lat="42.89051" lon="0.2041">
        <ele>2161</ele>
        <time>2013-04-07T08:17:48Z</time>
      </trkpt>
      <trkpt lat="42.89049" lon="0.20409">
        <ele>2161</ele>
        <time>2013-04-07T08:17:50Z</time>
      </trkpt>
      <trkpt lat="42.89047" lon="0.20407">
        <ele>2161</ele>
        <time>2013-04-07T08:17:52Z</time>
      </trkpt>
      <trkpt lat="42.89046" lon="0.20406">
        <ele>2161</ele>
        <time>2013-04-07T08:17:54Z</time>
      </trkpt>
      <trkpt lat="42.89044" lon="0.20405">
        <ele>2161</ele>
        <time>2013-04-07T08:17:56Z</time>
      </trkpt>
      <trkpt lat="42.89042" lon="0.20404">
        <ele>2161</ele>
        <time>2013-04-07T08:17:58Z</time>
      </trkpt>
      <trkpt lat="42.8904" lon="0.20403">
        <ele>2161</ele>
        <time>2013-04-07T08:18:00Z</time>
      </trkpt>
      <trkpt lat="42.89039" lon="0.20402">
        <ele>2161</ele>
        <time>2013-04-07T08:18:02Z</time>
      </trkpt>
      <trkpt lat="42.89037" lon="0.20401">
        <ele>2161</ele>
        <time>2013-04-07T08:18:09Z</time>
      </trkpt>
      <trkpt lat="42.89036" lon="0.20401">
        <ele>2161</ele>
        <time>2013-04-07T08:18:11Z</time>
      </trkpt>
      <trkpt lat="42.89034" lon="0.204">
        <ele>2161</ele>
        <time>2013-04-07T08:18:13Z</time>
      </trkpt>
      <trkpt lat="42.89032" lon="0.20399">
        <ele>2161</ele>
        <time>2013-04-07T08:18:15Z</time>
      </trkpt>
      <trkpt lat="42.8903" lon="0.20399">
        <ele>2161</ele>
        <time>2013-04-07T08:18:17Z</time>
      </trkpt>
      <trkpt lat="42.89028" lon="0.20399">
        <ele>2161</ele>
        <time>2013-04-07T08:18:19Z</time>
      </trkpt>
      <trkpt lat="42.89027" lon="0.20398">
        <ele>2161</ele>
        <time>2013-04-07T08:18:20Z</time>
      </trkpt>
      <trkpt lat="42.89025" lon="0.20398">
        <ele>2161</ele>
        <time>2013-04-07T08:18:21Z</time>
      </trkpt>
      <trkpt lat="42.89024" lon="0.20398">
        <ele>2161</ele>
        <time>2013-04-07T08:18:22Z</time>
      </trkpt>
      <trkpt lat="42.89023" lon="0.20397">
        <ele>2161</ele>
        <time>2013-04-07T08:18:23Z</time>
      </trkpt>
      <trkpt lat="42.89022" lon="0.20397">
        <ele>2161</ele>
        <time>2013-04-07T08:18:24Z</time>
      </trkpt>
      <trkpt lat="42.8902" lon="0.20397">
        <ele>2161</ele>
        <time>2013-04-07T08:18:26Z</time>
      </trkpt>
      <trkpt lat="42.89017" lon="0.20397">
        <ele>2161</ele>
        <time>2013-04-07T08:18:28Z</time>
      </trkpt>
      <trkpt lat="42.89016" lon="0.20398">
        <ele>2161</ele>
        <time>2013-04-07T08:18:30Z</time>
      </trkpt>
      <trkpt lat="42.89014" lon="0.20398">
        <ele>2161</ele>
        <time>2013-04-07T08:18:31Z</time>
      </trkpt>
      <trkpt lat="42.89012" lon="0.20398">
        <ele>2161</ele>
        <time>2013-04-07T08:18:33Z</time>
      </trkpt>
      <trkpt lat="42.89011" lon="0.20399">
        <ele>2161</ele>
        <time>2013-04-07T08:18:34Z</time>
      </trkpt>
      <trkpt lat="42.89009" lon="0.20399">
        <ele>2161</ele>
        <time>2013-04-07T08:18:36Z</time>
      </trkpt>
      <trkpt lat="42.89007" lon="0.204">
        <ele>2161</ele>
        <time>2013-04-07T08:18:38Z</time>
      </trkpt>
      <trkpt lat="42.89004" lon="0.20402">
        <ele>2161</ele>
        <time>2013-04-07T08:18:40Z</time>
      </trkpt>
      <trkpt lat="42.89003" lon="0.20403">
        <ele>2161</ele>
        <time>2013-04-07T08:18:42Z</time>
      </trkpt>
      <trkpt lat="42.89" lon="0.20404">
        <ele>2161</ele>
        <time>2013-04-07T08:18:44Z</time>
      </trkpt>
      <trkpt lat="42.88999" lon="0.20406">
        <ele>2161</ele>
        <time>2013-04-07T08:18:46Z</time>
      </trkpt>
      <trkpt lat="42.88997" lon="0.20407">
        <ele>2161</ele>
        <time>2013-04-07T08:18:48Z</time>
      </trkpt>
      <trkpt lat="42.88995" lon="0.20409">
        <ele>2161</ele>
        <time>2013-04-07T08:18:50Z</time>
      </trkpt>
      <trkpt lat="42.88993" lon="0.2041">
        <ele>2161</ele>
        <time>2013-04-07T08:18:52Z</time>
      </trkpt>
      <trkpt lat="42.88992" lon="0.20411">
        <ele>2161</ele>
        <time>2013-04-07T08:18:54Z</time>
      </trkpt>
      <trkpt lat="42.8899" lon="0.20413">
        <ele>2160</ele>
        <time>2013-04-07T08:18:56Z</time>
      </trkpt>
      <trkpt lat="42.88989" lon="0.20414">
        <ele>2160</ele>
        <time>2013-04-07T08:18:58Z</time>
      </trkpt>
      <trkpt lat="42.88987" lon="0.20416">
        <ele>2160</ele>
        <time>2013-04-07T08:19:00Z</time>
      </trkpt>
      <trkpt lat="42.88986" lon="0.20417">
        <ele>2160</ele>
        <time>2013-04-07T08:19:02Z</time>
      </trkpt>
      <trkpt lat="42.88984" lon="0.20419">
        <ele>2159</ele>
        <time>2013-04-07T08:19:04Z</time>
      </trkpt>
      <trkpt lat="42.88982" lon="0.20421">
        <ele>2159</ele>
        <time>2013-04-07T08:19:06Z</time>
      </trkpt>
      <trkpt lat="42.8898" lon="0.20424">
        <ele>2158</ele>
        <time>2013-04-07T08:19:08Z</time>
      </trkpt>
      <trkpt lat="42.88978" lon="0.20425">
        <ele>2158</ele>
        <time>2013-04-07T08:19:09Z</time>
      </trkpt>
      <trkpt lat="42.88977" lon="0.20427">
        <ele>2157</ele>
        <time>2013-04-07T08:19:10Z</time>
      </trkpt>
      <trkpt lat="42.88976" lon="0.20428">
        <ele>2157</ele>
        <time>2013-04-07T08:19:11Z</time>
      </trkpt>
      <trkpt lat="42.88974" lon="0.20429">
        <ele>2157</ele>
        <time>2013-04-07T08:19:13Z</time>
      </trkpt>
      <trkpt lat="42.88972" lon="0.20429">
        <ele>2156</ele>
        <time>2013-04-07T08:19:15Z</time>
      </trkpt>
      <trkpt lat="42.8897" lon="0.2043">
        <ele>2156</ele>
        <time>2013-04-07T08:19:17Z</time>
      </trkpt>
      <trkpt lat="42.88969" lon="0.20431">
        <ele>2156</ele>
        <time>2013-04-07T08:19:20Z</time>
      </trkpt>
      <trkpt lat="42.88968" lon="0.20431">
        <ele>2155</ele>
        <time>2013-04-07T08:19:28Z</time>
      </trkpt>
      <trkpt lat="42.88966" lon="0.20432">
        <ele>2155</ele>
        <time>2013-04-07T08:19:30Z</time>
      </trkpt>
      <trkpt lat="42.88964" lon="0.20432">
        <ele>2155</ele>
        <time>2013-04-07T08:19:32Z</time>
      </trkpt>
      <trkpt lat="42.88962" lon="0.20433">
        <ele>2155</ele>
        <time>2013-04-07T08:19:34Z</time>
      </trkpt>
      <trkpt lat="42.8896" lon="0.20434">
        <ele>2154</ele>
        <time>2013-04-07T08:19:36Z</time>
      </trkpt>
      <trkpt lat="42.88958" lon="0.20435">
        <ele>2154</ele>
        <time>2013-04-07T08:19:38Z</time>
      </trkpt>
      <trkpt lat="42.88956" lon="0.20436">
        <ele>2154</ele>
        <time>2013-04-07T08:19:40Z</time>
      </trkpt>
      <trkpt lat="42.88955" lon="0.20437">
        <ele>2154</ele>
        <time>2013-04-07T08:19:42Z</time>
      </trkpt>
      <trkpt lat="42.88954" lon="0.20438">
        <ele>2153</ele>
        <time>2013-04-07T08:19:45Z</time>
      </trkpt>
      <trkpt lat="42.88953" lon="0.2044">
        <ele>2153</ele>
        <time>2013-04-07T08:19:47Z</time>
      </trkpt>
      <trkpt lat="42.88951" lon="0.20441">
        <ele>2152</ele>
        <time>2013-04-07T08:19:49Z</time>
      </trkpt>
      <trkpt lat="42.8895" lon="0.20443">
        <ele>2152</ele>
        <time>2013-04-07T08:19:51Z</time>
      </trkpt>
      <trkpt lat="42.8895" lon="0.20445">
        <ele>2151</ele>
        <time>2013-04-07T08:19:53Z</time>
      </trkpt>
      <trkpt lat="42.88948" lon="0.20447">
        <ele>2151</ele>
        <time>2013-04-07T08:19:56Z</time>
      </trkpt>
      <trkpt lat="42.88946" lon="0.20449">
        <ele>2150</ele>
        <time>2013-04-07T08:19:58Z</time>
      </trkpt>
      <trkpt lat="42.88944" lon="0.20452">
        <ele>2150</ele>
        <time>2013-04-07T08:20:00Z</time>
      </trkpt>
      <trkpt lat="42.88943" lon="0.20453">
        <ele>2149</ele>
        <time>2013-04-07T08:20:02Z</time>
      </trkpt>
      <trkpt lat="42.88942" lon="0.20455">
        <ele>2148</ele>
        <time>2013-04-07T08:20:25Z</time>
      </trkpt>
      <trkpt lat="42.88941" lon="0.20457">
        <ele>2148</ele>
        <time>2013-04-07T08:20:28Z</time>
      </trkpt>
      <trkpt lat="42.8894" lon="0.20459">
        <ele>2148</ele>
        <time>2013-04-07T08:20:30Z</time>
      </trkpt>
      <trkpt lat="42.8894" lon="0.20461">
        <ele>2148</ele>
        <time>2013-04-07T08:20:31Z</time>
      </trkpt>
      <trkpt lat="42.88939" lon="0.20463">
        <ele>2148</ele>
        <time>2013-04-07T08:20:32Z</time>
      </trkpt>
      <trkpt lat="42.88938" lon="0.20464">
        <ele>2148</ele>
        <time>2013-04-07T08:20:33Z</time>
      </trkpt>
      <trkpt lat="42.88937" lon="0.20466">
        <ele>2148</ele>
        <time>2013-04-07T08:20:34Z</time>
      </trkpt>
      <trkpt lat="42.88936" lon="0.20468">
        <ele>2148</ele>
        <time>2013-04-07T08:20:35Z</time>
      </trkpt>
      <trkpt lat="42.88935" lon="0.2047">
        <ele>2148</ele>
        <time>2013-04-07T08:20:36Z</time>
      </trkpt>
      <trkpt lat="42.88934" lon="0.20472">
        <ele>2147</ele>
        <time>2013-04-07T08:20:37Z</time>
      </trkpt>
      <trkpt lat="42.88932" lon="0.20474">
        <ele>2147</ele>
        <time>2013-04-07T08:20:38Z</time>
      </trkpt>
      <trkpt lat="42.8893" lon="0.20477">
        <ele>2147</ele>
        <time>2013-04-07T08:20:39Z</time>
      </trkpt>
      <trkpt lat="42.88928" lon="0.2048">
        <ele>2146</ele>
        <time>2013-04-07T08:20:40Z</time>
      </trkpt>
      <trkpt lat="42.88927" lon="0.20481">
        <ele>2146</ele>
        <time>2013-04-07T08:20:41Z</time>
      </trkpt>
      <trkpt lat="42.88925" lon="0.20483">
        <ele>2145</ele>
        <time>2013-04-07T08:20:44Z</time>
      </trkpt>
      <trkpt lat="42.88923" lon="0.20484">
        <ele>2145</ele>
        <time>2013-04-07T08:20:46Z</time>
      </trkpt>
      <trkpt lat="42.88922" lon="0.20485">
        <ele>2144</ele>
        <time>2013-04-07T08:20:47Z</time>
      </trkpt>
      <trkpt lat="42.8892" lon="0.20486">
        <ele>2144</ele>
        <time>2013-04-07T08:20:48Z</time>
      </trkpt>
      <trkpt lat="42.88919" lon="0.20488">
        <ele>2144</ele>
        <time>2013-04-07T08:20:49Z</time>
      </trkpt>
      <trkpt lat="42.88916" lon="0.20489">
        <ele>2143</ele>
        <time>2013-04-07T08:20:50Z</time>
      </trkpt>
      <trkpt lat="42.88914" lon="0.2049">
        <ele>2143</ele>
        <time>2013-04-07T08:20:51Z</time>
      </trkpt>
      <trkpt lat="42.88911" lon="0.20492">
        <ele>2142</ele>
        <time>2013-04-07T08:20:52Z</time>
      </trkpt>
      <trkpt lat="42.88907" lon="0.20494">
        <ele>2141</ele>
        <time>2013-04-07T08:20:53Z</time>
      </trkpt>
      <trkpt lat="42.88903" lon="0.20496">
        <ele>2141</ele>
        <time>2013-04-07T08:20:54Z</time>
      </trkpt>
      <trkpt lat="42.88898" lon="0.20497">
        <ele>2140</ele>
        <time>2013-04-07T08:20:55Z</time>
      </trkpt>
      <trkpt lat="42.88895" lon="0.20498">
        <ele>2139</ele>
        <time>2013-04-07T08:20:56Z</time>
      </trkpt>
      <trkpt lat="42.88893" lon="0.20498">
        <ele>2138</ele>
        <time>2013-04-07T08:20:57Z</time>
      </trkpt>
      <trkpt lat="42.88892" lon="0.20497">
        <ele>2136</ele>
        <time>2013-04-07T08:20:59Z</time>
      </trkpt>
      <trkpt lat="42.8889" lon="0.20496">
        <ele>2134</ele>
        <time>2013-04-07T08:21:03Z</time>
      </trkpt>
      <trkpt lat="42.88889" lon="0.20495">
        <ele>2133</ele>
        <time>2013-04-07T08:21:05Z</time>
      </trkpt>
      <trkpt lat="42.88888" lon="0.20493">
        <ele>2133</ele>
        <time>2013-04-07T08:21:07Z</time>
      </trkpt>
      <trkpt lat="42.88887" lon="0.20493">
        <ele>2133</ele>
        <time>2013-04-07T08:21:08Z</time>
      </trkpt>
      <trkpt lat="42.88885" lon="0.20492">
        <ele>2132</ele>
        <time>2013-04-07T08:21:09Z</time>
      </trkpt>
      <trkpt lat="42.88883" lon="0.20491">
        <ele>2132</ele>
        <time>2013-04-07T08:21:10Z</time>
      </trkpt>
      <trkpt lat="42.88881" lon="0.2049">
        <ele>2131</ele>
        <time>2013-04-07T08:21:11Z</time>
      </trkpt>
      <trkpt lat="42.88878" lon="0.20489">
        <ele>2131</ele>
        <time>2013-04-07T08:21:12Z</time>
      </trkpt>
      <trkpt lat="42.88875" lon="0.20487">
        <ele>2130</ele>
        <time>2013-04-07T08:21:13Z</time>
      </trkpt>
      <trkpt lat="42.88873" lon="0.20486">
        <ele>2129</ele>
        <time>2013-04-07T08:21:14Z</time>
      </trkpt>
      <trkpt lat="42.88871" lon="0.20484">
        <ele>2129</ele>
        <time>2013-04-07T08:21:15Z</time>
      </trkpt>
      <trkpt lat="42.88869" lon="0.20483">
        <ele>2128</ele>
        <time>2013-04-07T08:21:16Z</time>
      </trkpt>
      <trkpt lat="42.88868" lon="0.20482">
        <ele>2127</ele>
        <time>2013-04-07T08:21:18Z</time>
      </trkpt>
      <trkpt lat="42.88867" lon="0.20481">
        <ele>2127</ele>
        <time>2013-04-07T08:21:20Z</time>
      </trkpt>
      <trkpt lat="42.88865" lon="0.2048">
        <ele>2127</ele>
        <time>2013-04-07T08:21:22Z</time>
      </trkpt>
      <trkpt lat="42.88864" lon="0.20478">
        <ele>2127</ele>
        <time>2013-04-07T08:21:24Z</time>
      </trkpt>
      <trkpt lat="42.88862" lon="0.20477">
        <ele>2126</ele>
        <time>2013-04-07T08:21:26Z</time>
      </trkpt>
      <trkpt lat="42.8886" lon="0.20475">
        <ele>2126</ele>
        <time>2013-04-07T08:21:28Z</time>
      </trkpt>
      <trkpt lat="42.88858" lon="0.20474">
        <ele>2125</ele>
        <time>2013-04-07T08:21:29Z</time>
      </trkpt>
      <trkpt lat="42.88855" lon="0.20473">
        <ele>2125</ele>
        <time>2013-04-07T08:21:30Z</time>
      </trkpt>
      <trkpt lat="42.88853" lon="0.20472">
        <ele>2125</ele>
        <time>2013-04-07T08:21:31Z</time>
      </trkpt>
      <trkpt lat="42.8885" lon="0.20471">
        <ele>2124</ele>
        <time>2013-04-07T08:21:32Z</time>
      </trkpt>
      <trkpt lat="42.88846" lon="0.20469">
        <ele>2123</ele>
        <time>2013-04-07T08:21:33Z</time>
      </trkpt>
      <trkpt lat="42.88842" lon="0.20468">
        <ele>2122</ele>
        <time>2013-04-07T08:21:34Z</time>
      </trkpt>
      <trkpt lat="42.88839" lon="0.20466">
        <ele>2122</ele>
        <time>2013-04-07T08:21:35Z</time>
      </trkpt>
      <trkpt lat="42.88835" lon="0.20464">
        <ele>2121</ele>
        <time>2013-04-07T08:21:36Z</time>
      </trkpt>
      <trkpt lat="42.88832" lon="0.20462">
        <ele>2120</ele>
        <time>2013-04-07T08:21:37Z</time>
      </trkpt>
      <trkpt lat="42.8883" lon="0.20461">
        <ele>2119</ele>
        <time>2013-04-07T08:21:38Z</time>
      </trkpt>
      <trkpt lat="42.88829" lon="0.2046">
        <ele>2119</ele>
        <time>2013-04-07T08:21:41Z</time>
      </trkpt>
      <trkpt lat="42.88827" lon="0.20459">
        <ele>2119</ele>
        <time>2013-04-07T08:21:43Z</time>
      </trkpt>
      <trkpt lat="42.88825" lon="0.20458">
        <ele>2119</ele>
        <time>2013-04-07T08:21:45Z</time>
      </trkpt>
      <trkpt lat="42.88823" lon="0.20457">
        <ele>2119</ele>
        <time>2013-04-07T08:21:47Z</time>
      </trkpt>
      <trkpt lat="42.88821" lon="0.20456">
        <ele>2119</ele>
        <time>2013-04-07T08:21:49Z</time>
      </trkpt>
      <trkpt lat="42.8882" lon="0.20455">
        <ele>2119</ele>
        <time>2013-04-07T08:21:51Z</time>
      </trkpt>
      <trkpt lat="42.88818" lon="0.20454">
        <ele>2119</ele>
        <time>2013-04-07T08:21:53Z</time>
      </trkpt>
      <trkpt lat="42.88816" lon="0.20453">
        <ele>2119</ele>
        <time>2013-04-07T08:21:55Z</time>
      </trkpt>
      <trkpt lat="42.88815" lon="0.20453">
        <ele>2119</ele>
        <time>2013-04-07T08:21:56Z</time>
      </trkpt>
      <trkpt lat="42.88813" lon="0.20452">
        <ele>2119</ele>
        <time>2013-04-07T08:21:58Z</time>
      </trkpt>
      <trkpt lat="42.88811" lon="0.20451">
        <ele>2119</ele>
        <time>2013-04-07T08:22:00Z</time>
      </trkpt>
      <trkpt lat="42.8881" lon="0.2045">
        <ele>2119</ele>
        <time>2013-04-07T08:22:02Z</time>
      </trkpt>
      <trkpt lat="42.88808" lon="0.20449">
        <ele>2119</ele>
        <time>2013-04-07T08:22:04Z</time>
      </trkpt>
      <trkpt lat="42.88806" lon="0.20448">
        <ele>2119</ele>
        <time>2013-04-07T08:22:06Z</time>
      </trkpt>
      <trkpt lat="42.88805" lon="0.20447">
        <ele>2119</ele>
        <time>2013-04-07T08:22:08Z</time>
      </trkpt>
      <trkpt lat="42.88803" lon="0.20446">
        <ele>2119</ele>
        <time>2013-04-07T08:22:10Z</time>
      </trkpt>
      <trkpt lat="42.88804" lon="0.20448">
        <ele>2118</ele>
        <time>2013-04-07T08:22:17Z</time>
      </trkpt>
      <trkpt lat="42.88803" lon="0.20448">
        <ele>2118</ele>
        <time>2013-04-07T08:22:23Z</time>
      </trkpt>
      <trkpt lat="42.88802" lon="0.20448">
        <ele>2118</ele>
        <time>2013-04-07T08:22:25Z</time>
      </trkpt>
      <trkpt lat="42.888" lon="0.20448">
        <ele>2118</ele>
        <time>2013-04-07T08:22:27Z</time>
      </trkpt>
      <trkpt lat="42.88799" lon="0.20448">
        <ele>2118</ele>
        <time>2013-04-07T08:22:29Z</time>
      </trkpt>
      <trkpt lat="42.88799" lon="0.20449">
        <ele>2118</ele>
        <time>2013-04-07T08:22:52Z</time>
      </trkpt>
      <trkpt lat="42.88797" lon="0.20448">
        <ele>2118</ele>
        <time>2013-04-07T08:24:06Z</time>
      </trkpt>
      <trkpt lat="42.88796" lon="0.20447">
        <ele>2118</ele>
        <time>2013-04-07T08:24:38Z</time>
      </trkpt>
      <trkpt lat="42.88795" lon="0.20445">
        <ele>2118</ele>
        <time>2013-04-07T08:24:42Z</time>
      </trkpt>
      <trkpt lat="42.88795" lon="0.20443">
        <ele>2118</ele>
        <time>2013-04-07T08:24:44Z</time>
      </trkpt>
      <trkpt lat="42.88795" lon="0.20442">
        <ele>2118</ele>
        <time>2013-04-07T08:24:48Z</time>
      </trkpt>
      <trkpt lat="42.88795" lon="0.2044">
        <ele>2118</ele>
        <time>2013-04-07T08:24:57Z</time>
      </trkpt>
      <trkpt lat="42.88795" lon="0.20439">
        <ele>2116</ele>
        <time>2013-04-07T08:25:25Z</time>
      </trkpt>
      <trkpt lat="42.88794" lon="0.20439">
        <ele>2116</ele>
        <time>2013-04-07T08:25:31Z</time>
      </trkpt>
      <trkpt lat="42.88792" lon="0.20438">
        <ele>2116</ele>
        <time>2013-04-07T08:25:35Z</time>
      </trkpt>
      <trkpt lat="42.88791" lon="0.20438">
        <ele>2116</ele>
        <time>2013-04-07T08:25:38Z</time>
      </trkpt>
      <trkpt lat="42.88789" lon="0.20438">
        <ele>2116</ele>
        <time>2013-04-07T08:25:39Z</time>
      </trkpt>
      <trkpt lat="42.88788" lon="0.20437">
        <ele>2116</ele>
        <time>2013-04-07T08:25:40Z</time>
      </trkpt>
      <trkpt lat="42.88786" lon="0.20437">
        <ele>2116</ele>
        <time>2013-04-07T08:25:41Z</time>
      </trkpt>
      <trkpt lat="42.88783" lon="0.20436">
        <ele>2116</ele>
        <time>2013-04-07T08:25:42Z</time>
      </trkpt>
      <trkpt lat="42.88779" lon="0.20436">
        <ele>2115</ele>
        <time>2013-04-07T08:25:43Z</time>
      </trkpt>
      <trkpt lat="42.88775" lon="0.20436">
        <ele>2115</ele>
        <time>2013-04-07T08:25:44Z</time>
      </trkpt>
      <trkpt lat="42.88771" lon="0.20436">
        <ele>2114</ele>
        <time>2013-04-07T08:25:45Z</time>
      </trkpt>
      <trkpt lat="42.88768" lon="0.20436">
        <ele>2113</ele>
        <time>2013-04-07T08:25:46Z</time>
      </trkpt>
      <trkpt lat="42.88767" lon="0.20437">
        <ele>2112</ele>
        <time>2013-04-07T08:25:47Z</time>
      </trkpt>
      <trkpt lat="42.88765" lon="0.20437">
        <ele>2112</ele>
        <time>2013-04-07T08:25:48Z</time>
      </trkpt>
      <trkpt lat="42.88764" lon="0.20438">
        <ele>2111</ele>
        <time>2013-04-07T08:25:50Z</time>
      </trkpt>
      <trkpt lat="42.88762" lon="0.20439">
        <ele>2111</ele>
        <time>2013-04-07T08:25:52Z</time>
      </trkpt>
      <trkpt lat="42.8876" lon="0.2044">
        <ele>2110</ele>
        <time>2013-04-07T08:25:54Z</time>
      </trkpt>
      <trkpt lat="42.88759" lon="0.20441">
        <ele>2110</ele>
        <time>2013-04-07T08:25:56Z</time>
      </trkpt>
      <trkpt lat="42.88757" lon="0.20441">
        <ele>2110</ele>
        <time>2013-04-07T08:25:58Z</time>
      </trkpt>
      <trkpt lat="42.88755" lon="0.20443">
        <ele>2110</ele>
        <time>2013-04-07T08:26:00Z</time>
      </trkpt>
      <trkpt lat="42.88754" lon="0.20444">
        <ele>2110</ele>
        <time>2013-04-07T08:26:02Z</time>
      </trkpt>
      <trkpt lat="42.88752" lon="0.20444">
        <ele>2110</ele>
        <time>2013-04-07T08:26:04Z</time>
      </trkpt>
      <trkpt lat="42.8875" lon="0.20445">
        <ele>2110</ele>
        <time>2013-04-07T08:26:06Z</time>
      </trkpt>
      <trkpt lat="42.88749" lon="0.20445">
        <ele>2110</ele>
        <time>2013-04-07T08:26:07Z</time>
      </trkpt>
      <trkpt lat="42.88747" lon="0.20446">
        <ele>2110</ele>
        <time>2013-04-07T08:26:09Z</time>
      </trkpt>
      <trkpt lat="42.88746" lon="0.20446">
        <ele>2110</ele>
        <time>2013-04-07T08:26:10Z</time>
      </trkpt>
      <trkpt lat="42.88744" lon="0.20446">
        <ele>2110</ele>
        <time>2013-04-07T08:26:11Z</time>
      </trkpt>
      <trkpt lat="42.88743" lon="0.20446">
        <ele>2110</ele>
        <time>2013-04-07T08:26:12Z</time>
      </trkpt>
      <trkpt lat="42.88741" lon="0.20446">
        <ele>2110</ele>
        <time>2013-04-07T08:26:15Z</time>
      </trkpt>
      <trkpt lat="42.88739" lon="0.20447">
        <ele>2110</ele>
        <time>2013-04-07T08:26:17Z</time>
      </trkpt>
      <trkpt lat="42.88737" lon="0.20447">
        <ele>2110</ele>
        <time>2013-04-07T08:26:19Z</time>
      </trkpt>
      <trkpt lat="42.88736" lon="0.20448">
        <ele>2110</ele>
        <time>2013-04-07T08:26:21Z</time>
      </trkpt>
      <trkpt lat="42.88734" lon="0.20449">
        <ele>2110</ele>
        <time>2013-04-07T08:26:23Z</time>
      </trkpt>
      <trkpt lat="42.88732" lon="0.20449">
        <ele>2110</ele>
        <time>2013-04-07T08:26:25Z</time>
      </trkpt>
      <trkpt lat="42.8873" lon="0.20449">
        <ele>2110</ele>
        <time>2013-04-07T08:26:27Z</time>
      </trkpt>
      <trkpt lat="42.88728" lon="0.2045">
        <ele>2110</ele>
        <time>2013-04-07T08:26:29Z</time>
      </trkpt>
      <trkpt lat="42.88727" lon="0.20451">
        <ele>2110</ele>
        <time>2013-04-07T08:26:31Z</time>
      </trkpt>
      <trkpt lat="42.88725" lon="0.20451">
        <ele>2110</ele>
        <time>2013-04-07T08:26:34Z</time>
      </trkpt>
      <trkpt lat="42.88723" lon="0.20453">
        <ele>2110</ele>
        <time>2013-04-07T08:26:36Z</time>
      </trkpt>
      <trkpt lat="42.88721" lon="0.20453">
        <ele>2110</ele>
        <time>2013-04-07T08:26:38Z</time>
      </trkpt>
      <trkpt lat="42.8872" lon="0.20453">
        <ele>2110</ele>
        <time>2013-04-07T08:26:40Z</time>
      </trkpt>
      <trkpt lat="42.88717" lon="0.20454">
        <ele>2110</ele>
        <time>2013-04-07T08:26:42Z</time>
      </trkpt>
      <trkpt lat="42.88716" lon="0.20454">
        <ele>2110</ele>
        <time>2013-04-07T08:26:43Z</time>
      </trkpt>
      <trkpt lat="42.88715" lon="0.20455">
        <ele>2110</ele>
        <time>2013-04-07T08:26:45Z</time>
      </trkpt>
      <trkpt lat="42.88712" lon="0.20454">
        <ele>2110</ele>
        <time>2013-04-07T08:26:47Z</time>
      </trkpt>
      <trkpt lat="42.8871" lon="0.20455">
        <ele>2109</ele>
        <time>2013-04-07T08:26:49Z</time>
      </trkpt>
      <trkpt lat="42.88709" lon="0.20455">
        <ele>2109</ele>
        <time>2013-04-07T08:26:51Z</time>
      </trkpt>
      <trkpt lat="42.88707" lon="0.20453">
        <ele>2109</ele>
        <time>2013-04-07T08:26:53Z</time>
      </trkpt>
      <trkpt lat="42.88705" lon="0.20452">
        <ele>2109</ele>
        <time>2013-04-07T08:26:55Z</time>
      </trkpt>
      <trkpt lat="42.88703" lon="0.20451">
        <ele>2109</ele>
        <time>2013-04-07T08:26:57Z</time>
      </trkpt>
      <trkpt lat="42.88702" lon="0.2045">
        <ele>2109</ele>
        <time>2013-04-07T08:26:59Z</time>
      </trkpt>
      <trkpt lat="42.887" lon="0.20449">
        <ele>2109</ele>
        <time>2013-04-07T08:27:01Z</time>
      </trkpt>
      <trkpt lat="42.88698" lon="0.20449">
        <ele>2109</ele>
        <time>2013-04-07T08:27:03Z</time>
      </trkpt>
      <trkpt lat="42.88697" lon="0.20448">
        <ele>2109</ele>
        <time>2013-04-07T08:27:05Z</time>
      </trkpt>
      <trkpt lat="42.88695" lon="0.20448">
        <ele>2109</ele>
        <time>2013-04-07T08:27:07Z</time>
      </trkpt>
      <trkpt lat="42.88694" lon="0.20448">
        <ele>2109</ele>
        <time>2013-04-07T08:27:08Z</time>
      </trkpt>
      <trkpt lat="42.88692" lon="0.20447">
        <ele>2109</ele>
        <time>2013-04-07T08:27:10Z</time>
      </trkpt>
      <trkpt lat="42.88691" lon="0.20446">
        <ele>2109</ele>
        <time>2013-04-07T08:27:11Z</time>
      </trkpt>
      <trkpt lat="42.88689" lon="0.20445">
        <ele>2109</ele>
        <time>2013-04-07T08:27:13Z</time>
      </trkpt>
      <trkpt lat="42.88688" lon="0.20445">
        <ele>2109</ele>
        <time>2013-04-07T08:27:14Z</time>
      </trkpt>
      <trkpt lat="42.88686" lon="0.20444">
        <ele>2109</ele>
        <time>2013-04-07T08:27:16Z</time>
      </trkpt>
      <trkpt lat="42.88684" lon="0.20444">
        <ele>2109</ele>
        <time>2013-04-07T08:27:18Z</time>
      </trkpt>
      <trkpt lat="42.88682" lon="0.20444">
        <ele>2109</ele>
        <time>2013-04-07T08:27:20Z</time>
      </trkpt>
      <trkpt lat="42.8868" lon="0.20444">
        <ele>2109</ele>
        <time>2013-04-07T08:27:22Z</time>
      </trkpt>
      <trkpt lat="42.88679" lon="0.20444">
        <ele>2109</ele>
        <time>2013-04-07T08:27:24Z</time>
      </trkpt>
      <trkpt lat="42.88678" lon="0.20445">
        <ele>2109</ele>
        <time>2013-04-07T08:27:26Z</time>
      </trkpt>
      <trkpt lat="42.88676" lon="0.20446">
        <ele>2109</ele>
        <time>2013-04-07T08:27:28Z</time>
      </trkpt>
      <trkpt lat="42.88675" lon="0.20446">
        <ele>2109</ele>
        <time>2013-04-07T08:27:30Z</time>
      </trkpt>
      <trkpt lat="42.88673" lon="0.20447">
        <ele>2109</ele>
        <time>2013-04-07T08:27:32Z</time>
      </trkpt>
      <trkpt lat="42.88672" lon="0.20447">
        <ele>2109</ele>
        <time>2013-04-07T08:27:34Z</time>
      </trkpt>
      <trkpt lat="42.8867" lon="0.20448">
        <ele>2110</ele>
        <time>2013-04-07T08:27:37Z</time>
      </trkpt>
      <trkpt lat="42.88668" lon="0.20448">
        <ele>2110</ele>
        <time>2013-04-07T08:27:39Z</time>
      </trkpt>
      <trkpt lat="42.88667" lon="0.20449">
        <ele>2110</ele>
        <time>2013-04-07T08:27:41Z</time>
      </trkpt>
      <trkpt lat="42.88665" lon="0.2045">
        <ele>2110</ele>
        <time>2013-04-07T08:27:43Z</time>
      </trkpt>
      <trkpt lat="42.88664" lon="0.2045">
        <ele>2110</ele>
        <time>2013-04-07T08:27:45Z</time>
      </trkpt>
      <trkpt lat="42.88663" lon="0.20451">
        <ele>2110</ele>
        <time>2013-04-07T08:27:47Z</time>
      </trkpt>
      <trkpt lat="42.88661" lon="0.20451">
        <ele>2110</ele>
        <time>2013-04-07T08:27:49Z</time>
      </trkpt>
      <trkpt lat="42.8866" lon="0.20451">
        <ele>2110</ele>
        <time>2013-04-07T08:27:51Z</time>
      </trkpt>
      <trkpt lat="42.88659" lon="0.20451">
        <ele>2110</ele>
        <time>2013-04-07T08:27:53Z</time>
      </trkpt>
      <trkpt lat="42.88657" lon="0.20451">
        <ele>2110</ele>
        <time>2013-04-07T08:27:55Z</time>
      </trkpt>
      <trkpt lat="42.88655" lon="0.2045">
        <ele>2110</ele>
        <time>2013-04-07T08:27:57Z</time>
      </trkpt>
      <trkpt lat="42.88654" lon="0.2045">
        <ele>2110</ele>
        <time>2013-04-07T08:27:59Z</time>
      </trkpt>
      <trkpt lat="42.88652" lon="0.2045">
        <ele>2110</ele>
        <time>2013-04-07T08:28:01Z</time>
      </trkpt>
      <trkpt lat="42.88651" lon="0.2045">
        <ele>2110</ele>
        <time>2013-04-07T08:28:03Z</time>
      </trkpt>
      <trkpt lat="42.88649" lon="0.20449">
        <ele>2110</ele>
        <time>2013-04-07T08:28:05Z</time>
      </trkpt>
      <trkpt lat="42.88647" lon="0.20449">
        <ele>2110</ele>
        <time>2013-04-07T08:28:07Z</time>
      </trkpt>
      <trkpt lat="42.88646" lon="0.20449">
        <ele>2110</ele>
        <time>2013-04-07T08:28:09Z</time>
      </trkpt>
      <trkpt lat="42.88644" lon="0.20448">
        <ele>2110</ele>
        <time>2013-04-07T08:28:11Z</time>
      </trkpt>
      <trkpt lat="42.88642" lon="0.20448">
        <ele>2110</ele>
        <time>2013-04-07T08:28:13Z</time>
      </trkpt>
      <trkpt lat="42.88641" lon="0.20448">
        <ele>2110</ele>
        <time>2013-04-07T08:28:15Z</time>
      </trkpt>
      <trkpt lat="42.88639" lon="0.20448">
        <ele>2110</ele>
        <time>2013-04-07T08:28:17Z</time>
      </trkpt>
      <trkpt lat="42.88638" lon="0.20448">
        <ele>2110</ele>
        <time>2013-04-07T08:28:19Z</time>
      </trkpt>
      <trkpt lat="42.88636" lon="0.20448">
        <ele>2110</ele>
        <time>2013-04-07T08:28:21Z</time>
      </trkpt>
      <trkpt lat="42.88635" lon="0.20448">
        <ele>2110</ele>
        <time>2013-04-07T08:28:23Z</time>
      </trkpt>
      <trkpt lat="42.88633" lon="0.20448">
        <ele>2110</ele>
        <time>2013-04-07T08:28:25Z</time>
      </trkpt>
      <trkpt lat="42.88632" lon="0.20448">
        <ele>2110</ele>
        <time>2013-04-07T08:28:27Z</time>
      </trkpt>
      <trkpt lat="42.8863" lon="0.20449">
        <ele>2110</ele>
        <time>2013-04-07T08:28:29Z</time>
      </trkpt>
      <trkpt lat="42.88629" lon="0.20449">
        <ele>2110</ele>
        <time>2013-04-07T08:28:31Z</time>
      </trkpt>
      <trkpt lat="42.88627" lon="0.20449">
        <ele>2110</ele>
        <time>2013-04-07T08:28:33Z</time>
      </trkpt>
      <trkpt lat="42.88626" lon="0.2045">
        <ele>2110</ele>
        <time>2013-04-07T08:28:35Z</time>
      </trkpt>
      <trkpt lat="42.88624" lon="0.2045">
        <ele>2110</ele>
        <time>2013-04-07T08:28:37Z</time>
      </trkpt>
      <trkpt lat="42.88622" lon="0.2045">
        <ele>2110</ele>
        <time>2013-04-07T08:28:39Z</time>
      </trkpt>
      <trkpt lat="42.88621" lon="0.20451">
        <ele>2110</ele>
        <time>2013-04-07T08:28:40Z</time>
      </trkpt>
      <trkpt lat="42.88619" lon="0.20452">
        <ele>2110</ele>
        <time>2013-04-07T08:28:41Z</time>
      </trkpt>
      <trkpt lat="42.88618" lon="0.20452">
        <ele>2110</ele>
        <time>2013-04-07T08:28:42Z</time>
      </trkpt>
      <trkpt lat="42.88616" lon="0.20452">
        <ele>2110</ele>
        <time>2013-04-07T08:28:43Z</time>
      </trkpt>
      <trkpt lat="42.88615" lon="0.20453">
        <ele>2110</ele>
        <time>2013-04-07T08:28:45Z</time>
      </trkpt>
      <trkpt lat="42.88613" lon="0.20453">
        <ele>2110</ele>
        <time>2013-04-07T08:28:47Z</time>
      </trkpt>
      <trkpt lat="42.88611" lon="0.20453">
        <ele>2110</ele>
        <time>2013-04-07T08:28:49Z</time>
      </trkpt>
      <trkpt lat="42.88609" lon="0.20454">
        <ele>2110</ele>
        <time>2013-04-07T08:28:51Z</time>
      </trkpt>
      <trkpt lat="42.88608" lon="0.20454">
        <ele>2110</ele>
        <time>2013-04-07T08:28:53Z</time>
      </trkpt>
      <trkpt lat="42.88606" lon="0.20455">
        <ele>2110</ele>
        <time>2013-04-07T08:28:55Z</time>
      </trkpt>
      <trkpt lat="42.88605" lon="0.20456">
        <ele>2110</ele>
        <time>2013-04-07T08:28:57Z</time>
      </trkpt>
      <trkpt lat="42.88604" lon="0.20457">
        <ele>2110</ele>
        <time>2013-04-07T08:28:59Z</time>
      </trkpt>
      <trkpt lat="42.88602" lon="0.20458">
        <ele>2110</ele>
        <time>2013-04-07T08:29:01Z</time>
      </trkpt>
      <trkpt lat="42.88601" lon="0.20459">
        <ele>2110</ele>
        <time>2013-04-07T08:29:03Z</time>
      </trkpt>
      <trkpt lat="42.886" lon="0.2046">
        <ele>2110</ele>
        <time>2013-04-07T08:29:05Z</time>
      </trkpt>
      <trkpt lat="42.88598" lon="0.20461">
        <ele>2110</ele>
        <time>2013-04-07T08:29:07Z</time>
      </trkpt>
      <trkpt lat="42.88597" lon="0.20462">
        <ele>2110</ele>
        <time>2013-04-07T08:29:09Z</time>
      </trkpt>
      <trkpt lat="42.88596" lon="0.20463">
        <ele>2111</ele>
        <time>2013-04-07T08:29:11Z</time>
      </trkpt>
      <trkpt lat="42.88594" lon="0.20464">
        <ele>2111</ele>
        <time>2013-04-07T08:29:13Z</time>
      </trkpt>
      <trkpt lat="42.88593" lon="0.20465">
        <ele>2111</ele>
        <time>2013-04-07T08:29:15Z</time>
      </trkpt>
      <trkpt lat="42.88592" lon="0.20466">
        <ele>2111</ele>
        <time>2013-04-07T08:29:17Z</time>
      </trkpt>
      <trkpt lat="42.8859" lon="0.20467">
        <ele>2111</ele>
        <time>2013-04-07T08:29:19Z</time>
      </trkpt>
      <trkpt lat="42.88589" lon="0.20468">
        <ele>2111</ele>
        <time>2013-04-07T08:29:21Z</time>
      </trkpt>
      <trkpt lat="42.88588" lon="0.20469">
        <ele>2112</ele>
        <time>2013-04-07T08:29:23Z</time>
      </trkpt>
      <trkpt lat="42.88586" lon="0.2047">
        <ele>2112</ele>
        <time>2013-04-07T08:29:25Z</time>
      </trkpt>
      <trkpt lat="42.88585" lon="0.20471">
        <ele>2113</ele>
        <time>2013-04-07T08:29:27Z</time>
      </trkpt>
      <trkpt lat="42.88583" lon="0.20472">
        <ele>2113</ele>
        <time>2013-04-07T08:29:29Z</time>
      </trkpt>
      <trkpt lat="42.88582" lon="0.20472">
        <ele>2114</ele>
        <time>2013-04-07T08:29:31Z</time>
      </trkpt>
      <trkpt lat="42.88581" lon="0.20473">
        <ele>2114</ele>
        <time>2013-04-07T08:29:33Z</time>
      </trkpt>
      <trkpt lat="42.8858" lon="0.20474">
        <ele>2114</ele>
        <time>2013-04-07T08:29:35Z</time>
      </trkpt>
      <trkpt lat="42.88578" lon="0.20474">
        <ele>2114</ele>
        <time>2013-04-07T08:29:37Z</time>
      </trkpt>
      <trkpt lat="42.88577" lon="0.20475">
        <ele>2115</ele>
        <time>2013-04-07T08:29:39Z</time>
      </trkpt>
      <trkpt lat="42.88576" lon="0.20476">
        <ele>2115</ele>
        <time>2013-04-07T08:29:42Z</time>
      </trkpt>
      <trkpt lat="42.88574" lon="0.20477">
        <ele>2116</ele>
        <time>2013-04-07T08:29:45Z</time>
      </trkpt>
      <trkpt lat="42.88573" lon="0.20478">
        <ele>2116</ele>
        <time>2013-04-07T08:29:48Z</time>
      </trkpt>
      <trkpt lat="42.88571" lon="0.20478">
        <ele>2116</ele>
        <time>2013-04-07T08:29:50Z</time>
      </trkpt>
      <trkpt lat="42.8857" lon="0.20479">
        <ele>2117</ele>
        <time>2013-04-07T08:29:52Z</time>
      </trkpt>
      <trkpt lat="42.88568" lon="0.2048">
        <ele>2117</ele>
        <time>2013-04-07T08:29:55Z</time>
      </trkpt>
      <trkpt lat="42.88567" lon="0.20481">
        <ele>2117</ele>
        <time>2013-04-07T08:29:58Z</time>
      </trkpt>
      <trkpt lat="42.88566" lon="0.20482">
        <ele>2117</ele>
        <time>2013-04-07T08:30:00Z</time>
      </trkpt>
      <trkpt lat="42.88565" lon="0.20482">
        <ele>2118</ele>
        <time>2013-04-07T08:30:02Z</time>
      </trkpt>
      <trkpt lat="42.88563" lon="0.20483">
        <ele>2118</ele>
        <time>2013-04-07T08:30:05Z</time>
      </trkpt>
      <trkpt lat="42.88562" lon="0.20484">
        <ele>2118</ele>
        <time>2013-04-07T08:30:09Z</time>
      </trkpt>
      <trkpt lat="42.8856" lon="0.20484">
        <ele>2119</ele>
        <time>2013-04-07T08:30:12Z</time>
      </trkpt>
      <trkpt lat="42.88559" lon="0.20485">
        <ele>2119</ele>
        <time>2013-04-07T08:30:15Z</time>
      </trkpt>
      <trkpt lat="42.88558" lon="0.20485">
        <ele>2119</ele>
        <time>2013-04-07T08:30:18Z</time>
      </trkpt>
      <trkpt lat="42.88556" lon="0.20486">
        <ele>2120</ele>
        <time>2013-04-07T08:30:21Z</time>
      </trkpt>
      <trkpt lat="42.88555" lon="0.20487">
        <ele>2121</ele>
        <time>2013-04-07T08:30:24Z</time>
      </trkpt>
      <trkpt lat="42.88554" lon="0.20488">
        <ele>2121</ele>
        <time>2013-04-07T08:30:27Z</time>
      </trkpt>
      <trkpt lat="42.88552" lon="0.20489">
        <ele>2121</ele>
        <time>2013-04-07T08:30:30Z</time>
      </trkpt>
      <trkpt lat="42.88551" lon="0.2049">
        <ele>2122</ele>
        <time>2013-04-07T08:30:33Z</time>
      </trkpt>
      <trkpt lat="42.8855" lon="0.20491">
        <ele>2122</ele>
        <time>2013-04-07T08:30:36Z</time>
      </trkpt>
      <trkpt lat="42.88549" lon="0.20491">
        <ele>2122</ele>
        <time>2013-04-07T08:30:38Z</time>
      </trkpt>
      <trkpt lat="42.88547" lon="0.20492">
        <ele>2123</ele>
        <time>2013-04-07T08:30:41Z</time>
      </trkpt>
      <trkpt lat="42.88546" lon="0.20494">
        <ele>2124</ele>
        <time>2013-04-07T08:30:48Z</time>
      </trkpt>
      <trkpt lat="42.88545" lon="0.20494">
        <ele>2124</ele>
        <time>2013-04-07T08:30:50Z</time>
      </trkpt>
      <trkpt lat="42.88543" lon="0.20495">
        <ele>2125</ele>
        <time>2013-04-07T08:30:52Z</time>
      </trkpt>
      <trkpt lat="42.88542" lon="0.20495">
        <ele>2125</ele>
        <time>2013-04-07T08:30:54Z</time>
      </trkpt>
      <trkpt lat="42.88541" lon="0.20495">
        <ele>2125</ele>
        <time>2013-04-07T08:30:56Z</time>
      </trkpt>
      <trkpt lat="42.88539" lon="0.20496">
        <ele>2125</ele>
        <time>2013-04-07T08:30:58Z</time>
      </trkpt>
      <trkpt lat="42.88538" lon="0.20496">
        <ele>2125</ele>
        <time>2013-04-07T08:31:00Z</time>
      </trkpt>
      <trkpt lat="42.88536" lon="0.20497">
        <ele>2125</ele>
        <time>2013-04-07T08:31:03Z</time>
      </trkpt>
      <trkpt lat="42.88535" lon="0.20497">
        <ele>2125</ele>
        <time>2013-04-07T08:31:05Z</time>
      </trkpt>
      <trkpt lat="42.88534" lon="0.20497">
        <ele>2125</ele>
        <time>2013-04-07T08:31:07Z</time>
      </trkpt>
      <trkpt lat="42.88533" lon="0.20497">
        <ele>2125</ele>
        <time>2013-04-07T08:31:10Z</time>
      </trkpt>
      <trkpt lat="42.88531" lon="0.20497">
        <ele>2125</ele>
        <time>2013-04-07T08:31:12Z</time>
      </trkpt>
      <trkpt lat="42.8853" lon="0.20497">
        <ele>2125</ele>
        <time>2013-04-07T08:31:15Z</time>
      </trkpt>
      <trkpt lat="42.88528" lon="0.20497">
        <ele>2126</ele>
        <time>2013-04-07T08:31:17Z</time>
      </trkpt>
      <trkpt lat="42.88527" lon="0.20497">
        <ele>2126</ele>
        <time>2013-04-07T08:31:19Z</time>
      </trkpt>
      <trkpt lat="42.88525" lon="0.20497">
        <ele>2126</ele>
        <time>2013-04-07T08:31:21Z</time>
      </trkpt>
      <trkpt lat="42.88523" lon="0.20497">
        <ele>2126</ele>
        <time>2013-04-07T08:31:23Z</time>
      </trkpt>
      <trkpt lat="42.88522" lon="0.20497">
        <ele>2126</ele>
        <time>2013-04-07T08:31:25Z</time>
      </trkpt>
      <trkpt lat="42.8852" lon="0.20498">
        <ele>2126</ele>
        <time>2013-04-07T08:31:27Z</time>
      </trkpt>
      <trkpt lat="42.88518" lon="0.20498">
        <ele>2126</ele>
        <time>2013-04-07T08:31:29Z</time>
      </trkpt>
      <trkpt lat="42.88516" lon="0.20499">
        <ele>2126</ele>
        <time>2013-04-07T08:31:31Z</time>
      </trkpt>
      <trkpt lat="42.88515" lon="0.20501">
        <ele>2126</ele>
        <time>2013-04-07T08:31:33Z</time>
      </trkpt>
      <trkpt lat="42.88513" lon="0.20502">
        <ele>2126</ele>
        <time>2013-04-07T08:31:35Z</time>
      </trkpt>
      <trkpt lat="42.88511" lon="0.20503">
        <ele>2126</ele>
        <time>2013-04-07T08:31:37Z</time>
      </trkpt>
      <trkpt lat="42.8851" lon="0.20504">
        <ele>2126</ele>
        <time>2013-04-07T08:31:39Z</time>
      </trkpt>
      <trkpt lat="42.88508" lon="0.20506">
        <ele>2126</ele>
        <time>2013-04-07T08:31:41Z</time>
      </trkpt>
      <trkpt lat="42.88506" lon="0.20507">
        <ele>2126</ele>
        <time>2013-04-07T08:31:43Z</time>
      </trkpt>
      <trkpt lat="42.88504" lon="0.20509">
        <ele>2126</ele>
        <time>2013-04-07T08:31:45Z</time>
      </trkpt>
      <trkpt lat="42.88502" lon="0.20511">
        <ele>2126</ele>
        <time>2013-04-07T08:31:47Z</time>
      </trkpt>
      <trkpt lat="42.88501" lon="0.20512">
        <ele>2126</ele>
        <time>2013-04-07T08:31:48Z</time>
      </trkpt>
      <trkpt lat="42.88499" lon="0.20514">
        <ele>2126</ele>
        <time>2013-04-07T08:31:50Z</time>
      </trkpt>
      <trkpt lat="42.88497" lon="0.20516">
        <ele>2126</ele>
        <time>2013-04-07T08:31:52Z</time>
      </trkpt>
      <trkpt lat="42.88496" lon="0.20517">
        <ele>2126</ele>
        <time>2013-04-07T08:31:53Z</time>
      </trkpt>
      <trkpt lat="42.88495" lon="0.20519">
        <ele>2126</ele>
        <time>2013-04-07T08:31:55Z</time>
      </trkpt>
      <trkpt lat="42.88493" lon="0.2052">
        <ele>2126</ele>
        <time>2013-04-07T08:31:57Z</time>
      </trkpt>
      <trkpt lat="42.88492" lon="0.20522">
        <ele>2126</ele>
        <time>2013-04-07T08:31:59Z</time>
      </trkpt>
      <trkpt lat="42.88491" lon="0.20523">
        <ele>2126</ele>
        <time>2013-04-07T08:32:01Z</time>
      </trkpt>
      <trkpt lat="42.8849" lon="0.20524">
        <ele>2127</ele>
        <time>2013-04-07T08:32:03Z</time>
      </trkpt>
      <trkpt lat="42.88489" lon="0.20525">
        <ele>2127</ele>
        <time>2013-04-07T08:32:05Z</time>
      </trkpt>
      <trkpt lat="42.88488" lon="0.20527">
        <ele>2127</ele>
        <time>2013-04-07T08:32:07Z</time>
      </trkpt>
      <trkpt lat="42.88486" lon="0.20528">
        <ele>2128</ele>
        <time>2013-04-07T08:32:09Z</time>
      </trkpt>
      <trkpt lat="42.88485" lon="0.20529">
        <ele>2128</ele>
        <time>2013-04-07T08:32:11Z</time>
      </trkpt>
      <trkpt lat="42.88484" lon="0.20531">
        <ele>2128</ele>
        <time>2013-04-07T08:32:13Z</time>
      </trkpt>
      <trkpt lat="42.88483" lon="0.20532">
        <ele>2128</ele>
        <time>2013-04-07T08:32:15Z</time>
      </trkpt>
      <trkpt lat="42.88481" lon="0.20533">
        <ele>2129</ele>
        <time>2013-04-07T08:32:17Z</time>
      </trkpt>
      <trkpt lat="42.8848" lon="0.20535">
        <ele>2129</ele>
        <time>2013-04-07T08:32:19Z</time>
      </trkpt>
      <trkpt lat="42.88478" lon="0.20536">
        <ele>2129</ele>
        <time>2013-04-07T08:32:21Z</time>
      </trkpt>
      <trkpt lat="42.88477" lon="0.20537">
        <ele>2129</ele>
        <time>2013-04-07T08:32:23Z</time>
      </trkpt>
      <trkpt lat="42.88475" lon="0.20538">
        <ele>2129</ele>
        <time>2013-04-07T08:32:25Z</time>
      </trkpt>
      <trkpt lat="42.88474" lon="0.2054">
        <ele>2129</ele>
        <time>2013-04-07T08:32:27Z</time>
      </trkpt>
      <trkpt lat="42.88472" lon="0.20541">
        <ele>2129</ele>
        <time>2013-04-07T08:32:29Z</time>
      </trkpt>
      <trkpt lat="42.88471" lon="0.20542">
        <ele>2130</ele>
        <time>2013-04-07T08:32:31Z</time>
      </trkpt>
      <trkpt lat="42.8847" lon="0.20542">
        <ele>2130</ele>
        <time>2013-04-07T08:32:33Z</time>
      </trkpt>
      <trkpt lat="42.88469" lon="0.20543">
        <ele>2131</ele>
        <time>2013-04-07T08:32:35Z</time>
      </trkpt>
      <trkpt lat="42.88467" lon="0.20544">
        <ele>2131</ele>
        <time>2013-04-07T08:32:37Z</time>
      </trkpt>
      <trkpt lat="42.88466" lon="0.20545">
        <ele>2131</ele>
        <time>2013-04-07T08:32:39Z</time>
      </trkpt>
      <trkpt lat="42.88465" lon="0.20546">
        <ele>2131</ele>
        <time>2013-04-07T08:32:41Z</time>
      </trkpt>
      <trkpt lat="42.88464" lon="0.20546">
        <ele>2131</ele>
        <time>2013-04-07T08:32:43Z</time>
      </trkpt>
      <trkpt lat="42.88462" lon="0.20548">
        <ele>2131</ele>
        <time>2013-04-07T08:32:51Z</time>
      </trkpt>
      <trkpt lat="42.8846" lon="0.20548">
        <ele>2131</ele>
        <time>2013-04-07T08:32:53Z</time>
      </trkpt>
      <trkpt lat="42.88459" lon="0.20549">
        <ele>2131</ele>
        <time>2013-04-07T08:32:55Z</time>
      </trkpt>
      <trkpt lat="42.88457" lon="0.2055">
        <ele>2131</ele>
        <time>2013-04-07T08:32:57Z</time>
      </trkpt>
      <trkpt lat="42.88455" lon="0.20551">
        <ele>2131</ele>
        <time>2013-04-07T08:33:13Z</time>
      </trkpt>
      <trkpt lat="42.88454" lon="0.20552">
        <ele>2131</ele>
        <time>2013-04-07T08:33:15Z</time>
      </trkpt>
      <trkpt lat="42.88452" lon="0.20552">
        <ele>2131</ele>
        <time>2013-04-07T08:33:17Z</time>
      </trkpt>
      <trkpt lat="42.88451" lon="0.20553">
        <ele>2131</ele>
        <time>2013-04-07T08:33:19Z</time>
      </trkpt>
      <trkpt lat="42.88449" lon="0.20553">
        <ele>2131</ele>
        <time>2013-04-07T08:33:21Z</time>
      </trkpt>
      <trkpt lat="42.88448" lon="0.20554">
        <ele>2131</ele>
        <time>2013-04-07T08:33:23Z</time>
      </trkpt>
      <trkpt lat="42.88447" lon="0.20555">
        <ele>2131</ele>
        <time>2013-04-07T08:33:25Z</time>
      </trkpt>
      <trkpt lat="42.88446" lon="0.20555">
        <ele>2131</ele>
        <time>2013-04-07T08:33:27Z</time>
      </trkpt>
      <trkpt lat="42.88444" lon="0.20556">
        <ele>2131</ele>
        <time>2013-04-07T08:33:29Z</time>
      </trkpt>
      <trkpt lat="42.88443" lon="0.20556">
        <ele>2131</ele>
        <time>2013-04-07T08:33:31Z</time>
      </trkpt>
      <trkpt lat="42.88441" lon="0.20557">
        <ele>2131</ele>
        <time>2013-04-07T08:33:33Z</time>
      </trkpt>
      <trkpt lat="42.88439" lon="0.20557">
        <ele>2131</ele>
        <time>2013-04-07T08:33:35Z</time>
      </trkpt>
      <trkpt lat="42.88438" lon="0.20557">
        <ele>2131</ele>
        <time>2013-04-07T08:33:37Z</time>
      </trkpt>
      <trkpt lat="42.88436" lon="0.20558">
        <ele>2131</ele>
        <time>2013-04-07T08:33:39Z</time>
      </trkpt>
      <trkpt lat="42.88435" lon="0.20558">
        <ele>2131</ele>
        <time>2013-04-07T08:33:41Z</time>
      </trkpt>
      <trkpt lat="42.88433" lon="0.20559">
        <ele>2131</ele>
        <time>2013-04-07T08:33:43Z</time>
      </trkpt>
      <trkpt lat="42.88432" lon="0.20559">
        <ele>2131</ele>
        <time>2013-04-07T08:33:45Z</time>
      </trkpt>
      <trkpt lat="42.8843" lon="0.20559">
        <ele>2132</ele>
        <time>2013-04-07T08:33:47Z</time>
      </trkpt>
      <trkpt lat="42.88429" lon="0.2056">
        <ele>2132</ele>
        <time>2013-04-07T08:33:49Z</time>
      </trkpt>
      <trkpt lat="42.88428" lon="0.2056">
        <ele>2132</ele>
        <time>2013-04-07T08:33:51Z</time>
      </trkpt>
      <trkpt lat="42.88426" lon="0.2056">
        <ele>2132</ele>
        <time>2013-04-07T08:33:53Z</time>
      </trkpt>
      <trkpt lat="42.88424" lon="0.2056">
        <ele>2133</ele>
        <time>2013-04-07T08:33:56Z</time>
      </trkpt>
      <trkpt lat="42.88423" lon="0.2056">
        <ele>2133</ele>
        <time>2013-04-07T08:33:58Z</time>
      </trkpt>
      <trkpt lat="42.88422" lon="0.20561">
        <ele>2133</ele>
        <time>2013-04-07T08:34:00Z</time>
      </trkpt>
      <trkpt lat="42.8842" lon="0.20561">
        <ele>2134</ele>
        <time>2013-04-07T08:34:02Z</time>
      </trkpt>
      <trkpt lat="42.88419" lon="0.20561">
        <ele>2134</ele>
        <time>2013-04-07T08:34:05Z</time>
      </trkpt>
      <trkpt lat="42.88418" lon="0.20561">
        <ele>2134</ele>
        <time>2013-04-07T08:34:07Z</time>
      </trkpt>
      <trkpt lat="42.88416" lon="0.20561">
        <ele>2135</ele>
        <time>2013-04-07T08:34:10Z</time>
      </trkpt>
      <trkpt lat="42.88415" lon="0.20561">
        <ele>2135</ele>
        <time>2013-04-07T08:34:12Z</time>
      </trkpt>
      <trkpt lat="42.88413" lon="0.20561">
        <ele>2135</ele>
        <time>2013-04-07T08:34:15Z</time>
      </trkpt>
      <trkpt lat="42.88412" lon="0.20562">
        <ele>2135</ele>
        <time>2013-04-07T08:34:17Z</time>
      </trkpt>
      <trkpt lat="42.88411" lon="0.20562">
        <ele>2136</ele>
        <time>2013-04-07T08:34:20Z</time>
      </trkpt>
      <trkpt lat="42.88409" lon="0.20562">
        <ele>2136</ele>
        <time>2013-04-07T08:34:22Z</time>
      </trkpt>
      <trkpt lat="42.88408" lon="0.20562">
        <ele>2136</ele>
        <time>2013-04-07T08:34:24Z</time>
      </trkpt>
      <trkpt lat="42.88407" lon="0.20562">
        <ele>2137</ele>
        <time>2013-04-07T08:34:26Z</time>
      </trkpt>
      <trkpt lat="42.88405" lon="0.20562">
        <ele>2137</ele>
        <time>2013-04-07T08:34:29Z</time>
      </trkpt>
      <trkpt lat="42.88404" lon="0.20562">
        <ele>2137</ele>
        <time>2013-04-07T08:34:31Z</time>
      </trkpt>
      <trkpt lat="42.88403" lon="0.20562">
        <ele>2137</ele>
        <time>2013-04-07T08:34:33Z</time>
      </trkpt>
      <trkpt lat="42.88401" lon="0.20562">
        <ele>2138</ele>
        <time>2013-04-07T08:34:36Z</time>
      </trkpt>
      <trkpt lat="42.884" lon="0.20562">
        <ele>2138</ele>
        <time>2013-04-07T08:34:38Z</time>
      </trkpt>
      <trkpt lat="42.88399" lon="0.20562">
        <ele>2138</ele>
        <time>2013-04-07T08:34:42Z</time>
      </trkpt>
      <trkpt lat="42.884" lon="0.20563">
        <ele>2139</ele>
        <time>2013-04-07T08:34:59Z</time>
      </trkpt>
      <trkpt lat="42.88401" lon="0.20562">
        <ele>2139</ele>
        <time>2013-04-07T08:35:02Z</time>
      </trkpt>
      <trkpt lat="42.88403" lon="0.20561">
        <ele>2139</ele>
        <time>2013-04-07T08:35:04Z</time>
      </trkpt>
      <trkpt lat="42.88405" lon="0.2056">
        <ele>2139</ele>
        <time>2013-04-07T08:35:07Z</time>
      </trkpt>
      <trkpt lat="42.88406" lon="0.20559">
        <ele>2140</ele>
        <time>2013-04-07T08:35:10Z</time>
      </trkpt>
      <trkpt lat="42.88407" lon="0.20558">
        <ele>2140</ele>
        <time>2013-04-07T08:35:15Z</time>
      </trkpt>
      <trkpt lat="42.88409" lon="0.20557">
        <ele>2140</ele>
        <time>2013-04-07T08:35:19Z</time>
      </trkpt>
      <trkpt lat="42.8841" lon="0.20555">
        <ele>2141</ele>
        <time>2013-04-07T08:35:22Z</time>
      </trkpt>
      <trkpt lat="42.88411" lon="0.20553">
        <ele>2142</ele>
        <time>2013-04-07T08:35:26Z</time>
      </trkpt>
      <trkpt lat="42.88411" lon="0.20551">
        <ele>2142</ele>
        <time>2013-04-07T08:35:29Z</time>
      </trkpt>
      <trkpt lat="42.88412" lon="0.2055">
        <ele>2143</ele>
        <time>2013-04-07T08:35:32Z</time>
      </trkpt>
      <trkpt lat="42.88414" lon="0.20548">
        <ele>2144</ele>
        <time>2013-04-07T08:35:39Z</time>
      </trkpt>
      <trkpt lat="42.88415" lon="0.20547">
        <ele>2144</ele>
        <time>2013-04-07T08:35:42Z</time>
      </trkpt>
      <trkpt lat="42.88416" lon="0.20545">
        <ele>2145</ele>
        <time>2013-04-07T08:35:45Z</time>
      </trkpt>
      <trkpt lat="42.88416" lon="0.20544">
        <ele>2146</ele>
        <time>2013-04-07T08:35:48Z</time>
      </trkpt>
      <trkpt lat="42.88417" lon="0.20542">
        <ele>2146</ele>
        <time>2013-04-07T08:35:51Z</time>
      </trkpt>
      <trkpt lat="42.88417" lon="0.2054">
        <ele>2148</ele>
        <time>2013-04-07T08:36:10Z</time>
      </trkpt>
      <trkpt lat="42.88418" lon="0.20538">
        <ele>2148</ele>
        <time>2013-04-07T08:36:13Z</time>
      </trkpt>
      <trkpt lat="42.88419" lon="0.20537">
        <ele>2149</ele>
        <time>2013-04-07T08:36:16Z</time>
      </trkpt>
      <trkpt lat="42.88419" lon="0.20535">
        <ele>2150</ele>
        <time>2013-04-07T08:36:19Z</time>
      </trkpt>
      <trkpt lat="42.8842" lon="0.20533">
        <ele>2150</ele>
        <time>2013-04-07T08:36:22Z</time>
      </trkpt>
      <trkpt lat="42.88421" lon="0.20531">
        <ele>2151</ele>
        <time>2013-04-07T08:36:24Z</time>
      </trkpt>
      <trkpt lat="42.88422" lon="0.20529">
        <ele>2151</ele>
        <time>2013-04-07T08:36:27Z</time>
      </trkpt>
      <trkpt lat="42.88423" lon="0.20528">
        <ele>2151</ele>
        <time>2013-04-07T08:36:30Z</time>
      </trkpt>
      <trkpt lat="42.88424" lon="0.20526">
        <ele>2151</ele>
        <time>2013-04-07T08:36:35Z</time>
      </trkpt>
      <trkpt lat="42.88425" lon="0.20525">
        <ele>2151</ele>
        <time>2013-04-07T08:36:38Z</time>
      </trkpt>
      <trkpt lat="42.88425" lon="0.20523">
        <ele>2151</ele>
        <time>2013-04-07T08:36:40Z</time>
      </trkpt>
      <trkpt lat="42.88425" lon="0.20521">
        <ele>2151</ele>
        <time>2013-04-07T08:36:44Z</time>
      </trkpt>
      <trkpt lat="42.88425" lon="0.2052">
        <ele>2151</ele>
        <time>2013-04-07T08:36:46Z</time>
      </trkpt>
      <trkpt lat="42.88426" lon="0.20518">
        <ele>2152</ele>
        <time>2013-04-07T08:36:49Z</time>
      </trkpt>
      <trkpt lat="42.88426" lon="0.20516">
        <ele>2152</ele>
        <time>2013-04-07T08:36:51Z</time>
      </trkpt>
      <trkpt lat="42.88426" lon="0.20515">
        <ele>2152</ele>
        <time>2013-04-07T08:36:54Z</time>
      </trkpt>
      <trkpt lat="42.88426" lon="0.20513">
        <ele>2152</ele>
        <time>2013-04-07T08:36:57Z</time>
      </trkpt>
      <trkpt lat="42.88427" lon="0.20512">
        <ele>2152</ele>
        <time>2013-04-07T08:37:00Z</time>
      </trkpt>
      <trkpt lat="42.88427" lon="0.20509">
        <ele>2153</ele>
        <time>2013-04-07T08:37:03Z</time>
      </trkpt>
      <trkpt lat="42.88427" lon="0.20508">
        <ele>2153</ele>
        <time>2013-04-07T08:37:05Z</time>
      </trkpt>
      <trkpt lat="42.88427" lon="0.20506">
        <ele>2153</ele>
        <time>2013-04-07T08:37:08Z</time>
      </trkpt>
      <trkpt lat="42.88427" lon="0.20504">
        <ele>2154</ele>
        <time>2013-04-07T08:37:11Z</time>
      </trkpt>
      <trkpt lat="42.88427" lon="0.20503">
        <ele>2155</ele>
        <time>2013-04-07T08:37:14Z</time>
      </trkpt>
      <trkpt lat="42.88428" lon="0.20501">
        <ele>2157</ele>
        <time>2013-04-07T08:37:17Z</time>
      </trkpt>
      <trkpt lat="42.88428" lon="0.20499">
        <ele>2157</ele>
        <time>2013-04-07T08:37:20Z</time>
      </trkpt>
      <trkpt lat="42.88429" lon="0.20497">
        <ele>2158</ele>
        <time>2013-04-07T08:37:23Z</time>
      </trkpt>
      <trkpt lat="42.88429" lon="0.20495">
        <ele>2158</ele>
        <time>2013-04-07T08:37:25Z</time>
      </trkpt>
      <trkpt lat="42.8843" lon="0.20493">
        <ele>2158</ele>
        <time>2013-04-07T08:37:28Z</time>
      </trkpt>
      <trkpt lat="42.8843" lon="0.20492">
        <ele>2158</ele>
        <time>2013-04-07T08:37:45Z</time>
      </trkpt>
      <trkpt lat="42.88429" lon="0.20491">
        <ele>2158</ele>
        <time>2013-04-07T08:37:49Z</time>
      </trkpt>
      <trkpt lat="42.88427" lon="0.20492">
        <ele>2158</ele>
        <time>2013-04-07T08:37:52Z</time>
      </trkpt>
      <trkpt lat="42.88425" lon="0.20493">
        <ele>2158</ele>
        <time>2013-04-07T08:37:55Z</time>
      </trkpt>
      <trkpt lat="42.88424" lon="0.20494">
        <ele>2158</ele>
        <time>2013-04-07T08:37:58Z</time>
      </trkpt>
      <trkpt lat="42.88422" lon="0.20495">
        <ele>2158</ele>
        <time>2013-04-07T08:38:05Z</time>
      </trkpt>
      <trkpt lat="42.88421" lon="0.20496">
        <ele>2158</ele>
        <time>2013-04-07T08:38:07Z</time>
      </trkpt>
      <trkpt lat="42.88419" lon="0.20496">
        <ele>2158</ele>
        <time>2013-04-07T08:38:09Z</time>
      </trkpt>
      <trkpt lat="42.88418" lon="0.20497">
        <ele>2159</ele>
        <time>2013-04-07T08:38:12Z</time>
      </trkpt>
      <trkpt lat="42.88416" lon="0.20497">
        <ele>2160</ele>
        <time>2013-04-07T08:38:15Z</time>
      </trkpt>
      <trkpt lat="42.88415" lon="0.20499">
        <ele>2161</ele>
        <time>2013-04-07T08:38:20Z</time>
      </trkpt>
      <trkpt lat="42.88414" lon="0.20501">
        <ele>2161</ele>
        <time>2013-04-07T08:38:24Z</time>
      </trkpt>
      <trkpt lat="42.88412" lon="0.20501">
        <ele>2162</ele>
        <time>2013-04-07T08:38:29Z</time>
      </trkpt>
      <trkpt lat="42.88411" lon="0.20502">
        <ele>2163</ele>
        <time>2013-04-07T08:38:49Z</time>
      </trkpt>
      <trkpt lat="42.8841" lon="0.20503">
        <ele>2163</ele>
        <time>2013-04-07T08:38:58Z</time>
      </trkpt>
      <trkpt lat="42.88411" lon="0.20502">
        <ele>2163</ele>
        <time>2013-04-07T08:39:06Z</time>
      </trkpt>
      <trkpt lat="42.88411" lon="0.205">
        <ele>2163</ele>
        <time>2013-04-07T08:39:09Z</time>
      </trkpt>
      <trkpt lat="42.88411" lon="0.20498">
        <ele>2163</ele>
        <time>2013-04-07T08:39:12Z</time>
      </trkpt>
      <trkpt lat="42.88412" lon="0.20496">
        <ele>2163</ele>
        <time>2013-04-07T08:39:15Z</time>
      </trkpt>
      <trkpt lat="42.88412" lon="0.20494">
        <ele>2163</ele>
        <time>2013-04-07T08:39:18Z</time>
      </trkpt>
      <trkpt lat="42.88412" lon="0.20492">
        <ele>2163</ele>
        <time>2013-04-07T08:39:20Z</time>
      </trkpt>
      <trkpt lat="42.88412" lon="0.20491">
        <ele>2163</ele>
        <time>2013-04-07T08:39:22Z</time>
      </trkpt>
      <trkpt lat="42.88412" lon="0.20489">
        <ele>2164</ele>
        <time>2013-04-07T08:39:24Z</time>
      </trkpt>
      <trkpt lat="42.88412" lon="0.20486">
        <ele>2164</ele>
        <time>2013-04-07T08:39:27Z</time>
      </trkpt>
      <trkpt lat="42.88412" lon="0.20484">
        <ele>2164</ele>
        <time>2013-04-07T08:39:29Z</time>
      </trkpt>
      <trkpt lat="42.88412" lon="0.20482">
        <ele>2165</ele>
        <time>2013-04-07T08:39:32Z</time>
      </trkpt>
      <trkpt lat="42.88413" lon="0.2048">
        <ele>2167</ele>
        <time>2013-04-07T08:39:39Z</time>
      </trkpt>
      <trkpt lat="42.88413" lon="0.20478">
        <ele>2167</ele>
        <time>2013-04-07T08:39:41Z</time>
      </trkpt>
      <trkpt lat="42.88413" lon="0.20476">
        <ele>2167</ele>
        <time>2013-04-07T08:39:43Z</time>
      </trkpt>
      <trkpt lat="42.88413" lon="0.20475">
        <ele>2167</ele>
        <time>2013-04-07T08:39:45Z</time>
      </trkpt>
      <trkpt lat="42.88413" lon="0.20473">
        <ele>2167</ele>
        <time>2013-04-07T08:39:47Z</time>
      </trkpt>
      <trkpt lat="42.88413" lon="0.20471">
        <ele>2167</ele>
        <time>2013-04-07T08:39:49Z</time>
      </trkpt>
      <trkpt lat="42.88413" lon="0.20469">
        <ele>2167</ele>
        <time>2013-04-07T08:39:51Z</time>
      </trkpt>
      <trkpt lat="42.88413" lon="0.20468">
        <ele>2168</ele>
        <time>2013-04-07T08:39:53Z</time>
      </trkpt>
      <trkpt lat="42.88413" lon="0.20466">
        <ele>2168</ele>
        <time>2013-04-07T08:39:55Z</time>
      </trkpt>
      <trkpt lat="42.88413" lon="0.20464">
        <ele>2168</ele>
        <time>2013-04-07T08:39:57Z</time>
      </trkpt>
      <trkpt lat="42.88412" lon="0.20462">
        <ele>2169</ele>
        <time>2013-04-07T08:39:59Z</time>
      </trkpt>
      <trkpt lat="42.88412" lon="0.20461">
        <ele>2169</ele>
        <time>2013-04-07T08:40:01Z</time>
      </trkpt>
      <trkpt lat="42.88412" lon="0.20459">
        <ele>2170</ele>
        <time>2013-04-07T08:40:03Z</time>
      </trkpt>
      <trkpt lat="42.88412" lon="0.20457">
        <ele>2170</ele>
        <time>2013-04-07T08:40:06Z</time>
      </trkpt>
      <trkpt lat="42.88411" lon="0.20456">
        <ele>2171</ele>
        <time>2013-04-07T08:40:12Z</time>
      </trkpt>
      <trkpt lat="42.8841" lon="0.20457">
        <ele>2171</ele>
        <time>2013-04-07T08:40:19Z</time>
      </trkpt>
      <trkpt lat="42.8841" lon="0.20459">
        <ele>2171</ele>
        <time>2013-04-07T08:40:21Z</time>
      </trkpt>
      <trkpt lat="42.88409" lon="0.20461">
        <ele>2171</ele>
        <time>2013-04-07T08:40:23Z</time>
      </trkpt>
      <trkpt lat="42.88409" lon="0.20462">
        <ele>2171</ele>
        <time>2013-04-07T08:40:25Z</time>
      </trkpt>
      <trkpt lat="42.88407" lon="0.20463">
        <ele>2171</ele>
        <time>2013-04-07T08:40:27Z</time>
      </trkpt>
      <trkpt lat="42.88406" lon="0.20465">
        <ele>2171</ele>
        <time>2013-04-07T08:40:29Z</time>
      </trkpt>
      <trkpt lat="42.88405" lon="0.20467">
        <ele>2171</ele>
        <time>2013-04-07T08:40:32Z</time>
      </trkpt>
      <trkpt lat="42.88404" lon="0.20469">
        <ele>2171</ele>
        <time>2013-04-07T08:40:35Z</time>
      </trkpt>
      <trkpt lat="42.88403" lon="0.20471">
        <ele>2172</ele>
        <time>2013-04-07T08:40:38Z</time>
      </trkpt>
      <trkpt lat="42.88402" lon="0.20472">
        <ele>2172</ele>
        <time>2013-04-07T08:40:40Z</time>
      </trkpt>
      <trkpt lat="42.88401" lon="0.20474">
        <ele>2172</ele>
        <time>2013-04-07T08:42:05Z</time>
      </trkpt>
      <trkpt lat="42.884" lon="0.20476">
        <ele>2172</ele>
        <time>2013-04-07T08:42:08Z</time>
      </trkpt>
      <trkpt lat="42.88399" lon="0.20478">
        <ele>2172</ele>
        <time>2013-04-07T08:42:11Z</time>
      </trkpt>
      <trkpt lat="42.88398" lon="0.2048">
        <ele>2172</ele>
        <time>2013-04-07T08:42:14Z</time>
      </trkpt>
      <trkpt lat="42.88397" lon="0.20482">
        <ele>2172</ele>
        <time>2013-04-07T08:42:17Z</time>
      </trkpt>
      <trkpt lat="42.88396" lon="0.20483">
        <ele>2172</ele>
        <time>2013-04-07T08:42:19Z</time>
      </trkpt>
      <trkpt lat="42.88395" lon="0.20485">
        <ele>2172</ele>
        <time>2013-04-07T08:42:22Z</time>
      </trkpt>
      <trkpt lat="42.88394" lon="0.20487">
        <ele>2172</ele>
        <time>2013-04-07T08:42:25Z</time>
      </trkpt>
      <trkpt lat="42.88393" lon="0.20488">
        <ele>2173</ele>
        <time>2013-04-07T08:42:28Z</time>
      </trkpt>
      <trkpt lat="42.88392" lon="0.2049">
        <ele>2173</ele>
        <time>2013-04-07T08:42:31Z</time>
      </trkpt>
      <trkpt lat="42.88391" lon="0.20492">
        <ele>2174</ele>
        <time>2013-04-07T08:42:34Z</time>
      </trkpt>
      <trkpt lat="42.88391" lon="0.20493">
        <ele>2174</ele>
        <time>2013-04-07T08:42:36Z</time>
      </trkpt>
      <trkpt lat="42.8839" lon="0.20495">
        <ele>2175</ele>
        <time>2013-04-07T08:42:39Z</time>
      </trkpt>
      <trkpt lat="42.88389" lon="0.20496">
        <ele>2175</ele>
        <time>2013-04-07T08:42:43Z</time>
      </trkpt>
      <trkpt lat="42.88388" lon="0.20498">
        <ele>2176</ele>
        <time>2013-04-07T08:42:47Z</time>
      </trkpt>
      <trkpt lat="42.88387" lon="0.205">
        <ele>2176</ele>
        <time>2013-04-07T08:42:50Z</time>
      </trkpt>
      <trkpt lat="42.88386" lon="0.20501">
        <ele>2177</ele>
        <time>2013-04-07T08:42:56Z</time>
      </trkpt>
      <trkpt lat="42.88385" lon="0.20499">
        <ele>2178</ele>
        <time>2013-04-07T08:43:00Z</time>
      </trkpt>
      <trkpt lat="42.88385" lon="0.20497">
        <ele>2178</ele>
        <time>2013-04-07T08:43:02Z</time>
      </trkpt>
      <trkpt lat="42.88385" lon="0.20495">
        <ele>2179</ele>
        <time>2013-04-07T08:43:04Z</time>
      </trkpt>
      <trkpt lat="42.88384" lon="0.20494">
        <ele>2179</ele>
        <time>2013-04-07T08:43:06Z</time>
      </trkpt>
      <trkpt lat="42.88384" lon="0.20492">
        <ele>2179</ele>
        <time>2013-04-07T08:43:08Z</time>
      </trkpt>
      <trkpt lat="42.88383" lon="0.20491">
        <ele>2180</ele>
        <time>2013-04-07T08:43:10Z</time>
      </trkpt>
      <trkpt lat="42.88383" lon="0.20489">
        <ele>2180</ele>
        <time>2013-04-07T08:43:13Z</time>
      </trkpt>
      <trkpt lat="42.88382" lon="0.20487">
        <ele>2181</ele>
        <time>2013-04-07T08:43:15Z</time>
      </trkpt>
      <trkpt lat="42.88382" lon="0.20486">
        <ele>2181</ele>
        <time>2013-04-07T08:43:17Z</time>
      </trkpt>
      <trkpt lat="42.88382" lon="0.20484">
        <ele>2182</ele>
        <time>2013-04-07T08:43:20Z</time>
      </trkpt>
      <trkpt lat="42.88381" lon="0.20482">
        <ele>2182</ele>
        <time>2013-04-07T08:43:23Z</time>
      </trkpt>
      <trkpt lat="42.88381" lon="0.20481">
        <ele>2182</ele>
        <time>2013-04-07T08:43:25Z</time>
      </trkpt>
      <trkpt lat="42.88381" lon="0.20479">
        <ele>2183</ele>
        <time>2013-04-07T08:43:27Z</time>
      </trkpt>
      <trkpt lat="42.8838" lon="0.20477">
        <ele>2183</ele>
        <time>2013-04-07T08:43:29Z</time>
      </trkpt>
      <trkpt lat="42.8838" lon="0.20476">
        <ele>2183</ele>
        <time>2013-04-07T08:43:31Z</time>
      </trkpt>
      <trkpt lat="42.8838" lon="0.20473">
        <ele>2183</ele>
        <time>2013-04-07T08:43:34Z</time>
      </trkpt>
      <trkpt lat="42.88379" lon="0.20472">
        <ele>2183</ele>
        <time>2013-04-07T08:43:36Z</time>
      </trkpt>
      <trkpt lat="42.88379" lon="0.2047">
        <ele>2184</ele>
        <time>2013-04-07T08:43:39Z</time>
      </trkpt>
      <trkpt lat="42.88378" lon="0.20469">
        <ele>2184</ele>
        <time>2013-04-07T08:43:41Z</time>
      </trkpt>
      <trkpt lat="42.88378" lon="0.20467">
        <ele>2185</ele>
        <time>2013-04-07T08:43:44Z</time>
      </trkpt>
      <trkpt lat="42.88378" lon="0.20465">
        <ele>2185</ele>
        <time>2013-04-07T08:43:46Z</time>
      </trkpt>
      <trkpt lat="42.88378" lon="0.20463">
        <ele>2186</ele>
        <time>2013-04-07T08:43:50Z</time>
      </trkpt>
      <trkpt lat="42.88376" lon="0.20464">
        <ele>2186</ele>
        <time>2013-04-07T08:43:53Z</time>
      </trkpt>
      <trkpt lat="42.88375" lon="0.20465">
        <ele>2187</ele>
        <time>2013-04-07T08:43:56Z</time>
      </trkpt>
      <trkpt lat="42.88374" lon="0.20467">
        <ele>2188</ele>
        <time>2013-04-07T08:43:58Z</time>
      </trkpt>
      <trkpt lat="42.88374" lon="0.20468">
        <ele>2188</ele>
        <time>2013-04-07T08:44:00Z</time>
      </trkpt>
      <trkpt lat="42.88372" lon="0.2047">
        <ele>2189</ele>
        <time>2013-04-07T08:44:03Z</time>
      </trkpt>
      <trkpt lat="42.88371" lon="0.20472">
        <ele>2189</ele>
        <time>2013-04-07T08:44:06Z</time>
      </trkpt>
      <trkpt lat="42.88371" lon="0.20473">
        <ele>2189</ele>
        <time>2013-04-07T08:44:08Z</time>
      </trkpt>
      <trkpt lat="42.88369" lon="0.20475">
        <ele>2189</ele>
        <time>2013-04-07T08:44:11Z</time>
      </trkpt>
      <trkpt lat="42.88368" lon="0.20477">
        <ele>2189</ele>
        <time>2013-04-07T08:44:14Z</time>
      </trkpt>
      <trkpt lat="42.88367" lon="0.20478">
        <ele>2189</ele>
        <time>2013-04-07T08:44:17Z</time>
      </trkpt>
      <trkpt lat="42.88366" lon="0.2048">
        <ele>2189</ele>
        <time>2013-04-07T08:44:20Z</time>
      </trkpt>
      <trkpt lat="42.88365" lon="0.20481">
        <ele>2189</ele>
        <time>2013-04-07T08:44:23Z</time>
      </trkpt>
      <trkpt lat="42.88363" lon="0.20483">
        <ele>2190</ele>
        <time>2013-04-07T08:44:26Z</time>
      </trkpt>
      <trkpt lat="42.88362" lon="0.20485">
        <ele>2190</ele>
        <time>2013-04-07T08:44:29Z</time>
      </trkpt>
      <trkpt lat="42.88361" lon="0.20487">
        <ele>2190</ele>
        <time>2013-04-07T08:44:32Z</time>
      </trkpt>
      <trkpt lat="42.8836" lon="0.20489">
        <ele>2190</ele>
        <time>2013-04-07T08:44:35Z</time>
      </trkpt>
      <trkpt lat="42.88359" lon="0.20491">
        <ele>2190</ele>
        <time>2013-04-07T08:44:38Z</time>
      </trkpt>
      <trkpt lat="42.88359" lon="0.20493">
        <ele>2190</ele>
        <time>2013-04-07T08:44:41Z</time>
      </trkpt>
      <trkpt lat="42.88358" lon="0.20494">
        <ele>2190</ele>
        <time>2013-04-07T08:44:44Z</time>
      </trkpt>
      <trkpt lat="42.88357" lon="0.20496">
        <ele>2190</ele>
        <time>2013-04-07T08:44:47Z</time>
      </trkpt>
      <trkpt lat="42.88356" lon="0.20498">
        <ele>2191</ele>
        <time>2013-04-07T08:44:50Z</time>
      </trkpt>
      <trkpt lat="42.88355" lon="0.20499">
        <ele>2191</ele>
        <time>2013-04-07T08:44:52Z</time>
      </trkpt>
      <trkpt lat="42.88354" lon="0.20501">
        <ele>2191</ele>
        <time>2013-04-07T08:44:55Z</time>
      </trkpt>
      <trkpt lat="42.88353" lon="0.20503">
        <ele>2191</ele>
        <time>2013-04-07T08:44:58Z</time>
      </trkpt>
      <trkpt lat="42.88352" lon="0.20504">
        <ele>2191</ele>
        <time>2013-04-07T08:45:01Z</time>
      </trkpt>
      <trkpt lat="42.88351" lon="0.20505">
        <ele>2192</ele>
        <time>2013-04-07T08:45:08Z</time>
      </trkpt>
      <trkpt lat="42.88351" lon="0.20504">
        <ele>2192</ele>
        <time>2013-04-07T08:45:14Z</time>
      </trkpt>
      <trkpt lat="42.88351" lon="0.20502">
        <ele>2192</ele>
        <time>2013-04-07T08:45:16Z</time>
      </trkpt>
      <trkpt lat="42.88351" lon="0.205">
        <ele>2192</ele>
        <time>2013-04-07T08:45:18Z</time>
      </trkpt>
      <trkpt lat="42.88351" lon="0.20498">
        <ele>2193</ele>
        <time>2013-04-07T08:45:20Z</time>
      </trkpt>
      <trkpt lat="42.88351" lon="0.20496">
        <ele>2193</ele>
        <time>2013-04-07T08:45:22Z</time>
      </trkpt>
      <trkpt lat="42.88351" lon="0.20495">
        <ele>2193</ele>
        <time>2013-04-07T08:45:25Z</time>
      </trkpt>
      <trkpt lat="42.8835" lon="0.20495">
        <ele>2194</ele>
        <time>2013-04-07T08:45:34Z</time>
      </trkpt>
      <trkpt lat="42.88349" lon="0.20497">
        <ele>2194</ele>
        <time>2013-04-07T08:45:38Z</time>
      </trkpt>
      <trkpt lat="42.88347" lon="0.20498">
        <ele>2195</ele>
        <time>2013-04-07T08:45:41Z</time>
      </trkpt>
      <trkpt lat="42.88346" lon="0.20499">
        <ele>2195</ele>
        <time>2013-04-07T08:45:44Z</time>
      </trkpt>
      <trkpt lat="42.88345" lon="0.205">
        <ele>2195</ele>
        <time>2013-04-07T08:45:47Z</time>
      </trkpt>
      <trkpt lat="42.88343" lon="0.205">
        <ele>2195</ele>
        <time>2013-04-07T08:45:49Z</time>
      </trkpt>
      <trkpt lat="42.88342" lon="0.20501">
        <ele>2196</ele>
        <time>2013-04-07T08:45:51Z</time>
      </trkpt>
      <trkpt lat="42.88341" lon="0.20501">
        <ele>2196</ele>
        <time>2013-04-07T08:45:53Z</time>
      </trkpt>
      <trkpt lat="42.8834" lon="0.20502">
        <ele>2197</ele>
        <time>2013-04-07T08:45:56Z</time>
      </trkpt>
      <trkpt lat="42.88338" lon="0.20502">
        <ele>2197</ele>
        <time>2013-04-07T08:45:59Z</time>
      </trkpt>
      <trkpt lat="42.88337" lon="0.20502">
        <ele>2198</ele>
        <time>2013-04-07T08:46:02Z</time>
      </trkpt>
      <trkpt lat="42.88335" lon="0.20503">
        <ele>2198</ele>
        <time>2013-04-07T08:46:04Z</time>
      </trkpt>
      <trkpt lat="42.88334" lon="0.20503">
        <ele>2199</ele>
        <time>2013-04-07T08:46:07Z</time>
      </trkpt>
      <trkpt lat="42.88335" lon="0.20504">
        <ele>2199</ele>
        <time>2013-04-07T08:46:27Z</time>
      </trkpt>
      <trkpt lat="42.88334" lon="0.20505">
        <ele>2199</ele>
        <time>2013-04-07T08:46:31Z</time>
      </trkpt>
      <trkpt lat="42.88332" lon="0.20505">
        <ele>2199</ele>
        <time>2013-04-07T08:46:33Z</time>
      </trkpt>
      <trkpt lat="42.88331" lon="0.20505">
        <ele>2199</ele>
        <time>2013-04-07T08:46:35Z</time>
      </trkpt>
      <trkpt lat="42.8833" lon="0.20505">
        <ele>2199</ele>
        <time>2013-04-07T08:46:37Z</time>
      </trkpt>
      <trkpt lat="42.88329" lon="0.20506">
        <ele>2199</ele>
        <time>2013-04-07T08:46:39Z</time>
      </trkpt>
      <trkpt lat="42.88327" lon="0.20506">
        <ele>2199</ele>
        <time>2013-04-07T08:46:41Z</time>
      </trkpt>
      <trkpt lat="42.88326" lon="0.20507">
        <ele>2199</ele>
        <time>2013-04-07T08:46:43Z</time>
      </trkpt>
      <trkpt lat="42.88324" lon="0.20507">
        <ele>2199</ele>
        <time>2013-04-07T08:46:45Z</time>
      </trkpt>
      <trkpt lat="42.88322" lon="0.20507">
        <ele>2199</ele>
        <time>2013-04-07T08:46:47Z</time>
      </trkpt>
      <trkpt lat="42.88321" lon="0.20507">
        <ele>2200</ele>
        <time>2013-04-07T08:46:49Z</time>
      </trkpt>
      <trkpt lat="42.88319" lon="0.20507">
        <ele>2200</ele>
        <time>2013-04-07T08:46:51Z</time>
      </trkpt>
      <trkpt lat="42.88318" lon="0.20507">
        <ele>2201</ele>
        <time>2013-04-07T08:46:53Z</time>
      </trkpt>
      <trkpt lat="42.88316" lon="0.20507">
        <ele>2202</ele>
        <time>2013-04-07T08:46:55Z</time>
      </trkpt>
      <trkpt lat="42.88315" lon="0.20507">
        <ele>2202</ele>
        <time>2013-04-07T08:46:57Z</time>
      </trkpt>
      <trkpt lat="42.88313" lon="0.20507">
        <ele>2203</ele>
        <time>2013-04-07T08:47:05Z</time>
      </trkpt>
      <trkpt lat="42.88312" lon="0.20507">
        <ele>2203</ele>
        <time>2013-04-07T08:47:07Z</time>
      </trkpt>
      <trkpt lat="42.8831" lon="0.20507">
        <ele>2203</ele>
        <time>2013-04-07T08:47:09Z</time>
      </trkpt>
      <trkpt lat="42.88308" lon="0.20507">
        <ele>2203</ele>
        <time>2013-04-07T08:47:11Z</time>
      </trkpt>
      <trkpt lat="42.88306" lon="0.20507">
        <ele>2203</ele>
        <time>2013-04-07T08:47:13Z</time>
      </trkpt>
      <trkpt lat="42.88305" lon="0.20507">
        <ele>2203</ele>
        <time>2013-04-07T08:47:15Z</time>
      </trkpt>
      <trkpt lat="42.88303" lon="0.20507">
        <ele>2203</ele>
        <time>2013-04-07T08:47:17Z</time>
      </trkpt>
      <trkpt lat="42.88302" lon="0.20506">
        <ele>2203</ele>
        <time>2013-04-07T08:47:19Z</time>
      </trkpt>
      <trkpt lat="42.883" lon="0.20506">
        <ele>2203</ele>
        <time>2013-04-07T08:47:21Z</time>
      </trkpt>
      <trkpt lat="42.88298" lon="0.20506">
        <ele>2203</ele>
        <time>2013-04-07T08:47:23Z</time>
      </trkpt>
      <trkpt lat="42.88297" lon="0.20506">
        <ele>2203</ele>
        <time>2013-04-07T08:47:25Z</time>
      </trkpt>
      <trkpt lat="42.88295" lon="0.20506">
        <ele>2203</ele>
        <time>2013-04-07T08:47:27Z</time>
      </trkpt>
      <trkpt lat="42.88293" lon="0.20506">
        <ele>2203</ele>
        <time>2013-04-07T08:47:29Z</time>
      </trkpt>
      <trkpt lat="42.88292" lon="0.20507">
        <ele>2203</ele>
        <time>2013-04-07T08:47:31Z</time>
      </trkpt>
      <trkpt lat="42.8829" lon="0.20507">
        <ele>2203</ele>
        <time>2013-04-07T08:47:33Z</time>
      </trkpt>
      <trkpt lat="42.88288" lon="0.20507">
        <ele>2203</ele>
        <time>2013-04-07T08:47:35Z</time>
      </trkpt>
      <trkpt lat="42.88287" lon="0.20506">
        <ele>2203</ele>
        <time>2013-04-07T08:47:37Z</time>
      </trkpt>
      <trkpt lat="42.88285" lon="0.20507">
        <ele>2203</ele>
        <time>2013-04-07T08:47:39Z</time>
      </trkpt>
      <trkpt lat="42.88283" lon="0.20507">
        <ele>2203</ele>
        <time>2013-04-07T08:47:41Z</time>
      </trkpt>
      <trkpt lat="42.88281" lon="0.20507">
        <ele>2203</ele>
        <time>2013-04-07T08:47:43Z</time>
      </trkpt>
      <trkpt lat="42.88279" lon="0.20507">
        <ele>2203</ele>
        <time>2013-04-07T08:47:45Z</time>
      </trkpt>
      <trkpt lat="42.88278" lon="0.20507">
        <ele>2204</ele>
        <time>2013-04-07T08:47:47Z</time>
      </trkpt>
      <trkpt lat="42.88276" lon="0.20507">
        <ele>2204</ele>
        <time>2013-04-07T08:47:49Z</time>
      </trkpt>
      <trkpt lat="42.88274" lon="0.20506">
        <ele>2204</ele>
        <time>2013-04-07T08:47:51Z</time>
      </trkpt>
      <trkpt lat="42.88273" lon="0.20506">
        <ele>2204</ele>
        <time>2013-04-07T08:47:53Z</time>
      </trkpt>
      <trkpt lat="42.88271" lon="0.20505">
        <ele>2204</ele>
        <time>2013-04-07T08:47:55Z</time>
      </trkpt>
      <trkpt lat="42.88269" lon="0.20505">
        <ele>2204</ele>
        <time>2013-04-07T08:47:57Z</time>
      </trkpt>
      <trkpt lat="42.88268" lon="0.20504">
        <ele>2204</ele>
        <time>2013-04-07T08:47:59Z</time>
      </trkpt>
      <trkpt lat="42.88266" lon="0.20503">
        <ele>2204</ele>
        <time>2013-04-07T08:48:01Z</time>
      </trkpt>
      <trkpt lat="42.88265" lon="0.20502">
        <ele>2205</ele>
        <time>2013-04-07T08:48:03Z</time>
      </trkpt>
      <trkpt lat="42.88263" lon="0.20501">
        <ele>2205</ele>
        <time>2013-04-07T08:48:05Z</time>
      </trkpt>
      <trkpt lat="42.88262" lon="0.205">
        <ele>2205</ele>
        <time>2013-04-07T08:48:07Z</time>
      </trkpt>
      <trkpt lat="42.88261" lon="0.20499">
        <ele>2205</ele>
        <time>2013-04-07T08:48:09Z</time>
      </trkpt>
      <trkpt lat="42.88259" lon="0.20497">
        <ele>2205</ele>
        <time>2013-04-07T08:48:11Z</time>
      </trkpt>
      <trkpt lat="42.88258" lon="0.20496">
        <ele>2205</ele>
        <time>2013-04-07T08:48:13Z</time>
      </trkpt>
      <trkpt lat="42.88257" lon="0.20495">
        <ele>2205</ele>
        <time>2013-04-07T08:48:15Z</time>
      </trkpt>
      <trkpt lat="42.88255" lon="0.20494">
        <ele>2206</ele>
        <time>2013-04-07T08:48:17Z</time>
      </trkpt>
      <trkpt lat="42.88254" lon="0.20493">
        <ele>2206</ele>
        <time>2013-04-07T08:48:19Z</time>
      </trkpt>
      <trkpt lat="42.88253" lon="0.20491">
        <ele>2206</ele>
        <time>2013-04-07T08:48:21Z</time>
      </trkpt>
      <trkpt lat="42.88251" lon="0.20489">
        <ele>2207</ele>
        <time>2013-04-07T08:48:24Z</time>
      </trkpt>
      <trkpt lat="42.8825" lon="0.20488">
        <ele>2207</ele>
        <time>2013-04-07T08:48:26Z</time>
      </trkpt>
      <trkpt lat="42.88248" lon="0.20486">
        <ele>2207</ele>
        <time>2013-04-07T08:48:29Z</time>
      </trkpt>
      <trkpt lat="42.88247" lon="0.20485">
        <ele>2207</ele>
        <time>2013-04-07T08:48:31Z</time>
      </trkpt>
      <trkpt lat="42.88246" lon="0.20484">
        <ele>2208</ele>
        <time>2013-04-07T08:48:33Z</time>
      </trkpt>
      <trkpt lat="42.88245" lon="0.20484">
        <ele>2208</ele>
        <time>2013-04-07T08:48:35Z</time>
      </trkpt>
      <trkpt lat="42.88243" lon="0.20483">
        <ele>2208</ele>
        <time>2013-04-07T08:48:37Z</time>
      </trkpt>
      <trkpt lat="42.88242" lon="0.20483">
        <ele>2208</ele>
        <time>2013-04-07T08:48:39Z</time>
      </trkpt>
      <trkpt lat="42.8824" lon="0.20483">
        <ele>2208</ele>
        <time>2013-04-07T08:48:41Z</time>
      </trkpt>
      <trkpt lat="42.88239" lon="0.20484">
        <ele>2208</ele>
        <time>2013-04-07T08:48:43Z</time>
      </trkpt>
      <trkpt lat="42.88237" lon="0.20485">
        <ele>2208</ele>
        <time>2013-04-07T08:48:51Z</time>
      </trkpt>
      <trkpt lat="42.88236" lon="0.20486">
        <ele>2208</ele>
        <time>2013-04-07T08:48:53Z</time>
      </trkpt>
      <trkpt lat="42.88234" lon="0.20486">
        <ele>2208</ele>
        <time>2013-04-07T08:48:55Z</time>
      </trkpt>
      <trkpt lat="42.88233" lon="0.20488">
        <ele>2208</ele>
        <time>2013-04-07T08:48:57Z</time>
      </trkpt>
      <trkpt lat="42.88232" lon="0.20488">
        <ele>2209</ele>
        <time>2013-04-07T08:48:59Z</time>
      </trkpt>
      <trkpt lat="42.88231" lon="0.20489">
        <ele>2209</ele>
        <time>2013-04-07T08:49:01Z</time>
      </trkpt>
      <trkpt lat="42.88229" lon="0.20489">
        <ele>2210</ele>
        <time>2013-04-07T08:49:03Z</time>
      </trkpt>
      <trkpt lat="42.88228" lon="0.20489">
        <ele>2210</ele>
        <time>2013-04-07T08:49:05Z</time>
      </trkpt>
      <trkpt lat="42.88227" lon="0.2049">
        <ele>2211</ele>
        <time>2013-04-07T08:49:08Z</time>
      </trkpt>
      <trkpt lat="42.88226" lon="0.2049">
        <ele>2211</ele>
        <time>2013-04-07T08:49:10Z</time>
      </trkpt>
      <trkpt lat="42.88224" lon="0.2049">
        <ele>2212</ele>
        <time>2013-04-07T08:49:12Z</time>
      </trkpt>
      <trkpt lat="42.88223" lon="0.2049">
        <ele>2212</ele>
        <time>2013-04-07T08:49:14Z</time>
      </trkpt>
      <trkpt lat="42.88222" lon="0.20489">
        <ele>2213</ele>
        <time>2013-04-07T08:49:16Z</time>
      </trkpt>
      <trkpt lat="42.88221" lon="0.20489">
        <ele>2213</ele>
        <time>2013-04-07T08:49:18Z</time>
      </trkpt>
      <trkpt lat="42.8822" lon="0.20489">
        <ele>2214</ele>
        <time>2013-04-07T08:49:20Z</time>
      </trkpt>
      <trkpt lat="42.88219" lon="0.20489">
        <ele>2214</ele>
        <time>2013-04-07T08:49:22Z</time>
      </trkpt>
      <trkpt lat="42.88217" lon="0.20488">
        <ele>2214</ele>
        <time>2013-04-07T08:49:24Z</time>
      </trkpt>
      <trkpt lat="42.88216" lon="0.20488">
        <ele>2215</ele>
        <time>2013-04-07T08:49:26Z</time>
      </trkpt>
      <trkpt lat="42.88214" lon="0.20487">
        <ele>2215</ele>
        <time>2013-04-07T08:49:28Z</time>
      </trkpt>
      <trkpt lat="42.88213" lon="0.20487">
        <ele>2215</ele>
        <time>2013-04-07T08:49:30Z</time>
      </trkpt>
      <trkpt lat="42.88212" lon="0.20486">
        <ele>2216</ele>
        <time>2013-04-07T08:49:32Z</time>
      </trkpt>
      <trkpt lat="42.8821" lon="0.20487">
        <ele>2217</ele>
        <time>2013-04-07T08:49:58Z</time>
      </trkpt>
      <trkpt lat="42.88208" lon="0.20487">
        <ele>2217</ele>
        <time>2013-04-07T08:50:00Z</time>
      </trkpt>
      <trkpt lat="42.88206" lon="0.20487">
        <ele>2217</ele>
        <time>2013-04-07T08:50:02Z</time>
      </trkpt>
      <trkpt lat="42.88205" lon="0.20487">
        <ele>2217</ele>
        <time>2013-04-07T08:50:04Z</time>
      </trkpt>
      <trkpt lat="42.88203" lon="0.20487">
        <ele>2217</ele>
        <time>2013-04-07T08:50:06Z</time>
      </trkpt>
      <trkpt lat="42.88201" lon="0.20487">
        <ele>2217</ele>
        <time>2013-04-07T08:50:08Z</time>
      </trkpt>
      <trkpt lat="42.882" lon="0.20487">
        <ele>2217</ele>
        <time>2013-04-07T08:50:10Z</time>
      </trkpt>
      <trkpt lat="42.88197" lon="0.20488">
        <ele>2217</ele>
        <time>2013-04-07T08:50:12Z</time>
      </trkpt>
      <trkpt lat="42.88196" lon="0.20489">
        <ele>2217</ele>
        <time>2013-04-07T08:50:14Z</time>
      </trkpt>
      <trkpt lat="42.88194" lon="0.20489">
        <ele>2217</ele>
        <time>2013-04-07T08:50:16Z</time>
      </trkpt>
      <trkpt lat="42.88192" lon="0.20489">
        <ele>2217</ele>
        <time>2013-04-07T08:50:18Z</time>
      </trkpt>
      <trkpt lat="42.8819" lon="0.2049">
        <ele>2217</ele>
        <time>2013-04-07T08:50:20Z</time>
      </trkpt>
      <trkpt lat="42.88189" lon="0.20491">
        <ele>2217</ele>
        <time>2013-04-07T08:50:22Z</time>
      </trkpt>
      <trkpt lat="42.88187" lon="0.20492">
        <ele>2217</ele>
        <time>2013-04-07T08:50:24Z</time>
      </trkpt>
      <trkpt lat="42.88186" lon="0.20492">
        <ele>2217</ele>
        <time>2013-04-07T08:50:26Z</time>
      </trkpt>
      <trkpt lat="42.88184" lon="0.20493">
        <ele>2217</ele>
        <time>2013-04-07T08:50:28Z</time>
      </trkpt>
      <trkpt lat="42.88183" lon="0.20494">
        <ele>2217</ele>
        <time>2013-04-07T08:50:30Z</time>
      </trkpt>
      <trkpt lat="42.88181" lon="0.20494">
        <ele>2217</ele>
        <time>2013-04-07T08:50:32Z</time>
      </trkpt>
      <trkpt lat="42.88179" lon="0.20495">
        <ele>2217</ele>
        <time>2013-04-07T08:50:34Z</time>
      </trkpt>
      <trkpt lat="42.88178" lon="0.20496">
        <ele>2217</ele>
        <time>2013-04-07T08:50:36Z</time>
      </trkpt>
      <trkpt lat="42.88176" lon="0.20497">
        <ele>2217</ele>
        <time>2013-04-07T08:50:38Z</time>
      </trkpt>
      <trkpt lat="42.88175" lon="0.20499">
        <ele>2217</ele>
        <time>2013-04-07T08:50:40Z</time>
      </trkpt>
      <trkpt lat="42.88174" lon="0.205">
        <ele>2218</ele>
        <time>2013-04-07T08:50:42Z</time>
      </trkpt>
      <trkpt lat="42.88173" lon="0.20501">
        <ele>2218</ele>
        <time>2013-04-07T08:50:44Z</time>
      </trkpt>
      <trkpt lat="42.88171" lon="0.20501">
        <ele>2218</ele>
        <time>2013-04-07T08:50:46Z</time>
      </trkpt>
      <trkpt lat="42.8817" lon="0.20501">
        <ele>2219</ele>
        <time>2013-04-07T08:50:48Z</time>
      </trkpt>
      <trkpt lat="42.88168" lon="0.20502">
        <ele>2219</ele>
        <time>2013-04-07T08:50:51Z</time>
      </trkpt>
      <trkpt lat="42.88167" lon="0.20503">
        <ele>2220</ele>
        <time>2013-04-07T08:50:53Z</time>
      </trkpt>
      <trkpt lat="42.88166" lon="0.20504">
        <ele>2220</ele>
        <time>2013-04-07T08:50:55Z</time>
      </trkpt>
      <trkpt lat="42.88164" lon="0.20505">
        <ele>2220</ele>
        <time>2013-04-07T08:50:57Z</time>
      </trkpt>
      <trkpt lat="42.88163" lon="0.20507">
        <ele>2220</ele>
        <time>2013-04-07T08:50:59Z</time>
      </trkpt>
      <trkpt lat="42.88163" lon="0.20508">
        <ele>2221</ele>
        <time>2013-04-07T08:51:08Z</time>
      </trkpt>
      <trkpt lat="42.88162" lon="0.2051">
        <ele>2221</ele>
        <time>2013-04-07T08:51:18Z</time>
      </trkpt>
      <trkpt lat="42.88161" lon="0.20512">
        <ele>2221</ele>
        <time>2013-04-07T08:51:20Z</time>
      </trkpt>
      <trkpt lat="42.8816" lon="0.20514">
        <ele>2221</ele>
        <time>2013-04-07T08:51:22Z</time>
      </trkpt>
      <trkpt lat="42.88159" lon="0.20516">
        <ele>2222</ele>
        <time>2013-04-07T08:51:24Z</time>
      </trkpt>
      <trkpt lat="42.88158" lon="0.20517">
        <ele>2222</ele>
        <time>2013-04-07T08:51:26Z</time>
      </trkpt>
      <trkpt lat="42.88157" lon="0.20519">
        <ele>2222</ele>
        <time>2013-04-07T08:51:28Z</time>
      </trkpt>
      <trkpt lat="42.88156" lon="0.2052">
        <ele>2223</ele>
        <time>2013-04-07T08:51:30Z</time>
      </trkpt>
      <trkpt lat="42.88155" lon="0.20522">
        <ele>2223</ele>
        <time>2013-04-07T08:51:32Z</time>
      </trkpt>
      <trkpt lat="42.88154" lon="0.20524">
        <ele>2223</ele>
        <time>2013-04-07T08:51:34Z</time>
      </trkpt>
      <trkpt lat="42.88153" lon="0.20526">
        <ele>2223</ele>
        <time>2013-04-07T08:51:36Z</time>
      </trkpt>
      <trkpt lat="42.88152" lon="0.20528">
        <ele>2224</ele>
        <time>2013-04-07T08:51:38Z</time>
      </trkpt>
      <trkpt lat="42.88152" lon="0.2053">
        <ele>2224</ele>
        <time>2013-04-07T08:51:40Z</time>
      </trkpt>
      <trkpt lat="42.88152" lon="0.20532">
        <ele>2224</ele>
        <time>2013-04-07T08:51:42Z</time>
      </trkpt>
      <trkpt lat="42.88152" lon="0.20534">
        <ele>2224</ele>
        <time>2013-04-07T08:51:45Z</time>
      </trkpt>
      <trkpt lat="42.88152" lon="0.20535">
        <ele>2225</ele>
        <time>2013-04-07T08:51:57Z</time>
      </trkpt>
      <trkpt lat="42.88151" lon="0.20537">
        <ele>2225</ele>
        <time>2013-04-07T08:51:59Z</time>
      </trkpt>
      <trkpt lat="42.88151" lon="0.20538">
        <ele>2225</ele>
        <time>2013-04-07T08:52:01Z</time>
      </trkpt>
      <trkpt lat="42.88152" lon="0.2054">
        <ele>2225</ele>
        <time>2013-04-07T08:52:04Z</time>
      </trkpt>
      <trkpt lat="42.88153" lon="0.2054">
        <ele>2225</ele>
        <time>2013-04-07T08:52:06Z</time>
      </trkpt>
      <trkpt lat="42.88155" lon="0.2054">
        <ele>2225</ele>
        <time>2013-04-07T08:52:11Z</time>
      </trkpt>
      <trkpt lat="42.88156" lon="0.2054">
        <ele>2225</ele>
        <time>2013-04-07T08:52:33Z</time>
      </trkpt>
      <trkpt lat="42.88156" lon="0.20541">
        <ele>2226</ele>
        <time>2013-04-07T08:53:21Z</time>
      </trkpt>
      <trkpt lat="42.88157" lon="0.20539">
        <ele>2226</ele>
        <time>2013-04-07T08:53:25Z</time>
      </trkpt>
      <trkpt lat="42.88158" lon="0.20539">
        <ele>2226</ele>
        <time>2013-04-07T08:54:06Z</time>
      </trkpt>
      <trkpt lat="42.88159" lon="0.20539">
        <ele>2226</ele>
        <time>2013-04-07T08:54:12Z</time>
      </trkpt>
      <trkpt lat="42.8816" lon="0.20539">
        <ele>2226</ele>
        <time>2013-04-07T08:54:58Z</time>
      </trkpt>
      <trkpt lat="42.88161" lon="0.20539">
        <ele>2226</ele>
        <time>2013-04-07T08:55:14Z</time>
      </trkpt>
      <trkpt lat="42.88163" lon="0.20539">
        <ele>2226</ele>
        <time>2013-04-07T08:55:24Z</time>
      </trkpt>
      <trkpt lat="42.88164" lon="0.20539">
        <ele>2226</ele>
        <time>2013-04-07T08:56:03Z</time>
      </trkpt>
      <trkpt lat="42.88163" lon="0.20539">
        <ele>2226</ele>
        <time>2013-04-07T08:56:07Z</time>
      </trkpt>
      <trkpt lat="42.88161" lon="0.20539">
        <ele>2226</ele>
        <time>2013-04-07T08:56:11Z</time>
      </trkpt>
      <trkpt lat="42.8816" lon="0.20539">
        <ele>2226</ele>
        <time>2013-04-07T08:56:17Z</time>
      </trkpt>
      <trkpt lat="42.88159" lon="0.20538">
        <ele>2226</ele>
        <time>2013-04-07T08:56:31Z</time>
      </trkpt>
      <trkpt lat="42.88158" lon="0.20539">
        <ele>2226</ele>
        <time>2013-04-07T08:56:50Z</time>
      </trkpt>
      <trkpt lat="42.88156" lon="0.20539">
        <ele>2226</ele>
        <time>2013-04-07T08:57:23Z</time>
      </trkpt>
      <trkpt lat="42.88156" lon="0.2054">
        <ele>2226</ele>
        <time>2013-04-07T08:58:08Z</time>
      </trkpt>
      <trkpt lat="42.88155" lon="0.20541">
        <ele>2226</ele>
        <time>2013-04-07T08:58:53Z</time>
      </trkpt>
      <trkpt lat="42.88156" lon="0.20539">
        <ele>2226</ele>
        <time>2013-04-07T08:59:05Z</time>
      </trkpt>
      <trkpt lat="42.88155" lon="0.20538">
        <ele>2226</ele>
        <time>2013-04-07T08:59:19Z</time>
      </trkpt>
      <trkpt lat="42.88156" lon="0.20539">
        <ele>2226</ele>
        <time>2013-04-07T08:59:31Z</time>
      </trkpt>
      <trkpt lat="42.88158" lon="0.20538">
        <ele>2226</ele>
        <time>2013-04-07T08:59:41Z</time>
      </trkpt>
      <trkpt lat="42.88159" lon="0.20539">
        <ele>2226</ele>
        <time>2013-04-07T09:00:03Z</time>
      </trkpt>
      <trkpt lat="42.8816" lon="0.20539">
        <ele>2226</ele>
        <time>2013-04-07T09:00:07Z</time>
      </trkpt>
      <trkpt lat="42.88159" lon="0.2054">
        <ele>2226</ele>
        <time>2013-04-07T09:00:29Z</time>
      </trkpt>
      <trkpt lat="42.88159" lon="0.20538">
        <ele>2226</ele>
        <time>2013-04-07T09:00:55Z</time>
      </trkpt>
      <trkpt lat="42.8816" lon="0.20538">
        <ele>2226</ele>
        <time>2013-04-07T09:01:07Z</time>
      </trkpt>
      <trkpt lat="42.88159" lon="0.20538">
        <ele>2226</ele>
        <time>2013-04-07T09:01:35Z</time>
      </trkpt>
      <trkpt lat="42.88158" lon="0.20539">
        <ele>2226</ele>
        <time>2013-04-07T09:01:39Z</time>
      </trkpt>
      <trkpt lat="42.88157" lon="0.2054">
        <ele>2226</ele>
        <time>2013-04-07T09:01:51Z</time>
      </trkpt>
      <trkpt lat="42.88158" lon="0.20539">
        <ele>2226</ele>
        <time>2013-04-07T09:01:59Z</time>
      </trkpt>
      <trkpt lat="42.88157" lon="0.20539">
        <ele>2226</ele>
        <time>2013-04-07T09:02:07Z</time>
      </trkpt>
      <trkpt lat="42.88156" lon="0.20538">
        <ele>2226</ele>
        <time>2013-04-07T09:02:18Z</time>
      </trkpt>
      <trkpt lat="42.88157" lon="0.20538">
        <ele>2226</ele>
        <time>2013-04-07T09:02:20Z</time>
      </trkpt>
      <trkpt lat="42.88159" lon="0.20538">
        <ele>2226</ele>
        <time>2013-04-07T09:02:41Z</time>
      </trkpt>
      <trkpt lat="42.88158" lon="0.20538">
        <ele>2225</ele>
        <time>2013-04-07T09:02:45Z</time>
      </trkpt>
      <trkpt lat="42.88159" lon="0.20539">
        <ele>2223</ele>
        <time>2013-04-07T09:03:03Z</time>
      </trkpt>
      <trkpt lat="42.88158" lon="0.20538">
        <ele>2223</ele>
        <time>2013-04-07T09:04:16Z</time>
      </trkpt>
      <trkpt lat="42.88156" lon="0.20538">
        <ele>2223</ele>
        <time>2013-04-07T09:04:20Z</time>
      </trkpt>
      <trkpt lat="42.88158" lon="0.20538">
        <ele>2223</ele>
        <time>2013-04-07T09:04:44Z</time>
      </trkpt>
      <trkpt lat="42.88159" lon="0.20538">
        <ele>2223</ele>
        <time>2013-04-07T09:04:47Z</time>
      </trkpt>
      <trkpt lat="42.88158" lon="0.20537">
        <ele>2224</ele>
        <time>2013-04-07T09:04:58Z</time>
      </trkpt>
      <trkpt lat="42.88157" lon="0.20536">
        <ele>2224</ele>
        <time>2013-04-07T09:04:59Z</time>
      </trkpt>
      <trkpt lat="42.88156" lon="0.20538">
        <ele>2224</ele>
        <time>2013-04-07T09:05:20Z</time>
      </trkpt>
      <trkpt lat="42.88155" lon="0.20538">
        <ele>2224</ele>
        <time>2013-04-07T09:05:49Z</time>
      </trkpt>
      <trkpt lat="42.88157" lon="0.20538">
        <ele>2224</ele>
        <time>2013-04-07T09:06:20Z</time>
      </trkpt>
      <trkpt lat="42.88158" lon="0.20539">
        <ele>2225</ele>
        <time>2013-04-07T09:07:19Z</time>
      </trkpt>
      <trkpt lat="42.88157" lon="0.2054">
        <ele>2226</ele>
        <time>2013-04-07T09:07:48Z</time>
      </trkpt>
      <trkpt lat="42.88155" lon="0.2054">
        <ele>2226</ele>
        <time>2013-04-07T09:10:08Z</time>
      </trkpt>
      <trkpt lat="42.88153" lon="0.2054">
        <ele>2226</ele>
        <time>2013-04-07T09:10:29Z</time>
      </trkpt>
      <trkpt lat="42.88154" lon="0.20538">
        <ele>2226</ele>
        <time>2013-04-07T09:11:29Z</time>
      </trkpt>
      <trkpt lat="42.88153" lon="0.20538">
        <ele>2226</ele>
        <time>2013-04-07T09:11:31Z</time>
      </trkpt>
      <trkpt lat="42.88151" lon="0.20539">
        <ele>2226</ele>
        <time>2013-04-07T09:11:33Z</time>
      </trkpt>
      <trkpt lat="42.88149" lon="0.2054">
        <ele>2226</ele>
        <time>2013-04-07T09:11:35Z</time>
      </trkpt>
      <trkpt lat="42.88147" lon="0.20541">
        <ele>2226</ele>
        <time>2013-04-07T09:11:37Z</time>
      </trkpt>
      <trkpt lat="42.88145" lon="0.20542">
        <ele>2226</ele>
        <time>2013-04-07T09:11:39Z</time>
      </trkpt>
      <trkpt lat="42.88143" lon="0.20542">
        <ele>2226</ele>
        <time>2013-04-07T09:11:41Z</time>
      </trkpt>
      <trkpt lat="42.88141" lon="0.20542">
        <ele>2226</ele>
        <time>2013-04-07T09:11:43Z</time>
      </trkpt>
      <trkpt lat="42.8814" lon="0.20542">
        <ele>2226</ele>
        <time>2013-04-07T09:11:44Z</time>
      </trkpt>
      <trkpt lat="42.88138" lon="0.20543">
        <ele>2226</ele>
        <time>2013-04-07T09:11:46Z</time>
      </trkpt>
      <trkpt lat="42.88136" lon="0.20543">
        <ele>2226</ele>
        <time>2013-04-07T09:11:48Z</time>
      </trkpt>
      <trkpt lat="42.88135" lon="0.20543">
        <ele>2226</ele>
        <time>2013-04-07T09:11:49Z</time>
      </trkpt>
      <trkpt lat="42.88134" lon="0.20543">
        <ele>2226</ele>
        <time>2013-04-07T09:11:50Z</time>
      </trkpt>
      <trkpt lat="42.88132" lon="0.20543">
        <ele>2226</ele>
        <time>2013-04-07T09:11:51Z</time>
      </trkpt>
      <trkpt lat="42.88131" lon="0.20543">
        <ele>2226</ele>
        <time>2013-04-07T09:11:52Z</time>
      </trkpt>
      <trkpt lat="42.8813" lon="0.20543">
        <ele>2226</ele>
        <time>2013-04-07T09:11:53Z</time>
      </trkpt>
      <trkpt lat="42.88129" lon="0.20543">
        <ele>2226</ele>
        <time>2013-04-07T09:11:54Z</time>
      </trkpt>
      <trkpt lat="42.88127" lon="0.20543">
        <ele>2226</ele>
        <time>2013-04-07T09:11:56Z</time>
      </trkpt>
      <trkpt lat="42.88126" lon="0.20543">
        <ele>2226</ele>
        <time>2013-04-07T09:11:57Z</time>
      </trkpt>
      <trkpt lat="42.88124" lon="0.20543">
        <ele>2226</ele>
        <time>2013-04-07T09:11:58Z</time>
      </trkpt>
      <trkpt lat="42.88123" lon="0.20544">
        <ele>2225</ele>
        <time>2013-04-07T09:11:59Z</time>
      </trkpt>
      <trkpt lat="42.88121" lon="0.20544">
        <ele>2225</ele>
        <time>2013-04-07T09:12:00Z</time>
      </trkpt>
      <trkpt lat="42.8812" lon="0.20545">
        <ele>2225</ele>
        <time>2013-04-07T09:12:02Z</time>
      </trkpt>
      <trkpt lat="42.88118" lon="0.20545">
        <ele>2225</ele>
        <time>2013-04-07T09:12:04Z</time>
      </trkpt>
      <trkpt lat="42.88116" lon="0.20546">
        <ele>2225</ele>
        <time>2013-04-07T09:12:06Z</time>
      </trkpt>
      <trkpt lat="42.88115" lon="0.20547">
        <ele>2225</ele>
        <time>2013-04-07T09:12:08Z</time>
      </trkpt>
      <trkpt lat="42.88113" lon="0.20547">
        <ele>2225</ele>
        <time>2013-04-07T09:12:10Z</time>
      </trkpt>
      <trkpt lat="42.88112" lon="0.20548">
        <ele>2225</ele>
        <time>2013-04-07T09:12:12Z</time>
      </trkpt>
      <trkpt lat="42.88111" lon="0.20549">
        <ele>2225</ele>
        <time>2013-04-07T09:12:14Z</time>
      </trkpt>
      <trkpt lat="42.88109" lon="0.20549">
        <ele>2225</ele>
        <time>2013-04-07T09:12:16Z</time>
      </trkpt>
      <trkpt lat="42.88108" lon="0.2055">
        <ele>2225</ele>
        <time>2013-04-07T09:12:18Z</time>
      </trkpt>
      <trkpt lat="42.88106" lon="0.2055">
        <ele>2225</ele>
        <time>2013-04-07T09:12:20Z</time>
      </trkpt>
      <trkpt lat="42.88105" lon="0.20551">
        <ele>2225</ele>
        <time>2013-04-07T09:12:22Z</time>
      </trkpt>
      <trkpt lat="42.88104" lon="0.20552">
        <ele>2225</ele>
        <time>2013-04-07T09:12:24Z</time>
      </trkpt>
      <trkpt lat="42.88103" lon="0.20553">
        <ele>2225</ele>
        <time>2013-04-07T09:12:26Z</time>
      </trkpt>
      <trkpt lat="42.88101" lon="0.20554">
        <ele>2225</ele>
        <time>2013-04-07T09:12:29Z</time>
      </trkpt>
      <trkpt lat="42.881" lon="0.20556">
        <ele>2225</ele>
        <time>2013-04-07T09:12:32Z</time>
      </trkpt>
      <trkpt lat="42.88099" lon="0.20557">
        <ele>2225</ele>
        <time>2013-04-07T09:12:35Z</time>
      </trkpt>
      <trkpt lat="42.88097" lon="0.20559">
        <ele>2225</ele>
        <time>2013-04-07T09:12:38Z</time>
      </trkpt>
      <trkpt lat="42.88095" lon="0.2056">
        <ele>2225</ele>
        <time>2013-04-07T09:12:41Z</time>
      </trkpt>
      <trkpt lat="42.88094" lon="0.20561">
        <ele>2225</ele>
        <time>2013-04-07T09:12:44Z</time>
      </trkpt>
      <trkpt lat="42.88092" lon="0.20563">
        <ele>2225</ele>
        <time>2013-04-07T09:12:47Z</time>
      </trkpt>
      <trkpt lat="42.88091" lon="0.20564">
        <ele>2226</ele>
        <time>2013-04-07T09:12:50Z</time>
      </trkpt>
      <trkpt lat="42.88089" lon="0.20566">
        <ele>2226</ele>
        <time>2013-04-07T09:12:53Z</time>
      </trkpt>
      <trkpt lat="42.88087" lon="0.20567">
        <ele>2227</ele>
        <time>2013-04-07T09:12:56Z</time>
      </trkpt>
      <trkpt lat="42.88086" lon="0.20568">
        <ele>2227</ele>
        <time>2013-04-07T09:12:58Z</time>
      </trkpt>
      <trkpt lat="42.88085" lon="0.20568">
        <ele>2228</ele>
        <time>2013-04-07T09:13:00Z</time>
      </trkpt>
      <trkpt lat="42.88084" lon="0.20569">
        <ele>2228</ele>
        <time>2013-04-07T09:13:02Z</time>
      </trkpt>
      <trkpt lat="42.88083" lon="0.20569">
        <ele>2228</ele>
        <time>2013-04-07T09:13:04Z</time>
      </trkpt>
      <trkpt lat="42.88081" lon="0.2057">
        <ele>2229</ele>
        <time>2013-04-07T09:13:07Z</time>
      </trkpt>
      <trkpt lat="42.8808" lon="0.2057">
        <ele>2229</ele>
        <time>2013-04-07T09:13:10Z</time>
      </trkpt>
      <trkpt lat="42.88079" lon="0.2057">
        <ele>2229</ele>
        <time>2013-04-07T09:13:12Z</time>
      </trkpt>
      <trkpt lat="42.88077" lon="0.2057">
        <ele>2230</ele>
        <time>2013-04-07T09:13:14Z</time>
      </trkpt>
      <trkpt lat="42.88076" lon="0.2057">
        <ele>2230</ele>
        <time>2013-04-07T09:13:16Z</time>
      </trkpt>
      <trkpt lat="42.88074" lon="0.2057">
        <ele>2230</ele>
        <time>2013-04-07T09:13:18Z</time>
      </trkpt>
      <trkpt lat="42.88073" lon="0.2057">
        <ele>2230</ele>
        <time>2013-04-07T09:13:20Z</time>
      </trkpt>
      <trkpt lat="42.88072" lon="0.20569">
        <ele>2230</ele>
        <time>2013-04-07T09:13:22Z</time>
      </trkpt>
      <trkpt lat="42.88071" lon="0.20569">
        <ele>2231</ele>
        <time>2013-04-07T09:13:24Z</time>
      </trkpt>
      <trkpt lat="42.88069" lon="0.20569">
        <ele>2231</ele>
        <time>2013-04-07T09:13:26Z</time>
      </trkpt>
      <trkpt lat="42.88068" lon="0.20568">
        <ele>2231</ele>
        <time>2013-04-07T09:13:28Z</time>
      </trkpt>
      <trkpt lat="42.88067" lon="0.20568">
        <ele>2231</ele>
        <time>2013-04-07T09:13:30Z</time>
      </trkpt>
      <trkpt lat="42.88065" lon="0.20568">
        <ele>2231</ele>
        <time>2013-04-07T09:13:33Z</time>
      </trkpt>
      <trkpt lat="42.88064" lon="0.20567">
        <ele>2231</ele>
        <time>2013-04-07T09:13:36Z</time>
      </trkpt>
      <trkpt lat="42.88063" lon="0.20567">
        <ele>2232</ele>
        <time>2013-04-07T09:13:38Z</time>
      </trkpt>
      <trkpt lat="42.88062" lon="0.20567">
        <ele>2232</ele>
        <time>2013-04-07T09:13:40Z</time>
      </trkpt>
      <trkpt lat="42.8806" lon="0.20567">
        <ele>2232</ele>
        <time>2013-04-07T09:13:42Z</time>
      </trkpt>
      <trkpt lat="42.88059" lon="0.20566">
        <ele>2232</ele>
        <time>2013-04-07T09:13:44Z</time>
      </trkpt>
      <trkpt lat="42.88058" lon="0.20566">
        <ele>2232</ele>
        <time>2013-04-07T09:13:46Z</time>
      </trkpt>
      <trkpt lat="42.88056" lon="0.20566">
        <ele>2232</ele>
        <time>2013-04-07T09:13:48Z</time>
      </trkpt>
      <trkpt lat="42.88055" lon="0.20565">
        <ele>2232</ele>
        <time>2013-04-07T09:13:51Z</time>
      </trkpt>
      <trkpt lat="42.88054" lon="0.20565">
        <ele>2233</ele>
        <time>2013-04-07T09:13:54Z</time>
      </trkpt>
      <trkpt lat="42.88052" lon="0.20565">
        <ele>2233</ele>
        <time>2013-04-07T09:13:57Z</time>
      </trkpt>
      <trkpt lat="42.88051" lon="0.20565">
        <ele>2233</ele>
        <time>2013-04-07T09:13:59Z</time>
      </trkpt>
      <trkpt lat="42.88049" lon="0.20565">
        <ele>2233</ele>
        <time>2013-04-07T09:14:01Z</time>
      </trkpt>
      <trkpt lat="42.88048" lon="0.20566">
        <ele>2234</ele>
        <time>2013-04-07T09:14:03Z</time>
      </trkpt>
      <trkpt lat="42.88046" lon="0.20566">
        <ele>2234</ele>
        <time>2013-04-07T09:14:06Z</time>
      </trkpt>
      <trkpt lat="42.88045" lon="0.20567">
        <ele>2235</ele>
        <time>2013-04-07T09:14:09Z</time>
      </trkpt>
      <trkpt lat="42.88043" lon="0.20567">
        <ele>2235</ele>
        <time>2013-04-07T09:14:12Z</time>
      </trkpt>
      <trkpt lat="42.88042" lon="0.20568">
        <ele>2236</ele>
        <time>2013-04-07T09:14:15Z</time>
      </trkpt>
      <trkpt lat="42.88041" lon="0.20569">
        <ele>2236</ele>
        <time>2013-04-07T09:14:17Z</time>
      </trkpt>
      <trkpt lat="42.88039" lon="0.2057">
        <ele>2236</ele>
        <time>2013-04-07T09:14:19Z</time>
      </trkpt>
      <trkpt lat="42.88038" lon="0.20571">
        <ele>2236</ele>
        <time>2013-04-07T09:14:22Z</time>
      </trkpt>
      <trkpt lat="42.88036" lon="0.20572">
        <ele>2237</ele>
        <time>2013-04-07T09:14:25Z</time>
      </trkpt>
      <trkpt lat="42.88035" lon="0.20573">
        <ele>2238</ele>
        <time>2013-04-07T09:14:28Z</time>
      </trkpt>
      <trkpt lat="42.88033" lon="0.20574">
        <ele>2238</ele>
        <time>2013-04-07T09:14:31Z</time>
      </trkpt>
      <trkpt lat="42.88032" lon="0.20575">
        <ele>2239</ele>
        <time>2013-04-07T09:14:33Z</time>
      </trkpt>
      <trkpt lat="42.88031" lon="0.20576">
        <ele>2239</ele>
        <time>2013-04-07T09:14:35Z</time>
      </trkpt>
      <trkpt lat="42.8803" lon="0.20578">
        <ele>2240</ele>
        <time>2013-04-07T09:14:39Z</time>
      </trkpt>
      <trkpt lat="42.88028" lon="0.20579">
        <ele>2240</ele>
        <time>2013-04-07T09:14:42Z</time>
      </trkpt>
      <trkpt lat="42.88027" lon="0.2058">
        <ele>2240</ele>
        <time>2013-04-07T09:14:44Z</time>
      </trkpt>
      <trkpt lat="42.88026" lon="0.20582">
        <ele>2240</ele>
        <time>2013-04-07T09:14:47Z</time>
      </trkpt>
      <trkpt lat="42.88025" lon="0.20583">
        <ele>2240</ele>
        <time>2013-04-07T09:14:49Z</time>
      </trkpt>
      <trkpt lat="42.88023" lon="0.20584">
        <ele>2240</ele>
        <time>2013-04-07T09:14:51Z</time>
      </trkpt>
      <trkpt lat="42.88022" lon="0.20585">
        <ele>2240</ele>
        <time>2013-04-07T09:14:54Z</time>
      </trkpt>
      <trkpt lat="42.88021" lon="0.20586">
        <ele>2240</ele>
        <time>2013-04-07T09:14:57Z</time>
      </trkpt>
      <trkpt lat="42.8802" lon="0.20587">
        <ele>2240</ele>
        <time>2013-04-07T09:15:00Z</time>
      </trkpt>
      <trkpt lat="42.88018" lon="0.20588">
        <ele>2240</ele>
        <time>2013-04-07T09:15:02Z</time>
      </trkpt>
      <trkpt lat="42.88017" lon="0.20589">
        <ele>2240</ele>
        <time>2013-04-07T09:15:04Z</time>
      </trkpt>
      <trkpt lat="42.88015" lon="0.2059">
        <ele>2240</ele>
        <time>2013-04-07T09:15:07Z</time>
      </trkpt>
      <trkpt lat="42.88014" lon="0.2059">
        <ele>2240</ele>
        <time>2013-04-07T09:15:10Z</time>
      </trkpt>
      <trkpt lat="42.88013" lon="0.20591">
        <ele>2240</ele>
        <time>2013-04-07T09:15:13Z</time>
      </trkpt>
      <trkpt lat="42.88012" lon="0.20591">
        <ele>2240</ele>
        <time>2013-04-07T09:15:15Z</time>
      </trkpt>
      <trkpt lat="42.8801" lon="0.20592">
        <ele>2240</ele>
        <time>2013-04-07T09:15:18Z</time>
      </trkpt>
      <trkpt lat="42.88008" lon="0.20592">
        <ele>2240</ele>
        <time>2013-04-07T09:15:21Z</time>
      </trkpt>
      <trkpt lat="42.88007" lon="0.20593">
        <ele>2240</ele>
        <time>2013-04-07T09:15:24Z</time>
      </trkpt>
      <trkpt lat="42.88005" lon="0.20594">
        <ele>2240</ele>
        <time>2013-04-07T09:15:27Z</time>
      </trkpt>
      <trkpt lat="42.88004" lon="0.20594">
        <ele>2240</ele>
        <time>2013-04-07T09:15:30Z</time>
      </trkpt>
      <trkpt lat="42.88003" lon="0.20595">
        <ele>2241</ele>
        <time>2013-04-07T09:15:33Z</time>
      </trkpt>
      <trkpt lat="42.88001" lon="0.20595">
        <ele>2241</ele>
        <time>2013-04-07T09:15:36Z</time>
      </trkpt>
      <trkpt lat="42.88" lon="0.20596">
        <ele>2241</ele>
        <time>2013-04-07T09:15:38Z</time>
      </trkpt>
      <trkpt lat="42.87999" lon="0.20596">
        <ele>2242</ele>
        <time>2013-04-07T09:15:41Z</time>
      </trkpt>
      <trkpt lat="42.87997" lon="0.20597">
        <ele>2242</ele>
        <time>2013-04-07T09:15:44Z</time>
      </trkpt>
      <trkpt lat="42.87996" lon="0.20597">
        <ele>2243</ele>
        <time>2013-04-07T09:15:47Z</time>
      </trkpt>
      <trkpt lat="42.87994" lon="0.20598">
        <ele>2243</ele>
        <time>2013-04-07T09:15:50Z</time>
      </trkpt>
      <trkpt lat="42.87993" lon="0.206">
        <ele>2245</ele>
        <time>2013-04-07T09:15:53Z</time>
      </trkpt>
      <trkpt lat="42.87991" lon="0.20601">
        <ele>2246</ele>
        <time>2013-04-07T09:15:56Z</time>
      </trkpt>
      <trkpt lat="42.8799" lon="0.20602">
        <ele>2246</ele>
        <time>2013-04-07T09:15:59Z</time>
      </trkpt>
      <trkpt lat="42.87989" lon="0.20603">
        <ele>2247</ele>
        <time>2013-04-07T09:16:02Z</time>
      </trkpt>
      <trkpt lat="42.87987" lon="0.20604">
        <ele>2247</ele>
        <time>2013-04-07T09:16:04Z</time>
      </trkpt>
      <trkpt lat="42.87986" lon="0.20605">
        <ele>2247</ele>
        <time>2013-04-07T09:16:06Z</time>
      </trkpt>
      <trkpt lat="42.87985" lon="0.20606">
        <ele>2248</ele>
        <time>2013-04-07T09:16:09Z</time>
      </trkpt>
      <trkpt lat="42.87983" lon="0.20607">
        <ele>2248</ele>
        <time>2013-04-07T09:16:12Z</time>
      </trkpt>
      <trkpt lat="42.87982" lon="0.20608">
        <ele>2248</ele>
        <time>2013-04-07T09:16:15Z</time>
      </trkpt>
      <trkpt lat="42.87981" lon="0.20608">
        <ele>2250</ele>
        <time>2013-04-07T09:16:17Z</time>
      </trkpt>
      <trkpt lat="42.87979" lon="0.20609">
        <ele>2252</ele>
        <time>2013-04-07T09:16:19Z</time>
      </trkpt>
      <trkpt lat="42.87978" lon="0.20609">
        <ele>2253</ele>
        <time>2013-04-07T09:16:21Z</time>
      </trkpt>
      <trkpt lat="42.87977" lon="0.2061">
        <ele>2254</ele>
        <time>2013-04-07T09:16:23Z</time>
      </trkpt>
      <trkpt lat="42.87975" lon="0.20612">
        <ele>2254</ele>
        <time>2013-04-07T09:16:26Z</time>
      </trkpt>
      <trkpt lat="42.87974" lon="0.20612">
        <ele>2254</ele>
        <time>2013-04-07T09:16:29Z</time>
      </trkpt>
      <trkpt lat="42.87973" lon="0.20614">
        <ele>2254</ele>
        <time>2013-04-07T09:16:32Z</time>
      </trkpt>
      <trkpt lat="42.87971" lon="0.20615">
        <ele>2254</ele>
        <time>2013-04-07T09:16:35Z</time>
      </trkpt>
      <trkpt lat="42.8797" lon="0.20616">
        <ele>2254</ele>
        <time>2013-04-07T09:16:37Z</time>
      </trkpt>
      <trkpt lat="42.87969" lon="0.20617">
        <ele>2254</ele>
        <time>2013-04-07T09:16:39Z</time>
      </trkpt>
      <trkpt lat="42.87968" lon="0.20618">
        <ele>2254</ele>
        <time>2013-04-07T09:16:41Z</time>
      </trkpt>
      <trkpt lat="42.87967" lon="0.2062">
        <ele>2254</ele>
        <time>2013-04-07T09:16:44Z</time>
      </trkpt>
      <trkpt lat="42.87967" lon="0.20622">
        <ele>2254</ele>
        <time>2013-04-07T09:16:46Z</time>
      </trkpt>
      <trkpt lat="42.87966" lon="0.20623">
        <ele>2254</ele>
        <time>2013-04-07T09:16:48Z</time>
      </trkpt>
      <trkpt lat="42.87965" lon="0.20625">
        <ele>2254</ele>
        <time>2013-04-07T09:16:50Z</time>
      </trkpt>
      <trkpt lat="42.87964" lon="0.20626">
        <ele>2253</ele>
        <time>2013-04-07T09:16:54Z</time>
      </trkpt>
      <trkpt lat="42.87963" lon="0.20627">
        <ele>2253</ele>
        <time>2013-04-07T09:16:56Z</time>
      </trkpt>
      <trkpt lat="42.87962" lon="0.20628">
        <ele>2253</ele>
        <time>2013-04-07T09:16:58Z</time>
      </trkpt>
      <trkpt lat="42.8796" lon="0.2063">
        <ele>2253</ele>
        <time>2013-04-07T09:17:00Z</time>
      </trkpt>
      <trkpt lat="42.87959" lon="0.20631">
        <ele>2253</ele>
        <time>2013-04-07T09:17:02Z</time>
      </trkpt>
      <trkpt lat="42.87957" lon="0.20632">
        <ele>2253</ele>
        <time>2013-04-07T09:17:04Z</time>
      </trkpt>
      <trkpt lat="42.87956" lon="0.20633">
        <ele>2253</ele>
        <time>2013-04-07T09:17:06Z</time>
      </trkpt>
      <trkpt lat="42.87954" lon="0.20633">
        <ele>2253</ele>
        <time>2013-04-07T09:17:08Z</time>
      </trkpt>
      <trkpt lat="42.87953" lon="0.20634">
        <ele>2253</ele>
        <time>2013-04-07T09:17:10Z</time>
      </trkpt>
      <trkpt lat="42.87951" lon="0.20635">
        <ele>2253</ele>
        <time>2013-04-07T09:17:13Z</time>
      </trkpt>
      <trkpt lat="42.8795" lon="0.20635">
        <ele>2253</ele>
        <time>2013-04-07T09:17:15Z</time>
      </trkpt>
      <trkpt lat="42.87949" lon="0.20637">
        <ele>2253</ele>
        <time>2013-04-07T09:17:18Z</time>
      </trkpt>
      <trkpt lat="42.87947" lon="0.20637">
        <ele>2253</ele>
        <time>2013-04-07T09:17:20Z</time>
      </trkpt>
      <trkpt lat="42.87946" lon="0.20639">
        <ele>2253</ele>
        <time>2013-04-07T09:17:23Z</time>
      </trkpt>
      <trkpt lat="42.87944" lon="0.2064">
        <ele>2253</ele>
        <time>2013-04-07T09:17:26Z</time>
      </trkpt>
      <trkpt lat="42.87943" lon="0.20641">
        <ele>2253</ele>
        <time>2013-04-07T09:17:29Z</time>
      </trkpt>
      <trkpt lat="42.87941" lon="0.20642">
        <ele>2253</ele>
        <time>2013-04-07T09:17:32Z</time>
      </trkpt>
      <trkpt lat="42.8794" lon="0.20643">
        <ele>2253</ele>
        <time>2013-04-07T09:17:35Z</time>
      </trkpt>
      <trkpt lat="42.87938" lon="0.20644">
        <ele>2253</ele>
        <time>2013-04-07T09:17:38Z</time>
      </trkpt>
      <trkpt lat="42.87937" lon="0.20645">
        <ele>2253</ele>
        <time>2013-04-07T09:17:41Z</time>
      </trkpt>
      <trkpt lat="42.87936" lon="0.20646">
        <ele>2253</ele>
        <time>2013-04-07T09:17:44Z</time>
      </trkpt>
      <trkpt lat="42.87934" lon="0.20646">
        <ele>2253</ele>
        <time>2013-04-07T09:17:47Z</time>
      </trkpt>
      <trkpt lat="42.87933" lon="0.20646">
        <ele>2253</ele>
        <time>2013-04-07T09:17:50Z</time>
      </trkpt>
      <trkpt lat="42.87931" lon="0.20646">
        <ele>2253</ele>
        <time>2013-04-07T09:17:53Z</time>
      </trkpt>
      <trkpt lat="42.8793" lon="0.20646">
        <ele>2253</ele>
        <time>2013-04-07T09:17:55Z</time>
      </trkpt>
      <trkpt lat="42.87928" lon="0.20646">
        <ele>2253</ele>
        <time>2013-04-07T09:17:58Z</time>
      </trkpt>
      <trkpt lat="42.87927" lon="0.20646">
        <ele>2253</ele>
        <time>2013-04-07T09:18:02Z</time>
      </trkpt>
      <trkpt lat="42.87926" lon="0.20645">
        <ele>2253</ele>
        <time>2013-04-07T09:18:05Z</time>
      </trkpt>
      <trkpt lat="42.87925" lon="0.20644">
        <ele>2253</ele>
        <time>2013-04-07T09:18:09Z</time>
      </trkpt>
      <trkpt lat="42.87923" lon="0.20642">
        <ele>2253</ele>
        <time>2013-04-07T09:18:14Z</time>
      </trkpt>
      <trkpt lat="42.87923" lon="0.2064">
        <ele>2253</ele>
        <time>2013-04-07T09:18:16Z</time>
      </trkpt>
      <trkpt lat="42.87922" lon="0.20639">
        <ele>2253</ele>
        <time>2013-04-07T09:18:18Z</time>
      </trkpt>
      <trkpt lat="42.8792" lon="0.20637">
        <ele>2253</ele>
        <time>2013-04-07T09:18:21Z</time>
      </trkpt>
      <trkpt lat="42.87919" lon="0.20635">
        <ele>2253</ele>
        <time>2013-04-07T09:18:24Z</time>
      </trkpt>
      <trkpt lat="42.87918" lon="0.20634">
        <ele>2253</ele>
        <time>2013-04-07T09:18:27Z</time>
      </trkpt>
      <trkpt lat="42.87917" lon="0.20633">
        <ele>2253</ele>
        <time>2013-04-07T09:18:29Z</time>
      </trkpt>
      <trkpt lat="42.87916" lon="0.20632">
        <ele>2253</ele>
        <time>2013-04-07T09:18:31Z</time>
      </trkpt>
      <trkpt lat="42.87914" lon="0.20632">
        <ele>2253</ele>
        <time>2013-04-07T09:18:34Z</time>
      </trkpt>
      <trkpt lat="42.87912" lon="0.20632">
        <ele>2253</ele>
        <time>2013-04-07T09:18:37Z</time>
      </trkpt>
      <trkpt lat="42.87911" lon="0.20632">
        <ele>2254</ele>
        <time>2013-04-07T09:18:40Z</time>
      </trkpt>
      <trkpt lat="42.8791" lon="0.20631">
        <ele>2254</ele>
        <time>2013-04-07T09:18:44Z</time>
      </trkpt>
      <trkpt lat="42.87909" lon="0.2063">
        <ele>2255</ele>
        <time>2013-04-07T09:18:48Z</time>
      </trkpt>
      <trkpt lat="42.87907" lon="0.20629">
        <ele>2255</ele>
        <time>2013-04-07T09:18:51Z</time>
      </trkpt>
      <trkpt lat="42.87906" lon="0.20629">
        <ele>2255</ele>
        <time>2013-04-07T09:18:55Z</time>
      </trkpt>
      <trkpt lat="42.87905" lon="0.2063">
        <ele>2255</ele>
        <time>2013-04-07T09:18:58Z</time>
      </trkpt>
      <trkpt lat="42.87904" lon="0.20632">
        <ele>2256</ele>
        <time>2013-04-07T09:19:00Z</time>
      </trkpt>
      <trkpt lat="42.87904" lon="0.20634">
        <ele>2256</ele>
        <time>2013-04-07T09:19:02Z</time>
      </trkpt>
      <trkpt lat="42.87904" lon="0.20636">
        <ele>2257</ele>
        <time>2013-04-07T09:19:04Z</time>
      </trkpt>
      <trkpt lat="42.87904" lon="0.20638">
        <ele>2257</ele>
        <time>2013-04-07T09:19:06Z</time>
      </trkpt>
      <trkpt lat="42.87904" lon="0.20639">
        <ele>2257</ele>
        <time>2013-04-07T09:19:08Z</time>
      </trkpt>
      <trkpt lat="42.87904" lon="0.20641">
        <ele>2257</ele>
        <time>2013-04-07T09:19:10Z</time>
      </trkpt>
      <trkpt lat="42.87903" lon="0.20642">
        <ele>2257</ele>
        <time>2013-04-07T09:19:12Z</time>
      </trkpt>
      <trkpt lat="42.87903" lon="0.20644">
        <ele>2257</ele>
        <time>2013-04-07T09:19:14Z</time>
      </trkpt>
      <trkpt lat="42.87903" lon="0.20646">
        <ele>2257</ele>
        <time>2013-04-07T09:19:16Z</time>
      </trkpt>
      <trkpt lat="42.87903" lon="0.20647">
        <ele>2257</ele>
        <time>2013-04-07T09:19:18Z</time>
      </trkpt>
      <trkpt lat="42.87903" lon="0.20649">
        <ele>2257</ele>
        <time>2013-04-07T09:19:20Z</time>
      </trkpt>
      <trkpt lat="42.87902" lon="0.20651">
        <ele>2257</ele>
        <time>2013-04-07T09:19:22Z</time>
      </trkpt>
      <trkpt lat="42.87902" lon="0.20652">
        <ele>2257</ele>
        <time>2013-04-07T09:19:24Z</time>
      </trkpt>
      <trkpt lat="42.87902" lon="0.20654">
        <ele>2257</ele>
        <time>2013-04-07T09:19:26Z</time>
      </trkpt>
      <trkpt lat="42.87902" lon="0.20655">
        <ele>2257</ele>
        <time>2013-04-07T09:19:28Z</time>
      </trkpt>
      <trkpt lat="42.87902" lon="0.20657">
        <ele>2257</ele>
        <time>2013-04-07T09:19:31Z</time>
      </trkpt>
      <trkpt lat="42.87901" lon="0.20657">
        <ele>2258</ele>
        <time>2013-04-07T09:19:34Z</time>
      </trkpt>
      <trkpt lat="42.87899" lon="0.20657">
        <ele>2258</ele>
        <time>2013-04-07T09:19:36Z</time>
      </trkpt>
      <trkpt lat="42.87898" lon="0.20656">
        <ele>2259</ele>
        <time>2013-04-07T09:19:38Z</time>
      </trkpt>
      <trkpt lat="42.87897" lon="0.20656">
        <ele>2259</ele>
        <time>2013-04-07T09:19:40Z</time>
      </trkpt>
      <trkpt lat="42.87896" lon="0.20655">
        <ele>2259</ele>
        <time>2013-04-07T09:19:42Z</time>
      </trkpt>
      <trkpt lat="42.87894" lon="0.20654">
        <ele>2259</ele>
        <time>2013-04-07T09:19:44Z</time>
      </trkpt>
      <trkpt lat="42.87893" lon="0.20654">
        <ele>2259</ele>
        <time>2013-04-07T09:19:46Z</time>
      </trkpt>
      <trkpt lat="42.87892" lon="0.20654">
        <ele>2259</ele>
        <time>2013-04-07T09:19:48Z</time>
      </trkpt>
      <trkpt lat="42.87891" lon="0.20654">
        <ele>2260</ele>
        <time>2013-04-07T09:19:50Z</time>
      </trkpt>
      <trkpt lat="42.8789" lon="0.20655">
        <ele>2261</ele>
        <time>2013-04-07T09:19:52Z</time>
      </trkpt>
      <trkpt lat="42.87888" lon="0.20656">
        <ele>2261</ele>
        <time>2013-04-07T09:19:55Z</time>
      </trkpt>
      <trkpt lat="42.87887" lon="0.20656">
        <ele>2261</ele>
        <time>2013-04-07T09:19:57Z</time>
      </trkpt>
      <trkpt lat="42.87886" lon="0.20656">
        <ele>2262</ele>
        <time>2013-04-07T09:19:59Z</time>
      </trkpt>
      <trkpt lat="42.87885" lon="0.20656">
        <ele>2262</ele>
        <time>2013-04-07T09:20:01Z</time>
      </trkpt>
      <trkpt lat="42.87883" lon="0.20656">
        <ele>2262</ele>
        <time>2013-04-07T09:20:03Z</time>
      </trkpt>
      <trkpt lat="42.87882" lon="0.20657">
        <ele>2263</ele>
        <time>2013-04-07T09:20:05Z</time>
      </trkpt>
      <trkpt lat="42.8788" lon="0.20658">
        <ele>2263</ele>
        <time>2013-04-07T09:20:07Z</time>
      </trkpt>
      <trkpt lat="42.87879" lon="0.20659">
        <ele>2263</ele>
        <time>2013-04-07T09:20:09Z</time>
      </trkpt>
      <trkpt lat="42.87878" lon="0.2066">
        <ele>2263</ele>
        <time>2013-04-07T09:20:11Z</time>
      </trkpt>
      <trkpt lat="42.87877" lon="0.20661">
        <ele>2264</ele>
        <time>2013-04-07T09:20:13Z</time>
      </trkpt>
      <trkpt lat="42.87875" lon="0.20663">
        <ele>2264</ele>
        <time>2013-04-07T09:20:15Z</time>
      </trkpt>
      <trkpt lat="42.87874" lon="0.20665">
        <ele>2264</ele>
        <time>2013-04-07T09:20:18Z</time>
      </trkpt>
      <trkpt lat="42.87873" lon="0.20666">
        <ele>2264</ele>
        <time>2013-04-07T09:20:20Z</time>
      </trkpt>
      <trkpt lat="42.87872" lon="0.20668">
        <ele>2264</ele>
        <time>2013-04-07T09:20:23Z</time>
      </trkpt>
      <trkpt lat="42.87871" lon="0.2067">
        <ele>2264</ele>
        <time>2013-04-07T09:20:25Z</time>
      </trkpt>
      <trkpt lat="42.8787" lon="0.20671">
        <ele>2264</ele>
        <time>2013-04-07T09:20:27Z</time>
      </trkpt>
      <trkpt lat="42.87868" lon="0.20673">
        <ele>2264</ele>
        <time>2013-04-07T09:20:30Z</time>
      </trkpt>
      <trkpt lat="42.87867" lon="0.20675">
        <ele>2264</ele>
        <time>2013-04-07T09:20:33Z</time>
      </trkpt>
      <trkpt lat="42.87866" lon="0.20677">
        <ele>2264</ele>
        <time>2013-04-07T09:20:35Z</time>
      </trkpt>
      <trkpt lat="42.87865" lon="0.20678">
        <ele>2264</ele>
        <time>2013-04-07T09:20:37Z</time>
      </trkpt>
      <trkpt lat="42.87864" lon="0.2068">
        <ele>2264</ele>
        <time>2013-04-07T09:20:40Z</time>
      </trkpt>
      <trkpt lat="42.87862" lon="0.20682">
        <ele>2264</ele>
        <time>2013-04-07T09:20:43Z</time>
      </trkpt>
      <trkpt lat="42.8786" lon="0.20683">
        <ele>2264</ele>
        <time>2013-04-07T09:20:46Z</time>
      </trkpt>
      <trkpt lat="42.87859" lon="0.20685">
        <ele>2264</ele>
        <time>2013-04-07T09:20:49Z</time>
      </trkpt>
      <trkpt lat="42.87858" lon="0.20686">
        <ele>2265</ele>
        <time>2013-04-07T09:20:52Z</time>
      </trkpt>
      <trkpt lat="42.87857" lon="0.20687">
        <ele>2265</ele>
        <time>2013-04-07T09:20:55Z</time>
      </trkpt>
      <trkpt lat="42.87855" lon="0.20688">
        <ele>2266</ele>
        <time>2013-04-07T09:20:57Z</time>
      </trkpt>
      <trkpt lat="42.87854" lon="0.2069">
        <ele>2267</ele>
        <time>2013-04-07T09:21:00Z</time>
      </trkpt>
      <trkpt lat="42.87852" lon="0.20691">
        <ele>2267</ele>
        <time>2013-04-07T09:21:02Z</time>
      </trkpt>
      <trkpt lat="42.87851" lon="0.20693">
        <ele>2267</ele>
        <time>2013-04-07T09:21:05Z</time>
      </trkpt>
      <trkpt lat="42.87849" lon="0.20694">
        <ele>2267</ele>
        <time>2013-04-07T09:21:08Z</time>
      </trkpt>
      <trkpt lat="42.87848" lon="0.20696">
        <ele>2268</ele>
        <time>2013-04-07T09:21:11Z</time>
      </trkpt>
      <trkpt lat="42.87846" lon="0.20697">
        <ele>2268</ele>
        <time>2013-04-07T09:21:13Z</time>
      </trkpt>
      <trkpt lat="42.87845" lon="0.20698">
        <ele>2268</ele>
        <time>2013-04-07T09:21:15Z</time>
      </trkpt>
      <trkpt lat="42.87844" lon="0.20699">
        <ele>2268</ele>
        <time>2013-04-07T09:21:17Z</time>
      </trkpt>
      <trkpt lat="42.87843" lon="0.20701">
        <ele>2268</ele>
        <time>2013-04-07T09:21:20Z</time>
      </trkpt>
      <trkpt lat="42.87841" lon="0.20703">
        <ele>2268</ele>
        <time>2013-04-07T09:21:23Z</time>
      </trkpt>
      <trkpt lat="42.8784" lon="0.20705">
        <ele>2268</ele>
        <time>2013-04-07T09:21:26Z</time>
      </trkpt>
      <trkpt lat="42.87839" lon="0.20706">
        <ele>2268</ele>
        <time>2013-04-07T09:21:28Z</time>
      </trkpt>
      <trkpt lat="42.87838" lon="0.20708">
        <ele>2268</ele>
        <time>2013-04-07T09:21:31Z</time>
      </trkpt>
      <trkpt lat="42.87836" lon="0.20709">
        <ele>2268</ele>
        <time>2013-04-07T09:21:33Z</time>
      </trkpt>
      <trkpt lat="42.87835" lon="0.2071">
        <ele>2268</ele>
        <time>2013-04-07T09:21:35Z</time>
      </trkpt>
      <trkpt lat="42.87834" lon="0.20712">
        <ele>2268</ele>
        <time>2013-04-07T09:21:38Z</time>
      </trkpt>
      <trkpt lat="42.87833" lon="0.20713">
        <ele>2268</ele>
        <time>2013-04-07T09:21:41Z</time>
      </trkpt>
      <trkpt lat="42.87832" lon="0.20715">
        <ele>2268</ele>
        <time>2013-04-07T09:21:44Z</time>
      </trkpt>
      <trkpt lat="42.8783" lon="0.20715">
        <ele>2268</ele>
        <time>2013-04-07T09:21:47Z</time>
      </trkpt>
      <trkpt lat="42.87829" lon="0.20714">
        <ele>2268</ele>
        <time>2013-04-07T09:21:50Z</time>
      </trkpt>
      <trkpt lat="42.87828" lon="0.20713">
        <ele>2268</ele>
        <time>2013-04-07T09:21:52Z</time>
      </trkpt>
      <trkpt lat="42.87826" lon="0.20711">
        <ele>2269</ele>
        <time>2013-04-07T09:21:55Z</time>
      </trkpt>
      <trkpt lat="42.87825" lon="0.2071">
        <ele>2269</ele>
        <time>2013-04-07T09:21:58Z</time>
      </trkpt>
      <trkpt lat="42.87824" lon="0.20708">
        <ele>2270</ele>
        <time>2013-04-07T09:22:01Z</time>
      </trkpt>
      <trkpt lat="42.87822" lon="0.20707">
        <ele>2271</ele>
        <time>2013-04-07T09:22:05Z</time>
      </trkpt>
      <trkpt lat="42.87822" lon="0.20705">
        <ele>2271</ele>
        <time>2013-04-07T09:22:08Z</time>
      </trkpt>
      <trkpt lat="42.8782" lon="0.20704">
        <ele>2271</ele>
        <time>2013-04-07T09:22:11Z</time>
      </trkpt>
      <trkpt lat="42.8782" lon="0.20702">
        <ele>2272</ele>
        <time>2013-04-07T09:22:13Z</time>
      </trkpt>
      <trkpt lat="42.87819" lon="0.207">
        <ele>2272</ele>
        <time>2013-04-07T09:22:15Z</time>
      </trkpt>
      <trkpt lat="42.87819" lon="0.20699">
        <ele>2273</ele>
        <time>2013-04-07T09:22:17Z</time>
      </trkpt>
      <trkpt lat="42.87818" lon="0.20697">
        <ele>2274</ele>
        <time>2013-04-07T09:22:20Z</time>
      </trkpt>
      <trkpt lat="42.87817" lon="0.20696">
        <ele>2274</ele>
        <time>2013-04-07T09:22:23Z</time>
      </trkpt>
      <trkpt lat="42.87817" lon="0.20694">
        <ele>2275</ele>
        <time>2013-04-07T09:22:25Z</time>
      </trkpt>
      <trkpt lat="42.87817" lon="0.20693">
        <ele>2275</ele>
        <time>2013-04-07T09:22:27Z</time>
      </trkpt>
      <trkpt lat="42.87817" lon="0.20691">
        <ele>2275</ele>
        <time>2013-04-07T09:22:29Z</time>
      </trkpt>
      <trkpt lat="42.87816" lon="0.20689">
        <ele>2275</ele>
        <time>2013-04-07T09:22:32Z</time>
      </trkpt>
      <trkpt lat="42.87816" lon="0.20687">
        <ele>2276</ele>
        <time>2013-04-07T09:22:35Z</time>
      </trkpt>
      <trkpt lat="42.87815" lon="0.20686">
        <ele>2276</ele>
        <time>2013-04-07T09:22:37Z</time>
      </trkpt>
      <trkpt lat="42.87815" lon="0.20684">
        <ele>2277</ele>
        <time>2013-04-07T09:22:39Z</time>
      </trkpt>
      <trkpt lat="42.87814" lon="0.20683">
        <ele>2277</ele>
        <time>2013-04-07T09:22:41Z</time>
      </trkpt>
      <trkpt lat="42.87813" lon="0.20681">
        <ele>2277</ele>
        <time>2013-04-07T09:22:43Z</time>
      </trkpt>
      <trkpt lat="42.87812" lon="0.2068">
        <ele>2277</ele>
        <time>2013-04-07T09:22:45Z</time>
      </trkpt>
      <trkpt lat="42.87811" lon="0.20678">
        <ele>2278</ele>
        <time>2013-04-07T09:22:47Z</time>
      </trkpt>
      <trkpt lat="42.8781" lon="0.20677">
        <ele>2279</ele>
        <time>2013-04-07T09:22:49Z</time>
      </trkpt>
      <trkpt lat="42.87809" lon="0.20675">
        <ele>2279</ele>
        <time>2013-04-07T09:22:52Z</time>
      </trkpt>
      <trkpt lat="42.87808" lon="0.20673">
        <ele>2280</ele>
        <time>2013-04-07T09:22:54Z</time>
      </trkpt>
      <trkpt lat="42.87807" lon="0.20672">
        <ele>2281</ele>
        <time>2013-04-07T09:22:57Z</time>
      </trkpt>
      <trkpt lat="42.87806" lon="0.2067">
        <ele>2281</ele>
        <time>2013-04-07T09:22:59Z</time>
      </trkpt>
      <trkpt lat="42.87805" lon="0.20669">
        <ele>2282</ele>
        <time>2013-04-07T09:23:03Z</time>
      </trkpt>
      <trkpt lat="42.87804" lon="0.20667">
        <ele>2282</ele>
        <time>2013-04-07T09:23:05Z</time>
      </trkpt>
      <trkpt lat="42.87803" lon="0.20666">
        <ele>2282</ele>
        <time>2013-04-07T09:23:07Z</time>
      </trkpt>
      <trkpt lat="42.87803" lon="0.20664">
        <ele>2283</ele>
        <time>2013-04-07T09:23:09Z</time>
      </trkpt>
      <trkpt lat="42.87801" lon="0.20662">
        <ele>2283</ele>
        <time>2013-04-07T09:23:12Z</time>
      </trkpt>
      <trkpt lat="42.87801" lon="0.20661">
        <ele>2283</ele>
        <time>2013-04-07T09:23:14Z</time>
      </trkpt>
      <trkpt lat="42.878" lon="0.20659">
        <ele>2283</ele>
        <time>2013-04-07T09:23:17Z</time>
      </trkpt>
      <trkpt lat="42.878" lon="0.20658">
        <ele>2283</ele>
        <time>2013-04-07T09:23:19Z</time>
      </trkpt>
      <trkpt lat="42.87799" lon="0.20656">
        <ele>2283</ele>
        <time>2013-04-07T09:23:21Z</time>
      </trkpt>
      <trkpt lat="42.87799" lon="0.20654">
        <ele>2283</ele>
        <time>2013-04-07T09:23:23Z</time>
      </trkpt>
      <trkpt lat="42.87798" lon="0.20652">
        <ele>2283</ele>
        <time>2013-04-07T09:23:25Z</time>
      </trkpt>
      <trkpt lat="42.87798" lon="0.20651">
        <ele>2283</ele>
        <time>2013-04-07T09:23:27Z</time>
      </trkpt>
      <trkpt lat="42.87798" lon="0.20649">
        <ele>2283</ele>
        <time>2013-04-07T09:23:29Z</time>
      </trkpt>
      <trkpt lat="42.87798" lon="0.20647">
        <ele>2283</ele>
        <time>2013-04-07T09:23:31Z</time>
      </trkpt>
      <trkpt lat="42.87797" lon="0.20645">
        <ele>2283</ele>
        <time>2013-04-07T09:23:33Z</time>
      </trkpt>
      <trkpt lat="42.87797" lon="0.20643">
        <ele>2283</ele>
        <time>2013-04-07T09:23:35Z</time>
      </trkpt>
      <trkpt lat="42.87797" lon="0.20641">
        <ele>2283</ele>
        <time>2013-04-07T09:23:37Z</time>
      </trkpt>
      <trkpt lat="42.87796" lon="0.2064">
        <ele>2283</ele>
        <time>2013-04-07T09:23:39Z</time>
      </trkpt>
      <trkpt lat="42.87796" lon="0.20638">
        <ele>2283</ele>
        <time>2013-04-07T09:23:41Z</time>
      </trkpt>
      <trkpt lat="42.87796" lon="0.20636">
        <ele>2283</ele>
        <time>2013-04-07T09:23:43Z</time>
      </trkpt>
      <trkpt lat="42.87796" lon="0.20635">
        <ele>2283</ele>
        <time>2013-04-07T09:23:45Z</time>
      </trkpt>
      <trkpt lat="42.87796" lon="0.20633">
        <ele>2283</ele>
        <time>2013-04-07T09:23:47Z</time>
      </trkpt>
      <trkpt lat="42.87796" lon="0.20631">
        <ele>2283</ele>
        <time>2013-04-07T09:23:49Z</time>
      </trkpt>
      <trkpt lat="42.87796" lon="0.20629">
        <ele>2283</ele>
        <time>2013-04-07T09:23:51Z</time>
      </trkpt>
      <trkpt lat="42.87796" lon="0.20627">
        <ele>2284</ele>
        <time>2013-04-07T09:23:53Z</time>
      </trkpt>
      <trkpt lat="42.87796" lon="0.20625">
        <ele>2284</ele>
        <time>2013-04-07T09:23:55Z</time>
      </trkpt>
      <trkpt lat="42.87795" lon="0.20623">
        <ele>2284</ele>
        <time>2013-04-07T09:23:57Z</time>
      </trkpt>
      <trkpt lat="42.87795" lon="0.20621">
        <ele>2284</ele>
        <time>2013-04-07T09:23:59Z</time>
      </trkpt>
      <trkpt lat="42.87795" lon="0.20619">
        <ele>2284</ele>
        <time>2013-04-07T09:24:01Z</time>
      </trkpt>
      <trkpt lat="42.87795" lon="0.20617">
        <ele>2284</ele>
        <time>2013-04-07T09:24:03Z</time>
      </trkpt>
      <trkpt lat="42.87795" lon="0.20615">
        <ele>2285</ele>
        <time>2013-04-07T09:24:05Z</time>
      </trkpt>
      <trkpt lat="42.87795" lon="0.20613">
        <ele>2285</ele>
        <time>2013-04-07T09:24:07Z</time>
      </trkpt>
      <trkpt lat="42.87795" lon="0.20612">
        <ele>2285</ele>
        <time>2013-04-07T09:24:09Z</time>
      </trkpt>
      <trkpt lat="42.87794" lon="0.20609">
        <ele>2285</ele>
        <time>2013-04-07T09:24:11Z</time>
      </trkpt>
      <trkpt lat="42.87794" lon="0.20607">
        <ele>2285</ele>
        <time>2013-04-07T09:24:13Z</time>
      </trkpt>
      <trkpt lat="42.87794" lon="0.20606">
        <ele>2285</ele>
        <time>2013-04-07T09:24:15Z</time>
      </trkpt>
      <trkpt lat="42.87794" lon="0.20604">
        <ele>2285</ele>
        <time>2013-04-07T09:24:17Z</time>
      </trkpt>
      <trkpt lat="42.87794" lon="0.20602">
        <ele>2285</ele>
        <time>2013-04-07T09:24:19Z</time>
      </trkpt>
      <trkpt lat="42.87794" lon="0.20601">
        <ele>2286</ele>
        <time>2013-04-07T09:24:22Z</time>
      </trkpt>
      <trkpt lat="42.87795" lon="0.20598">
        <ele>2286</ele>
        <time>2013-04-07T09:24:25Z</time>
      </trkpt>
      <trkpt lat="42.87795" lon="0.20597">
        <ele>2286</ele>
        <time>2013-04-07T09:24:27Z</time>
      </trkpt>
      <trkpt lat="42.87796" lon="0.20595">
        <ele>2286</ele>
        <time>2013-04-07T09:24:31Z</time>
      </trkpt>
      <trkpt lat="42.87796" lon="0.20594">
        <ele>2287</ele>
        <time>2013-04-07T09:24:34Z</time>
      </trkpt>
      <trkpt lat="42.87796" lon="0.20592">
        <ele>2287</ele>
        <time>2013-04-07T09:24:37Z</time>
      </trkpt>
      <trkpt lat="42.87797" lon="0.2059">
        <ele>2287</ele>
        <time>2013-04-07T09:24:40Z</time>
      </trkpt>
      <trkpt lat="42.87797" lon="0.20588">
        <ele>2287</ele>
        <time>2013-04-07T09:24:43Z</time>
      </trkpt>
      <trkpt lat="42.87798" lon="0.20587">
        <ele>2288</ele>
        <time>2013-04-07T09:24:46Z</time>
      </trkpt>
      <trkpt lat="42.87798" lon="0.20585">
        <ele>2288</ele>
        <time>2013-04-07T09:24:48Z</time>
      </trkpt>
      <trkpt lat="42.87799" lon="0.20583">
        <ele>2288</ele>
        <time>2013-04-07T09:24:51Z</time>
      </trkpt>
      <trkpt lat="42.878" lon="0.20582">
        <ele>2288</ele>
        <time>2013-04-07T09:24:54Z</time>
      </trkpt>
      <trkpt lat="42.878" lon="0.2058">
        <ele>2288</ele>
        <time>2013-04-07T09:24:57Z</time>
      </trkpt>
      <trkpt lat="42.878" lon="0.20578">
        <ele>2288</ele>
        <time>2013-04-07T09:24:59Z</time>
      </trkpt>
      <trkpt lat="42.878" lon="0.20576">
        <ele>2288</ele>
        <time>2013-04-07T09:25:03Z</time>
      </trkpt>
      <trkpt lat="42.878" lon="0.20575">
        <ele>2288</ele>
        <time>2013-04-07T09:25:06Z</time>
      </trkpt>
      <trkpt lat="42.87801" lon="0.20573">
        <ele>2289</ele>
        <time>2013-04-07T09:25:09Z</time>
      </trkpt>
      <trkpt lat="42.87801" lon="0.20572">
        <ele>2289</ele>
        <time>2013-04-07T09:25:12Z</time>
      </trkpt>
      <trkpt lat="42.87801" lon="0.20569">
        <ele>2289</ele>
        <time>2013-04-07T09:25:15Z</time>
      </trkpt>
      <trkpt lat="42.87801" lon="0.20568">
        <ele>2289</ele>
        <time>2013-04-07T09:25:17Z</time>
      </trkpt>
      <trkpt lat="42.87801" lon="0.20566">
        <ele>2290</ele>
        <time>2013-04-07T09:25:19Z</time>
      </trkpt>
      <trkpt lat="42.87801" lon="0.20564">
        <ele>2290</ele>
        <time>2013-04-07T09:25:21Z</time>
      </trkpt>
      <trkpt lat="42.87802" lon="0.20563">
        <ele>2290</ele>
        <time>2013-04-07T09:25:23Z</time>
      </trkpt>
      <trkpt lat="42.87802" lon="0.20561">
        <ele>2290</ele>
        <time>2013-04-07T09:25:26Z</time>
      </trkpt>
      <trkpt lat="42.87802" lon="0.2056">
        <ele>2290</ele>
        <time>2013-04-07T09:25:28Z</time>
      </trkpt>
      <trkpt lat="42.87803" lon="0.20558">
        <ele>2290</ele>
        <time>2013-04-07T09:25:30Z</time>
      </trkpt>
      <trkpt lat="42.87803" lon="0.20556">
        <ele>2290</ele>
        <time>2013-04-07T09:25:33Z</time>
      </trkpt>
      <trkpt lat="42.87803" lon="0.20554">
        <ele>2290</ele>
        <time>2013-04-07T09:25:36Z</time>
      </trkpt>
      <trkpt lat="42.87803" lon="0.20553">
        <ele>2290</ele>
        <time>2013-04-07T09:25:38Z</time>
      </trkpt>
      <trkpt lat="42.87803" lon="0.20551">
        <ele>2290</ele>
        <time>2013-04-07T09:25:40Z</time>
      </trkpt>
      <trkpt lat="42.87803" lon="0.20549">
        <ele>2291</ele>
        <time>2013-04-07T09:25:43Z</time>
      </trkpt>
      <trkpt lat="42.87803" lon="0.20548">
        <ele>2291</ele>
        <time>2013-04-07T09:25:45Z</time>
      </trkpt>
      <trkpt lat="42.87803" lon="0.20546">
        <ele>2291</ele>
        <time>2013-04-07T09:25:47Z</time>
      </trkpt>
      <trkpt lat="42.87803" lon="0.20545">
        <ele>2291</ele>
        <time>2013-04-07T09:25:49Z</time>
      </trkpt>
      <trkpt lat="42.87803" lon="0.20543">
        <ele>2291</ele>
        <time>2013-04-07T09:25:51Z</time>
      </trkpt>
      <trkpt lat="42.87803" lon="0.20542">
        <ele>2291</ele>
        <time>2013-04-07T09:25:53Z</time>
      </trkpt>
      <trkpt lat="42.87803" lon="0.2054">
        <ele>2291</ele>
        <time>2013-04-07T09:25:56Z</time>
      </trkpt>
      <trkpt lat="42.87803" lon="0.20538">
        <ele>2291</ele>
        <time>2013-04-07T09:25:59Z</time>
      </trkpt>
      <trkpt lat="42.87803" lon="0.20537">
        <ele>2292</ele>
        <time>2013-04-07T09:26:02Z</time>
      </trkpt>
      <trkpt lat="42.87803" lon="0.20535">
        <ele>2292</ele>
        <time>2013-04-07T09:26:05Z</time>
      </trkpt>
      <trkpt lat="42.87803" lon="0.20533">
        <ele>2292</ele>
        <time>2013-04-07T09:26:08Z</time>
      </trkpt>
      <trkpt lat="42.87802" lon="0.20532">
        <ele>2292</ele>
        <time>2013-04-07T09:26:12Z</time>
      </trkpt>
      <trkpt lat="42.878" lon="0.20534">
        <ele>2292</ele>
        <time>2013-04-07T09:26:15Z</time>
      </trkpt>
      <trkpt lat="42.87799" lon="0.20535">
        <ele>2292</ele>
        <time>2013-04-07T09:26:17Z</time>
      </trkpt>
      <trkpt lat="42.87798" lon="0.20536">
        <ele>2293</ele>
        <time>2013-04-07T09:26:20Z</time>
      </trkpt>
      <trkpt lat="42.87796" lon="0.20537">
        <ele>2293</ele>
        <time>2013-04-07T09:26:23Z</time>
      </trkpt>
      <trkpt lat="42.87795" lon="0.20539">
        <ele>2293</ele>
        <time>2013-04-07T09:26:26Z</time>
      </trkpt>
      <trkpt lat="42.87794" lon="0.2054">
        <ele>2294</ele>
        <time>2013-04-07T09:26:30Z</time>
      </trkpt>
      <trkpt lat="42.87793" lon="0.2054">
        <ele>2294</ele>
        <time>2013-04-07T09:26:33Z</time>
      </trkpt>
      <trkpt lat="42.87791" lon="0.20541">
        <ele>2295</ele>
        <time>2013-04-07T09:26:36Z</time>
      </trkpt>
      <trkpt lat="42.8779" lon="0.20541">
        <ele>2295</ele>
        <time>2013-04-07T09:26:39Z</time>
      </trkpt>
      <trkpt lat="42.87789" lon="0.20541">
        <ele>2295</ele>
        <time>2013-04-07T09:26:42Z</time>
      </trkpt>
      <trkpt lat="42.87788" lon="0.20541">
        <ele>2296</ele>
        <time>2013-04-07T09:26:44Z</time>
      </trkpt>
      <trkpt lat="42.87786" lon="0.20541">
        <ele>2296</ele>
        <time>2013-04-07T09:26:47Z</time>
      </trkpt>
      <trkpt lat="42.87785" lon="0.20541">
        <ele>2297</ele>
        <time>2013-04-07T09:27:25Z</time>
      </trkpt>
      <trkpt lat="42.87783" lon="0.20541">
        <ele>2297</ele>
        <time>2013-04-07T09:27:27Z</time>
      </trkpt>
      <trkpt lat="42.87782" lon="0.2054">
        <ele>2298</ele>
        <time>2013-04-07T09:27:29Z</time>
      </trkpt>
      <trkpt lat="42.8778" lon="0.2054">
        <ele>2298</ele>
        <time>2013-04-07T09:27:31Z</time>
      </trkpt>
      <trkpt lat="42.87779" lon="0.20539">
        <ele>2298</ele>
        <time>2013-04-07T09:27:33Z</time>
      </trkpt>
      <trkpt lat="42.87777" lon="0.20539">
        <ele>2298</ele>
        <time>2013-04-07T09:27:35Z</time>
      </trkpt>
      <trkpt lat="42.87775" lon="0.20539">
        <ele>2299</ele>
        <time>2013-04-07T09:27:37Z</time>
      </trkpt>
      <trkpt lat="42.87774" lon="0.20538">
        <ele>2299</ele>
        <time>2013-04-07T09:27:39Z</time>
      </trkpt>
      <trkpt lat="42.87772" lon="0.20538">
        <ele>2299</ele>
        <time>2013-04-07T09:27:41Z</time>
      </trkpt>
      <trkpt lat="42.87771" lon="0.20538">
        <ele>2299</ele>
        <time>2013-04-07T09:27:43Z</time>
      </trkpt>
      <trkpt lat="42.8777" lon="0.20538">
        <ele>2300</ele>
        <time>2013-04-07T09:27:45Z</time>
      </trkpt>
      <trkpt lat="42.87768" lon="0.20538">
        <ele>2300</ele>
        <time>2013-04-07T09:27:47Z</time>
      </trkpt>
      <trkpt lat="42.87767" lon="0.20538">
        <ele>2300</ele>
        <time>2013-04-07T09:27:49Z</time>
      </trkpt>
      <trkpt lat="42.87765" lon="0.20538">
        <ele>2301</ele>
        <time>2013-04-07T09:27:51Z</time>
      </trkpt>
      <trkpt lat="42.87764" lon="0.20538">
        <ele>2301</ele>
        <time>2013-04-07T09:27:53Z</time>
      </trkpt>
      <trkpt lat="42.87762" lon="0.20537">
        <ele>2302</ele>
        <time>2013-04-07T09:27:55Z</time>
      </trkpt>
      <trkpt lat="42.87761" lon="0.20537">
        <ele>2302</ele>
        <time>2013-04-07T09:27:57Z</time>
      </trkpt>
      <trkpt lat="42.87759" lon="0.20537">
        <ele>2302</ele>
        <time>2013-04-07T09:27:59Z</time>
      </trkpt>
      <trkpt lat="42.87757" lon="0.20537">
        <ele>2302</ele>
        <time>2013-04-07T09:28:01Z</time>
      </trkpt>
      <trkpt lat="42.87756" lon="0.20538">
        <ele>2302</ele>
        <time>2013-04-07T09:28:03Z</time>
      </trkpt>
      <trkpt lat="42.87754" lon="0.20538">
        <ele>2303</ele>
        <time>2013-04-07T09:28:05Z</time>
      </trkpt>
      <trkpt lat="42.87753" lon="0.20538">
        <ele>2303</ele>
        <time>2013-04-07T09:28:07Z</time>
      </trkpt>
      <trkpt lat="42.87751" lon="0.20538">
        <ele>2303</ele>
        <time>2013-04-07T09:28:09Z</time>
      </trkpt>
      <trkpt lat="42.87749" lon="0.20538">
        <ele>2304</ele>
        <time>2013-04-07T09:28:11Z</time>
      </trkpt>
      <trkpt lat="42.87747" lon="0.20538">
        <ele>2304</ele>
        <time>2013-04-07T09:28:13Z</time>
      </trkpt>
      <trkpt lat="42.87746" lon="0.20538">
        <ele>2304</ele>
        <time>2013-04-07T09:28:15Z</time>
      </trkpt>
      <trkpt lat="42.87744" lon="0.20538">
        <ele>2305</ele>
        <time>2013-04-07T09:28:17Z</time>
      </trkpt>
      <trkpt lat="42.87743" lon="0.20538">
        <ele>2305</ele>
        <time>2013-04-07T09:28:19Z</time>
      </trkpt>
      <trkpt lat="42.87741" lon="0.20538">
        <ele>2305</ele>
        <time>2013-04-07T09:28:21Z</time>
      </trkpt>
      <trkpt lat="42.87741" lon="0.2054">
        <ele>2305</ele>
        <time>2013-04-07T09:28:29Z</time>
      </trkpt>
      <trkpt lat="42.8774" lon="0.2054">
        <ele>2305</ele>
        <time>2013-04-07T09:28:54Z</time>
      </trkpt>
      <trkpt lat="42.87738" lon="0.2054">
        <ele>2305</ele>
        <time>2013-04-07T09:28:56Z</time>
      </trkpt>
      <trkpt lat="42.87737" lon="0.2054">
        <ele>2305</ele>
        <time>2013-04-07T09:28:58Z</time>
      </trkpt>
      <trkpt lat="42.87735" lon="0.20541">
        <ele>2306</ele>
        <time>2013-04-07T09:29:00Z</time>
      </trkpt>
      <trkpt lat="42.87733" lon="0.2054">
        <ele>2306</ele>
        <time>2013-04-07T09:29:02Z</time>
      </trkpt>
      <trkpt lat="42.87732" lon="0.20541">
        <ele>2306</ele>
        <time>2013-04-07T09:29:04Z</time>
      </trkpt>
      <trkpt lat="42.8773" lon="0.20541">
        <ele>2306</ele>
        <time>2013-04-07T09:29:06Z</time>
      </trkpt>
      <trkpt lat="42.87729" lon="0.20541">
        <ele>2307</ele>
        <time>2013-04-07T09:29:08Z</time>
      </trkpt>
      <trkpt lat="42.87727" lon="0.20541">
        <ele>2307</ele>
        <time>2013-04-07T09:29:13Z</time>
      </trkpt>
      <trkpt lat="42.87726" lon="0.20541">
        <ele>2308</ele>
        <time>2013-04-07T09:29:16Z</time>
      </trkpt>
      <trkpt lat="42.87724" lon="0.20541">
        <ele>2308</ele>
        <time>2013-04-07T09:29:18Z</time>
      </trkpt>
      <trkpt lat="42.87723" lon="0.20541">
        <ele>2308</ele>
        <time>2013-04-07T09:29:20Z</time>
      </trkpt>
      <trkpt lat="42.87722" lon="0.20541">
        <ele>2309</ele>
        <time>2013-04-07T09:29:22Z</time>
      </trkpt>
      <trkpt lat="42.8772" lon="0.20542">
        <ele>2309</ele>
        <time>2013-04-07T09:29:24Z</time>
      </trkpt>
      <trkpt lat="42.87719" lon="0.20542">
        <ele>2310</ele>
        <time>2013-04-07T09:29:26Z</time>
      </trkpt>
      <trkpt lat="42.87718" lon="0.20544">
        <ele>2310</ele>
        <time>2013-04-07T09:29:29Z</time>
      </trkpt>
      <trkpt lat="42.87716" lon="0.20545">
        <ele>2310</ele>
        <time>2013-04-07T09:29:32Z</time>
      </trkpt>
      <trkpt lat="42.87714" lon="0.20545">
        <ele>2313</ele>
        <time>2013-04-07T09:29:41Z</time>
      </trkpt>
      <trkpt lat="42.87714" lon="0.20547">
        <ele>2313</ele>
        <time>2013-04-07T09:29:52Z</time>
      </trkpt>
      <trkpt lat="42.87713" lon="0.20547">
        <ele>2313</ele>
        <time>2013-04-07T09:29:55Z</time>
      </trkpt>
      <trkpt lat="42.87711" lon="0.20548">
        <ele>2313</ele>
        <time>2013-04-07T09:29:58Z</time>
      </trkpt>
      <trkpt lat="42.8771" lon="0.2055">
        <ele>2313</ele>
        <time>2013-04-07T09:30:01Z</time>
      </trkpt>
      <trkpt lat="42.87709" lon="0.20551">
        <ele>2313</ele>
        <time>2013-04-07T09:30:04Z</time>
      </trkpt>
      <trkpt lat="42.87707" lon="0.20553">
        <ele>2313</ele>
        <time>2013-04-07T09:30:07Z</time>
      </trkpt>
      <trkpt lat="42.87706" lon="0.20554">
        <ele>2313</ele>
        <time>2013-04-07T09:30:09Z</time>
      </trkpt>
      <trkpt lat="42.87704" lon="0.20556">
        <ele>2313</ele>
        <time>2013-04-07T09:30:11Z</time>
      </trkpt>
      <trkpt lat="42.87703" lon="0.20557">
        <ele>2314</ele>
        <time>2013-04-07T09:30:13Z</time>
      </trkpt>
      <trkpt lat="42.87701" lon="0.20558">
        <ele>2314</ele>
        <time>2013-04-07T09:30:15Z</time>
      </trkpt>
      <trkpt lat="42.877" lon="0.20559">
        <ele>2314</ele>
        <time>2013-04-07T09:30:17Z</time>
      </trkpt>
      <trkpt lat="42.87699" lon="0.2056">
        <ele>2314</ele>
        <time>2013-04-07T09:30:19Z</time>
      </trkpt>
      <trkpt lat="42.87698" lon="0.2056">
        <ele>2315</ele>
        <time>2013-04-07T09:30:21Z</time>
      </trkpt>
      <trkpt lat="42.87696" lon="0.20561">
        <ele>2315</ele>
        <time>2013-04-07T09:30:38Z</time>
      </trkpt>
      <trkpt lat="42.87695" lon="0.20562">
        <ele>2315</ele>
        <time>2013-04-07T09:30:40Z</time>
      </trkpt>
      <trkpt lat="42.87693" lon="0.20563">
        <ele>2315</ele>
        <time>2013-04-07T09:30:42Z</time>
      </trkpt>
      <trkpt lat="42.87692" lon="0.20564">
        <ele>2315</ele>
        <time>2013-04-07T09:30:44Z</time>
      </trkpt>
      <trkpt lat="42.8769" lon="0.20565">
        <ele>2315</ele>
        <time>2013-04-07T09:30:47Z</time>
      </trkpt>
      <trkpt lat="42.87688" lon="0.20566">
        <ele>2315</ele>
        <time>2013-04-07T09:30:49Z</time>
      </trkpt>
      <trkpt lat="42.87687" lon="0.20567">
        <ele>2315</ele>
        <time>2013-04-07T09:30:52Z</time>
      </trkpt>
      <trkpt lat="42.87686" lon="0.20568">
        <ele>2315</ele>
        <time>2013-04-07T09:30:54Z</time>
      </trkpt>
      <trkpt lat="42.87684" lon="0.20569">
        <ele>2316</ele>
        <time>2013-04-07T09:30:56Z</time>
      </trkpt>
      <trkpt lat="42.87683" lon="0.2057">
        <ele>2316</ele>
        <time>2013-04-07T09:30:58Z</time>
      </trkpt>
      <trkpt lat="42.87682" lon="0.2057">
        <ele>2317</ele>
        <time>2013-04-07T09:31:00Z</time>
      </trkpt>
      <trkpt lat="42.8768" lon="0.20571">
        <ele>2317</ele>
        <time>2013-04-07T09:31:02Z</time>
      </trkpt>
      <trkpt lat="42.87679" lon="0.20571">
        <ele>2317</ele>
        <time>2013-04-07T09:31:04Z</time>
      </trkpt>
      <trkpt lat="42.87678" lon="0.20572">
        <ele>2318</ele>
        <time>2013-04-07T09:31:06Z</time>
      </trkpt>
      <trkpt lat="42.87676" lon="0.20574">
        <ele>2318</ele>
        <time>2013-04-07T09:31:09Z</time>
      </trkpt>
      <trkpt lat="42.87675" lon="0.20574">
        <ele>2318</ele>
        <time>2013-04-07T09:31:11Z</time>
      </trkpt>
      <trkpt lat="42.87674" lon="0.20576">
        <ele>2318</ele>
        <time>2013-04-07T09:31:15Z</time>
      </trkpt>
      <trkpt lat="42.87673" lon="0.20577">
        <ele>2318</ele>
        <time>2013-04-07T09:31:31Z</time>
      </trkpt>
      <trkpt lat="42.87671" lon="0.20577">
        <ele>2318</ele>
        <time>2013-04-07T09:31:33Z</time>
      </trkpt>
      <trkpt lat="42.8767" lon="0.20578">
        <ele>2318</ele>
        <time>2013-04-07T09:31:35Z</time>
      </trkpt>
      <trkpt lat="42.87669" lon="0.20579">
        <ele>2318</ele>
        <time>2013-04-07T09:31:37Z</time>
      </trkpt>
      <trkpt lat="42.87667" lon="0.20579">
        <ele>2318</ele>
        <time>2013-04-07T09:31:39Z</time>
      </trkpt>
      <trkpt lat="42.87666" lon="0.2058">
        <ele>2319</ele>
        <time>2013-04-07T09:31:41Z</time>
      </trkpt>
      <trkpt lat="42.87664" lon="0.2058">
        <ele>2319</ele>
        <time>2013-04-07T09:31:43Z</time>
      </trkpt>
      <trkpt lat="42.87663" lon="0.20581">
        <ele>2319</ele>
        <time>2013-04-07T09:31:45Z</time>
      </trkpt>
      <trkpt lat="42.87662" lon="0.20582">
        <ele>2319</ele>
        <time>2013-04-07T09:31:47Z</time>
      </trkpt>
      <trkpt lat="42.87661" lon="0.20583">
        <ele>2320</ele>
        <time>2013-04-07T09:31:49Z</time>
      </trkpt>
      <trkpt lat="42.87659" lon="0.20583">
        <ele>2320</ele>
        <time>2013-04-07T09:31:51Z</time>
      </trkpt>
      <trkpt lat="42.87658" lon="0.20584">
        <ele>2320</ele>
        <time>2013-04-07T09:31:53Z</time>
      </trkpt>
      <trkpt lat="42.87656" lon="0.20583">
        <ele>2320</ele>
        <time>2013-04-07T09:31:55Z</time>
      </trkpt>
      <trkpt lat="42.87655" lon="0.20584">
        <ele>2320</ele>
        <time>2013-04-07T09:31:57Z</time>
      </trkpt>
      <trkpt lat="42.87653" lon="0.20584">
        <ele>2321</ele>
        <time>2013-04-07T09:31:59Z</time>
      </trkpt>
      <trkpt lat="42.87652" lon="0.20585">
        <ele>2321</ele>
        <time>2013-04-07T09:32:01Z</time>
      </trkpt>
      <trkpt lat="42.8765" lon="0.20585">
        <ele>2322</ele>
        <time>2013-04-07T09:32:03Z</time>
      </trkpt>
      <trkpt lat="42.87649" lon="0.20587">
        <ele>2322</ele>
        <time>2013-04-07T09:32:06Z</time>
      </trkpt>
      <trkpt lat="42.87648" lon="0.20588">
        <ele>2322</ele>
        <time>2013-04-07T09:32:08Z</time>
      </trkpt>
      <trkpt lat="42.87646" lon="0.20589">
        <ele>2322</ele>
        <time>2013-04-07T09:32:10Z</time>
      </trkpt>
      <trkpt lat="42.87645" lon="0.20589">
        <ele>2322</ele>
        <time>2013-04-07T09:32:12Z</time>
      </trkpt>
      <trkpt lat="42.87643" lon="0.20589">
        <ele>2322</ele>
        <time>2013-04-07T09:32:14Z</time>
      </trkpt>
      <trkpt lat="42.87641" lon="0.20589">
        <ele>2322</ele>
        <time>2013-04-07T09:32:16Z</time>
      </trkpt>
      <trkpt lat="42.87639" lon="0.2059">
        <ele>2322</ele>
        <time>2013-04-07T09:32:18Z</time>
      </trkpt>
      <trkpt lat="42.87638" lon="0.2059">
        <ele>2322</ele>
        <time>2013-04-07T09:32:20Z</time>
      </trkpt>
      <trkpt lat="42.87636" lon="0.2059">
        <ele>2322</ele>
        <time>2013-04-07T09:32:22Z</time>
      </trkpt>
      <trkpt lat="42.87634" lon="0.2059">
        <ele>2322</ele>
        <time>2013-04-07T09:32:24Z</time>
      </trkpt>
      <trkpt lat="42.87633" lon="0.2059">
        <ele>2322</ele>
        <time>2013-04-07T09:32:26Z</time>
      </trkpt>
      <trkpt lat="42.87632" lon="0.2059">
        <ele>2322</ele>
        <time>2013-04-07T09:32:28Z</time>
      </trkpt>
      <trkpt lat="42.8763" lon="0.2059">
        <ele>2322</ele>
        <time>2013-04-07T09:32:30Z</time>
      </trkpt>
      <trkpt lat="42.87629" lon="0.2059">
        <ele>2322</ele>
        <time>2013-04-07T09:32:32Z</time>
      </trkpt>
      <trkpt lat="42.87627" lon="0.2059">
        <ele>2322</ele>
        <time>2013-04-07T09:32:34Z</time>
      </trkpt>
      <trkpt lat="42.87626" lon="0.2059">
        <ele>2322</ele>
        <time>2013-04-07T09:32:36Z</time>
      </trkpt>
      <trkpt lat="42.87624" lon="0.2059">
        <ele>2322</ele>
        <time>2013-04-07T09:32:38Z</time>
      </trkpt>
      <trkpt lat="42.87622" lon="0.20589">
        <ele>2324</ele>
        <time>2013-04-07T09:33:11Z</time>
      </trkpt>
      <trkpt lat="42.87621" lon="0.20588">
        <ele>2324</ele>
        <time>2013-04-07T09:33:13Z</time>
      </trkpt>
      <trkpt lat="42.8762" lon="0.20588">
        <ele>2324</ele>
        <time>2013-04-07T09:33:15Z</time>
      </trkpt>
      <trkpt lat="42.87618" lon="0.20588">
        <ele>2324</ele>
        <time>2013-04-07T09:33:17Z</time>
      </trkpt>
      <trkpt lat="42.87617" lon="0.20587">
        <ele>2325</ele>
        <time>2013-04-07T09:33:19Z</time>
      </trkpt>
      <trkpt lat="42.87616" lon="0.20587">
        <ele>2325</ele>
        <time>2013-04-07T09:33:21Z</time>
      </trkpt>
      <trkpt lat="42.87614" lon="0.20585">
        <ele>2325</ele>
        <time>2013-04-07T09:33:24Z</time>
      </trkpt>
      <trkpt lat="42.87612" lon="0.20585">
        <ele>2326</ele>
        <time>2013-04-07T09:33:26Z</time>
      </trkpt>
      <trkpt lat="42.87611" lon="0.20584">
        <ele>2326</ele>
        <time>2013-04-07T09:33:28Z</time>
      </trkpt>
      <trkpt lat="42.8761" lon="0.20584">
        <ele>2326</ele>
        <time>2013-04-07T09:33:30Z</time>
      </trkpt>
      <trkpt lat="42.87609" lon="0.20584">
        <ele>2326</ele>
        <time>2013-04-07T09:33:32Z</time>
      </trkpt>
      <trkpt lat="42.87608" lon="0.20583">
        <ele>2326</ele>
        <time>2013-04-07T09:33:34Z</time>
      </trkpt>
      <trkpt lat="42.87606" lon="0.20582">
        <ele>2326</ele>
        <time>2013-04-07T09:33:36Z</time>
      </trkpt>
      <trkpt lat="42.87604" lon="0.20581">
        <ele>2327</ele>
        <time>2013-04-07T09:33:38Z</time>
      </trkpt>
      <trkpt lat="42.87603" lon="0.2058">
        <ele>2327</ele>
        <time>2013-04-07T09:33:40Z</time>
      </trkpt>
      <trkpt lat="42.87601" lon="0.2058">
        <ele>2328</ele>
        <time>2013-04-07T09:33:42Z</time>
      </trkpt>
      <trkpt lat="42.876" lon="0.20579">
        <ele>2328</ele>
        <time>2013-04-07T09:33:44Z</time>
      </trkpt>
      <trkpt lat="42.87598" lon="0.20578">
        <ele>2329</ele>
        <time>2013-04-07T09:33:46Z</time>
      </trkpt>
      <trkpt lat="42.87596" lon="0.20577">
        <ele>2329</ele>
        <time>2013-04-07T09:33:48Z</time>
      </trkpt>
      <trkpt lat="42.87595" lon="0.20576">
        <ele>2329</ele>
        <time>2013-04-07T09:33:50Z</time>
      </trkpt>
      <trkpt lat="42.87593" lon="0.20575">
        <ele>2329</ele>
        <time>2013-04-07T09:33:52Z</time>
      </trkpt>
      <trkpt lat="42.87592" lon="0.20574">
        <ele>2330</ele>
        <time>2013-04-07T09:33:54Z</time>
      </trkpt>
      <trkpt lat="42.8759" lon="0.20573">
        <ele>2330</ele>
        <time>2013-04-07T09:33:56Z</time>
      </trkpt>
      <trkpt lat="42.87589" lon="0.20573">
        <ele>2331</ele>
        <time>2013-04-07T09:34:35Z</time>
      </trkpt>
      <trkpt lat="42.87587" lon="0.20572">
        <ele>2331</ele>
        <time>2013-04-07T09:34:37Z</time>
      </trkpt>
      <trkpt lat="42.87586" lon="0.2057">
        <ele>2331</ele>
        <time>2013-04-07T09:34:39Z</time>
      </trkpt>
      <trkpt lat="42.87585" lon="0.20568">
        <ele>2331</ele>
        <time>2013-04-07T09:34:41Z</time>
      </trkpt>
      <trkpt lat="42.87583" lon="0.20567">
        <ele>2331</ele>
        <time>2013-04-07T09:34:43Z</time>
      </trkpt>
      <trkpt lat="42.87582" lon="0.20565">
        <ele>2331</ele>
        <time>2013-04-07T09:34:45Z</time>
      </trkpt>
      <trkpt lat="42.8758" lon="0.20564">
        <ele>2331</ele>
        <time>2013-04-07T09:34:47Z</time>
      </trkpt>
      <trkpt lat="42.87579" lon="0.20563">
        <ele>2332</ele>
        <time>2013-04-07T09:34:49Z</time>
      </trkpt>
      <trkpt lat="42.87577" lon="0.20562">
        <ele>2332</ele>
        <time>2013-04-07T09:34:51Z</time>
      </trkpt>
      <trkpt lat="42.87576" lon="0.20561">
        <ele>2332</ele>
        <time>2013-04-07T09:34:53Z</time>
      </trkpt>
      <trkpt lat="42.87574" lon="0.2056">
        <ele>2332</ele>
        <time>2013-04-07T09:34:55Z</time>
      </trkpt>
      <trkpt lat="42.87572" lon="0.20559">
        <ele>2332</ele>
        <time>2013-04-07T09:34:57Z</time>
      </trkpt>
      <trkpt lat="42.8757" lon="0.20558">
        <ele>2332</ele>
        <time>2013-04-07T09:34:59Z</time>
      </trkpt>
      <trkpt lat="42.87568" lon="0.20558">
        <ele>2332</ele>
        <time>2013-04-07T09:35:01Z</time>
      </trkpt>
      <trkpt lat="42.87567" lon="0.20558">
        <ele>2334</ele>
        <time>2013-04-07T09:35:51Z</time>
      </trkpt>
      <trkpt lat="42.87567" lon="0.2056">
        <ele>2334</ele>
        <time>2013-04-07T09:36:30Z</time>
      </trkpt>
      <trkpt lat="42.87567" lon="0.20558">
        <ele>2334</ele>
        <time>2013-04-07T09:36:52Z</time>
      </trkpt>
      <trkpt lat="42.87568" lon="0.20556">
        <ele>2334</ele>
        <time>2013-04-07T09:38:16Z</time>
      </trkpt>
      <trkpt lat="42.87567" lon="0.20554">
        <ele>2334</ele>
        <time>2013-04-07T09:38:18Z</time>
      </trkpt>
      <trkpt lat="42.87567" lon="0.20551">
        <ele>2334</ele>
        <time>2013-04-07T09:38:20Z</time>
      </trkpt>
      <trkpt lat="42.87566" lon="0.20549">
        <ele>2335</ele>
        <time>2013-04-07T09:38:22Z</time>
      </trkpt>
      <trkpt lat="42.87566" lon="0.20548">
        <ele>2335</ele>
        <time>2013-04-07T09:38:25Z</time>
      </trkpt>
      <trkpt lat="42.87566" lon="0.20546">
        <ele>2336</ele>
        <time>2013-04-07T09:38:27Z</time>
      </trkpt>
      <trkpt lat="42.87566" lon="0.20545">
        <ele>2336</ele>
        <time>2013-04-07T09:38:29Z</time>
      </trkpt>
      <trkpt lat="42.87565" lon="0.20543">
        <ele>2336</ele>
        <time>2013-04-07T09:38:31Z</time>
      </trkpt>
      <trkpt lat="42.87565" lon="0.20541">
        <ele>2337</ele>
        <time>2013-04-07T09:38:33Z</time>
      </trkpt>
      <trkpt lat="42.87565" lon="0.20539">
        <ele>2337</ele>
        <time>2013-04-07T09:38:35Z</time>
      </trkpt>
      <trkpt lat="42.87564" lon="0.20537">
        <ele>2338</ele>
        <time>2013-04-07T09:38:37Z</time>
      </trkpt>
      <trkpt lat="42.87564" lon="0.20535">
        <ele>2338</ele>
        <time>2013-04-07T09:38:39Z</time>
      </trkpt>
      <trkpt lat="42.87564" lon="0.20534">
        <ele>2339</ele>
        <time>2013-04-07T09:38:41Z</time>
      </trkpt>
      <trkpt lat="42.87563" lon="0.20531">
        <ele>2339</ele>
        <time>2013-04-07T09:38:43Z</time>
      </trkpt>
      <trkpt lat="42.87563" lon="0.20529">
        <ele>2339</ele>
        <time>2013-04-07T09:38:45Z</time>
      </trkpt>
      <trkpt lat="42.87562" lon="0.20528">
        <ele>2340</ele>
        <time>2013-04-07T09:38:47Z</time>
      </trkpt>
      <trkpt lat="42.87561" lon="0.20526">
        <ele>2340</ele>
        <time>2013-04-07T09:38:49Z</time>
      </trkpt>
      <trkpt lat="42.87561" lon="0.20524">
        <ele>2340</ele>
        <time>2013-04-07T09:38:52Z</time>
      </trkpt>
      <trkpt lat="42.87561" lon="0.20522">
        <ele>2341</ele>
        <time>2013-04-07T09:38:55Z</time>
      </trkpt>
      <trkpt lat="42.87561" lon="0.2052">
        <ele>2341</ele>
        <time>2013-04-07T09:38:58Z</time>
      </trkpt>
      <trkpt lat="42.8756" lon="0.20518">
        <ele>2341</ele>
        <time>2013-04-07T09:39:01Z</time>
      </trkpt>
      <trkpt lat="42.8756" lon="0.20517">
        <ele>2342</ele>
        <time>2013-04-07T09:39:03Z</time>
      </trkpt>
      <trkpt lat="42.8756" lon="0.20515">
        <ele>2342</ele>
        <time>2013-04-07T09:39:05Z</time>
      </trkpt>
      <trkpt lat="42.8756" lon="0.20514">
        <ele>2342</ele>
        <time>2013-04-07T09:39:07Z</time>
      </trkpt>
      <trkpt lat="42.8756" lon="0.20512">
        <ele>2342</ele>
        <time>2013-04-07T09:39:09Z</time>
      </trkpt>
      <trkpt lat="42.87561" lon="0.20511">
        <ele>2342</ele>
        <time>2013-04-07T09:39:11Z</time>
      </trkpt>
      <trkpt lat="42.87561" lon="0.20509">
        <ele>2342</ele>
        <time>2013-04-07T09:39:14Z</time>
      </trkpt>
      <trkpt lat="42.87563" lon="0.20507">
        <ele>2342</ele>
        <time>2013-04-07T09:39:17Z</time>
      </trkpt>
      <trkpt lat="42.87563" lon="0.20506">
        <ele>2342</ele>
        <time>2013-04-07T09:39:20Z</time>
      </trkpt>
      <trkpt lat="42.87564" lon="0.20504">
        <ele>2342</ele>
        <time>2013-04-07T09:39:25Z</time>
      </trkpt>
      <trkpt lat="42.87566" lon="0.20503">
        <ele>2342</ele>
        <time>2013-04-07T09:39:28Z</time>
      </trkpt>
      <trkpt lat="42.87566" lon="0.20501">
        <ele>2342</ele>
        <time>2013-04-07T09:39:30Z</time>
      </trkpt>
      <trkpt lat="42.87567" lon="0.205">
        <ele>2342</ele>
        <time>2013-04-07T09:39:32Z</time>
      </trkpt>
      <trkpt lat="42.87568" lon="0.20498">
        <ele>2343</ele>
        <time>2013-04-07T09:39:35Z</time>
      </trkpt>
      <trkpt lat="42.87569" lon="0.20496">
        <ele>2343</ele>
        <time>2013-04-07T09:39:37Z</time>
      </trkpt>
      <trkpt lat="42.8757" lon="0.20495">
        <ele>2344</ele>
        <time>2013-04-07T09:39:39Z</time>
      </trkpt>
      <trkpt lat="42.87571" lon="0.20493">
        <ele>2344</ele>
        <time>2013-04-07T09:39:41Z</time>
      </trkpt>
      <trkpt lat="42.87571" lon="0.20492">
        <ele>2344</ele>
        <time>2013-04-07T09:39:43Z</time>
      </trkpt>
      <trkpt lat="42.87573" lon="0.2049">
        <ele>2344</ele>
        <time>2013-04-07T09:39:46Z</time>
      </trkpt>
      <trkpt lat="42.87574" lon="0.20488">
        <ele>2344</ele>
        <time>2013-04-07T09:39:48Z</time>
      </trkpt>
      <trkpt lat="42.87575" lon="0.20487">
        <ele>2344</ele>
        <time>2013-04-07T09:39:50Z</time>
      </trkpt>
      <trkpt lat="42.87576" lon="0.20485">
        <ele>2345</ele>
        <time>2013-04-07T09:39:54Z</time>
      </trkpt>
      <trkpt lat="42.87577" lon="0.20483">
        <ele>2346</ele>
        <time>2013-04-07T09:40:10Z</time>
      </trkpt>
      <trkpt lat="42.87577" lon="0.20482">
        <ele>2346</ele>
        <time>2013-04-07T09:40:12Z</time>
      </trkpt>
      <trkpt lat="42.87578" lon="0.2048">
        <ele>2346</ele>
        <time>2013-04-07T09:40:14Z</time>
      </trkpt>
      <trkpt lat="42.87579" lon="0.20478">
        <ele>2346</ele>
        <time>2013-04-07T09:40:16Z</time>
      </trkpt>
      <trkpt lat="42.8758" lon="0.20477">
        <ele>2346</ele>
        <time>2013-04-07T09:40:18Z</time>
      </trkpt>
      <trkpt lat="42.87581" lon="0.20475">
        <ele>2346</ele>
        <time>2013-04-07T09:40:20Z</time>
      </trkpt>
      <trkpt lat="42.87582" lon="0.20474">
        <ele>2346</ele>
        <time>2013-04-07T09:40:22Z</time>
      </trkpt>
      <trkpt lat="42.87583" lon="0.20472">
        <ele>2347</ele>
        <time>2013-04-07T09:40:24Z</time>
      </trkpt>
      <trkpt lat="42.87584" lon="0.2047">
        <ele>2347</ele>
        <time>2013-04-07T09:40:27Z</time>
      </trkpt>
      <trkpt lat="42.87584" lon="0.20469">
        <ele>2347</ele>
        <time>2013-04-07T09:40:29Z</time>
      </trkpt>
      <trkpt lat="42.87585" lon="0.20467">
        <ele>2347</ele>
        <time>2013-04-07T09:40:31Z</time>
      </trkpt>
      <trkpt lat="42.87586" lon="0.20465">
        <ele>2347</ele>
        <time>2013-04-07T09:40:34Z</time>
      </trkpt>
      <trkpt lat="42.87587" lon="0.20463">
        <ele>2347</ele>
        <time>2013-04-07T09:40:37Z</time>
      </trkpt>
      <trkpt lat="42.87588" lon="0.20461">
        <ele>2347</ele>
        <time>2013-04-07T09:40:39Z</time>
      </trkpt>
      <trkpt lat="42.87589" lon="0.2046">
        <ele>2347</ele>
        <time>2013-04-07T09:40:41Z</time>
      </trkpt>
      <trkpt lat="42.8759" lon="0.20459">
        <ele>2348</ele>
        <time>2013-04-07T09:40:43Z</time>
      </trkpt>
      <trkpt lat="42.87591" lon="0.20457">
        <ele>2348</ele>
        <time>2013-04-07T09:40:45Z</time>
      </trkpt>
      <trkpt lat="42.87592" lon="0.20455">
        <ele>2349</ele>
        <time>2013-04-07T09:40:47Z</time>
      </trkpt>
      <trkpt lat="42.87593" lon="0.20453">
        <ele>2349</ele>
        <time>2013-04-07T09:40:49Z</time>
      </trkpt>
      <trkpt lat="42.87594" lon="0.20451">
        <ele>2349</ele>
        <time>2013-04-07T09:40:51Z</time>
      </trkpt>
      <trkpt lat="42.87594" lon="0.2045">
        <ele>2349</ele>
        <time>2013-04-07T09:40:53Z</time>
      </trkpt>
      <trkpt lat="42.87595" lon="0.20448">
        <ele>2349</ele>
        <time>2013-04-07T09:40:55Z</time>
      </trkpt>
      <trkpt lat="42.87595" lon="0.20447">
        <ele>2349</ele>
        <time>2013-04-07T09:40:57Z</time>
      </trkpt>
      <trkpt lat="42.87596" lon="0.20445">
        <ele>2349</ele>
        <time>2013-04-07T09:40:59Z</time>
      </trkpt>
      <trkpt lat="42.87597" lon="0.20443">
        <ele>2349</ele>
        <time>2013-04-07T09:41:01Z</time>
      </trkpt>
      <trkpt lat="42.87598" lon="0.20442">
        <ele>2349</ele>
        <time>2013-04-07T09:41:03Z</time>
      </trkpt>
      <trkpt lat="42.87599" lon="0.2044">
        <ele>2349</ele>
        <time>2013-04-07T09:41:05Z</time>
      </trkpt>
      <trkpt lat="42.876" lon="0.20439">
        <ele>2349</ele>
        <time>2013-04-07T09:41:07Z</time>
      </trkpt>
      <trkpt lat="42.876" lon="0.20437">
        <ele>2350</ele>
        <time>2013-04-07T09:41:09Z</time>
      </trkpt>
      <trkpt lat="42.87601" lon="0.20436">
        <ele>2350</ele>
        <time>2013-04-07T09:41:11Z</time>
      </trkpt>
      <trkpt lat="42.87602" lon="0.20434">
        <ele>2350</ele>
        <time>2013-04-07T09:41:14Z</time>
      </trkpt>
      <trkpt lat="42.87603" lon="0.20432">
        <ele>2350</ele>
        <time>2013-04-07T09:41:16Z</time>
      </trkpt>
      <trkpt lat="42.87604" lon="0.20431">
        <ele>2350</ele>
        <time>2013-04-07T09:41:18Z</time>
      </trkpt>
      <trkpt lat="42.87605" lon="0.20429">
        <ele>2350</ele>
        <time>2013-04-07T09:41:20Z</time>
      </trkpt>
      <trkpt lat="42.87606" lon="0.20427">
        <ele>2350</ele>
        <time>2013-04-07T09:41:22Z</time>
      </trkpt>
      <trkpt lat="42.87607" lon="0.20425">
        <ele>2350</ele>
        <time>2013-04-07T09:41:24Z</time>
      </trkpt>
      <trkpt lat="42.87608" lon="0.20424">
        <ele>2350</ele>
        <time>2013-04-07T09:41:26Z</time>
      </trkpt>
      <trkpt lat="42.87609" lon="0.20423">
        <ele>2350</ele>
        <time>2013-04-07T09:41:28Z</time>
      </trkpt>
      <trkpt lat="42.87609" lon="0.20421">
        <ele>2350</ele>
        <time>2013-04-07T09:41:31Z</time>
      </trkpt>
      <trkpt lat="42.8761" lon="0.20419">
        <ele>2350</ele>
        <time>2013-04-07T09:41:35Z</time>
      </trkpt>
      <trkpt lat="42.87611" lon="0.20418">
        <ele>2350</ele>
        <time>2013-04-07T09:41:38Z</time>
      </trkpt>
      <trkpt lat="42.87612" lon="0.20416">
        <ele>2350</ele>
        <time>2013-04-07T09:41:41Z</time>
      </trkpt>
      <trkpt lat="42.87612" lon="0.20415">
        <ele>2350</ele>
        <time>2013-04-07T09:41:44Z</time>
      </trkpt>
      <trkpt lat="42.87613" lon="0.20413">
        <ele>2350</ele>
        <time>2013-04-07T09:41:46Z</time>
      </trkpt>
      <trkpt lat="42.87613" lon="0.20412">
        <ele>2350</ele>
        <time>2013-04-07T09:41:49Z</time>
      </trkpt>
      <trkpt lat="42.87613" lon="0.2041">
        <ele>2350</ele>
        <time>2013-04-07T09:41:52Z</time>
      </trkpt>
      <trkpt lat="42.87613" lon="0.20409">
        <ele>2350</ele>
        <time>2013-04-07T09:41:54Z</time>
      </trkpt>
      <trkpt lat="42.87613" lon="0.20407">
        <ele>2350</ele>
        <time>2013-04-07T09:41:57Z</time>
      </trkpt>
      <trkpt lat="42.87613" lon="0.20405">
        <ele>2350</ele>
        <time>2013-04-07T09:42:00Z</time>
      </trkpt>
      <trkpt lat="42.87613" lon="0.20404">
        <ele>2351</ele>
        <time>2013-04-07T09:42:02Z</time>
      </trkpt>
      <trkpt lat="42.87613" lon="0.20402">
        <ele>2351</ele>
        <time>2013-04-07T09:42:05Z</time>
      </trkpt>
      <trkpt lat="42.87613" lon="0.204">
        <ele>2351</ele>
        <time>2013-04-07T09:42:08Z</time>
      </trkpt>
      <trkpt lat="42.87613" lon="0.20398">
        <ele>2351</ele>
        <time>2013-04-07T09:42:11Z</time>
      </trkpt>
      <trkpt lat="42.87613" lon="0.20397">
        <ele>2352</ele>
        <time>2013-04-07T09:42:13Z</time>
      </trkpt>
      <trkpt lat="42.87613" lon="0.20395">
        <ele>2352</ele>
        <time>2013-04-07T09:42:16Z</time>
      </trkpt>
      <trkpt lat="42.87613" lon="0.20393">
        <ele>2353</ele>
        <time>2013-04-07T09:42:19Z</time>
      </trkpt>
      <trkpt lat="42.87614" lon="0.20391">
        <ele>2353</ele>
        <time>2013-04-07T09:42:22Z</time>
      </trkpt>
      <trkpt lat="42.87613" lon="0.2039">
        <ele>2353</ele>
        <time>2013-04-07T09:42:25Z</time>
      </trkpt>
      <trkpt lat="42.87613" lon="0.20388">
        <ele>2354</ele>
        <time>2013-04-07T09:42:28Z</time>
      </trkpt>
      <trkpt lat="42.87613" lon="0.20387">
        <ele>2354</ele>
        <time>2013-04-07T09:42:31Z</time>
      </trkpt>
      <trkpt lat="42.87613" lon="0.20385">
        <ele>2354</ele>
        <time>2013-04-07T09:42:34Z</time>
      </trkpt>
      <trkpt lat="42.87613" lon="0.20384">
        <ele>2355</ele>
        <time>2013-04-07T09:42:37Z</time>
      </trkpt>
      <trkpt lat="42.87613" lon="0.20382">
        <ele>2355</ele>
        <time>2013-04-07T09:42:52Z</time>
      </trkpt>
      <trkpt lat="42.87613" lon="0.20381">
        <ele>2355</ele>
        <time>2013-04-07T09:42:58Z</time>
      </trkpt>
      <trkpt lat="42.87613" lon="0.20379">
        <ele>2355</ele>
        <time>2013-04-07T09:43:01Z</time>
      </trkpt>
      <trkpt lat="42.87613" lon="0.20381">
        <ele>2357</ele>
        <time>2013-04-07T09:43:08Z</time>
      </trkpt>
      <trkpt lat="42.87613" lon="0.20382">
        <ele>2357</ele>
        <time>2013-04-07T09:43:10Z</time>
      </trkpt>
      <trkpt lat="42.87611" lon="0.20384">
        <ele>2357</ele>
        <time>2013-04-07T09:43:13Z</time>
      </trkpt>
      <trkpt lat="42.8761" lon="0.20386">
        <ele>2357</ele>
        <time>2013-04-07T09:43:15Z</time>
      </trkpt>
      <trkpt lat="42.87609" lon="0.20388">
        <ele>2358</ele>
        <time>2013-04-07T09:43:18Z</time>
      </trkpt>
      <trkpt lat="42.87608" lon="0.20389">
        <ele>2358</ele>
        <time>2013-04-07T09:43:20Z</time>
      </trkpt>
      <trkpt lat="42.87606" lon="0.2039">
        <ele>2358</ele>
        <time>2013-04-07T09:43:23Z</time>
      </trkpt>
      <trkpt lat="42.87604" lon="0.20391">
        <ele>2359</ele>
        <time>2013-04-07T09:43:26Z</time>
      </trkpt>
      <trkpt lat="42.87603" lon="0.20391">
        <ele>2359</ele>
        <time>2013-04-07T09:43:28Z</time>
      </trkpt>
      <trkpt lat="42.87601" lon="0.20392">
        <ele>2360</ele>
        <time>2013-04-07T09:43:30Z</time>
      </trkpt>
      <trkpt lat="42.876" lon="0.20392">
        <ele>2360</ele>
        <time>2013-04-07T09:43:32Z</time>
      </trkpt>
      <trkpt lat="42.87598" lon="0.20393">
        <ele>2360</ele>
        <time>2013-04-07T09:43:35Z</time>
      </trkpt>
      <trkpt lat="42.87597" lon="0.20392">
        <ele>2361</ele>
        <time>2013-04-07T09:43:37Z</time>
      </trkpt>
      <trkpt lat="42.87595" lon="0.20392">
        <ele>2361</ele>
        <time>2013-04-07T09:43:40Z</time>
      </trkpt>
      <trkpt lat="42.87594" lon="0.20392">
        <ele>2362</ele>
        <time>2013-04-07T09:43:42Z</time>
      </trkpt>
      <trkpt lat="42.87593" lon="0.20392">
        <ele>2362</ele>
        <time>2013-04-07T09:43:44Z</time>
      </trkpt>
      <trkpt lat="42.87594" lon="0.20392">
        <ele>2363</ele>
        <time>2013-04-07T09:44:06Z</time>
      </trkpt>
      <trkpt lat="42.87593" lon="0.20392">
        <ele>2363</ele>
        <time>2013-04-07T09:44:22Z</time>
      </trkpt>
      <trkpt lat="42.87591" lon="0.2039">
        <ele>2363</ele>
        <time>2013-04-07T09:44:25Z</time>
      </trkpt>
      <trkpt lat="42.87591" lon="0.20388">
        <ele>2363</ele>
        <time>2013-04-07T09:44:27Z</time>
      </trkpt>
      <trkpt lat="42.87591" lon="0.20386">
        <ele>2363</ele>
        <time>2013-04-07T09:44:29Z</time>
      </trkpt>
      <trkpt lat="42.87592" lon="0.20384">
        <ele>2363</ele>
        <time>2013-04-07T09:44:31Z</time>
      </trkpt>
      <trkpt lat="42.87592" lon="0.20382">
        <ele>2363</ele>
        <time>2013-04-07T09:44:33Z</time>
      </trkpt>
      <trkpt lat="42.87592" lon="0.2038">
        <ele>2363</ele>
        <time>2013-04-07T09:44:35Z</time>
      </trkpt>
      <trkpt lat="42.87593" lon="0.20378">
        <ele>2364</ele>
        <time>2013-04-07T09:44:37Z</time>
      </trkpt>
      <trkpt lat="42.87593" lon="0.20376">
        <ele>2364</ele>
        <time>2013-04-07T09:44:39Z</time>
      </trkpt>
      <trkpt lat="42.87593" lon="0.20374">
        <ele>2364</ele>
        <time>2013-04-07T09:44:41Z</time>
      </trkpt>
      <trkpt lat="42.87594" lon="0.20372">
        <ele>2365</ele>
        <time>2013-04-07T09:44:43Z</time>
      </trkpt>
      <trkpt lat="42.87594" lon="0.2037">
        <ele>2365</ele>
        <time>2013-04-07T09:44:45Z</time>
      </trkpt>
      <trkpt lat="42.87595" lon="0.20368">
        <ele>2365</ele>
        <time>2013-04-07T09:44:47Z</time>
      </trkpt>
      <trkpt lat="42.87595" lon="0.20366">
        <ele>2366</ele>
        <time>2013-04-07T09:44:49Z</time>
      </trkpt>
      <trkpt lat="42.87595" lon="0.20363">
        <ele>2366</ele>
        <time>2013-04-07T09:44:51Z</time>
      </trkpt>
      <trkpt lat="42.87595" lon="0.20361">
        <ele>2366</ele>
        <time>2013-04-07T09:44:53Z</time>
      </trkpt>
      <trkpt lat="42.87595" lon="0.20359">
        <ele>2366</ele>
        <time>2013-04-07T09:44:55Z</time>
      </trkpt>
      <trkpt lat="42.87595" lon="0.20357">
        <ele>2366</ele>
        <time>2013-04-07T09:44:57Z</time>
      </trkpt>
      <trkpt lat="42.87595" lon="0.20355">
        <ele>2366</ele>
        <time>2013-04-07T09:44:59Z</time>
      </trkpt>
      <trkpt lat="42.87594" lon="0.20353">
        <ele>2366</ele>
        <time>2013-04-07T09:45:01Z</time>
      </trkpt>
      <trkpt lat="42.87594" lon="0.20351">
        <ele>2367</ele>
        <time>2013-04-07T09:45:03Z</time>
      </trkpt>
      <trkpt lat="42.87593" lon="0.20349">
        <ele>2367</ele>
        <time>2013-04-07T09:45:05Z</time>
      </trkpt>
      <trkpt lat="42.87593" lon="0.20347">
        <ele>2367</ele>
        <time>2013-04-07T09:45:07Z</time>
      </trkpt>
      <trkpt lat="42.87593" lon="0.20345">
        <ele>2367</ele>
        <time>2013-04-07T09:45:09Z</time>
      </trkpt>
      <trkpt lat="42.87592" lon="0.20343">
        <ele>2369</ele>
        <time>2013-04-07T09:45:39Z</time>
      </trkpt>
      <trkpt lat="42.87592" lon="0.20341">
        <ele>2369</ele>
        <time>2013-04-07T09:45:41Z</time>
      </trkpt>
      <trkpt lat="42.87592" lon="0.20339">
        <ele>2370</ele>
        <time>2013-04-07T09:45:43Z</time>
      </trkpt>
      <trkpt lat="42.87591" lon="0.20337">
        <ele>2370</ele>
        <time>2013-04-07T09:45:45Z</time>
      </trkpt>
      <trkpt lat="42.87591" lon="0.20335">
        <ele>2370</ele>
        <time>2013-04-07T09:45:47Z</time>
      </trkpt>
      <trkpt lat="42.8759" lon="0.20333">
        <ele>2370</ele>
        <time>2013-04-07T09:45:49Z</time>
      </trkpt>
      <trkpt lat="42.8759" lon="0.20332">
        <ele>2370</ele>
        <time>2013-04-07T09:45:51Z</time>
      </trkpt>
      <trkpt lat="42.8759" lon="0.2033">
        <ele>2371</ele>
        <time>2013-04-07T09:45:53Z</time>
      </trkpt>
      <trkpt lat="42.8759" lon="0.20327">
        <ele>2371</ele>
        <time>2013-04-07T09:45:55Z</time>
      </trkpt>
      <trkpt lat="42.8759" lon="0.20325">
        <ele>2372</ele>
        <time>2013-04-07T09:45:57Z</time>
      </trkpt>
      <trkpt lat="42.8759" lon="0.20323">
        <ele>2372</ele>
        <time>2013-04-07T09:45:59Z</time>
      </trkpt>
      <trkpt lat="42.8759" lon="0.20321">
        <ele>2372</ele>
        <time>2013-04-07T09:46:01Z</time>
      </trkpt>
      <trkpt lat="42.87589" lon="0.20319">
        <ele>2372</ele>
        <time>2013-04-07T09:46:03Z</time>
      </trkpt>
      <trkpt lat="42.87589" lon="0.20317">
        <ele>2373</ele>
        <time>2013-04-07T09:46:05Z</time>
      </trkpt>
      <trkpt lat="42.87589" lon="0.20315">
        <ele>2373</ele>
        <time>2013-04-07T09:46:07Z</time>
      </trkpt>
      <trkpt lat="42.87589" lon="0.20313">
        <ele>2373</ele>
        <time>2013-04-07T09:46:10Z</time>
      </trkpt>
      <trkpt lat="42.87589" lon="0.20311">
        <ele>2374</ele>
        <time>2013-04-07T09:46:12Z</time>
      </trkpt>
      <trkpt lat="42.87588" lon="0.20309">
        <ele>2374</ele>
        <time>2013-04-07T09:46:14Z</time>
      </trkpt>
      <trkpt lat="42.87588" lon="0.20307">
        <ele>2374</ele>
        <time>2013-04-07T09:46:16Z</time>
      </trkpt>
      <trkpt lat="42.87588" lon="0.20305">
        <ele>2375</ele>
        <time>2013-04-07T09:46:18Z</time>
      </trkpt>
      <trkpt lat="42.87587" lon="0.20303">
        <ele>2375</ele>
        <time>2013-04-07T09:46:20Z</time>
      </trkpt>
      <trkpt lat="42.87587" lon="0.20301">
        <ele>2375</ele>
        <time>2013-04-07T09:46:22Z</time>
      </trkpt>
      <trkpt lat="42.87587" lon="0.20299">
        <ele>2375</ele>
        <time>2013-04-07T09:46:24Z</time>
      </trkpt>
      <trkpt lat="42.87587" lon="0.20298">
        <ele>2375</ele>
        <time>2013-04-07T09:46:26Z</time>
      </trkpt>
      <trkpt lat="42.87587" lon="0.20296">
        <ele>2376</ele>
        <time>2013-04-07T09:46:28Z</time>
      </trkpt>
      <trkpt lat="42.87587" lon="0.20294">
        <ele>2376</ele>
        <time>2013-04-07T09:46:30Z</time>
      </trkpt>
      <trkpt lat="42.87587" lon="0.20293">
        <ele>2376</ele>
        <time>2013-04-07T09:46:32Z</time>
      </trkpt>
      <trkpt lat="42.87586" lon="0.20291">
        <ele>2376</ele>
        <time>2013-04-07T09:46:34Z</time>
      </trkpt>
      <trkpt lat="42.87586" lon="0.2029">
        <ele>2376</ele>
        <time>2013-04-07T09:46:37Z</time>
      </trkpt>
      <trkpt lat="42.87585" lon="0.20288">
        <ele>2376</ele>
        <time>2013-04-07T09:47:07Z</time>
      </trkpt>
      <trkpt lat="42.87585" lon="0.20286">
        <ele>2376</ele>
        <time>2013-04-07T09:47:09Z</time>
      </trkpt>
      <trkpt lat="42.87584" lon="0.20285">
        <ele>2376</ele>
        <time>2013-04-07T09:47:11Z</time>
      </trkpt>
      <trkpt lat="42.87584" lon="0.20283">
        <ele>2376</ele>
        <time>2013-04-07T09:47:13Z</time>
      </trkpt>
      <trkpt lat="42.87583" lon="0.20281">
        <ele>2376</ele>
        <time>2013-04-07T09:47:15Z</time>
      </trkpt>
      <trkpt lat="42.87582" lon="0.20279">
        <ele>2377</ele>
        <time>2013-04-07T09:47:17Z</time>
      </trkpt>
      <trkpt lat="42.87582" lon="0.20278">
        <ele>2377</ele>
        <time>2013-04-07T09:47:19Z</time>
      </trkpt>
      <trkpt lat="42.87581" lon="0.20276">
        <ele>2378</ele>
        <time>2013-04-07T09:47:21Z</time>
      </trkpt>
      <trkpt lat="42.8758" lon="0.20275">
        <ele>2378</ele>
        <time>2013-04-07T09:47:23Z</time>
      </trkpt>
      <trkpt lat="42.8758" lon="0.20273">
        <ele>2379</ele>
        <time>2013-04-07T09:47:25Z</time>
      </trkpt>
      <trkpt lat="42.87579" lon="0.20271">
        <ele>2379</ele>
        <time>2013-04-07T09:47:27Z</time>
      </trkpt>
      <trkpt lat="42.87579" lon="0.20269">
        <ele>2380</ele>
        <time>2013-04-07T09:47:29Z</time>
      </trkpt>
      <trkpt lat="42.87578" lon="0.20268">
        <ele>2380</ele>
        <time>2013-04-07T09:47:31Z</time>
      </trkpt>
      <trkpt lat="42.87578" lon="0.20266">
        <ele>2381</ele>
        <time>2013-04-07T09:47:33Z</time>
      </trkpt>
      <trkpt lat="42.87577" lon="0.20265">
        <ele>2381</ele>
        <time>2013-04-07T09:47:35Z</time>
      </trkpt>
      <trkpt lat="42.87577" lon="0.20263">
        <ele>2382</ele>
        <time>2013-04-07T09:47:37Z</time>
      </trkpt>
      <trkpt lat="42.87577" lon="0.20261">
        <ele>2382</ele>
        <time>2013-04-07T09:47:39Z</time>
      </trkpt>
      <trkpt lat="42.87575" lon="0.2026">
        <ele>2382</ele>
        <time>2013-04-07T09:47:42Z</time>
      </trkpt>
      <trkpt lat="42.87574" lon="0.20262">
        <ele>2382</ele>
        <time>2013-04-07T09:47:45Z</time>
      </trkpt>
      <trkpt lat="42.87573" lon="0.20264">
        <ele>2382</ele>
        <time>2013-04-07T09:47:48Z</time>
      </trkpt>
      <trkpt lat="42.87572" lon="0.20266">
        <ele>2382</ele>
        <time>2013-04-07T09:47:51Z</time>
      </trkpt>
      <trkpt lat="42.87571" lon="0.20267">
        <ele>2382</ele>
        <time>2013-04-07T09:47:53Z</time>
      </trkpt>
      <trkpt lat="42.8757" lon="0.20269">
        <ele>2382</ele>
        <time>2013-04-07T09:47:55Z</time>
      </trkpt>
      <trkpt lat="42.87569" lon="0.2027">
        <ele>2382</ele>
        <time>2013-04-07T09:47:57Z</time>
      </trkpt>
      <trkpt lat="42.87568" lon="0.20272">
        <ele>2382</ele>
        <time>2013-04-07T09:47:59Z</time>
      </trkpt>
      <trkpt lat="42.87567" lon="0.20274">
        <ele>2382</ele>
        <time>2013-04-07T09:48:01Z</time>
      </trkpt>
      <trkpt lat="42.87566" lon="0.20275">
        <ele>2382</ele>
        <time>2013-04-07T09:48:04Z</time>
      </trkpt>
      <trkpt lat="42.87566" lon="0.20274">
        <ele>2383</ele>
        <time>2013-04-07T09:48:29Z</time>
      </trkpt>
      <trkpt lat="42.87566" lon="0.20276">
        <ele>2383</ele>
        <time>2013-04-07T09:48:38Z</time>
      </trkpt>
      <trkpt lat="42.87565" lon="0.20277">
        <ele>2383</ele>
        <time>2013-04-07T09:48:41Z</time>
      </trkpt>
      <trkpt lat="42.87563" lon="0.20279">
        <ele>2383</ele>
        <time>2013-04-07T09:48:44Z</time>
      </trkpt>
      <trkpt lat="42.87562" lon="0.20279">
        <ele>2383</ele>
        <time>2013-04-07T09:48:46Z</time>
      </trkpt>
      <trkpt lat="42.87561" lon="0.20281">
        <ele>2383</ele>
        <time>2013-04-07T09:48:48Z</time>
      </trkpt>
      <trkpt lat="42.87559" lon="0.20282">
        <ele>2383</ele>
        <time>2013-04-07T09:48:51Z</time>
      </trkpt>
      <trkpt lat="42.87558" lon="0.20282">
        <ele>2383</ele>
        <time>2013-04-07T09:48:53Z</time>
      </trkpt>
      <trkpt lat="42.87557" lon="0.20284">
        <ele>2383</ele>
        <time>2013-04-07T09:49:15Z</time>
      </trkpt>
      <trkpt lat="42.87556" lon="0.20285">
        <ele>2383</ele>
        <time>2013-04-07T09:49:25Z</time>
      </trkpt>
      <trkpt lat="42.87556" lon="0.20283">
        <ele>2383</ele>
        <time>2013-04-07T09:49:36Z</time>
      </trkpt>
      <trkpt lat="42.87556" lon="0.20282">
        <ele>2384</ele>
        <time>2013-04-07T09:49:39Z</time>
      </trkpt>
      <trkpt lat="42.87556" lon="0.2028">
        <ele>2384</ele>
        <time>2013-04-07T09:49:42Z</time>
      </trkpt>
      <trkpt lat="42.87557" lon="0.20278">
        <ele>2385</ele>
        <time>2013-04-07T09:49:44Z</time>
      </trkpt>
      <trkpt lat="42.87557" lon="0.20277">
        <ele>2385</ele>
        <time>2013-04-07T09:49:46Z</time>
      </trkpt>
      <trkpt lat="42.87558" lon="0.20275">
        <ele>2385</ele>
        <time>2013-04-07T09:49:49Z</time>
      </trkpt>
      <trkpt lat="42.87558" lon="0.20274">
        <ele>2385</ele>
        <time>2013-04-07T09:49:52Z</time>
      </trkpt>
      <trkpt lat="42.87558" lon="0.20272">
        <ele>2386</ele>
        <time>2013-04-07T09:49:54Z</time>
      </trkpt>
      <trkpt lat="42.8756" lon="0.20273">
        <ele>2386</ele>
        <time>2013-04-07T09:50:00Z</time>
      </trkpt>
      <trkpt lat="42.87559" lon="0.20271">
        <ele>2386</ele>
        <time>2013-04-07T09:50:26Z</time>
      </trkpt>
      <trkpt lat="42.8756" lon="0.2027">
        <ele>2386</ele>
        <time>2013-04-07T09:50:43Z</time>
      </trkpt>
      <trkpt lat="42.87561" lon="0.2027">
        <ele>2386</ele>
        <time>2013-04-07T09:51:03Z</time>
      </trkpt>
      <trkpt lat="42.87563" lon="0.2027">
        <ele>2386</ele>
        <time>2013-04-07T09:51:13Z</time>
      </trkpt>
      <trkpt lat="42.87561" lon="0.2027">
        <ele>2385</ele>
        <time>2013-04-07T09:51:57Z</time>
      </trkpt>
      <trkpt lat="42.8756" lon="0.2027">
        <ele>2384</ele>
        <time>2013-04-07T09:52:32Z</time>
      </trkpt>
      <trkpt lat="42.87561" lon="0.20269">
        <ele>2384</ele>
        <time>2013-04-07T09:52:43Z</time>
      </trkpt>
      <trkpt lat="42.87562" lon="0.2027">
        <ele>2383</ele>
        <time>2013-04-07T09:53:02Z</time>
      </trkpt>
      <trkpt lat="42.87563" lon="0.20271">
        <ele>2381</ele>
        <time>2013-04-07T09:53:32Z</time>
      </trkpt>
      <trkpt lat="42.87563" lon="0.20273">
        <ele>2382</ele>
        <time>2013-04-07T09:53:44Z</time>
      </trkpt>
      <trkpt lat="42.87561" lon="0.20272">
        <ele>2382</ele>
        <time>2013-04-07T09:53:51Z</time>
      </trkpt>
      <trkpt lat="42.87561" lon="0.20271">
        <ele>2377</ele>
        <time>2013-04-07T09:53:56Z</time>
      </trkpt>
      <trkpt lat="42.87563" lon="0.20271">
        <ele>2375</ele>
        <time>2013-04-07T09:54:03Z</time>
      </trkpt>
      <trkpt lat="42.87564" lon="0.20272">
        <ele>2375</ele>
        <time>2013-04-07T09:54:04Z</time>
      </trkpt>
      <trkpt lat="42.87566" lon="0.20272">
        <ele>2375</ele>
        <time>2013-04-07T09:54:08Z</time>
      </trkpt>
      <trkpt lat="42.87567" lon="0.20271">
        <ele>2374</ele>
        <time>2013-04-07T09:54:14Z</time>
      </trkpt>
      <trkpt lat="42.87568" lon="0.20271">
        <ele>2373</ele>
        <time>2013-04-07T09:54:15Z</time>
      </trkpt>
      <trkpt lat="42.87568" lon="0.2027">
        <ele>2372</ele>
        <time>2013-04-07T09:54:16Z</time>
      </trkpt>
      <trkpt lat="42.87568" lon="0.20268">
        <ele>2371</ele>
        <time>2013-04-07T09:54:17Z</time>
      </trkpt>
      <trkpt lat="42.87569" lon="0.20268">
        <ele>2370</ele>
        <time>2013-04-07T09:54:18Z</time>
      </trkpt>
      <trkpt lat="42.87567" lon="0.20267">
        <ele>2368</ele>
        <time>2013-04-07T09:54:20Z</time>
      </trkpt>
      <trkpt lat="42.87568" lon="0.20265">
        <ele>2365</ele>
        <time>2013-04-07T09:54:23Z</time>
      </trkpt>
      <trkpt lat="42.87567" lon="0.20266">
        <ele>2363</ele>
        <time>2013-04-07T09:54:26Z</time>
      </trkpt>
      <trkpt lat="42.87568" lon="0.20266">
        <ele>2363</ele>
        <time>2013-04-07T09:54:28Z</time>
      </trkpt>
      <trkpt lat="42.87567" lon="0.20267">
        <ele>2363</ele>
        <time>2013-04-07T09:54:30Z</time>
      </trkpt>
      <trkpt lat="42.87566" lon="0.20269">
        <ele>2366</ele>
        <time>2013-04-07T09:54:35Z</time>
      </trkpt>
      <trkpt lat="42.87565" lon="0.20269">
        <ele>2369</ele>
        <time>2013-04-07T09:54:38Z</time>
      </trkpt>
      <trkpt lat="42.87564" lon="0.2027">
        <ele>2369</ele>
        <time>2013-04-07T09:54:42Z</time>
      </trkpt>
      <trkpt lat="42.87565" lon="0.20272">
        <ele>2371</ele>
        <time>2013-04-07T09:54:48Z</time>
      </trkpt>
      <trkpt lat="42.87564" lon="0.20271">
        <ele>2372</ele>
        <time>2013-04-07T09:54:50Z</time>
      </trkpt>
      <trkpt lat="42.87561" lon="0.2027">
        <ele>2373</ele>
        <time>2013-04-07T09:54:54Z</time>
      </trkpt>
      <trkpt lat="42.8756" lon="0.20269">
        <ele>2374</ele>
        <time>2013-04-07T09:54:55Z</time>
      </trkpt>
      <trkpt lat="42.87561" lon="0.20269">
        <ele>2384</ele>
        <time>2013-04-07T09:55:11Z</time>
      </trkpt>
      <trkpt lat="42.87562" lon="0.20271">
        <ele>2386</ele>
        <time>2013-04-07T09:55:16Z</time>
      </trkpt>
      <trkpt lat="42.87562" lon="0.20269">
        <ele>2388</ele>
        <time>2013-04-07T09:55:52Z</time>
      </trkpt>
      <trkpt lat="42.87562" lon="0.20268">
        <ele>2388</ele>
        <time>2013-04-07T09:56:09Z</time>
      </trkpt>
      <trkpt lat="42.87562" lon="0.20266">
        <ele>2388</ele>
        <time>2013-04-07T09:56:12Z</time>
      </trkpt>
      <trkpt lat="42.87561" lon="0.20265">
        <ele>2388</ele>
        <time>2013-04-07T09:56:22Z</time>
      </trkpt>
      <trkpt lat="42.87561" lon="0.20263">
        <ele>2388</ele>
        <time>2013-04-07T09:56:28Z</time>
      </trkpt>
      <trkpt lat="42.87561" lon="0.20261">
        <ele>2388</ele>
        <time>2013-04-07T09:56:33Z</time>
      </trkpt>
      <trkpt lat="42.87561" lon="0.2026">
        <ele>2390</ele>
        <time>2013-04-07T09:56:38Z</time>
      </trkpt>
      <trkpt lat="42.87561" lon="0.20258">
        <ele>2391</ele>
        <time>2013-04-07T09:56:42Z</time>
      </trkpt>
      <trkpt lat="42.87561" lon="0.20256">
        <ele>2391</ele>
        <time>2013-04-07T09:56:45Z</time>
      </trkpt>
      <trkpt lat="42.87561" lon="0.20255">
        <ele>2391</ele>
        <time>2013-04-07T09:56:47Z</time>
      </trkpt>
      <trkpt lat="42.87561" lon="0.20253">
        <ele>2391</ele>
        <time>2013-04-07T09:56:49Z</time>
      </trkpt>
      <trkpt lat="42.87561" lon="0.20252">
        <ele>2393</ele>
        <time>2013-04-07T09:56:57Z</time>
      </trkpt>
      <trkpt lat="42.87561" lon="0.2025">
        <ele>2397</ele>
        <time>2013-04-07T09:57:15Z</time>
      </trkpt>
      <trkpt lat="42.87561" lon="0.20248">
        <ele>2400</ele>
        <time>2013-04-07T09:57:26Z</time>
      </trkpt>
      <trkpt lat="42.87561" lon="0.20247">
        <ele>2401</ele>
        <time>2013-04-07T09:57:28Z</time>
      </trkpt>
      <trkpt lat="42.87562" lon="0.20245">
        <ele>2405</ele>
        <time>2013-04-07T09:57:34Z</time>
      </trkpt>
      <trkpt lat="42.87562" lon="0.20244">
        <ele>2405</ele>
        <time>2013-04-07T09:57:37Z</time>
      </trkpt>
      <trkpt lat="42.87562" lon="0.20242">
        <ele>2406</ele>
        <time>2013-04-07T09:57:40Z</time>
      </trkpt>
      <trkpt lat="42.87562" lon="0.2024">
        <ele>2406</ele>
        <time>2013-04-07T09:57:43Z</time>
      </trkpt>
      <trkpt lat="42.87562" lon="0.20238">
        <ele>2406</ele>
        <time>2013-04-07T09:57:45Z</time>
      </trkpt>
      <trkpt lat="42.87562" lon="0.20236">
        <ele>2406</ele>
        <time>2013-04-07T09:57:48Z</time>
      </trkpt>
      <trkpt lat="42.87561" lon="0.20234">
        <ele>2406</ele>
        <time>2013-04-07T09:57:50Z</time>
      </trkpt>
      <trkpt lat="42.87561" lon="0.20233">
        <ele>2406</ele>
        <time>2013-04-07T09:57:52Z</time>
      </trkpt>
      <trkpt lat="42.8756" lon="0.20231">
        <ele>2406</ele>
        <time>2013-04-07T09:57:54Z</time>
      </trkpt>
      <trkpt lat="42.8756" lon="0.20229">
        <ele>2406</ele>
        <time>2013-04-07T09:57:56Z</time>
      </trkpt>
      <trkpt lat="42.87559" lon="0.20227">
        <ele>2406</ele>
        <time>2013-04-07T09:57:58Z</time>
      </trkpt>
      <trkpt lat="42.87559" lon="0.20225">
        <ele>2406</ele>
        <time>2013-04-07T09:58:00Z</time>
      </trkpt>
      <trkpt lat="42.87558" lon="0.20223">
        <ele>2406</ele>
        <time>2013-04-07T09:58:02Z</time>
      </trkpt>
      <trkpt lat="42.87558" lon="0.20222">
        <ele>2406</ele>
        <time>2013-04-07T09:58:04Z</time>
      </trkpt>
      <trkpt lat="42.87558" lon="0.2022">
        <ele>2406</ele>
        <time>2013-04-07T09:58:07Z</time>
      </trkpt>
      <trkpt lat="42.87558" lon="0.20218">
        <ele>2406</ele>
        <time>2013-04-07T09:58:09Z</time>
      </trkpt>
      <trkpt lat="42.87558" lon="0.2022">
        <ele>2406</ele>
        <time>2013-04-07T09:58:28Z</time>
      </trkpt>
      <trkpt lat="42.87558" lon="0.20218">
        <ele>2404</ele>
        <time>2013-04-07T09:58:42Z</time>
      </trkpt>
      <trkpt lat="42.87558" lon="0.20215">
        <ele>2404</ele>
        <time>2013-04-07T09:58:44Z</time>
      </trkpt>
      <trkpt lat="42.87557" lon="0.20213">
        <ele>2404</ele>
        <time>2013-04-07T09:58:46Z</time>
      </trkpt>
      <trkpt lat="42.87557" lon="0.20211">
        <ele>2404</ele>
        <time>2013-04-07T09:58:48Z</time>
      </trkpt>
      <trkpt lat="42.87556" lon="0.20209">
        <ele>2404</ele>
        <time>2013-04-07T09:58:50Z</time>
      </trkpt>
      <trkpt lat="42.87556" lon="0.20208">
        <ele>2404</ele>
        <time>2013-04-07T09:58:52Z</time>
      </trkpt>
      <trkpt lat="42.87556" lon="0.20206">
        <ele>2404</ele>
        <time>2013-04-07T09:58:54Z</time>
      </trkpt>
      <trkpt lat="42.87556" lon="0.20204">
        <ele>2404</ele>
        <time>2013-04-07T09:58:56Z</time>
      </trkpt>
      <trkpt lat="42.87555" lon="0.20203">
        <ele>2404</ele>
        <time>2013-04-07T09:58:58Z</time>
      </trkpt>
      <trkpt lat="42.87555" lon="0.20201">
        <ele>2404</ele>
        <time>2013-04-07T09:59:00Z</time>
      </trkpt>
      <trkpt lat="42.87555" lon="0.20199">
        <ele>2404</ele>
        <time>2013-04-07T09:59:02Z</time>
      </trkpt>
      <trkpt lat="42.87554" lon="0.20197">
        <ele>2404</ele>
        <time>2013-04-07T09:59:04Z</time>
      </trkpt>
      <trkpt lat="42.87554" lon="0.20195">
        <ele>2404</ele>
        <time>2013-04-07T09:59:06Z</time>
      </trkpt>
      <trkpt lat="42.87554" lon="0.20193">
        <ele>2404</ele>
        <time>2013-04-07T09:59:08Z</time>
      </trkpt>
      <trkpt lat="42.87554" lon="0.20192">
        <ele>2404</ele>
        <time>2013-04-07T09:59:10Z</time>
      </trkpt>
      <trkpt lat="42.87553" lon="0.2019">
        <ele>2404</ele>
        <time>2013-04-07T09:59:12Z</time>
      </trkpt>
      <trkpt lat="42.87553" lon="0.20188">
        <ele>2404</ele>
        <time>2013-04-07T09:59:14Z</time>
      </trkpt>
      <trkpt lat="42.87553" lon="0.20186">
        <ele>2404</ele>
        <time>2013-04-07T09:59:16Z</time>
      </trkpt>
      <trkpt lat="42.87553" lon="0.20184">
        <ele>2404</ele>
        <time>2013-04-07T09:59:19Z</time>
      </trkpt>
      <trkpt lat="42.87553" lon="0.20186">
        <ele>2404</ele>
        <time>2013-04-07T09:59:57Z</time>
      </trkpt>
      <trkpt lat="42.87551" lon="0.20188">
        <ele>2404</ele>
        <time>2013-04-07T10:00:05Z</time>
      </trkpt>
      <trkpt lat="42.8755" lon="0.2019">
        <ele>2404</ele>
        <time>2013-04-07T10:00:08Z</time>
      </trkpt>
      <trkpt lat="42.8755" lon="0.20192">
        <ele>2404</ele>
        <time>2013-04-07T10:00:10Z</time>
      </trkpt>
      <trkpt lat="42.87549" lon="0.20193">
        <ele>2404</ele>
        <time>2013-04-07T10:00:12Z</time>
      </trkpt>
      <trkpt lat="42.87547" lon="0.20195">
        <ele>2404</ele>
        <time>2013-04-07T10:00:14Z</time>
      </trkpt>
      <trkpt lat="42.87546" lon="0.20197">
        <ele>2404</ele>
        <time>2013-04-07T10:00:16Z</time>
      </trkpt>
      <trkpt lat="42.87545" lon="0.20198">
        <ele>2404</ele>
        <time>2013-04-07T10:00:18Z</time>
      </trkpt>
      <trkpt lat="42.87544" lon="0.202">
        <ele>2404</ele>
        <time>2013-04-07T10:00:20Z</time>
      </trkpt>
      <trkpt lat="42.87543" lon="0.20202">
        <ele>2404</ele>
        <time>2013-04-07T10:00:22Z</time>
      </trkpt>
      <trkpt lat="42.87542" lon="0.20203">
        <ele>2404</ele>
        <time>2013-04-07T10:00:24Z</time>
      </trkpt>
      <trkpt lat="42.87541" lon="0.20205">
        <ele>2404</ele>
        <time>2013-04-07T10:00:26Z</time>
      </trkpt>
      <trkpt lat="42.8754" lon="0.20207">
        <ele>2404</ele>
        <time>2013-04-07T10:00:28Z</time>
      </trkpt>
      <trkpt lat="42.87539" lon="0.20209">
        <ele>2404</ele>
        <time>2013-04-07T10:00:30Z</time>
      </trkpt>
      <trkpt lat="42.87538" lon="0.2021">
        <ele>2404</ele>
        <time>2013-04-07T10:00:32Z</time>
      </trkpt>
      <trkpt lat="42.87537" lon="0.20212">
        <ele>2404</ele>
        <time>2013-04-07T10:00:35Z</time>
      </trkpt>
      <trkpt lat="42.87535" lon="0.20214">
        <ele>2404</ele>
        <time>2013-04-07T10:00:37Z</time>
      </trkpt>
      <trkpt lat="42.87535" lon="0.20216">
        <ele>2405</ele>
        <time>2013-04-07T10:00:39Z</time>
      </trkpt>
      <trkpt lat="42.87536" lon="0.20216">
        <ele>2406</ele>
        <time>2013-04-07T10:01:11Z</time>
      </trkpt>
      <trkpt lat="42.87537" lon="0.20216">
        <ele>2406</ele>
        <time>2013-04-07T10:01:22Z</time>
      </trkpt>
      <trkpt lat="42.87536" lon="0.20218">
        <ele>2406</ele>
        <time>2013-04-07T10:01:28Z</time>
      </trkpt>
      <trkpt lat="42.87535" lon="0.2022">
        <ele>2406</ele>
        <time>2013-04-07T10:01:30Z</time>
      </trkpt>
      <trkpt lat="42.87534" lon="0.20222">
        <ele>2406</ele>
        <time>2013-04-07T10:01:32Z</time>
      </trkpt>
      <trkpt lat="42.87534" lon="0.20224">
        <ele>2406</ele>
        <time>2013-04-07T10:01:34Z</time>
      </trkpt>
      <trkpt lat="42.87533" lon="0.20226">
        <ele>2406</ele>
        <time>2013-04-07T10:01:36Z</time>
      </trkpt>
      <trkpt lat="42.87532" lon="0.20228">
        <ele>2406</ele>
        <time>2013-04-07T10:01:38Z</time>
      </trkpt>
      <trkpt lat="42.87531" lon="0.2023">
        <ele>2406</ele>
        <time>2013-04-07T10:01:41Z</time>
      </trkpt>
      <trkpt lat="42.8753" lon="0.20231">
        <ele>2406</ele>
        <time>2013-04-07T10:01:43Z</time>
      </trkpt>
      <trkpt lat="42.87529" lon="0.20233">
        <ele>2406</ele>
        <time>2013-04-07T10:01:45Z</time>
      </trkpt>
      <trkpt lat="42.87527" lon="0.20235">
        <ele>2406</ele>
        <time>2013-04-07T10:01:47Z</time>
      </trkpt>
      <trkpt lat="42.87526" lon="0.20236">
        <ele>2406</ele>
        <time>2013-04-07T10:01:49Z</time>
      </trkpt>
      <trkpt lat="42.87525" lon="0.20238">
        <ele>2407</ele>
        <time>2013-04-07T10:01:51Z</time>
      </trkpt>
      <trkpt lat="42.87524" lon="0.2024">
        <ele>2407</ele>
        <time>2013-04-07T10:01:53Z</time>
      </trkpt>
      <trkpt lat="42.87523" lon="0.20242">
        <ele>2408</ele>
        <time>2013-04-07T10:01:56Z</time>
      </trkpt>
      <trkpt lat="42.87521" lon="0.20243">
        <ele>2408</ele>
        <time>2013-04-07T10:01:58Z</time>
      </trkpt>
      <trkpt lat="42.8752" lon="0.20243">
        <ele>2409</ele>
        <time>2013-04-07T10:02:00Z</time>
      </trkpt>
      <trkpt lat="42.87519" lon="0.20245">
        <ele>2409</ele>
        <time>2013-04-07T10:02:02Z</time>
      </trkpt>
      <trkpt lat="42.87518" lon="0.20245">
        <ele>2409</ele>
        <time>2013-04-07T10:02:04Z</time>
      </trkpt>
      <trkpt lat="42.87516" lon="0.20246">
        <ele>2410</ele>
        <time>2013-04-07T10:02:06Z</time>
      </trkpt>
      <trkpt lat="42.87515" lon="0.20246">
        <ele>2410</ele>
        <time>2013-04-07T10:02:08Z</time>
      </trkpt>
      <trkpt lat="42.87513" lon="0.20246">
        <ele>2410</ele>
        <time>2013-04-07T10:02:10Z</time>
      </trkpt>
      <trkpt lat="42.87512" lon="0.20247">
        <ele>2411</ele>
        <time>2013-04-07T10:02:12Z</time>
      </trkpt>
      <trkpt lat="42.87511" lon="0.20247">
        <ele>2414</ele>
        <time>2013-04-07T10:02:45Z</time>
      </trkpt>
      <trkpt lat="42.8751" lon="0.20248">
        <ele>2414</ele>
        <time>2013-04-07T10:02:48Z</time>
      </trkpt>
      <trkpt lat="42.87509" lon="0.20248">
        <ele>2414</ele>
        <time>2013-04-07T10:02:50Z</time>
      </trkpt>
      <trkpt lat="42.87507" lon="0.20248">
        <ele>2414</ele>
        <time>2013-04-07T10:02:52Z</time>
      </trkpt>
      <trkpt lat="42.87506" lon="0.20248">
        <ele>2414</ele>
        <time>2013-04-07T10:02:54Z</time>
      </trkpt>
      <trkpt lat="42.87505" lon="0.20248">
        <ele>2414</ele>
        <time>2013-04-07T10:02:56Z</time>
      </trkpt>
      <trkpt lat="42.87503" lon="0.20247">
        <ele>2414</ele>
        <time>2013-04-07T10:02:58Z</time>
      </trkpt>
      <trkpt lat="42.87502" lon="0.20247">
        <ele>2415</ele>
        <time>2013-04-07T10:03:01Z</time>
      </trkpt>
      <trkpt lat="42.875" lon="0.20247">
        <ele>2415</ele>
        <time>2013-04-07T10:03:03Z</time>
      </trkpt>
      <trkpt lat="42.87499" lon="0.20247">
        <ele>2415</ele>
        <time>2013-04-07T10:03:05Z</time>
      </trkpt>
      <trkpt lat="42.87498" lon="0.20246">
        <ele>2416</ele>
        <time>2013-04-07T10:03:13Z</time>
      </trkpt>
      <trkpt lat="42.87496" lon="0.20246">
        <ele>2416</ele>
        <time>2013-04-07T10:03:15Z</time>
      </trkpt>
      <trkpt lat="42.87495" lon="0.20246">
        <ele>2416</ele>
        <time>2013-04-07T10:03:17Z</time>
      </trkpt>
      <trkpt lat="42.87493" lon="0.20246">
        <ele>2416</ele>
        <time>2013-04-07T10:03:19Z</time>
      </trkpt>
      <trkpt lat="42.87492" lon="0.20246">
        <ele>2417</ele>
        <time>2013-04-07T10:03:21Z</time>
      </trkpt>
      <trkpt lat="42.8749" lon="0.20245">
        <ele>2417</ele>
        <time>2013-04-07T10:03:23Z</time>
      </trkpt>
      <trkpt lat="42.87489" lon="0.20245">
        <ele>2418</ele>
        <time>2013-04-07T10:03:25Z</time>
      </trkpt>
      <trkpt lat="42.87488" lon="0.20243">
        <ele>2418</ele>
        <time>2013-04-07T10:03:28Z</time>
      </trkpt>
      <trkpt lat="42.87487" lon="0.20242">
        <ele>2419</ele>
        <time>2013-04-07T10:03:30Z</time>
      </trkpt>
      <trkpt lat="42.87486" lon="0.2024">
        <ele>2419</ele>
        <time>2013-04-07T10:03:32Z</time>
      </trkpt>
      <trkpt lat="42.87484" lon="0.20239">
        <ele>2420</ele>
        <time>2013-04-07T10:03:35Z</time>
      </trkpt>
      <trkpt lat="42.87483" lon="0.20237">
        <ele>2421</ele>
        <time>2013-04-07T10:03:40Z</time>
      </trkpt>
      <trkpt lat="42.87484" lon="0.20237">
        <ele>2421</ele>
        <time>2013-04-07T10:04:00Z</time>
      </trkpt>
      <trkpt lat="42.87483" lon="0.20236">
        <ele>2421</ele>
        <time>2013-04-07T10:04:16Z</time>
      </trkpt>
      <trkpt lat="42.87482" lon="0.20234">
        <ele>2421</ele>
        <time>2013-04-07T10:04:19Z</time>
      </trkpt>
      <trkpt lat="42.8748" lon="0.20233">
        <ele>2421</ele>
        <time>2013-04-07T10:04:21Z</time>
      </trkpt>
      <trkpt lat="42.87479" lon="0.20233">
        <ele>2422</ele>
        <time>2013-04-07T10:04:23Z</time>
      </trkpt>
      <trkpt lat="42.87478" lon="0.20233">
        <ele>2422</ele>
        <time>2013-04-07T10:04:25Z</time>
      </trkpt>
      <trkpt lat="42.87476" lon="0.20232">
        <ele>2423</ele>
        <time>2013-04-07T10:04:27Z</time>
      </trkpt>
      <trkpt lat="42.87475" lon="0.20233">
        <ele>2423</ele>
        <time>2013-04-07T10:04:29Z</time>
      </trkpt>
      <trkpt lat="42.87474" lon="0.20233">
        <ele>2423</ele>
        <time>2013-04-07T10:04:31Z</time>
      </trkpt>
      <trkpt lat="42.87472" lon="0.20233">
        <ele>2423</ele>
        <time>2013-04-07T10:04:33Z</time>
      </trkpt>
      <trkpt lat="42.87471" lon="0.20234">
        <ele>2424</ele>
        <time>2013-04-07T10:04:35Z</time>
      </trkpt>
      <trkpt lat="42.87469" lon="0.20235">
        <ele>2424</ele>
        <time>2013-04-07T10:04:37Z</time>
      </trkpt>
      <trkpt lat="42.87468" lon="0.20235">
        <ele>2424</ele>
        <time>2013-04-07T10:04:39Z</time>
      </trkpt>
      <trkpt lat="42.87466" lon="0.20236">
        <ele>2425</ele>
        <time>2013-04-07T10:04:41Z</time>
      </trkpt>
      <trkpt lat="42.87466" lon="0.20237">
        <ele>2425</ele>
        <time>2013-04-07T10:04:52Z</time>
      </trkpt>
      <trkpt lat="42.87465" lon="0.20238">
        <ele>2425</ele>
        <time>2013-04-07T10:05:13Z</time>
      </trkpt>
      <trkpt lat="42.87463" lon="0.20239">
        <ele>2425</ele>
        <time>2013-04-07T10:05:15Z</time>
      </trkpt>
      <trkpt lat="42.87461" lon="0.20239">
        <ele>2425</ele>
        <time>2013-04-07T10:05:17Z</time>
      </trkpt>
      <trkpt lat="42.8746" lon="0.2024">
        <ele>2425</ele>
        <time>2013-04-07T10:05:19Z</time>
      </trkpt>
      <trkpt lat="42.87458" lon="0.2024">
        <ele>2425</ele>
        <time>2013-04-07T10:05:21Z</time>
      </trkpt>
      <trkpt lat="42.87456" lon="0.20241">
        <ele>2426</ele>
        <time>2013-04-07T10:05:23Z</time>
      </trkpt>
      <trkpt lat="42.87454" lon="0.20241">
        <ele>2426</ele>
        <time>2013-04-07T10:05:25Z</time>
      </trkpt>
      <trkpt lat="42.87452" lon="0.20242">
        <ele>2426</ele>
        <time>2013-04-07T10:05:27Z</time>
      </trkpt>
      <trkpt lat="42.8745" lon="0.20242">
        <ele>2427</ele>
        <time>2013-04-07T10:05:29Z</time>
      </trkpt>
      <trkpt lat="42.87449" lon="0.20242">
        <ele>2427</ele>
        <time>2013-04-07T10:05:31Z</time>
      </trkpt>
      <trkpt lat="42.87447" lon="0.20242">
        <ele>2428</ele>
        <time>2013-04-07T10:05:33Z</time>
      </trkpt>
      <trkpt lat="42.87446" lon="0.20242">
        <ele>2428</ele>
        <time>2013-04-07T10:05:35Z</time>
      </trkpt>
      <trkpt lat="42.87444" lon="0.20242">
        <ele>2428</ele>
        <time>2013-04-07T10:05:37Z</time>
      </trkpt>
      <trkpt lat="42.87442" lon="0.20242">
        <ele>2429</ele>
        <time>2013-04-07T10:05:39Z</time>
      </trkpt>
      <trkpt lat="42.87441" lon="0.20242">
        <ele>2429</ele>
        <time>2013-04-07T10:05:41Z</time>
      </trkpt>
      <trkpt lat="42.87439" lon="0.20242">
        <ele>2429</ele>
        <time>2013-04-07T10:05:43Z</time>
      </trkpt>
      <trkpt lat="42.87438" lon="0.20241">
        <ele>2429</ele>
        <time>2013-04-07T10:05:45Z</time>
      </trkpt>
      <trkpt lat="42.87436" lon="0.20241">
        <ele>2430</ele>
        <time>2013-04-07T10:05:47Z</time>
      </trkpt>
      <trkpt lat="42.87435" lon="0.2024">
        <ele>2430</ele>
        <time>2013-04-07T10:05:49Z</time>
      </trkpt>
      <trkpt lat="42.87436" lon="0.2024">
        <ele>2431</ele>
        <time>2013-04-07T10:06:19Z</time>
      </trkpt>
      <trkpt lat="42.87434" lon="0.2024">
        <ele>2431</ele>
        <time>2013-04-07T10:06:26Z</time>
      </trkpt>
      <trkpt lat="42.87433" lon="0.20239">
        <ele>2431</ele>
        <time>2013-04-07T10:06:28Z</time>
      </trkpt>
      <trkpt lat="42.87432" lon="0.20238">
        <ele>2432</ele>
        <time>2013-04-07T10:06:30Z</time>
      </trkpt>
      <trkpt lat="42.87431" lon="0.20237">
        <ele>2432</ele>
        <time>2013-04-07T10:06:33Z</time>
      </trkpt>
      <trkpt lat="42.87429" lon="0.20236">
        <ele>2433</ele>
        <time>2013-04-07T10:06:35Z</time>
      </trkpt>
      <trkpt lat="42.87428" lon="0.20236">
        <ele>2433</ele>
        <time>2013-04-07T10:06:37Z</time>
      </trkpt>
      <trkpt lat="42.87427" lon="0.20235">
        <ele>2434</ele>
        <time>2013-04-07T10:06:39Z</time>
      </trkpt>
      <trkpt lat="42.87425" lon="0.20234">
        <ele>2434</ele>
        <time>2013-04-07T10:06:41Z</time>
      </trkpt>
      <trkpt lat="42.87424" lon="0.20234">
        <ele>2435</ele>
        <time>2013-04-07T10:06:43Z</time>
      </trkpt>
      <trkpt lat="42.87423" lon="0.20233">
        <ele>2435</ele>
        <time>2013-04-07T10:06:45Z</time>
      </trkpt>
      <trkpt lat="42.87421" lon="0.20231">
        <ele>2435</ele>
        <time>2013-04-07T10:06:47Z</time>
      </trkpt>
      <trkpt lat="42.8742" lon="0.2023">
        <ele>2436</ele>
        <time>2013-04-07T10:06:49Z</time>
      </trkpt>
      <trkpt lat="42.87418" lon="0.20228">
        <ele>2436</ele>
        <time>2013-04-07T10:06:51Z</time>
      </trkpt>
      <trkpt lat="42.87417" lon="0.20227">
        <ele>2437</ele>
        <time>2013-04-07T10:06:53Z</time>
      </trkpt>
      <trkpt lat="42.87416" lon="0.20225">
        <ele>2438</ele>
        <time>2013-04-07T10:06:59Z</time>
      </trkpt>
      <trkpt lat="42.87415" lon="0.20224">
        <ele>2438</ele>
        <time>2013-04-07T10:07:01Z</time>
      </trkpt>
      <trkpt lat="42.87413" lon="0.20223">
        <ele>2438</ele>
        <time>2013-04-07T10:07:03Z</time>
      </trkpt>
      <trkpt lat="42.87412" lon="0.20221">
        <ele>2439</ele>
        <time>2013-04-07T10:07:05Z</time>
      </trkpt>
      <trkpt lat="42.8741" lon="0.2022">
        <ele>2439</ele>
        <time>2013-04-07T10:07:07Z</time>
      </trkpt>
      <trkpt lat="42.87409" lon="0.20221">
        <ele>2439</ele>
        <time>2013-04-07T10:07:40Z</time>
      </trkpt>
      <trkpt lat="42.87408" lon="0.2022">
        <ele>2439</ele>
        <time>2013-04-07T10:07:43Z</time>
      </trkpt>
      <trkpt lat="42.87408" lon="0.20218">
        <ele>2441</ele>
        <time>2013-04-07T10:08:04Z</time>
      </trkpt>
      <trkpt lat="42.87408" lon="0.2022">
        <ele>2441</ele>
        <time>2013-04-07T10:08:11Z</time>
      </trkpt>
      <trkpt lat="42.87409" lon="0.2022">
        <ele>2441</ele>
        <time>2013-04-07T10:09:00Z</time>
      </trkpt>
      <trkpt lat="42.87408" lon="0.20218">
        <ele>2441</ele>
        <time>2013-04-07T10:09:23Z</time>
      </trkpt>
      <trkpt lat="42.87407" lon="0.20217">
        <ele>2441</ele>
        <time>2013-04-07T10:09:25Z</time>
      </trkpt>
      <trkpt lat="42.87405" lon="0.20216">
        <ele>2441</ele>
        <time>2013-04-07T10:09:27Z</time>
      </trkpt>
      <trkpt lat="42.87404" lon="0.20214">
        <ele>2441</ele>
        <time>2013-04-07T10:09:29Z</time>
      </trkpt>
      <trkpt lat="42.87403" lon="0.20213">
        <ele>2441</ele>
        <time>2013-04-07T10:09:32Z</time>
      </trkpt>
      <trkpt lat="42.87402" lon="0.20212">
        <ele>2441</ele>
        <time>2013-04-07T10:09:34Z</time>
      </trkpt>
      <trkpt lat="42.874" lon="0.2021">
        <ele>2441</ele>
        <time>2013-04-07T10:09:37Z</time>
      </trkpt>
      <trkpt lat="42.87399" lon="0.20208">
        <ele>2441</ele>
        <time>2013-04-07T10:09:39Z</time>
      </trkpt>
      <trkpt lat="42.87398" lon="0.20207">
        <ele>2441</ele>
        <time>2013-04-07T10:09:42Z</time>
      </trkpt>
      <trkpt lat="42.87398" lon="0.20205">
        <ele>2441</ele>
        <time>2013-04-07T10:09:45Z</time>
      </trkpt>
      <trkpt lat="42.87399" lon="0.20204">
        <ele>2441</ele>
        <time>2013-04-07T10:09:50Z</time>
      </trkpt>
      <trkpt lat="42.874" lon="0.20204">
        <ele>2441</ele>
        <time>2013-04-07T10:09:52Z</time>
      </trkpt>
      <trkpt lat="42.87402" lon="0.20204">
        <ele>2441</ele>
        <time>2013-04-07T10:09:54Z</time>
      </trkpt>
      <trkpt lat="42.87403" lon="0.20204">
        <ele>2441</ele>
        <time>2013-04-07T10:09:56Z</time>
      </trkpt>
      <trkpt lat="42.87405" lon="0.20204">
        <ele>2441</ele>
        <time>2013-04-07T10:09:58Z</time>
      </trkpt>
      <trkpt lat="42.87406" lon="0.20204">
        <ele>2442</ele>
        <time>2013-04-07T10:10:04Z</time>
      </trkpt>
      <trkpt lat="42.87407" lon="0.20203">
        <ele>2442</ele>
        <time>2013-04-07T10:10:06Z</time>
      </trkpt>
      <trkpt lat="42.87409" lon="0.20203">
        <ele>2443</ele>
        <time>2013-04-07T10:10:08Z</time>
      </trkpt>
      <trkpt lat="42.8741" lon="0.20203">
        <ele>2443</ele>
        <time>2013-04-07T10:10:10Z</time>
      </trkpt>
      <trkpt lat="42.87411" lon="0.20202">
        <ele>2443</ele>
        <time>2013-04-07T10:10:12Z</time>
      </trkpt>
      <trkpt lat="42.87413" lon="0.20201">
        <ele>2444</ele>
        <time>2013-04-07T10:10:15Z</time>
      </trkpt>
      <trkpt lat="42.87414" lon="0.20201">
        <ele>2444</ele>
        <time>2013-04-07T10:10:17Z</time>
      </trkpt>
      <trkpt lat="42.87415" lon="0.202">
        <ele>2444</ele>
        <time>2013-04-07T10:10:19Z</time>
      </trkpt>
      <trkpt lat="42.87416" lon="0.20199">
        <ele>2445</ele>
        <time>2013-04-07T10:10:21Z</time>
      </trkpt>
      <trkpt lat="42.87418" lon="0.20198">
        <ele>2445</ele>
        <time>2013-04-07T10:10:58Z</time>
      </trkpt>
      <trkpt lat="42.87419" lon="0.20197">
        <ele>2445</ele>
        <time>2013-04-07T10:11:01Z</time>
      </trkpt>
      <trkpt lat="42.87418" lon="0.20196">
        <ele>2445</ele>
        <time>2013-04-07T10:11:10Z</time>
      </trkpt>
      <trkpt lat="42.87416" lon="0.20196">
        <ele>2445</ele>
        <time>2013-04-07T10:11:15Z</time>
      </trkpt>
      <trkpt lat="42.87415" lon="0.20195">
        <ele>2445</ele>
        <time>2013-04-07T10:11:17Z</time>
      </trkpt>
      <trkpt lat="42.87414" lon="0.20195">
        <ele>2446</ele>
        <time>2013-04-07T10:11:19Z</time>
      </trkpt>
      <trkpt lat="42.87413" lon="0.20194">
        <ele>2446</ele>
        <time>2013-04-07T10:11:21Z</time>
      </trkpt>
      <trkpt lat="42.87411" lon="0.20193">
        <ele>2447</ele>
        <time>2013-04-07T10:11:23Z</time>
      </trkpt>
      <trkpt lat="42.8741" lon="0.20193">
        <ele>2447</ele>
        <time>2013-04-07T10:11:25Z</time>
      </trkpt>
      <trkpt lat="42.87409" lon="0.20192">
        <ele>2447</ele>
        <time>2013-04-07T10:11:27Z</time>
      </trkpt>
      <trkpt lat="42.87408" lon="0.20191">
        <ele>2448</ele>
        <time>2013-04-07T10:11:29Z</time>
      </trkpt>
      <trkpt lat="42.87407" lon="0.20191">
        <ele>2448</ele>
        <time>2013-04-07T10:11:31Z</time>
      </trkpt>
      <trkpt lat="42.87405" lon="0.2019">
        <ele>2449</ele>
        <time>2013-04-07T10:11:33Z</time>
      </trkpt>
      <trkpt lat="42.87404" lon="0.20189">
        <ele>2449</ele>
        <time>2013-04-07T10:11:36Z</time>
      </trkpt>
      <trkpt lat="42.87402" lon="0.20188">
        <ele>2450</ele>
        <time>2013-04-07T10:11:39Z</time>
      </trkpt>
      <trkpt lat="42.87401" lon="0.20187">
        <ele>2450</ele>
        <time>2013-04-07T10:11:42Z</time>
      </trkpt>
      <trkpt lat="42.874" lon="0.20185">
        <ele>2451</ele>
        <time>2013-04-07T10:11:48Z</time>
      </trkpt>
      <trkpt lat="42.87398" lon="0.20184">
        <ele>2453</ele>
        <time>2013-04-07T10:12:32Z</time>
      </trkpt>
      <trkpt lat="42.87397" lon="0.20182">
        <ele>2453</ele>
        <time>2013-04-07T10:12:34Z</time>
      </trkpt>
      <trkpt lat="42.87397" lon="0.20181">
        <ele>2453</ele>
        <time>2013-04-07T10:12:36Z</time>
      </trkpt>
      <trkpt lat="42.87398" lon="0.20181">
        <ele>2454</ele>
        <time>2013-04-07T10:13:07Z</time>
      </trkpt>
      <trkpt lat="42.874" lon="0.20181">
        <ele>2454</ele>
        <time>2013-04-07T10:13:10Z</time>
      </trkpt>
      <trkpt lat="42.87401" lon="0.20182">
        <ele>2454</ele>
        <time>2013-04-07T10:13:13Z</time>
      </trkpt>
      <trkpt lat="42.87401" lon="0.20181">
        <ele>2455</ele>
        <time>2013-04-07T10:13:24Z</time>
      </trkpt>
      <trkpt lat="42.87401" lon="0.20179">
        <ele>2455</ele>
        <time>2013-04-07T10:13:27Z</time>
      </trkpt>
      <trkpt lat="42.87401" lon="0.20178">
        <ele>2455</ele>
        <time>2013-04-07T10:13:30Z</time>
      </trkpt>
      <trkpt lat="42.874" lon="0.20176">
        <ele>2455</ele>
        <time>2013-04-07T10:13:32Z</time>
      </trkpt>
      <trkpt lat="42.874" lon="0.20175">
        <ele>2457</ele>
        <time>2013-04-07T10:13:53Z</time>
      </trkpt>
      <trkpt lat="42.874" lon="0.20176">
        <ele>2457</ele>
        <time>2013-04-07T10:14:30Z</time>
      </trkpt>
      <trkpt lat="42.87401" lon="0.20177">
        <ele>2457</ele>
        <time>2013-04-07T10:14:34Z</time>
      </trkpt>
      <trkpt lat="42.87402" lon="0.20177">
        <ele>2457</ele>
        <time>2013-04-07T10:14:36Z</time>
      </trkpt>
      <trkpt lat="42.87404" lon="0.20177">
        <ele>2458</ele>
        <time>2013-04-07T10:14:38Z</time>
      </trkpt>
      <trkpt lat="42.87405" lon="0.20177">
        <ele>2458</ele>
        <time>2013-04-07T10:14:40Z</time>
      </trkpt>
      <trkpt lat="42.87407" lon="0.20177">
        <ele>2458</ele>
        <time>2013-04-07T10:14:42Z</time>
      </trkpt>
      <trkpt lat="42.87408" lon="0.20177">
        <ele>2459</ele>
        <time>2013-04-07T10:14:44Z</time>
      </trkpt>
      <trkpt lat="42.8741" lon="0.20176">
        <ele>2459</ele>
        <time>2013-04-07T10:14:47Z</time>
      </trkpt>
      <trkpt lat="42.87411" lon="0.20175">
        <ele>2460</ele>
        <time>2013-04-07T10:14:50Z</time>
      </trkpt>
      <trkpt lat="42.87413" lon="0.20173">
        <ele>2460</ele>
        <time>2013-04-07T10:14:53Z</time>
      </trkpt>
      <trkpt lat="42.87414" lon="0.20173">
        <ele>2461</ele>
        <time>2013-04-07T10:14:56Z</time>
      </trkpt>
      <trkpt lat="42.87415" lon="0.20172">
        <ele>2461</ele>
        <time>2013-04-07T10:14:59Z</time>
      </trkpt>
      <trkpt lat="42.87417" lon="0.2017">
        <ele>2462</ele>
        <time>2013-04-07T10:15:32Z</time>
      </trkpt>
      <trkpt lat="42.87418" lon="0.20169">
        <ele>2462</ele>
        <time>2013-04-07T10:15:35Z</time>
      </trkpt>
      <trkpt lat="42.87419" lon="0.20168">
        <ele>2462</ele>
        <time>2013-04-07T10:15:38Z</time>
      </trkpt>
      <trkpt lat="42.87421" lon="0.20168">
        <ele>2462</ele>
        <time>2013-04-07T10:15:41Z</time>
      </trkpt>
      <trkpt lat="42.87422" lon="0.20167">
        <ele>2463</ele>
        <time>2013-04-07T10:15:44Z</time>
      </trkpt>
      <trkpt lat="42.87423" lon="0.20166">
        <ele>2463</ele>
        <time>2013-04-07T10:15:46Z</time>
      </trkpt>
      <trkpt lat="42.87424" lon="0.20166">
        <ele>2463</ele>
        <time>2013-04-07T10:15:48Z</time>
      </trkpt>
      <trkpt lat="42.87426" lon="0.20165">
        <ele>2464</ele>
        <time>2013-04-07T10:15:51Z</time>
      </trkpt>
      <trkpt lat="42.87427" lon="0.20164">
        <ele>2465</ele>
        <time>2013-04-07T10:16:24Z</time>
      </trkpt>
      <trkpt lat="42.87429" lon="0.20163">
        <ele>2465</ele>
        <time>2013-04-07T10:16:26Z</time>
      </trkpt>
      <trkpt lat="42.87431" lon="0.20164">
        <ele>2465</ele>
        <time>2013-04-07T10:16:27Z</time>
      </trkpt>
      <trkpt lat="42.87433" lon="0.20163">
        <ele>2466</ele>
        <time>2013-04-07T10:16:29Z</time>
      </trkpt>
      <trkpt lat="42.87434" lon="0.20162">
        <ele>2467</ele>
        <time>2013-04-07T10:16:31Z</time>
      </trkpt>
      <trkpt lat="42.87433" lon="0.20159">
        <ele>2467</ele>
        <time>2013-04-07T10:16:33Z</time>
      </trkpt>
      <trkpt lat="42.87431" lon="0.20158">
        <ele>2468</ele>
        <time>2013-04-07T10:16:35Z</time>
      </trkpt>
      <trkpt lat="42.8743" lon="0.20156">
        <ele>2469</ele>
        <time>2013-04-07T10:16:37Z</time>
      </trkpt>
      <trkpt lat="42.87429" lon="0.20155">
        <ele>2469</ele>
        <time>2013-04-07T10:16:39Z</time>
      </trkpt>
      <trkpt lat="42.87427" lon="0.20154">
        <ele>2470</ele>
        <time>2013-04-07T10:16:41Z</time>
      </trkpt>
      <trkpt lat="42.87425" lon="0.20153">
        <ele>2470</ele>
        <time>2013-04-07T10:16:43Z</time>
      </trkpt>
      <trkpt lat="42.87424" lon="0.20152">
        <ele>2470</ele>
        <time>2013-04-07T10:16:45Z</time>
      </trkpt>
      <trkpt lat="42.87422" lon="0.20151">
        <ele>2471</ele>
        <time>2013-04-07T10:17:22Z</time>
      </trkpt>
      <trkpt lat="42.87421" lon="0.2015">
        <ele>2471</ele>
        <time>2013-04-07T10:17:25Z</time>
      </trkpt>
      <trkpt lat="42.87419" lon="0.20149">
        <ele>2471</ele>
        <time>2013-04-07T10:17:27Z</time>
      </trkpt>
      <trkpt lat="42.87418" lon="0.20148">
        <ele>2471</ele>
        <time>2013-04-07T10:17:29Z</time>
      </trkpt>
      <trkpt lat="42.87416" lon="0.20147">
        <ele>2471</ele>
        <time>2013-04-07T10:17:31Z</time>
      </trkpt>
      <trkpt lat="42.87415" lon="0.20146">
        <ele>2471</ele>
        <time>2013-04-07T10:17:33Z</time>
      </trkpt>
      <trkpt lat="42.87414" lon="0.20144">
        <ele>2472</ele>
        <time>2013-04-07T10:17:35Z</time>
      </trkpt>
      <trkpt lat="42.87413" lon="0.20143">
        <ele>2472</ele>
        <time>2013-04-07T10:17:37Z</time>
      </trkpt>
      <trkpt lat="42.87411" lon="0.20142">
        <ele>2472</ele>
        <time>2013-04-07T10:17:39Z</time>
      </trkpt>
      <trkpt lat="42.8741" lon="0.2014">
        <ele>2473</ele>
        <time>2013-04-07T10:17:41Z</time>
      </trkpt>
      <trkpt lat="42.87409" lon="0.20139">
        <ele>2473</ele>
        <time>2013-04-07T10:17:43Z</time>
      </trkpt>
      <trkpt lat="42.87408" lon="0.20137">
        <ele>2473</ele>
        <time>2013-04-07T10:17:45Z</time>
      </trkpt>
      <trkpt lat="42.87407" lon="0.20135">
        <ele>2474</ele>
        <time>2013-04-07T10:17:48Z</time>
      </trkpt>
      <trkpt lat="42.87406" lon="0.20133">
        <ele>2475</ele>
        <time>2013-04-07T10:17:51Z</time>
      </trkpt>
      <trkpt lat="42.87405" lon="0.20131">
        <ele>2475</ele>
        <time>2013-04-07T10:17:53Z</time>
      </trkpt>
      <trkpt lat="42.87404" lon="0.20129">
        <ele>2475</ele>
        <time>2013-04-07T10:17:56Z</time>
      </trkpt>
      <trkpt lat="42.87403" lon="0.20128">
        <ele>2476</ele>
        <time>2013-04-07T10:18:01Z</time>
      </trkpt>
      <trkpt lat="42.87405" lon="0.20127">
        <ele>2477</ele>
        <time>2013-04-07T10:18:49Z</time>
      </trkpt>
      <trkpt lat="42.87406" lon="0.20127">
        <ele>2477</ele>
        <time>2013-04-07T10:18:51Z</time>
      </trkpt>
      <trkpt lat="42.87407" lon="0.20126">
        <ele>2477</ele>
        <time>2013-04-07T10:18:53Z</time>
      </trkpt>
      <trkpt lat="42.87409" lon="0.20126">
        <ele>2477</ele>
        <time>2013-04-07T10:18:55Z</time>
      </trkpt>
      <trkpt lat="42.8741" lon="0.20125">
        <ele>2478</ele>
        <time>2013-04-07T10:18:57Z</time>
      </trkpt>
      <trkpt lat="42.87411" lon="0.20123">
        <ele>2478</ele>
        <time>2013-04-07T10:18:59Z</time>
      </trkpt>
      <trkpt lat="42.87412" lon="0.20122">
        <ele>2479</ele>
        <time>2013-04-07T10:19:01Z</time>
      </trkpt>
      <trkpt lat="42.87413" lon="0.20121">
        <ele>2479</ele>
        <time>2013-04-07T10:19:03Z</time>
      </trkpt>
      <trkpt lat="42.87414" lon="0.20119">
        <ele>2479</ele>
        <time>2013-04-07T10:19:05Z</time>
      </trkpt>
      <trkpt lat="42.87415" lon="0.20117">
        <ele>2479</ele>
        <time>2013-04-07T10:19:07Z</time>
      </trkpt>
      <trkpt lat="42.87417" lon="0.20116">
        <ele>2480</ele>
        <time>2013-04-07T10:19:10Z</time>
      </trkpt>
      <trkpt lat="42.87415" lon="0.20116">
        <ele>2480</ele>
        <time>2013-04-07T10:19:26Z</time>
      </trkpt>
      <trkpt lat="42.87416" lon="0.20114">
        <ele>2480</ele>
        <time>2013-04-07T10:19:34Z</time>
      </trkpt>
      <trkpt lat="42.87417" lon="0.20112">
        <ele>2480</ele>
        <time>2013-04-07T10:19:36Z</time>
      </trkpt>
      <trkpt lat="42.87418" lon="0.2011">
        <ele>2480</ele>
        <time>2013-04-07T10:19:38Z</time>
      </trkpt>
      <trkpt lat="42.87419" lon="0.20109">
        <ele>2480</ele>
        <time>2013-04-07T10:19:40Z</time>
      </trkpt>
      <trkpt lat="42.87419" lon="0.20107">
        <ele>2481</ele>
        <time>2013-04-07T10:19:45Z</time>
      </trkpt>
      <trkpt lat="42.8742" lon="0.20106">
        <ele>2481</ele>
        <time>2013-04-07T10:19:47Z</time>
      </trkpt>
      <trkpt lat="42.87421" lon="0.20104">
        <ele>2481</ele>
        <time>2013-04-07T10:19:49Z</time>
      </trkpt>
      <trkpt lat="42.87421" lon="0.20102">
        <ele>2482</ele>
        <time>2013-04-07T10:19:51Z</time>
      </trkpt>
      <trkpt lat="42.87421" lon="0.20101">
        <ele>2482</ele>
        <time>2013-04-07T10:19:53Z</time>
      </trkpt>
      <trkpt lat="42.87422" lon="0.20099">
        <ele>2482</ele>
        <time>2013-04-07T10:19:55Z</time>
      </trkpt>
      <trkpt lat="42.87423" lon="0.20098">
        <ele>2483</ele>
        <time>2013-04-07T10:19:57Z</time>
      </trkpt>
      <trkpt lat="42.87423" lon="0.20096">
        <ele>2483</ele>
        <time>2013-04-07T10:19:59Z</time>
      </trkpt>
      <trkpt lat="42.87424" lon="0.20094">
        <ele>2484</ele>
        <time>2013-04-07T10:20:01Z</time>
      </trkpt>
      <trkpt lat="42.87424" lon="0.20093">
        <ele>2484</ele>
        <time>2013-04-07T10:20:03Z</time>
      </trkpt>
      <trkpt lat="42.87425" lon="0.20091">
        <ele>2486</ele>
        <time>2013-04-07T10:20:29Z</time>
      </trkpt>
      <trkpt lat="42.87425" lon="0.2009">
        <ele>2486</ele>
        <time>2013-04-07T10:20:31Z</time>
      </trkpt>
      <trkpt lat="42.87425" lon="0.20088">
        <ele>2486</ele>
        <time>2013-04-07T10:20:33Z</time>
      </trkpt>
      <trkpt lat="42.87426" lon="0.20086">
        <ele>2486</ele>
        <time>2013-04-07T10:20:35Z</time>
      </trkpt>
      <trkpt lat="42.87426" lon="0.20084">
        <ele>2487</ele>
        <time>2013-04-07T10:20:37Z</time>
      </trkpt>
      <trkpt lat="42.87426" lon="0.20082">
        <ele>2487</ele>
        <time>2013-04-07T10:20:40Z</time>
      </trkpt>
      <trkpt lat="42.87426" lon="0.2008">
        <ele>2487</ele>
        <time>2013-04-07T10:20:43Z</time>
      </trkpt>
      <trkpt lat="42.87424" lon="0.20081">
        <ele>2488</ele>
        <time>2013-04-07T10:20:52Z</time>
      </trkpt>
      <trkpt lat="42.87423" lon="0.20083">
        <ele>2488</ele>
        <time>2013-04-07T10:20:56Z</time>
      </trkpt>
      <trkpt lat="42.87422" lon="0.20084">
        <ele>2489</ele>
        <time>2013-04-07T10:20:59Z</time>
      </trkpt>
      <trkpt lat="42.8742" lon="0.20086">
        <ele>2489</ele>
        <time>2013-04-07T10:21:01Z</time>
      </trkpt>
      <trkpt lat="42.87419" lon="0.20087">
        <ele>2490</ele>
        <time>2013-04-07T10:21:04Z</time>
      </trkpt>
      <trkpt lat="42.87418" lon="0.20088">
        <ele>2491</ele>
        <time>2013-04-07T10:21:09Z</time>
      </trkpt>
      <trkpt lat="42.87418" lon="0.20086">
        <ele>2491</ele>
        <time>2013-04-07T10:21:38Z</time>
      </trkpt>
      <trkpt lat="42.87418" lon="0.20085">
        <ele>2491</ele>
        <time>2013-04-07T10:21:48Z</time>
      </trkpt>
      <trkpt lat="42.87418" lon="0.20086">
        <ele>2491</ele>
        <time>2013-04-07T10:21:55Z</time>
      </trkpt>
      <trkpt lat="42.87417" lon="0.20088">
        <ele>2491</ele>
        <time>2013-04-07T10:22:04Z</time>
      </trkpt>
      <trkpt lat="42.87415" lon="0.20089">
        <ele>2491</ele>
        <time>2013-04-07T10:22:18Z</time>
      </trkpt>
      <trkpt lat="42.87414" lon="0.20089">
        <ele>2491</ele>
        <time>2013-04-07T10:22:20Z</time>
      </trkpt>
      <trkpt lat="42.87413" lon="0.20091">
        <ele>2491</ele>
        <time>2013-04-07T10:22:23Z</time>
      </trkpt>
      <trkpt lat="42.87412" lon="0.20092">
        <ele>2491</ele>
        <time>2013-04-07T10:22:26Z</time>
      </trkpt>
      <trkpt lat="42.87411" lon="0.20094">
        <ele>2491</ele>
        <time>2013-04-07T10:22:28Z</time>
      </trkpt>
      <trkpt lat="42.87411" lon="0.20096">
        <ele>2491</ele>
        <time>2013-04-07T10:22:31Z</time>
      </trkpt>
      <trkpt lat="42.87411" lon="0.20094">
        <ele>2491</ele>
        <time>2013-04-07T10:23:21Z</time>
      </trkpt>
      <trkpt lat="42.87411" lon="0.20096">
        <ele>2491</ele>
        <time>2013-04-07T10:23:38Z</time>
      </trkpt>
      <trkpt lat="42.8741" lon="0.20096">
        <ele>2496</ele>
        <time>2013-04-07T10:26:59Z</time>
      </trkpt>
      <trkpt lat="42.87412" lon="0.20097">
        <ele>2496</ele>
        <time>2013-04-07T10:27:33Z</time>
      </trkpt>
      <trkpt lat="42.87411" lon="0.20095">
        <ele>2496</ele>
        <time>2013-04-07T10:28:26Z</time>
      </trkpt>
      <trkpt lat="42.87411" lon="0.20094">
        <ele>2496</ele>
        <time>2013-04-07T10:29:07Z</time>
      </trkpt>
      <trkpt lat="42.87411" lon="0.20092">
        <ele>2493</ele>
        <time>2013-04-07T10:29:41Z</time>
      </trkpt>
      <trkpt lat="42.87412" lon="0.20094">
        <ele>2492</ele>
        <time>2013-04-07T10:30:06Z</time>
      </trkpt>
      <trkpt lat="42.87413" lon="0.20092">
        <ele>2492</ele>
        <time>2013-04-07T10:30:26Z</time>
      </trkpt>
      <trkpt lat="42.87413" lon="0.2009">
        <ele>2492</ele>
        <time>2013-04-07T10:30:30Z</time>
      </trkpt>
      <trkpt lat="42.87412" lon="0.2009">
        <ele>2492</ele>
        <time>2013-04-07T10:30:36Z</time>
      </trkpt>
      <trkpt lat="42.8741" lon="0.2009">
        <ele>2492</ele>
        <time>2013-04-07T10:30:39Z</time>
      </trkpt>
      <trkpt lat="42.87409" lon="0.20091">
        <ele>2492</ele>
        <time>2013-04-07T10:30:41Z</time>
      </trkpt>
      <trkpt lat="42.87408" lon="0.20091">
        <ele>2492</ele>
        <time>2013-04-07T10:30:43Z</time>
      </trkpt>
      <trkpt lat="42.87407" lon="0.20092">
        <ele>2492</ele>
        <time>2013-04-07T10:30:45Z</time>
      </trkpt>
      <trkpt lat="42.87405" lon="0.20092">
        <ele>2492</ele>
        <time>2013-04-07T10:30:47Z</time>
      </trkpt>
      <trkpt lat="42.87405" lon="0.2009">
        <ele>2493</ele>
        <time>2013-04-07T10:31:07Z</time>
      </trkpt>
      <trkpt lat="42.87407" lon="0.20089">
        <ele>2494</ele>
        <time>2013-04-07T10:31:11Z</time>
      </trkpt>
      <trkpt lat="42.87408" lon="0.20087">
        <ele>2494</ele>
        <time>2013-04-07T10:31:16Z</time>
      </trkpt>
      <trkpt lat="42.87409" lon="0.20086">
        <ele>2494</ele>
        <time>2013-04-07T10:31:20Z</time>
      </trkpt>
      <trkpt lat="42.87409" lon="0.20084">
        <ele>2496</ele>
        <time>2013-04-07T10:31:34Z</time>
      </trkpt>
      <trkpt lat="42.87407" lon="0.20085">
        <ele>2496</ele>
        <time>2013-04-07T10:31:37Z</time>
      </trkpt>
      <trkpt lat="42.87406" lon="0.20085">
        <ele>2497</ele>
        <time>2013-04-07T10:31:42Z</time>
      </trkpt>
      <trkpt lat="42.87405" lon="0.20085">
        <ele>2497</ele>
        <time>2013-04-07T10:31:45Z</time>
      </trkpt>
      <trkpt lat="42.87405" lon="0.20083">
        <ele>2497</ele>
        <time>2013-04-07T10:31:51Z</time>
      </trkpt>
      <trkpt lat="42.87407" lon="0.20082">
        <ele>2498</ele>
        <time>2013-04-07T10:32:06Z</time>
      </trkpt>
      <trkpt lat="42.87406" lon="0.20081">
        <ele>2498</ele>
        <time>2013-04-07T10:32:10Z</time>
      </trkpt>
      <trkpt lat="42.87405" lon="0.2008">
        <ele>2498</ele>
        <time>2013-04-07T10:32:12Z</time>
      </trkpt>
      <trkpt lat="42.87404" lon="0.2008">
        <ele>2499</ele>
        <time>2013-04-07T10:32:19Z</time>
      </trkpt>
      <trkpt lat="42.87402" lon="0.2008">
        <ele>2499</ele>
        <time>2013-04-07T10:32:22Z</time>
      </trkpt>
      <trkpt lat="42.87401" lon="0.2008">
        <ele>2500</ele>
        <time>2013-04-07T10:32:25Z</time>
      </trkpt>
      <trkpt lat="42.874" lon="0.20079">
        <ele>2500</ele>
        <time>2013-04-07T10:32:53Z</time>
      </trkpt>
      <trkpt lat="42.87399" lon="0.20078">
        <ele>2501</ele>
        <time>2013-04-07T10:32:59Z</time>
      </trkpt>
      <trkpt lat="42.874" lon="0.20076">
        <ele>2502</ele>
        <time>2013-04-07T10:33:05Z</time>
      </trkpt>
      <trkpt lat="42.874" lon="0.20075">
        <ele>2502</ele>
        <time>2013-04-07T10:33:10Z</time>
      </trkpt>
      <trkpt lat="42.87399" lon="0.20073">
        <ele>2504</ele>
        <time>2013-04-07T10:33:16Z</time>
      </trkpt>
      <trkpt lat="42.87397" lon="0.20072">
        <ele>2505</ele>
        <time>2013-04-07T10:33:20Z</time>
      </trkpt>
      <trkpt lat="42.87397" lon="0.20071">
        <ele>2505</ele>
        <time>2013-04-07T10:33:49Z</time>
      </trkpt>
      <trkpt lat="42.87398" lon="0.20069">
        <ele>2507</ele>
        <time>2013-04-07T10:33:59Z</time>
      </trkpt>
      <trkpt lat="42.87398" lon="0.20068">
        <ele>2508</ele>
        <time>2013-04-07T10:34:05Z</time>
      </trkpt>
      <trkpt lat="42.87398" lon="0.20066">
        <ele>2508</ele>
        <time>2013-04-07T10:34:11Z</time>
      </trkpt>
      <trkpt lat="42.87397" lon="0.20065">
        <ele>2509</ele>
        <time>2013-04-07T10:34:18Z</time>
      </trkpt>
      <trkpt lat="42.87397" lon="0.20063">
        <ele>2512</ele>
        <time>2013-04-07T10:34:39Z</time>
      </trkpt>
      <trkpt lat="42.87396" lon="0.20062">
        <ele>2512</ele>
        <time>2013-04-07T10:35:00Z</time>
      </trkpt>
      <trkpt lat="42.87395" lon="0.2006">
        <ele>2513</ele>
        <time>2013-04-07T10:35:07Z</time>
      </trkpt>
      <trkpt lat="42.87395" lon="0.20059">
        <ele>2514</ele>
        <time>2013-04-07T10:35:12Z</time>
      </trkpt>
      <trkpt lat="42.87395" lon="0.20057">
        <ele>2514</ele>
        <time>2013-04-07T10:35:15Z</time>
      </trkpt>
      <trkpt lat="42.87396" lon="0.20055">
        <ele>2516</ele>
        <time>2013-04-07T10:35:19Z</time>
      </trkpt>
      <trkpt lat="42.87396" lon="0.20054">
        <ele>2517</ele>
        <time>2013-04-07T10:35:23Z</time>
      </trkpt>
      <trkpt lat="42.87397" lon="0.20053">
        <ele>2519</ele>
        <time>2013-04-07T10:35:52Z</time>
      </trkpt>
      <trkpt lat="42.87398" lon="0.20052">
        <ele>2519</ele>
        <time>2013-04-07T10:36:04Z</time>
      </trkpt>
      <trkpt lat="42.87399" lon="0.2005">
        <ele>2519</ele>
        <time>2013-04-07T10:36:09Z</time>
      </trkpt>
      <trkpt lat="42.87399" lon="0.20049">
        <ele>2520</ele>
        <time>2013-04-07T10:36:16Z</time>
      </trkpt>
      <trkpt lat="42.87399" lon="0.20047">
        <ele>2521</ele>
        <time>2013-04-07T10:36:20Z</time>
      </trkpt>
      <trkpt lat="42.874" lon="0.20045">
        <ele>2521</ele>
        <time>2013-04-07T10:36:24Z</time>
      </trkpt>
      <trkpt lat="42.87399" lon="0.20043">
        <ele>2522</ele>
        <time>2013-04-07T10:36:28Z</time>
      </trkpt>
      <trkpt lat="42.87398" lon="0.20043">
        <ele>2523</ele>
        <time>2013-04-07T10:36:42Z</time>
      </trkpt>
      <trkpt lat="42.87398" lon="0.20041">
        <ele>2523</ele>
        <time>2013-04-07T10:37:06Z</time>
      </trkpt>
      <trkpt lat="42.87397" lon="0.2004">
        <ele>2524</ele>
        <time>2013-04-07T10:37:10Z</time>
      </trkpt>
      <trkpt lat="42.87397" lon="0.20038">
        <ele>2525</ele>
        <time>2013-04-07T10:37:21Z</time>
      </trkpt>
      <trkpt lat="42.87397" lon="0.20037">
        <ele>2525</ele>
        <time>2013-04-07T10:37:25Z</time>
      </trkpt>
      <trkpt lat="42.87397" lon="0.20035">
        <ele>2526</ele>
        <time>2013-04-07T10:37:31Z</time>
      </trkpt>
      <trkpt lat="42.87397" lon="0.20034">
        <ele>2526</ele>
        <time>2013-04-07T10:37:34Z</time>
      </trkpt>
      <trkpt lat="42.87397" lon="0.20032">
        <ele>2526</ele>
        <time>2013-04-07T10:37:37Z</time>
      </trkpt>
      <trkpt lat="42.87397" lon="0.2003">
        <ele>2527</ele>
        <time>2013-04-07T10:38:19Z</time>
      </trkpt>
      <trkpt lat="42.87397" lon="0.20029">
        <ele>2527</ele>
        <time>2013-04-07T10:38:22Z</time>
      </trkpt>
      <trkpt lat="42.87397" lon="0.20027">
        <ele>2528</ele>
        <time>2013-04-07T10:38:26Z</time>
      </trkpt>
      <trkpt lat="42.87398" lon="0.20025">
        <ele>2528</ele>
        <time>2013-04-07T10:38:31Z</time>
      </trkpt>
      <trkpt lat="42.87398" lon="0.20023">
        <ele>2528</ele>
        <time>2013-04-07T10:38:35Z</time>
      </trkpt>
      <trkpt lat="42.87399" lon="0.20022">
        <ele>2529</ele>
        <time>2013-04-07T10:38:39Z</time>
      </trkpt>
      <trkpt lat="42.87399" lon="0.2002">
        <ele>2529</ele>
        <time>2013-04-07T10:38:43Z</time>
      </trkpt>
      <trkpt lat="42.87399" lon="0.20019">
        <ele>2530</ele>
        <time>2013-04-07T10:38:46Z</time>
      </trkpt>
      <trkpt lat="42.87399" lon="0.20017">
        <ele>2530</ele>
        <time>2013-04-07T10:38:49Z</time>
      </trkpt>
      <trkpt lat="42.87399" lon="0.20016">
        <ele>2531</ele>
        <time>2013-04-07T10:38:52Z</time>
      </trkpt>
      <trkpt lat="42.87398" lon="0.20014">
        <ele>2532</ele>
        <time>2013-04-07T10:38:56Z</time>
      </trkpt>
      <trkpt lat="42.87397" lon="0.20012">
        <ele>2533</ele>
        <time>2013-04-07T10:39:45Z</time>
      </trkpt>
      <trkpt lat="42.87396" lon="0.20011">
        <ele>2533</ele>
        <time>2013-04-07T10:39:49Z</time>
      </trkpt>
      <trkpt lat="42.87396" lon="0.20009">
        <ele>2533</ele>
        <time>2013-04-07T10:39:53Z</time>
      </trkpt>
      <trkpt lat="42.87395" lon="0.20008">
        <ele>2533</ele>
        <time>2013-04-07T10:39:57Z</time>
      </trkpt>
      <trkpt lat="42.87395" lon="0.20006">
        <ele>2534</ele>
        <time>2013-04-07T10:40:01Z</time>
      </trkpt>
      <trkpt lat="42.87394" lon="0.20005">
        <ele>2535</ele>
        <time>2013-04-07T10:40:07Z</time>
      </trkpt>
      <trkpt lat="42.87394" lon="0.20003">
        <ele>2536</ele>
        <time>2013-04-07T10:40:11Z</time>
      </trkpt>
      <trkpt lat="42.87394" lon="0.20002">
        <ele>2537</ele>
        <time>2013-04-07T10:40:16Z</time>
      </trkpt>
      <trkpt lat="42.87395" lon="0.20001">
        <ele>2538</ele>
        <time>2013-04-07T10:40:53Z</time>
      </trkpt>
      <trkpt lat="42.87397" lon="0.2">
        <ele>2540</ele>
        <time>2013-04-07T10:41:09Z</time>
      </trkpt>
      <trkpt lat="42.87398" lon="0.2">
        <ele>2541</ele>
        <time>2013-04-07T10:41:16Z</time>
      </trkpt>
      <trkpt lat="42.87399" lon="0.2">
        <ele>2542</ele>
        <time>2013-04-07T10:41:40Z</time>
      </trkpt>
      <trkpt lat="42.874" lon="0.19998">
        <ele>2542</ele>
        <time>2013-04-07T10:41:59Z</time>
      </trkpt>
      <trkpt lat="42.87399" lon="0.19998">
        <ele>2542</ele>
        <time>2013-04-07T10:42:08Z</time>
      </trkpt>
      <trkpt lat="42.87397" lon="0.19998">
        <ele>2542</ele>
        <time>2013-04-07T10:42:33Z</time>
      </trkpt>
      <trkpt lat="42.87398" lon="0.19996">
        <ele>2543</ele>
        <time>2013-04-07T10:42:48Z</time>
      </trkpt>
      <trkpt lat="42.87397" lon="0.19995">
        <ele>2544</ele>
        <time>2013-04-07T10:42:59Z</time>
      </trkpt>
      <trkpt lat="42.87396" lon="0.19994">
        <ele>2545</ele>
        <time>2013-04-07T10:43:26Z</time>
      </trkpt>
      <trkpt lat="42.87396" lon="0.19992">
        <ele>2545</ele>
        <time>2013-04-07T10:43:30Z</time>
      </trkpt>
      <trkpt lat="42.87396" lon="0.19993">
        <ele>2547</ele>
        <time>2013-04-07T10:44:11Z</time>
      </trkpt>
      <trkpt lat="42.87396" lon="0.19992">
        <ele>2547</ele>
        <time>2013-04-07T10:44:40Z</time>
      </trkpt>
      <trkpt lat="42.87397" lon="0.1999">
        <ele>2547</ele>
        <time>2013-04-07T10:44:46Z</time>
      </trkpt>
      <trkpt lat="42.87398" lon="0.19989">
        <ele>2548</ele>
        <time>2013-04-07T10:44:49Z</time>
      </trkpt>
      <trkpt lat="42.87397" lon="0.19987">
        <ele>2549</ele>
        <time>2013-04-07T10:44:54Z</time>
      </trkpt>
      <trkpt lat="42.87397" lon="0.19986">
        <ele>2549</ele>
        <time>2013-04-07T10:44:58Z</time>
      </trkpt>
      <trkpt lat="42.87397" lon="0.19984">
        <ele>2550</ele>
        <time>2013-04-07T10:45:18Z</time>
      </trkpt>
      <trkpt lat="42.87397" lon="0.19983">
        <ele>2551</ele>
        <time>2013-04-07T10:45:24Z</time>
      </trkpt>
      <trkpt lat="42.87397" lon="0.19981">
        <ele>2552</ele>
        <time>2013-04-07T10:45:40Z</time>
      </trkpt>
      <trkpt lat="42.87397" lon="0.1998">
        <ele>2556</ele>
        <time>2013-04-07T10:46:30Z</time>
      </trkpt>
      <trkpt lat="42.87397" lon="0.19978">
        <ele>2556</ele>
        <time>2013-04-07T10:46:38Z</time>
      </trkpt>
      <trkpt lat="42.87398" lon="0.19976">
        <ele>2556</ele>
        <time>2013-04-07T10:46:47Z</time>
      </trkpt>
      <trkpt lat="42.87397" lon="0.19974">
        <ele>2558</ele>
        <time>2013-04-07T10:47:09Z</time>
      </trkpt>
      <trkpt lat="42.87397" lon="0.19973">
        <ele>2559</ele>
        <time>2013-04-07T10:47:16Z</time>
      </trkpt>
      <trkpt lat="42.87396" lon="0.19972">
        <ele>2561</ele>
        <time>2013-04-07T10:47:29Z</time>
      </trkpt>
      <trkpt lat="42.87395" lon="0.1997">
        <ele>2561</ele>
        <time>2013-04-07T10:47:35Z</time>
      </trkpt>
      <trkpt lat="42.87395" lon="0.19969">
        <ele>2562</ele>
        <time>2013-04-07T10:47:39Z</time>
      </trkpt>
      <trkpt lat="42.87394" lon="0.19969">
        <ele>2563</ele>
        <time>2013-04-07T10:48:04Z</time>
      </trkpt>
      <trkpt lat="42.87394" lon="0.19967">
        <ele>2563</ele>
        <time>2013-04-07T10:48:24Z</time>
      </trkpt>
      <trkpt lat="42.87394" lon="0.19965">
        <ele>2563</ele>
        <time>2013-04-07T10:48:28Z</time>
      </trkpt>
      <trkpt lat="42.87393" lon="0.19963">
        <ele>2563</ele>
        <time>2013-04-07T10:48:32Z</time>
      </trkpt>
      <trkpt lat="42.87393" lon="0.19962">
        <ele>2563</ele>
        <time>2013-04-07T10:48:36Z</time>
      </trkpt>
      <trkpt lat="42.87392" lon="0.1996">
        <ele>2563</ele>
        <time>2013-04-07T10:48:39Z</time>
      </trkpt>
      <trkpt lat="42.87391" lon="0.19959">
        <ele>2564</ele>
        <time>2013-04-07T10:48:43Z</time>
      </trkpt>
      <trkpt lat="42.87391" lon="0.19957">
        <ele>2565</ele>
        <time>2013-04-07T10:48:46Z</time>
      </trkpt>
      <trkpt lat="42.8739" lon="0.19955">
        <ele>2565</ele>
        <time>2013-04-07T10:48:49Z</time>
      </trkpt>
      <trkpt lat="42.87389" lon="0.19954">
        <ele>2566</ele>
        <time>2013-04-07T10:49:02Z</time>
      </trkpt>
      <trkpt lat="42.87388" lon="0.19952">
        <ele>2566</ele>
        <time>2013-04-07T10:49:35Z</time>
      </trkpt>
      <trkpt lat="42.87389" lon="0.19954">
        <ele>2568</ele>
        <time>2013-04-07T10:50:16Z</time>
      </trkpt>
    </trkseg>
  </trk>
</gpx>